<?xml version="1.0" encoding="UTF-8" standalone="no" ?>
<gpx xmlns="http://www.topografix.com/GPX/1/1" xmlns:xsi="http://www.w3.org/2001/XMLSchema-instance" xsi:schemaLocation="http://www.topografix.com/GPX/1/1 http://www.topografix.com/GPX/1/1/gpx.xsd" version="1.1" creator="VisuGPX - https://www.visugpx.com">
  <metadata>
    <name>Peyruis VTT électrique</name>
    <desc><![CDATA[viencent,maurice,christian ,bruno]]></desc>
  </metadata>
  <trk>
    <name><![CDATA[Peyruis VTT électrique]]></name>
    <trkseg>
      <trkpt lat="44.02879" lon="5.93852">
        <ele>590.20001220703</ele>
        <time>2022-01-02T07:48:01.000Z</time>
      </trkpt>
      <trkpt lat="44.02879" lon="5.93852">
        <ele>590.59997558594</ele>
        <time>2022-01-02T07:48:01.000Z</time>
      </trkpt>
      <trkpt lat="44.02885" lon="5.9385">
        <ele>588.40002441406</ele>
        <time>2022-01-02T07:48:01.002Z</time>
      </trkpt>
      <trkpt lat="44.02889" lon="5.93852">
        <ele>588.20001220703</ele>
        <time>2022-01-02T07:48:01.005Z</time>
      </trkpt>
      <trkpt lat="44.02902" lon="5.93853">
        <ele>588</ele>
        <time>2022-01-02T07:48:01.012Z</time>
      </trkpt>
      <trkpt lat="44.02928" lon="5.9386">
        <ele>587.59997558594</ele>
        <time>2022-01-02T07:48:01.026Z</time>
      </trkpt>
      <trkpt lat="44.02957" lon="5.93868">
        <ele>588.40002441406</ele>
        <time>2022-01-02T07:48:01.048Z</time>
      </trkpt>
      <trkpt lat="44.02985" lon="5.93872">
        <ele>588.79998779297</ele>
        <time>2022-01-02T07:48:01.078Z</time>
      </trkpt>
      <trkpt lat="44.03007" lon="5.93873">
        <ele>589.59997558594</ele>
        <time>2022-01-02T07:48:01.114Z</time>
      </trkpt>
      <trkpt lat="44.0303" lon="5.93876">
        <ele>590</ele>
        <time>2022-01-02T07:48:01.157Z</time>
      </trkpt>
      <trkpt lat="44.03052" lon="5.93883">
        <ele>590.20001220703</ele>
        <time>2022-01-02T07:48:01.206Z</time>
      </trkpt>
      <trkpt lat="44.03072" lon="5.93879">
        <ele>590.59997558594</ele>
        <time>2022-01-02T07:48:01.261Z</time>
      </trkpt>
      <trkpt lat="44.03088" lon="5.93866">
        <ele>591.40002441406</ele>
        <time>2022-01-02T07:48:01.321Z</time>
      </trkpt>
      <trkpt lat="44.03098" lon="5.93839">
        <ele>592.40002441406</ele>
        <time>2022-01-02T07:48:01.387Z</time>
      </trkpt>
      <trkpt lat="44.03102" lon="5.93831">
        <ele>593</ele>
        <time>2022-01-02T07:48:01.455Z</time>
      </trkpt>
      <trkpt lat="44.03111" lon="5.93817">
        <ele>593.40002441406</ele>
        <time>2022-01-02T07:48:01.527Z</time>
      </trkpt>
      <trkpt lat="44.03125" lon="5.93815">
        <ele>593.40002441406</ele>
        <time>2022-01-02T07:48:01.603Z</time>
      </trkpt>
      <trkpt lat="44.03146" lon="5.93824">
        <ele>593.20001220703</ele>
        <time>2022-01-02T07:48:01.685Z</time>
      </trkpt>
      <trkpt lat="44.03165" lon="5.9384">
        <ele>593.20001220703</ele>
        <time>2022-01-02T07:48:01.773Z</time>
      </trkpt>
      <trkpt lat="44.03184" lon="5.93852">
        <ele>594.40002441406</ele>
        <time>2022-01-02T07:48:01.868Z</time>
      </trkpt>
      <trkpt lat="44.03205" lon="5.93856">
        <ele>595.20001220703</ele>
        <time>2022-01-02T07:48:01.968Z</time>
      </trkpt>
      <trkpt lat="44.03215" lon="5.93857">
        <ele>596.40002441406</ele>
        <time>2022-01-02T07:48:02.071Z</time>
      </trkpt>
      <trkpt lat="44.03233" lon="5.93858">
        <ele>597.59997558594</ele>
        <time>2022-01-02T07:48:02.179Z</time>
      </trkpt>
      <trkpt lat="44.03236" lon="5.93858">
        <ele>598</ele>
        <time>2022-01-02T07:48:02.288Z</time>
      </trkpt>
      <trkpt lat="44.03255" lon="5.93851">
        <ele>598.79998779297</ele>
        <time>2022-01-02T07:48:02.403Z</time>
      </trkpt>
      <trkpt lat="44.03261" lon="5.93834">
        <ele>600</ele>
        <time>2022-01-02T07:48:02.521Z</time>
      </trkpt>
      <trkpt lat="44.03261" lon="5.9383">
        <ele>600.40002441406</ele>
        <time>2022-01-02T07:48:02.640Z</time>
      </trkpt>
      <trkpt lat="44.03262" lon="5.93824">
        <ele>601.40002441406</ele>
        <time>2022-01-02T07:48:02.760Z</time>
      </trkpt>
      <trkpt lat="44.03265" lon="5.9381">
        <ele>602.40002441406</ele>
        <time>2022-01-02T07:48:02.883Z</time>
      </trkpt>
      <trkpt lat="44.03266" lon="5.93806">
        <ele>602.59997558594</ele>
        <time>2022-01-02T07:48:03.007Z</time>
      </trkpt>
      <trkpt lat="44.03268" lon="5.93795">
        <ele>603.40002441406</ele>
        <time>2022-01-02T07:48:03.133Z</time>
      </trkpt>
      <trkpt lat="44.0327" lon="5.9378">
        <ele>604.20001220703</ele>
        <time>2022-01-02T07:48:03.263Z</time>
      </trkpt>
      <trkpt lat="44.03275" lon="5.93757">
        <ele>605.79998779297</ele>
        <time>2022-01-02T07:48:03.398Z</time>
      </trkpt>
      <trkpt lat="44.03276" lon="5.93753">
        <ele>606</ele>
        <time>2022-01-02T07:48:03.533Z</time>
      </trkpt>
      <trkpt lat="44.03279" lon="5.93733">
        <ele>607.20001220703</ele>
        <time>2022-01-02T07:48:03.673Z</time>
      </trkpt>
      <trkpt lat="44.03281" lon="5.93721">
        <ele>607.79998779297</ele>
        <time>2022-01-02T07:48:03.815Z</time>
      </trkpt>
      <trkpt lat="44.03284" lon="5.93704">
        <ele>608.79998779297</ele>
        <time>2022-01-02T07:48:03.960Z</time>
      </trkpt>
      <trkpt lat="44.03287" lon="5.93684">
        <ele>610</ele>
        <time>2022-01-02T07:48:04.110Z</time>
      </trkpt>
      <trkpt lat="44.03289" lon="5.93676">
        <ele>610.59997558594</ele>
        <time>2022-01-02T07:48:04.261Z</time>
      </trkpt>
      <trkpt lat="44.03293" lon="5.93656">
        <ele>611.59997558594</ele>
        <time>2022-01-02T07:48:04.417Z</time>
      </trkpt>
      <trkpt lat="44.03297" lon="5.9364">
        <ele>612.79998779297</ele>
        <time>2022-01-02T07:48:04.576Z</time>
      </trkpt>
      <trkpt lat="44.03306" lon="5.93631">
        <ele>613.59997558594</ele>
        <time>2022-01-02T07:48:04.738Z</time>
      </trkpt>
      <trkpt lat="44.03317" lon="5.93628">
        <ele>614.40002441406</ele>
        <time>2022-01-02T07:48:04.903Z</time>
      </trkpt>
      <trkpt lat="44.03328" lon="5.93625">
        <ele>615.20001220703</ele>
        <time>2022-01-02T07:48:05.071Z</time>
      </trkpt>
      <trkpt lat="44.03336" lon="5.93621">
        <ele>616</ele>
        <time>2022-01-02T07:48:05.242Z</time>
      </trkpt>
      <trkpt lat="44.03346" lon="5.93614">
        <ele>616.59997558594</ele>
        <time>2022-01-02T07:48:05.416Z</time>
      </trkpt>
      <trkpt lat="44.0335" lon="5.9361">
        <ele>617.40002441406</ele>
        <time>2022-01-02T07:48:05.591Z</time>
      </trkpt>
      <trkpt lat="44.03361" lon="5.93596">
        <ele>618.59997558594</ele>
        <time>2022-01-02T07:48:05.771Z</time>
      </trkpt>
      <trkpt lat="44.03369" lon="5.93577">
        <ele>620</ele>
        <time>2022-01-02T07:48:05.955Z</time>
      </trkpt>
      <trkpt lat="44.03371" lon="5.9357">
        <ele>620.59997558594</ele>
        <time>2022-01-02T07:48:06.141Z</time>
      </trkpt>
      <trkpt lat="44.03372" lon="5.93566">
        <ele>620.59997558594</ele>
        <time>2022-01-02T07:48:06.327Z</time>
      </trkpt>
      <trkpt lat="44.03375" lon="5.93555">
        <ele>621.59997558594</ele>
        <time>2022-01-02T07:48:06.516Z</time>
      </trkpt>
      <trkpt lat="44.0338" lon="5.9354">
        <ele>622.40002441406</ele>
        <time>2022-01-02T07:48:06.708Z</time>
      </trkpt>
      <trkpt lat="44.03383" lon="5.93533">
        <ele>623</ele>
        <time>2022-01-02T07:48:06.902Z</time>
      </trkpt>
      <trkpt lat="44.03392" lon="5.93523">
        <ele>623.79998779297</ele>
        <time>2022-01-02T07:48:07.099Z</time>
      </trkpt>
      <trkpt lat="44.03406" lon="5.93527">
        <ele>624.40002441406</ele>
        <time>2022-01-02T07:48:07.300Z</time>
      </trkpt>
      <trkpt lat="44.03421" lon="5.93537">
        <ele>624.79998779297</ele>
        <time>2022-01-02T07:48:07.506Z</time>
      </trkpt>
      <trkpt lat="44.03427" lon="5.93539">
        <ele>624.79998779297</ele>
        <time>2022-01-02T07:48:07.713Z</time>
      </trkpt>
      <trkpt lat="44.03449" lon="5.93542">
        <ele>625.20001220703</ele>
        <time>2022-01-02T07:48:07.927Z</time>
      </trkpt>
      <trkpt lat="44.03472" lon="5.93555">
        <ele>625.59997558594</ele>
        <time>2022-01-02T07:48:08.148Z</time>
      </trkpt>
      <trkpt lat="44.03491" lon="5.93564">
        <ele>625.40002441406</ele>
        <time>2022-01-02T07:48:08.374Z</time>
      </trkpt>
      <trkpt lat="44.03515" lon="5.93577">
        <ele>626.79998779297</ele>
        <time>2022-01-02T07:48:08.608Z</time>
      </trkpt>
      <trkpt lat="44.03539" lon="5.93579">
        <ele>628</ele>
        <time>2022-01-02T07:48:08.848Z</time>
      </trkpt>
      <trkpt lat="44.03542" lon="5.93579">
        <ele>628.20001220703</ele>
        <time>2022-01-02T07:48:09.089Z</time>
      </trkpt>
      <trkpt lat="44.03557" lon="5.93582">
        <ele>629.59997558594</ele>
        <time>2022-01-02T07:48:09.334Z</time>
      </trkpt>
      <trkpt lat="44.03564" lon="5.93583">
        <ele>630</ele>
        <time>2022-01-02T07:48:09.581Z</time>
      </trkpt>
      <trkpt lat="44.03589" lon="5.93578">
        <ele>631.40002441406</ele>
        <time>2022-01-02T07:48:09.835Z</time>
      </trkpt>
      <trkpt lat="44.03603" lon="5.93565">
        <ele>632</ele>
        <time>2022-01-02T07:48:10.094Z</time>
      </trkpt>
      <trkpt lat="44.03608" lon="5.93558">
        <ele>633.20001220703</ele>
        <time>2022-01-02T07:48:10.355Z</time>
      </trkpt>
      <trkpt lat="44.03612" lon="5.93553">
        <ele>634.40002441406</ele>
        <time>2022-01-02T07:48:10.618Z</time>
      </trkpt>
      <trkpt lat="44.03617" lon="5.93548">
        <ele>635.79998779297</ele>
        <time>2022-01-02T07:48:10.882Z</time>
      </trkpt>
      <trkpt lat="44.03619" lon="5.93546">
        <ele>636.20001220703</ele>
        <time>2022-01-02T07:48:11.147Z</time>
      </trkpt>
      <trkpt lat="44.03623" lon="5.93541">
        <ele>636.59997558594</ele>
        <time>2022-01-02T07:48:11.414Z</time>
      </trkpt>
      <trkpt lat="44.03625" lon="5.93537">
        <ele>637.20001220703</ele>
        <time>2022-01-02T07:48:11.682Z</time>
      </trkpt>
      <trkpt lat="44.03627" lon="5.93534">
        <ele>637.40002441406</ele>
        <time>2022-01-02T07:48:11.951Z</time>
      </trkpt>
      <trkpt lat="44.03636" lon="5.93528">
        <ele>638.40002441406</ele>
        <time>2022-01-02T07:48:12.222Z</time>
      </trkpt>
      <trkpt lat="44.0364" lon="5.93527">
        <ele>638.40002441406</ele>
        <time>2022-01-02T07:48:12.494Z</time>
      </trkpt>
      <trkpt lat="44.0365" lon="5.93524">
        <ele>638.40002441406</ele>
        <time>2022-01-02T07:48:12.769Z</time>
      </trkpt>
      <trkpt lat="44.03653" lon="5.93525">
        <ele>638</ele>
        <time>2022-01-02T07:48:13.045Z</time>
      </trkpt>
      <trkpt lat="44.03655" lon="5.93527">
        <ele>637.79998779297</ele>
        <time>2022-01-02T07:48:13.322Z</time>
      </trkpt>
      <trkpt lat="44.03657" lon="5.93534">
        <ele>637.59997558594</ele>
        <time>2022-01-02T07:48:13.600Z</time>
      </trkpt>
      <trkpt lat="44.03659" lon="5.93556">
        <ele>637.79998779297</ele>
        <time>2022-01-02T07:48:13.883Z</time>
      </trkpt>
      <trkpt lat="44.03666" lon="5.93574">
        <ele>639.20001220703</ele>
        <time>2022-01-02T07:48:14.170Z</time>
      </trkpt>
      <trkpt lat="44.03669" lon="5.93578">
        <ele>640</ele>
        <time>2022-01-02T07:48:14.458Z</time>
      </trkpt>
      <trkpt lat="44.03671" lon="5.93581">
        <ele>641.20001220703</ele>
        <time>2022-01-02T07:48:14.747Z</time>
      </trkpt>
      <trkpt lat="44.03673" lon="5.93585">
        <ele>641.59997558594</ele>
        <time>2022-01-02T07:48:15.037Z</time>
      </trkpt>
      <trkpt lat="44.03678" lon="5.93591">
        <ele>643</ele>
        <time>2022-01-02T07:48:15.329Z</time>
      </trkpt>
      <trkpt lat="44.03681" lon="5.93594">
        <ele>643.59997558594</ele>
        <time>2022-01-02T07:48:15.622Z</time>
      </trkpt>
      <trkpt lat="44.03686" lon="5.936">
        <ele>644.59997558594</ele>
        <time>2022-01-02T07:48:15.917Z</time>
      </trkpt>
      <trkpt lat="44.03693" lon="5.93608">
        <ele>646.20001220703</ele>
        <time>2022-01-02T07:48:16.214Z</time>
      </trkpt>
      <trkpt lat="44.03695" lon="5.93611">
        <ele>646.79998779297</ele>
        <time>2022-01-02T07:48:16.512Z</time>
      </trkpt>
      <trkpt lat="44.03697" lon="5.93614">
        <ele>647.40002441406</ele>
        <time>2022-01-02T07:48:16.811Z</time>
      </trkpt>
      <trkpt lat="44.03704" lon="5.93621">
        <ele>648.59997558594</ele>
        <time>2022-01-02T07:48:17.112Z</time>
      </trkpt>
      <trkpt lat="44.03708" lon="5.93626">
        <ele>649.20001220703</ele>
        <time>2022-01-02T07:48:17.415Z</time>
      </trkpt>
      <trkpt lat="44.03715" lon="5.93634">
        <ele>650</ele>
        <time>2022-01-02T07:48:17.721Z</time>
      </trkpt>
      <trkpt lat="44.03723" lon="5.93641">
        <ele>650.59997558594</ele>
        <time>2022-01-02T07:48:18.029Z</time>
      </trkpt>
      <trkpt lat="44.03738" lon="5.93656">
        <ele>651.59997558594</ele>
        <time>2022-01-02T07:48:18.342Z</time>
      </trkpt>
      <trkpt lat="44.03741" lon="5.93657">
        <ele>651.79998779297</ele>
        <time>2022-01-02T07:48:18.656Z</time>
      </trkpt>
      <trkpt lat="44.03755" lon="5.93666">
        <ele>652.79998779297</ele>
        <time>2022-01-02T07:48:18.975Z</time>
      </trkpt>
      <trkpt lat="44.03763" lon="5.93672">
        <ele>653.59997558594</ele>
        <time>2022-01-02T07:48:19.296Z</time>
      </trkpt>
      <trkpt lat="44.0378" lon="5.93682">
        <ele>654.40002441406</ele>
        <time>2022-01-02T07:48:19.622Z</time>
      </trkpt>
      <trkpt lat="44.03783" lon="5.93684">
        <ele>654.59997558594</ele>
        <time>2022-01-02T07:48:19.949Z</time>
      </trkpt>
      <trkpt lat="44.03801" lon="5.93693">
        <ele>655.40002441406</ele>
        <time>2022-01-02T07:48:20.282Z</time>
      </trkpt>
      <trkpt lat="44.03804" lon="5.93695">
        <ele>655.59997558594</ele>
        <time>2022-01-02T07:48:20.616Z</time>
      </trkpt>
      <trkpt lat="44.03816" lon="5.93703">
        <ele>655.40002441406</ele>
        <time>2022-01-02T07:48:20.953Z</time>
      </trkpt>
      <trkpt lat="44.03829" lon="5.93712">
        <ele>655.20001220703</ele>
        <time>2022-01-02T07:48:21.294Z</time>
      </trkpt>
      <trkpt lat="44.03853" lon="5.93728">
        <ele>655.40002441406</ele>
        <time>2022-01-02T07:48:21.643Z</time>
      </trkpt>
      <trkpt lat="44.03857" lon="5.9373">
        <ele>655.40002441406</ele>
        <time>2022-01-02T07:48:21.993Z</time>
      </trkpt>
      <trkpt lat="44.03868" lon="5.93736">
        <ele>655</ele>
        <time>2022-01-02T07:48:22.346Z</time>
      </trkpt>
      <trkpt lat="44.03876" lon="5.9374">
        <ele>654.79998779297</ele>
        <time>2022-01-02T07:48:22.702Z</time>
      </trkpt>
      <trkpt lat="44.0388" lon="5.93742">
        <ele>654.59997558594</ele>
        <time>2022-01-02T07:48:23.059Z</time>
      </trkpt>
      <trkpt lat="44.03897" lon="5.93751">
        <ele>654.40002441406</ele>
        <time>2022-01-02T07:48:23.421Z</time>
      </trkpt>
      <trkpt lat="44.03902" lon="5.93754">
        <ele>654.20001220703</ele>
        <time>2022-01-02T07:48:23.785Z</time>
      </trkpt>
      <trkpt lat="44.03915" lon="5.93764">
        <ele>654</ele>
        <time>2022-01-02T07:48:24.153Z</time>
      </trkpt>
      <trkpt lat="44.0392" lon="5.93768">
        <ele>653.59997558594</ele>
        <time>2022-01-02T07:48:24.523Z</time>
      </trkpt>
      <trkpt lat="44.03925" lon="5.93772">
        <ele>653.59997558594</ele>
        <time>2022-01-02T07:48:24.894Z</time>
      </trkpt>
      <trkpt lat="44.03942" lon="5.93787">
        <ele>653.40002441406</ele>
        <time>2022-01-02T07:48:25.271Z</time>
      </trkpt>
      <trkpt lat="44.03968" lon="5.93811">
        <ele>653.40002441406</ele>
        <time>2022-01-02T07:48:25.657Z</time>
      </trkpt>
      <trkpt lat="44.0399" lon="5.93834">
        <ele>653.59997558594</ele>
        <time>2022-01-02T07:48:26.050Z</time>
      </trkpt>
      <trkpt lat="44.04004" lon="5.93846">
        <ele>653.59997558594</ele>
        <time>2022-01-02T07:48:26.448Z</time>
      </trkpt>
      <trkpt lat="44.04018" lon="5.93857">
        <ele>653</ele>
        <time>2022-01-02T07:48:26.850Z</time>
      </trkpt>
      <trkpt lat="44.04021" lon="5.9386">
        <ele>652.79998779297</ele>
        <time>2022-01-02T07:48:27.254Z</time>
      </trkpt>
      <trkpt lat="44.04033" lon="5.9387">
        <ele>651.79998779297</ele>
        <time>2022-01-02T07:48:27.661Z</time>
      </trkpt>
      <trkpt lat="44.04045" lon="5.9388">
        <ele>651.40002441406</ele>
        <time>2022-01-02T07:48:28.072Z</time>
      </trkpt>
      <trkpt lat="44.04062" lon="5.93894">
        <ele>651.20001220703</ele>
        <time>2022-01-02T07:48:28.489Z</time>
      </trkpt>
      <trkpt lat="44.04071" lon="5.93901">
        <ele>651</ele>
        <time>2022-01-02T07:48:28.909Z</time>
      </trkpt>
      <trkpt lat="44.04075" lon="5.93905">
        <ele>651</ele>
        <time>2022-01-02T07:48:29.330Z</time>
      </trkpt>
      <trkpt lat="44.04084" lon="5.93912">
        <ele>650.59997558594</ele>
        <time>2022-01-02T07:48:29.754Z</time>
      </trkpt>
      <trkpt lat="44.04088" lon="5.93913">
        <ele>650.20001220703</ele>
        <time>2022-01-02T07:48:30.179Z</time>
      </trkpt>
      <trkpt lat="44.04091" lon="5.93914">
        <ele>650.40002441406</ele>
        <time>2022-01-02T07:48:30.605Z</time>
      </trkpt>
      <trkpt lat="44.04105" lon="5.93916">
        <ele>651.20001220703</ele>
        <time>2022-01-02T07:48:31.035Z</time>
      </trkpt>
      <trkpt lat="44.04113" lon="5.93918">
        <ele>651.79998779297</ele>
        <time>2022-01-02T07:48:31.467Z</time>
      </trkpt>
      <trkpt lat="44.04124" lon="5.93921">
        <ele>653.40002441406</ele>
        <time>2022-01-02T07:48:31.903Z</time>
      </trkpt>
      <trkpt lat="44.04127" lon="5.93923">
        <ele>653.79998779297</ele>
        <time>2022-01-02T07:48:32.339Z</time>
      </trkpt>
      <trkpt lat="44.04134" lon="5.93925">
        <ele>655.20001220703</ele>
        <time>2022-01-02T07:48:32.777Z</time>
      </trkpt>
      <trkpt lat="44.04139" lon="5.93929">
        <ele>656.20001220703</ele>
        <time>2022-01-02T07:48:33.217Z</time>
      </trkpt>
      <trkpt lat="44.04152" lon="5.93936">
        <ele>657.40002441406</ele>
        <time>2022-01-02T07:48:33.661Z</time>
      </trkpt>
      <trkpt lat="44.04163" lon="5.93939">
        <ele>659.20001220703</ele>
        <time>2022-01-02T07:48:34.108Z</time>
      </trkpt>
      <trkpt lat="44.0417" lon="5.93941">
        <ele>660.40002441406</ele>
        <time>2022-01-02T07:48:34.557Z</time>
      </trkpt>
      <trkpt lat="44.04174" lon="5.93942">
        <ele>661.20001220703</ele>
        <time>2022-01-02T07:48:35.007Z</time>
      </trkpt>
      <trkpt lat="44.04178" lon="5.93943">
        <ele>661.79998779297</ele>
        <time>2022-01-02T07:48:35.458Z</time>
      </trkpt>
      <trkpt lat="44.04184" lon="5.93945">
        <ele>663.40002441406</ele>
        <time>2022-01-02T07:48:35.911Z</time>
      </trkpt>
      <trkpt lat="44.04191" lon="5.93946">
        <ele>664.40002441406</ele>
        <time>2022-01-02T07:48:36.366Z</time>
      </trkpt>
      <trkpt lat="44.04195" lon="5.93948">
        <ele>665</ele>
        <time>2022-01-02T07:48:36.822Z</time>
      </trkpt>
      <trkpt lat="44.04201" lon="5.93953">
        <ele>665.79998779297</ele>
        <time>2022-01-02T07:48:37.280Z</time>
      </trkpt>
      <trkpt lat="44.04205" lon="5.93956">
        <ele>666</ele>
        <time>2022-01-02T07:48:37.740Z</time>
      </trkpt>
      <trkpt lat="44.04219" lon="5.93974">
        <ele>667</ele>
        <time>2022-01-02T07:48:38.205Z</time>
      </trkpt>
      <trkpt lat="44.04222" lon="5.93979">
        <ele>667</ele>
        <time>2022-01-02T07:48:38.671Z</time>
      </trkpt>
      <trkpt lat="44.04235" lon="5.93995">
        <ele>667.20001220703</ele>
        <time>2022-01-02T07:48:39.142Z</time>
      </trkpt>
      <trkpt lat="44.04238" lon="5.93999">
        <ele>667</ele>
        <time>2022-01-02T07:48:39.614Z</time>
      </trkpt>
      <trkpt lat="44.04253" lon="5.94016">
        <ele>667</ele>
        <time>2022-01-02T07:48:40.092Z</time>
      </trkpt>
      <trkpt lat="44.04262" lon="5.94023">
        <ele>667.20001220703</ele>
        <time>2022-01-02T07:48:40.573Z</time>
      </trkpt>
      <trkpt lat="44.04274" lon="5.94034">
        <ele>668.40002441406</ele>
        <time>2022-01-02T07:48:41.058Z</time>
      </trkpt>
      <trkpt lat="44.04278" lon="5.94038">
        <ele>668.79998779297</ele>
        <time>2022-01-02T07:48:41.544Z</time>
      </trkpt>
      <trkpt lat="44.04288" lon="5.94052">
        <ele>669.40002441406</ele>
        <time>2022-01-02T07:48:42.034Z</time>
      </trkpt>
      <trkpt lat="44.0429" lon="5.94057">
        <ele>669.40002441406</ele>
        <time>2022-01-02T07:48:42.525Z</time>
      </trkpt>
      <trkpt lat="44.04292" lon="5.94062">
        <ele>669.40002441406</ele>
        <time>2022-01-02T07:48:43.017Z</time>
      </trkpt>
      <trkpt lat="44.04294" lon="5.94067">
        <ele>669.40002441406</ele>
        <time>2022-01-02T07:48:43.511Z</time>
      </trkpt>
      <trkpt lat="44.04305" lon="5.94082">
        <ele>668.79998779297</ele>
        <time>2022-01-02T07:48:44.009Z</time>
      </trkpt>
      <trkpt lat="44.04314" lon="5.94093">
        <ele>668.79998779297</ele>
        <time>2022-01-02T07:48:44.510Z</time>
      </trkpt>
      <trkpt lat="44.04318" lon="5.94097">
        <ele>668.79998779297</ele>
        <time>2022-01-02T07:48:45.013Z</time>
      </trkpt>
      <trkpt lat="44.04325" lon="5.94106">
        <ele>668.59997558594</ele>
        <time>2022-01-02T07:48:45.518Z</time>
      </trkpt>
      <trkpt lat="44.04328" lon="5.9411">
        <ele>668.79998779297</ele>
        <time>2022-01-02T07:48:46.025Z</time>
      </trkpt>
      <trkpt lat="44.04334" lon="5.94118">
        <ele>668.40002441406</ele>
        <time>2022-01-02T07:48:46.534Z</time>
      </trkpt>
      <trkpt lat="44.04341" lon="5.94123">
        <ele>668</ele>
        <time>2022-01-02T07:48:47.045Z</time>
      </trkpt>
      <trkpt lat="44.04346" lon="5.94126">
        <ele>668</ele>
        <time>2022-01-02T07:48:47.558Z</time>
      </trkpt>
      <trkpt lat="44.04361" lon="5.94135">
        <ele>668.20001220703</ele>
        <time>2022-01-02T07:48:48.075Z</time>
      </trkpt>
      <trkpt lat="44.0437" lon="5.94139">
        <ele>668.59997558594</ele>
        <time>2022-01-02T07:48:48.595Z</time>
      </trkpt>
      <trkpt lat="44.04379" lon="5.94145">
        <ele>670.20001220703</ele>
        <time>2022-01-02T07:48:49.118Z</time>
      </trkpt>
      <trkpt lat="44.0439" lon="5.94149">
        <ele>671</ele>
        <time>2022-01-02T07:48:49.644Z</time>
      </trkpt>
      <trkpt lat="44.04403" lon="5.94145">
        <ele>671.20001220703</ele>
        <time>2022-01-02T07:48:50.174Z</time>
      </trkpt>
      <trkpt lat="44.04418" lon="5.94136">
        <ele>670.79998779297</ele>
        <time>2022-01-02T07:48:50.708Z</time>
      </trkpt>
      <trkpt lat="44.04423" lon="5.94127">
        <ele>670</ele>
        <time>2022-01-02T07:48:51.245Z</time>
      </trkpt>
      <trkpt lat="44.04423" lon="5.94118">
        <ele>669.40002441406</ele>
        <time>2022-01-02T07:48:51.783Z</time>
      </trkpt>
      <trkpt lat="44.04424" lon="5.94112">
        <ele>669.20001220703</ele>
        <time>2022-01-02T07:48:52.323Z</time>
      </trkpt>
      <trkpt lat="44.04425" lon="5.94105">
        <ele>669.20001220703</ele>
        <time>2022-01-02T07:48:52.864Z</time>
      </trkpt>
      <trkpt lat="44.04425" lon="5.94099">
        <ele>669.20001220703</ele>
        <time>2022-01-02T07:48:53.406Z</time>
      </trkpt>
      <trkpt lat="44.04426" lon="5.94079">
        <ele>669.20001220703</ele>
        <time>2022-01-02T07:48:53.952Z</time>
      </trkpt>
      <trkpt lat="44.04426" lon="5.94049">
        <ele>670</ele>
        <time>2022-01-02T07:48:54.504Z</time>
      </trkpt>
      <trkpt lat="44.04427" lon="5.94039">
        <ele>669.59997558594</ele>
        <time>2022-01-02T07:48:55.059Z</time>
      </trkpt>
      <trkpt lat="44.04427" lon="5.94039">
        <ele>669.59997558594</ele>
        <time>2022-01-02T07:48:55.614Z</time>
      </trkpt>
      <trkpt lat="44.04427" lon="5.94026">
        <ele>669.40002441406</ele>
        <time>2022-01-02T07:48:56.171Z</time>
      </trkpt>
      <trkpt lat="44.04425" lon="5.9402">
        <ele>669.40002441406</ele>
        <time>2022-01-02T07:48:56.729Z</time>
      </trkpt>
      <trkpt lat="44.04425" lon="5.94">
        <ele>668.79998779297</ele>
        <time>2022-01-02T07:48:57.292Z</time>
      </trkpt>
      <trkpt lat="44.04424" lon="5.93996">
        <ele>668.59997558594</ele>
        <time>2022-01-02T07:48:57.855Z</time>
      </trkpt>
      <trkpt lat="44.04422" lon="5.93969">
        <ele>668</ele>
        <time>2022-01-02T07:48:58.424Z</time>
      </trkpt>
      <trkpt lat="44.04422" lon="5.93964">
        <ele>668</ele>
        <time>2022-01-02T07:48:58.994Z</time>
      </trkpt>
      <trkpt lat="44.04422" lon="5.93953">
        <ele>668</ele>
        <time>2022-01-02T07:48:59.566Z</time>
      </trkpt>
      <trkpt lat="44.04423" lon="5.93948">
        <ele>667.79998779297</ele>
        <time>2022-01-02T07:49:00.139Z</time>
      </trkpt>
      <trkpt lat="44.04424" lon="5.93934">
        <ele>667.59997558594</ele>
        <time>2022-01-02T07:49:00.715Z</time>
      </trkpt>
      <trkpt lat="44.04425" lon="5.9393">
        <ele>667.79998779297</ele>
        <time>2022-01-02T07:49:01.292Z</time>
      </trkpt>
      <trkpt lat="44.04429" lon="5.93904">
        <ele>667.79998779297</ele>
        <time>2022-01-02T07:49:01.874Z</time>
      </trkpt>
      <trkpt lat="44.04431" lon="5.93895">
        <ele>667.20001220703</ele>
        <time>2022-01-02T07:49:02.458Z</time>
      </trkpt>
      <trkpt lat="44.04432" lon="5.93885">
        <ele>666.59997558594</ele>
        <time>2022-01-02T07:49:03.044Z</time>
      </trkpt>
      <trkpt lat="44.04432" lon="5.93874">
        <ele>666.40002441406</ele>
        <time>2022-01-02T07:49:03.632Z</time>
      </trkpt>
      <trkpt lat="44.04429" lon="5.93865">
        <ele>666.20001220703</ele>
        <time>2022-01-02T07:49:04.222Z</time>
      </trkpt>
      <trkpt lat="44.04426" lon="5.93846">
        <ele>667.59997558594</ele>
        <time>2022-01-02T07:49:04.816Z</time>
      </trkpt>
      <trkpt lat="44.04425" lon="5.93842">
        <ele>667.79998779297</ele>
        <time>2022-01-02T07:49:05.411Z</time>
      </trkpt>
      <trkpt lat="44.04421" lon="5.93828">
        <ele>668</ele>
        <time>2022-01-02T07:49:06.009Z</time>
      </trkpt>
      <trkpt lat="44.04421" lon="5.93824">
        <ele>668</ele>
        <time>2022-01-02T07:49:06.608Z</time>
      </trkpt>
      <trkpt lat="44.04417" lon="5.93808">
        <ele>669.20001220703</ele>
        <time>2022-01-02T07:49:07.211Z</time>
      </trkpt>
      <trkpt lat="44.04415" lon="5.93804">
        <ele>669.40002441406</ele>
        <time>2022-01-02T07:49:07.815Z</time>
      </trkpt>
      <trkpt lat="44.04412" lon="5.93785">
        <ele>670.20001220703</ele>
        <time>2022-01-02T07:49:08.422Z</time>
      </trkpt>
      <trkpt lat="44.04406" lon="5.93762">
        <ele>670</ele>
        <time>2022-01-02T07:49:09.034Z</time>
      </trkpt>
      <trkpt lat="44.04405" lon="5.9375">
        <ele>671</ele>
        <time>2022-01-02T07:49:09.649Z</time>
      </trkpt>
      <trkpt lat="44.04403" lon="5.93741">
        <ele>671.20001220703</ele>
        <time>2022-01-02T07:49:10.266Z</time>
      </trkpt>
      <trkpt lat="44.04394" lon="5.93721">
        <ele>672.40002441406</ele>
        <time>2022-01-02T07:49:10.887Z</time>
      </trkpt>
      <trkpt lat="44.04393" lon="5.93717">
        <ele>672.59997558594</ele>
        <time>2022-01-02T07:49:11.509Z</time>
      </trkpt>
      <trkpt lat="44.0439" lon="5.93695">
        <ele>673.20001220703</ele>
        <time>2022-01-02T07:49:12.136Z</time>
      </trkpt>
      <trkpt lat="44.04386" lon="5.93676">
        <ele>673</ele>
        <time>2022-01-02T07:49:12.767Z</time>
      </trkpt>
      <trkpt lat="44.04386" lon="5.93658">
        <ele>672.20001220703</ele>
        <time>2022-01-02T07:49:13.402Z</time>
      </trkpt>
      <trkpt lat="44.04383" lon="5.93654">
        <ele>672.20001220703</ele>
        <time>2022-01-02T07:49:14.038Z</time>
      </trkpt>
      <trkpt lat="44.04377" lon="5.93641">
        <ele>672.40002441406</ele>
        <time>2022-01-02T07:49:14.677Z</time>
      </trkpt>
      <trkpt lat="44.04367" lon="5.93619">
        <ele>673.79998779297</ele>
        <time>2022-01-02T07:49:15.321Z</time>
      </trkpt>
      <trkpt lat="44.04363" lon="5.93609">
        <ele>674.40002441406</ele>
        <time>2022-01-02T07:49:15.967Z</time>
      </trkpt>
      <trkpt lat="44.04358" lon="5.936">
        <ele>675.40002441406</ele>
        <time>2022-01-02T07:49:16.616Z</time>
      </trkpt>
      <trkpt lat="44.04357" lon="5.93598">
        <ele>675.59997558594</ele>
        <time>2022-01-02T07:49:17.265Z</time>
      </trkpt>
      <trkpt lat="44.04352" lon="5.93583">
        <ele>677.20001220703</ele>
        <time>2022-01-02T07:49:17.918Z</time>
      </trkpt>
      <trkpt lat="44.04351" lon="5.93575">
        <ele>678</ele>
        <time>2022-01-02T07:49:18.572Z</time>
      </trkpt>
      <trkpt lat="44.04351" lon="5.93573">
        <ele>678.20001220703</ele>
        <time>2022-01-02T07:49:19.227Z</time>
      </trkpt>
      <trkpt lat="44.0435" lon="5.93572">
        <ele>678.59997558594</ele>
        <time>2022-01-02T07:49:19.882Z</time>
      </trkpt>
      <trkpt lat="44.0435" lon="5.93566">
        <ele>679.40002441406</ele>
        <time>2022-01-02T07:49:20.538Z</time>
      </trkpt>
      <trkpt lat="44.04349" lon="5.93559">
        <ele>679.59997558594</ele>
        <time>2022-01-02T07:49:21.195Z</time>
      </trkpt>
      <trkpt lat="44.04349" lon="5.93554">
        <ele>679.79998779297</ele>
        <time>2022-01-02T07:49:21.853Z</time>
      </trkpt>
      <trkpt lat="44.04348" lon="5.93549">
        <ele>680.20001220703</ele>
        <time>2022-01-02T07:49:22.513Z</time>
      </trkpt>
      <trkpt lat="44.04347" lon="5.93547">
        <ele>680.40002441406</ele>
        <time>2022-01-02T07:49:23.173Z</time>
      </trkpt>
      <trkpt lat="44.04344" lon="5.93542">
        <ele>681.40002441406</ele>
        <time>2022-01-02T07:49:23.835Z</time>
      </trkpt>
      <trkpt lat="44.04341" lon="5.93536">
        <ele>681.79998779297</ele>
        <time>2022-01-02T07:49:24.498Z</time>
      </trkpt>
      <trkpt lat="44.0434" lon="5.93532">
        <ele>682</ele>
        <time>2022-01-02T07:49:25.162Z</time>
      </trkpt>
      <trkpt lat="44.04339" lon="5.93525">
        <ele>682.40002441406</ele>
        <time>2022-01-02T07:49:25.827Z</time>
      </trkpt>
      <trkpt lat="44.04338" lon="5.93517">
        <ele>683.40002441406</ele>
        <time>2022-01-02T07:49:26.494Z</time>
      </trkpt>
      <trkpt lat="44.04337" lon="5.9351">
        <ele>684.20001220703</ele>
        <time>2022-01-02T07:49:27.162Z</time>
      </trkpt>
      <trkpt lat="44.04335" lon="5.93507">
        <ele>684.59997558594</ele>
        <time>2022-01-02T07:49:27.831Z</time>
      </trkpt>
      <trkpt lat="44.04333" lon="5.93504">
        <ele>685</ele>
        <time>2022-01-02T07:49:28.501Z</time>
      </trkpt>
      <trkpt lat="44.04331" lon="5.93501">
        <ele>685.20001220703</ele>
        <time>2022-01-02T07:49:29.172Z</time>
      </trkpt>
      <trkpt lat="44.04324" lon="5.93488">
        <ele>686.40002441406</ele>
        <time>2022-01-02T07:49:29.846Z</time>
      </trkpt>
      <trkpt lat="44.04319" lon="5.93492">
        <ele>687.79998779297</ele>
        <time>2022-01-02T07:49:30.522Z</time>
      </trkpt>
      <trkpt lat="44.04315" lon="5.93496">
        <ele>688.20001220703</ele>
        <time>2022-01-02T07:49:31.199Z</time>
      </trkpt>
      <trkpt lat="44.04312" lon="5.93493">
        <ele>688.79998779297</ele>
        <time>2022-01-02T07:49:31.877Z</time>
      </trkpt>
      <trkpt lat="44.04313" lon="5.9349">
        <ele>689.20001220703</ele>
        <time>2022-01-02T07:49:32.556Z</time>
      </trkpt>
      <trkpt lat="44.0431" lon="5.93485">
        <ele>690.20001220703</ele>
        <time>2022-01-02T07:49:33.236Z</time>
      </trkpt>
      <trkpt lat="44.0431" lon="5.93486">
        <ele>690.40002441406</ele>
        <time>2022-01-02T07:49:33.916Z</time>
      </trkpt>
      <trkpt lat="44.04305" lon="5.9349">
        <ele>691.59997558594</ele>
        <time>2022-01-02T07:49:34.598Z</time>
      </trkpt>
      <trkpt lat="44.04304" lon="5.93491">
        <ele>691.59997558594</ele>
        <time>2022-01-02T07:49:35.280Z</time>
      </trkpt>
      <trkpt lat="44.04304" lon="5.93492">
        <ele>692</ele>
        <time>2022-01-02T07:49:35.962Z</time>
      </trkpt>
      <trkpt lat="44.043" lon="5.93496">
        <ele>692.40002441406</ele>
        <time>2022-01-02T07:49:36.645Z</time>
      </trkpt>
      <trkpt lat="44.04298" lon="5.93498">
        <ele>692.40002441406</ele>
        <time>2022-01-02T07:49:37.329Z</time>
      </trkpt>
      <trkpt lat="44.04293" lon="5.93499">
        <ele>692.59997558594</ele>
        <time>2022-01-02T07:49:38.015Z</time>
      </trkpt>
      <trkpt lat="44.0429" lon="5.93494">
        <ele>693.59997558594</ele>
        <time>2022-01-02T07:49:38.702Z</time>
      </trkpt>
      <trkpt lat="44.04292" lon="5.93489">
        <ele>694.79998779297</ele>
        <time>2022-01-02T07:49:39.390Z</time>
      </trkpt>
      <trkpt lat="44.04293" lon="5.93483">
        <ele>695.59997558594</ele>
        <time>2022-01-02T07:49:40.079Z</time>
      </trkpt>
      <trkpt lat="44.04295" lon="5.93477">
        <ele>696</ele>
        <time>2022-01-02T07:49:40.769Z</time>
      </trkpt>
      <trkpt lat="44.04295" lon="5.93458">
        <ele>697.20001220703</ele>
        <time>2022-01-02T07:49:41.463Z</time>
      </trkpt>
      <trkpt lat="44.04293" lon="5.93456">
        <ele>697.40002441406</ele>
        <time>2022-01-02T07:49:42.158Z</time>
      </trkpt>
      <trkpt lat="44.04291" lon="5.93453">
        <ele>697.79998779297</ele>
        <time>2022-01-02T07:49:42.854Z</time>
      </trkpt>
      <trkpt lat="44.04284" lon="5.93451">
        <ele>699.20001220703</ele>
        <time>2022-01-02T07:49:43.552Z</time>
      </trkpt>
      <trkpt lat="44.04276" lon="5.93453">
        <ele>700.79998779297</ele>
        <time>2022-01-02T07:49:44.252Z</time>
      </trkpt>
      <trkpt lat="44.04271" lon="5.93451">
        <ele>701.79998779297</ele>
        <time>2022-01-02T07:49:44.953Z</time>
      </trkpt>
      <trkpt lat="44.04268" lon="5.93449">
        <ele>702</ele>
        <time>2022-01-02T07:49:45.655Z</time>
      </trkpt>
      <trkpt lat="44.04261" lon="5.93438">
        <ele>702</ele>
        <time>2022-01-02T07:49:46.360Z</time>
      </trkpt>
      <trkpt lat="44.04258" lon="5.93434">
        <ele>701.59997558594</ele>
        <time>2022-01-02T07:49:47.066Z</time>
      </trkpt>
      <trkpt lat="44.04251" lon="5.93423">
        <ele>701.20001220703</ele>
        <time>2022-01-02T07:49:47.775Z</time>
      </trkpt>
      <trkpt lat="44.04245" lon="5.93412">
        <ele>700.79998779297</ele>
        <time>2022-01-02T07:49:48.487Z</time>
      </trkpt>
      <trkpt lat="44.04238" lon="5.93393">
        <ele>700.59997558594</ele>
        <time>2022-01-02T07:49:49.203Z</time>
      </trkpt>
      <trkpt lat="44.04238" lon="5.93389">
        <ele>700.40002441406</ele>
        <time>2022-01-02T07:49:49.920Z</time>
      </trkpt>
      <trkpt lat="44.04238" lon="5.93382">
        <ele>700.20001220703</ele>
        <time>2022-01-02T07:49:50.639Z</time>
      </trkpt>
      <trkpt lat="44.0424" lon="5.93379">
        <ele>700</ele>
        <time>2022-01-02T07:49:51.358Z</time>
      </trkpt>
      <trkpt lat="44.04247" lon="5.93377">
        <ele>699.59997558594</ele>
        <time>2022-01-02T07:49:52.080Z</time>
      </trkpt>
      <trkpt lat="44.04252" lon="5.93373">
        <ele>699.20001220703</ele>
        <time>2022-01-02T07:49:52.803Z</time>
      </trkpt>
      <trkpt lat="44.0425" lon="5.93362">
        <ele>699.59997558594</ele>
        <time>2022-01-02T07:49:53.529Z</time>
      </trkpt>
      <trkpt lat="44.04254" lon="5.93349">
        <ele>700.79998779297</ele>
        <time>2022-01-02T07:49:54.258Z</time>
      </trkpt>
      <trkpt lat="44.04254" lon="5.93346">
        <ele>701.20001220703</ele>
        <time>2022-01-02T07:49:54.987Z</time>
      </trkpt>
      <trkpt lat="44.04255" lon="5.93338">
        <ele>701.59997558594</ele>
        <time>2022-01-02T07:49:55.718Z</time>
      </trkpt>
      <trkpt lat="44.04254" lon="5.93327">
        <ele>702.40002441406</ele>
        <time>2022-01-02T07:49:56.451Z</time>
      </trkpt>
      <trkpt lat="44.04254" lon="5.93324">
        <ele>702.79998779297</ele>
        <time>2022-01-02T07:49:57.185Z</time>
      </trkpt>
      <trkpt lat="44.04258" lon="5.93313">
        <ele>703.20001220703</ele>
        <time>2022-01-02T07:49:57.921Z</time>
      </trkpt>
      <trkpt lat="44.04264" lon="5.93316">
        <ele>702.59997558594</ele>
        <time>2022-01-02T07:49:58.659Z</time>
      </trkpt>
      <trkpt lat="44.04266" lon="5.93319">
        <ele>702.79998779297</ele>
        <time>2022-01-02T07:49:59.398Z</time>
      </trkpt>
      <trkpt lat="44.04275" lon="5.93328">
        <ele>703.40002441406</ele>
        <time>2022-01-02T07:50:00.140Z</time>
      </trkpt>
      <trkpt lat="44.04279" lon="5.93329">
        <ele>703.40002441406</ele>
        <time>2022-01-02T07:50:00.883Z</time>
      </trkpt>
      <trkpt lat="44.04295" lon="5.93329">
        <ele>704.20001220703</ele>
        <time>2022-01-02T07:50:01.631Z</time>
      </trkpt>
      <trkpt lat="44.043" lon="5.93327">
        <ele>704.40002441406</ele>
        <time>2022-01-02T07:50:02.380Z</time>
      </trkpt>
      <trkpt lat="44.04307" lon="5.93328">
        <ele>705.40002441406</ele>
        <time>2022-01-02T07:50:03.131Z</time>
      </trkpt>
      <trkpt lat="44.04313" lon="5.93328">
        <ele>706</ele>
        <time>2022-01-02T07:50:03.884Z</time>
      </trkpt>
      <trkpt lat="44.04319" lon="5.9333">
        <ele>707</ele>
        <time>2022-01-02T07:50:04.639Z</time>
      </trkpt>
      <trkpt lat="44.04323" lon="5.93332">
        <ele>707.40002441406</ele>
        <time>2022-01-02T07:50:05.395Z</time>
      </trkpt>
      <trkpt lat="44.04329" lon="5.93335">
        <ele>708.20001220703</ele>
        <time>2022-01-02T07:50:06.153Z</time>
      </trkpt>
      <trkpt lat="44.04332" lon="5.93337">
        <ele>708.79998779297</ele>
        <time>2022-01-02T07:50:06.911Z</time>
      </trkpt>
      <trkpt lat="44.04335" lon="5.93339">
        <ele>709.20001220703</ele>
        <time>2022-01-02T07:50:07.670Z</time>
      </trkpt>
      <trkpt lat="44.0434" lon="5.93344">
        <ele>710</ele>
        <time>2022-01-02T07:50:08.431Z</time>
      </trkpt>
      <trkpt lat="44.04343" lon="5.93347">
        <ele>710.20001220703</ele>
        <time>2022-01-02T07:50:09.193Z</time>
      </trkpt>
      <trkpt lat="44.04346" lon="5.93351">
        <ele>710.20001220703</ele>
        <time>2022-01-02T07:50:09.956Z</time>
      </trkpt>
      <trkpt lat="44.04358" lon="5.93362">
        <ele>710.40002441406</ele>
        <time>2022-01-02T07:50:10.723Z</time>
      </trkpt>
      <trkpt lat="44.04371" lon="5.93368">
        <ele>711.20001220703</ele>
        <time>2022-01-02T07:50:11.494Z</time>
      </trkpt>
      <trkpt lat="44.04374" lon="5.9337">
        <ele>712</ele>
        <time>2022-01-02T07:50:12.266Z</time>
      </trkpt>
      <trkpt lat="44.04385" lon="5.93376">
        <ele>712.79998779297</ele>
        <time>2022-01-02T07:50:13.041Z</time>
      </trkpt>
      <trkpt lat="44.04393" lon="5.93375">
        <ele>713</ele>
        <time>2022-01-02T07:50:13.819Z</time>
      </trkpt>
      <trkpt lat="44.04401" lon="5.93373">
        <ele>713.40002441406</ele>
        <time>2022-01-02T07:50:14.599Z</time>
      </trkpt>
      <trkpt lat="44.04417" lon="5.93366">
        <ele>714.20001220703</ele>
        <time>2022-01-02T07:50:15.384Z</time>
      </trkpt>
      <trkpt lat="44.0442" lon="5.93361">
        <ele>714.20001220703</ele>
        <time>2022-01-02T07:50:16.170Z</time>
      </trkpt>
      <trkpt lat="44.04424" lon="5.93357">
        <ele>714.20001220703</ele>
        <time>2022-01-02T07:50:16.958Z</time>
      </trkpt>
      <trkpt lat="44.04436" lon="5.93346">
        <ele>714</ele>
        <time>2022-01-02T07:50:17.750Z</time>
      </trkpt>
      <trkpt lat="44.04446" lon="5.93325">
        <ele>713.79998779297</ele>
        <time>2022-01-02T07:50:18.547Z</time>
      </trkpt>
      <trkpt lat="44.04449" lon="5.93314">
        <ele>714.20001220703</ele>
        <time>2022-01-02T07:50:19.346Z</time>
      </trkpt>
      <trkpt lat="44.04456" lon="5.93299">
        <ele>714.40002441406</ele>
        <time>2022-01-02T07:50:20.149Z</time>
      </trkpt>
      <trkpt lat="44.04457" lon="5.93293">
        <ele>714.59997558594</ele>
        <time>2022-01-02T07:50:20.953Z</time>
      </trkpt>
      <trkpt lat="44.04459" lon="5.93276">
        <ele>714.59997558594</ele>
        <time>2022-01-02T07:50:21.760Z</time>
      </trkpt>
      <trkpt lat="44.04458" lon="5.93271">
        <ele>714.59997558594</ele>
        <time>2022-01-02T07:50:22.568Z</time>
      </trkpt>
      <trkpt lat="44.04456" lon="5.9326">
        <ele>715.20001220703</ele>
        <time>2022-01-02T07:50:23.379Z</time>
      </trkpt>
      <trkpt lat="44.04457" lon="5.93254">
        <ele>715.40002441406</ele>
        <time>2022-01-02T07:50:24.191Z</time>
      </trkpt>
      <trkpt lat="44.04458" lon="5.93249">
        <ele>715.79998779297</ele>
        <time>2022-01-02T07:50:25.004Z</time>
      </trkpt>
      <trkpt lat="44.04458" lon="5.93242">
        <ele>715.79998779297</ele>
        <time>2022-01-02T07:50:25.818Z</time>
      </trkpt>
      <trkpt lat="44.04462" lon="5.9323">
        <ele>715.79998779297</ele>
        <time>2022-01-02T07:50:26.635Z</time>
      </trkpt>
      <trkpt lat="44.04468" lon="5.93215">
        <ele>715.59997558594</ele>
        <time>2022-01-02T07:50:27.455Z</time>
      </trkpt>
      <trkpt lat="44.04476" lon="5.93192">
        <ele>715.20001220703</ele>
        <time>2022-01-02T07:50:28.281Z</time>
      </trkpt>
      <trkpt lat="44.04477" lon="5.93185">
        <ele>715</ele>
        <time>2022-01-02T07:50:29.108Z</time>
      </trkpt>
      <trkpt lat="44.0448" lon="5.93162">
        <ele>714.79998779297</ele>
        <time>2022-01-02T07:50:29.940Z</time>
      </trkpt>
      <trkpt lat="44.04481" lon="5.93157">
        <ele>715</ele>
        <time>2022-01-02T07:50:30.773Z</time>
      </trkpt>
      <trkpt lat="44.04482" lon="5.93141">
        <ele>715.20001220703</ele>
        <time>2022-01-02T07:50:31.609Z</time>
      </trkpt>
      <trkpt lat="44.04484" lon="5.9313">
        <ele>715.40002441406</ele>
        <time>2022-01-02T07:50:32.448Z</time>
      </trkpt>
      <trkpt lat="44.04489" lon="5.93129">
        <ele>714.79998779297</ele>
        <time>2022-01-02T07:50:33.288Z</time>
      </trkpt>
      <trkpt lat="44.0449" lon="5.9313">
        <ele>714</ele>
        <time>2022-01-02T07:50:34.128Z</time>
      </trkpt>
      <trkpt lat="44.04491" lon="5.93134">
        <ele>713.59997558594</ele>
        <time>2022-01-02T07:50:34.969Z</time>
      </trkpt>
      <trkpt lat="44.04494" lon="5.93144">
        <ele>712.59997558594</ele>
        <time>2022-01-02T07:50:35.812Z</time>
      </trkpt>
      <trkpt lat="44.04498" lon="5.93157">
        <ele>711.40002441406</ele>
        <time>2022-01-02T07:50:36.658Z</time>
      </trkpt>
      <trkpt lat="44.04501" lon="5.93171">
        <ele>709.79998779297</ele>
        <time>2022-01-02T07:50:37.507Z</time>
      </trkpt>
      <trkpt lat="44.04501" lon="5.93176">
        <ele>709.20001220703</ele>
        <time>2022-01-02T07:50:38.357Z</time>
      </trkpt>
      <trkpt lat="44.04501" lon="5.93182">
        <ele>708.79998779297</ele>
        <time>2022-01-02T07:50:39.208Z</time>
      </trkpt>
      <trkpt lat="44.04499" lon="5.93195">
        <ele>708.20001220703</ele>
        <time>2022-01-02T07:50:40.062Z</time>
      </trkpt>
      <trkpt lat="44.04498" lon="5.93201">
        <ele>708.40002441406</ele>
        <time>2022-01-02T07:50:40.917Z</time>
      </trkpt>
      <trkpt lat="44.04495" lon="5.93215">
        <ele>708.20001220703</ele>
        <time>2022-01-02T07:50:41.775Z</time>
      </trkpt>
      <trkpt lat="44.04498" lon="5.93231">
        <ele>707.59997558594</ele>
        <time>2022-01-02T07:50:42.637Z</time>
      </trkpt>
      <trkpt lat="44.04501" lon="5.93231">
        <ele>706.20001220703</ele>
        <time>2022-01-02T07:50:43.500Z</time>
      </trkpt>
      <trkpt lat="44.04503" lon="5.93228">
        <ele>705.40002441406</ele>
        <time>2022-01-02T07:50:44.363Z</time>
      </trkpt>
      <trkpt lat="44.04504" lon="5.93224">
        <ele>705</ele>
        <time>2022-01-02T07:50:45.227Z</time>
      </trkpt>
      <trkpt lat="44.04513" lon="5.9321">
        <ele>704</ele>
        <time>2022-01-02T07:50:46.095Z</time>
      </trkpt>
      <trkpt lat="44.04518" lon="5.93199">
        <ele>702.79998779297</ele>
        <time>2022-01-02T07:50:46.966Z</time>
      </trkpt>
      <trkpt lat="44.04521" lon="5.93195">
        <ele>702.40002441406</ele>
        <time>2022-01-02T07:50:47.838Z</time>
      </trkpt>
      <trkpt lat="44.04524" lon="5.9319">
        <ele>701.79998779297</ele>
        <time>2022-01-02T07:50:48.711Z</time>
      </trkpt>
      <trkpt lat="44.04527" lon="5.93186">
        <ele>701.20001220703</ele>
        <time>2022-01-02T07:50:49.585Z</time>
      </trkpt>
      <trkpt lat="44.04529" lon="5.93181">
        <ele>700.59997558594</ele>
        <time>2022-01-02T07:50:50.461Z</time>
      </trkpt>
      <trkpt lat="44.04531" lon="5.93175">
        <ele>700.20001220703</ele>
        <time>2022-01-02T07:50:51.338Z</time>
      </trkpt>
      <trkpt lat="44.04533" lon="5.9317">
        <ele>699.40002441406</ele>
        <time>2022-01-02T07:50:52.216Z</time>
      </trkpt>
      <trkpt lat="44.04535" lon="5.93166">
        <ele>698.79998779297</ele>
        <time>2022-01-02T07:50:53.095Z</time>
      </trkpt>
      <trkpt lat="44.04538" lon="5.93162">
        <ele>698.40002441406</ele>
        <time>2022-01-02T07:50:53.975Z</time>
      </trkpt>
      <trkpt lat="44.04541" lon="5.9316">
        <ele>698</ele>
        <time>2022-01-02T07:50:54.856Z</time>
      </trkpt>
      <trkpt lat="44.04545" lon="5.93158">
        <ele>697.79998779297</ele>
        <time>2022-01-02T07:50:55.738Z</time>
      </trkpt>
      <trkpt lat="44.04552" lon="5.93149">
        <ele>697</ele>
        <time>2022-01-02T07:50:56.623Z</time>
      </trkpt>
      <trkpt lat="44.04562" lon="5.93141">
        <ele>696.59997558594</ele>
        <time>2022-01-02T07:50:57.511Z</time>
      </trkpt>
      <trkpt lat="44.04565" lon="5.93137">
        <ele>696.40002441406</ele>
        <time>2022-01-02T07:50:58.401Z</time>
      </trkpt>
      <trkpt lat="44.04568" lon="5.93132">
        <ele>695.79998779297</ele>
        <time>2022-01-02T07:50:59.292Z</time>
      </trkpt>
      <trkpt lat="44.04573" lon="5.93123">
        <ele>695.20001220703</ele>
        <time>2022-01-02T07:51:00.185Z</time>
      </trkpt>
      <trkpt lat="44.04577" lon="5.93116">
        <ele>695.20001220703</ele>
        <time>2022-01-02T07:51:01.080Z</time>
      </trkpt>
      <trkpt lat="44.0458" lon="5.93115">
        <ele>695.20001220703</ele>
        <time>2022-01-02T07:51:01.976Z</time>
      </trkpt>
      <trkpt lat="44.04582" lon="5.93115">
        <ele>695</ele>
        <time>2022-01-02T07:51:02.872Z</time>
      </trkpt>
      <trkpt lat="44.04583" lon="5.93114">
        <ele>694.20001220703</ele>
        <time>2022-01-02T07:51:03.769Z</time>
      </trkpt>
      <trkpt lat="44.04588" lon="5.9311">
        <ele>693.20001220703</ele>
        <time>2022-01-02T07:51:04.667Z</time>
      </trkpt>
      <trkpt lat="44.04589" lon="5.93105">
        <ele>693</ele>
        <time>2022-01-02T07:51:05.566Z</time>
      </trkpt>
      <trkpt lat="44.04589" lon="5.93105">
        <ele>692.79998779297</ele>
        <time>2022-01-02T07:51:06.465Z</time>
      </trkpt>
      <trkpt lat="44.04589" lon="5.93099">
        <ele>692.79998779297</ele>
        <time>2022-01-02T07:51:07.366Z</time>
      </trkpt>
      <trkpt lat="44.04588" lon="5.93091">
        <ele>692.79998779297</ele>
        <time>2022-01-02T07:51:08.268Z</time>
      </trkpt>
      <trkpt lat="44.04583" lon="5.93063">
        <ele>692.59997558594</ele>
        <time>2022-01-02T07:51:09.176Z</time>
      </trkpt>
      <trkpt lat="44.04589" lon="5.93053">
        <ele>692.20001220703</ele>
        <time>2022-01-02T07:51:10.087Z</time>
      </trkpt>
      <trkpt lat="44.046" lon="5.93054">
        <ele>691.59997558594</ele>
        <time>2022-01-02T07:51:11.001Z</time>
      </trkpt>
      <trkpt lat="44.04604" lon="5.93057">
        <ele>691.79998779297</ele>
        <time>2022-01-02T07:51:11.916Z</time>
      </trkpt>
      <trkpt lat="44.04613" lon="5.93064">
        <ele>692</ele>
        <time>2022-01-02T07:51:12.834Z</time>
      </trkpt>
      <trkpt lat="44.04632" lon="5.93075">
        <ele>692.79998779297</ele>
        <time>2022-01-02T07:51:13.758Z</time>
      </trkpt>
      <trkpt lat="44.04638" lon="5.93079">
        <ele>693</ele>
        <time>2022-01-02T07:51:14.684Z</time>
      </trkpt>
      <trkpt lat="44.04643" lon="5.93077">
        <ele>693.20001220703</ele>
        <time>2022-01-02T07:51:15.611Z</time>
      </trkpt>
      <trkpt lat="44.04653" lon="5.93073">
        <ele>693.79998779297</ele>
        <time>2022-01-02T07:51:16.541Z</time>
      </trkpt>
      <trkpt lat="44.04657" lon="5.93072">
        <ele>694.20001220703</ele>
        <time>2022-01-02T07:51:17.472Z</time>
      </trkpt>
      <trkpt lat="44.04659" lon="5.93068">
        <ele>695.20001220703</ele>
        <time>2022-01-02T07:51:18.404Z</time>
      </trkpt>
      <trkpt lat="44.04659" lon="5.93064">
        <ele>695.40002441406</ele>
        <time>2022-01-02T07:51:19.337Z</time>
      </trkpt>
      <trkpt lat="44.04658" lon="5.93053">
        <ele>696.79998779297</ele>
        <time>2022-01-02T07:51:20.273Z</time>
      </trkpt>
      <trkpt lat="44.04654" lon="5.93048">
        <ele>698</ele>
        <time>2022-01-02T07:51:21.210Z</time>
      </trkpt>
      <trkpt lat="44.04652" lon="5.93044">
        <ele>698.40002441406</ele>
        <time>2022-01-02T07:51:22.148Z</time>
      </trkpt>
      <trkpt lat="44.04642" lon="5.93038">
        <ele>699</ele>
        <time>2022-01-02T07:51:23.089Z</time>
      </trkpt>
      <trkpt lat="44.0464" lon="5.93034">
        <ele>699.20001220703</ele>
        <time>2022-01-02T07:51:24.031Z</time>
      </trkpt>
      <trkpt lat="44.04639" lon="5.93025">
        <ele>699.79998779297</ele>
        <time>2022-01-02T07:51:24.975Z</time>
      </trkpt>
      <trkpt lat="44.04647" lon="5.93014">
        <ele>700.79998779297</ele>
        <time>2022-01-02T07:51:25.922Z</time>
      </trkpt>
      <trkpt lat="44.04657" lon="5.93014">
        <ele>702</ele>
        <time>2022-01-02T07:51:26.872Z</time>
      </trkpt>
      <trkpt lat="44.04658" lon="5.93013">
        <ele>702.40002441406</ele>
        <time>2022-01-02T07:51:27.822Z</time>
      </trkpt>
      <trkpt lat="44.04658" lon="5.93006">
        <ele>702.59997558594</ele>
        <time>2022-01-02T07:51:28.774Z</time>
      </trkpt>
      <trkpt lat="44.04649" lon="5.92994">
        <ele>703.20001220703</ele>
        <time>2022-01-02T07:51:29.729Z</time>
      </trkpt>
      <trkpt lat="44.04649" lon="5.92988">
        <ele>704.20001220703</ele>
        <time>2022-01-02T07:51:30.685Z</time>
      </trkpt>
      <trkpt lat="44.0465" lon="5.92985">
        <ele>705</ele>
        <time>2022-01-02T07:51:31.642Z</time>
      </trkpt>
      <trkpt lat="44.04651" lon="5.92982">
        <ele>705.79998779297</ele>
        <time>2022-01-02T07:51:32.600Z</time>
      </trkpt>
      <trkpt lat="44.04654" lon="5.92968">
        <ele>707</ele>
        <time>2022-01-02T07:51:33.561Z</time>
      </trkpt>
      <trkpt lat="44.04655" lon="5.92963">
        <ele>707.59997558594</ele>
        <time>2022-01-02T07:51:34.523Z</time>
      </trkpt>
      <trkpt lat="44.04652" lon="5.92954">
        <ele>708.59997558594</ele>
        <time>2022-01-02T07:51:35.487Z</time>
      </trkpt>
      <trkpt lat="44.04648" lon="5.9295">
        <ele>709</ele>
        <time>2022-01-02T07:51:36.452Z</time>
      </trkpt>
      <trkpt lat="44.04643" lon="5.92942">
        <ele>710.20001220703</ele>
        <time>2022-01-02T07:51:37.419Z</time>
      </trkpt>
      <trkpt lat="44.04641" lon="5.92938">
        <ele>710.59997558594</ele>
        <time>2022-01-02T07:51:38.387Z</time>
      </trkpt>
      <trkpt lat="44.04644" lon="5.92934">
        <ele>711.40002441406</ele>
        <time>2022-01-02T07:51:39.356Z</time>
      </trkpt>
      <trkpt lat="44.04647" lon="5.92934">
        <ele>711.40002441406</ele>
        <time>2022-01-02T07:51:40.326Z</time>
      </trkpt>
      <trkpt lat="44.0466" lon="5.92933">
        <ele>711.59997558594</ele>
        <time>2022-01-02T07:51:41.300Z</time>
      </trkpt>
      <trkpt lat="44.0467" lon="5.9293">
        <ele>710</ele>
        <time>2022-01-02T07:51:42.277Z</time>
      </trkpt>
      <trkpt lat="44.0468" lon="5.92925">
        <ele>709.20001220703</ele>
        <time>2022-01-02T07:51:43.257Z</time>
      </trkpt>
      <trkpt lat="44.04685" lon="5.92923">
        <ele>709</ele>
        <time>2022-01-02T07:51:44.238Z</time>
      </trkpt>
      <trkpt lat="44.04703" lon="5.92922">
        <ele>709.40002441406</ele>
        <time>2022-01-02T07:51:45.224Z</time>
      </trkpt>
      <trkpt lat="44.04718" lon="5.92914">
        <ele>710.59997558594</ele>
        <time>2022-01-02T07:51:46.215Z</time>
      </trkpt>
      <trkpt lat="44.04722" lon="5.92911">
        <ele>711</ele>
        <time>2022-01-02T07:51:47.207Z</time>
      </trkpt>
      <trkpt lat="44.04728" lon="5.92899">
        <ele>711.79998779297</ele>
        <time>2022-01-02T07:51:48.202Z</time>
      </trkpt>
      <trkpt lat="44.04728" lon="5.92896">
        <ele>712.20001220703</ele>
        <time>2022-01-02T07:51:49.197Z</time>
      </trkpt>
      <trkpt lat="44.04732" lon="5.92891">
        <ele>713.40002441406</ele>
        <time>2022-01-02T07:51:50.194Z</time>
      </trkpt>
      <trkpt lat="44.04734" lon="5.9289">
        <ele>714.20001220703</ele>
        <time>2022-01-02T07:51:51.192Z</time>
      </trkpt>
      <trkpt lat="44.04735" lon="5.92888">
        <ele>714.59997558594</ele>
        <time>2022-01-02T07:51:52.190Z</time>
      </trkpt>
      <trkpt lat="44.04733" lon="5.92882">
        <ele>715.79998779297</ele>
        <time>2022-01-02T07:51:53.189Z</time>
      </trkpt>
      <trkpt lat="44.04733" lon="5.92879">
        <ele>716.59997558594</ele>
        <time>2022-01-02T07:51:54.189Z</time>
      </trkpt>
      <trkpt lat="44.04733" lon="5.92876">
        <ele>717.20001220703</ele>
        <time>2022-01-02T07:51:55.189Z</time>
      </trkpt>
      <trkpt lat="44.04734" lon="5.92868">
        <ele>719</ele>
        <time>2022-01-02T07:51:56.191Z</time>
      </trkpt>
      <trkpt lat="44.04734" lon="5.92858">
        <ele>719.40002441406</ele>
        <time>2022-01-02T07:51:57.195Z</time>
      </trkpt>
      <trkpt lat="44.04735" lon="5.92852">
        <ele>719.40002441406</ele>
        <time>2022-01-02T07:51:58.200Z</time>
      </trkpt>
      <trkpt lat="44.04737" lon="5.92841">
        <ele>719.59997558594</ele>
        <time>2022-01-02T07:51:59.208Z</time>
      </trkpt>
      <trkpt lat="44.0474" lon="5.92831">
        <ele>720.79998779297</ele>
        <time>2022-01-02T07:52:00.218Z</time>
      </trkpt>
      <trkpt lat="44.04742" lon="5.92826">
        <ele>721.40002441406</ele>
        <time>2022-01-02T07:52:01.229Z</time>
      </trkpt>
      <trkpt lat="44.04744" lon="5.92819">
        <ele>722.20001220703</ele>
        <time>2022-01-02T07:52:02.242Z</time>
      </trkpt>
      <trkpt lat="44.04745" lon="5.92817">
        <ele>722.40002441406</ele>
        <time>2022-01-02T07:52:03.255Z</time>
      </trkpt>
      <trkpt lat="44.04745" lon="5.9281">
        <ele>722.79998779297</ele>
        <time>2022-01-02T07:52:04.270Z</time>
      </trkpt>
      <trkpt lat="44.04743" lon="5.92805">
        <ele>723.40002441406</ele>
        <time>2022-01-02T07:52:05.286Z</time>
      </trkpt>
      <trkpt lat="44.04737" lon="5.92799">
        <ele>723.79998779297</ele>
        <time>2022-01-02T07:52:06.304Z</time>
      </trkpt>
      <trkpt lat="44.0473" lon="5.9279">
        <ele>724.79998779297</ele>
        <time>2022-01-02T07:52:07.325Z</time>
      </trkpt>
      <trkpt lat="44.04726" lon="5.92773">
        <ele>726.20001220703</ele>
        <time>2022-01-02T07:52:08.349Z</time>
      </trkpt>
      <trkpt lat="44.04724" lon="5.92764">
        <ele>727.20001220703</ele>
        <time>2022-01-02T07:52:09.375Z</time>
      </trkpt>
      <trkpt lat="44.04722" lon="5.92754">
        <ele>728.40002441406</ele>
        <time>2022-01-02T07:52:10.403Z</time>
      </trkpt>
      <trkpt lat="44.04727" lon="5.92746">
        <ele>729.59997558594</ele>
        <time>2022-01-02T07:52:11.433Z</time>
      </trkpt>
      <trkpt lat="44.04729" lon="5.92739">
        <ele>729.59997558594</ele>
        <time>2022-01-02T07:52:12.465Z</time>
      </trkpt>
      <trkpt lat="44.04731" lon="5.92737">
        <ele>729.20001220703</ele>
        <time>2022-01-02T07:52:13.497Z</time>
      </trkpt>
      <trkpt lat="44.04739" lon="5.92741">
        <ele>728</ele>
        <time>2022-01-02T07:52:14.532Z</time>
      </trkpt>
      <trkpt lat="44.04747" lon="5.92744">
        <ele>728.59997558594</ele>
        <time>2022-01-02T07:52:15.569Z</time>
      </trkpt>
      <trkpt lat="44.04758" lon="5.92744">
        <ele>728.79998779297</ele>
        <time>2022-01-02T07:52:16.609Z</time>
      </trkpt>
      <trkpt lat="44.04769" lon="5.92731">
        <ele>729</ele>
        <time>2022-01-02T07:52:17.653Z</time>
      </trkpt>
      <trkpt lat="44.04776" lon="5.9272">
        <ele>729.79998779297</ele>
        <time>2022-01-02T07:52:18.700Z</time>
      </trkpt>
      <trkpt lat="44.04781" lon="5.9271">
        <ele>730</ele>
        <time>2022-01-02T07:52:19.750Z</time>
      </trkpt>
      <trkpt lat="44.04789" lon="5.92696">
        <ele>730.20001220703</ele>
        <time>2022-01-02T07:52:20.803Z</time>
      </trkpt>
      <trkpt lat="44.0479" lon="5.92691">
        <ele>730.59997558594</ele>
        <time>2022-01-02T07:52:21.858Z</time>
      </trkpt>
      <trkpt lat="44.04791" lon="5.92686">
        <ele>730.79998779297</ele>
        <time>2022-01-02T07:52:22.914Z</time>
      </trkpt>
      <trkpt lat="44.04792" lon="5.92682">
        <ele>731.20001220703</ele>
        <time>2022-01-02T07:52:23.970Z</time>
      </trkpt>
      <trkpt lat="44.04788" lon="5.9267">
        <ele>732.20001220703</ele>
        <time>2022-01-02T07:52:25.029Z</time>
      </trkpt>
      <trkpt lat="44.04785" lon="5.92667">
        <ele>732.59997558594</ele>
        <time>2022-01-02T07:52:26.089Z</time>
      </trkpt>
      <trkpt lat="44.04782" lon="5.9266">
        <ele>733.40002441406</ele>
        <time>2022-01-02T07:52:27.151Z</time>
      </trkpt>
      <trkpt lat="44.04777" lon="5.92654">
        <ele>734.40002441406</ele>
        <time>2022-01-02T07:52:28.215Z</time>
      </trkpt>
      <trkpt lat="44.04774" lon="5.9265">
        <ele>735</ele>
        <time>2022-01-02T07:52:29.280Z</time>
      </trkpt>
      <trkpt lat="44.04766" lon="5.92643">
        <ele>736.40002441406</ele>
        <time>2022-01-02T07:52:30.347Z</time>
      </trkpt>
      <trkpt lat="44.04765" lon="5.92625">
        <ele>737.59997558594</ele>
        <time>2022-01-02T07:52:31.418Z</time>
      </trkpt>
      <trkpt lat="44.04762" lon="5.92619">
        <ele>737.59997558594</ele>
        <time>2022-01-02T07:52:32.490Z</time>
      </trkpt>
      <trkpt lat="44.04759" lon="5.92614">
        <ele>737.59997558594</ele>
        <time>2022-01-02T07:52:33.564Z</time>
      </trkpt>
      <trkpt lat="44.04753" lon="5.92605">
        <ele>738.40002441406</ele>
        <time>2022-01-02T07:52:34.640Z</time>
      </trkpt>
      <trkpt lat="44.04751" lon="5.926">
        <ele>739</ele>
        <time>2022-01-02T07:52:35.717Z</time>
      </trkpt>
      <trkpt lat="44.04749" lon="5.92591">
        <ele>740.59997558594</ele>
        <time>2022-01-02T07:52:36.796Z</time>
      </trkpt>
      <trkpt lat="44.04749" lon="5.92586">
        <ele>741.20001220703</ele>
        <time>2022-01-02T07:52:37.876Z</time>
      </trkpt>
      <trkpt lat="44.04746" lon="5.92582">
        <ele>741.59997558594</ele>
        <time>2022-01-02T07:52:38.957Z</time>
      </trkpt>
      <trkpt lat="44.04743" lon="5.92574">
        <ele>742.40002441406</ele>
        <time>2022-01-02T07:52:40.040Z</time>
      </trkpt>
      <trkpt lat="44.04741" lon="5.9257">
        <ele>743</ele>
        <time>2022-01-02T07:52:41.124Z</time>
      </trkpt>
      <trkpt lat="44.04737" lon="5.92566">
        <ele>743.40002441406</ele>
        <time>2022-01-02T07:52:42.210Z</time>
      </trkpt>
      <trkpt lat="44.04729" lon="5.92572">
        <ele>744.20001220703</ele>
        <time>2022-01-02T07:52:43.298Z</time>
      </trkpt>
      <trkpt lat="44.0472" lon="5.92572">
        <ele>744.79998779297</ele>
        <time>2022-01-02T07:52:44.389Z</time>
      </trkpt>
      <trkpt lat="44.04714" lon="5.92571">
        <ele>745.40002441406</ele>
        <time>2022-01-02T07:52:45.482Z</time>
      </trkpt>
      <trkpt lat="44.0471" lon="5.92569">
        <ele>746.20001220703</ele>
        <time>2022-01-02T07:52:46.576Z</time>
      </trkpt>
      <trkpt lat="44.04708" lon="5.92567">
        <ele>746.40002441406</ele>
        <time>2022-01-02T07:52:47.670Z</time>
      </trkpt>
      <trkpt lat="44.04708" lon="5.92565">
        <ele>747</ele>
        <time>2022-01-02T07:52:48.765Z</time>
      </trkpt>
      <trkpt lat="44.04706" lon="5.92562">
        <ele>748</ele>
        <time>2022-01-02T07:52:49.861Z</time>
      </trkpt>
      <trkpt lat="44.04705" lon="5.92562">
        <ele>748.20001220703</ele>
        <time>2022-01-02T07:52:50.957Z</time>
      </trkpt>
      <trkpt lat="44.04706" lon="5.92557">
        <ele>748.20001220703</ele>
        <time>2022-01-02T07:52:52.054Z</time>
      </trkpt>
      <trkpt lat="44.04706" lon="5.9255">
        <ele>748.20001220703</ele>
        <time>2022-01-02T07:52:53.152Z</time>
      </trkpt>
      <trkpt lat="44.04709" lon="5.92545">
        <ele>748.59997558594</ele>
        <time>2022-01-02T07:52:54.251Z</time>
      </trkpt>
      <trkpt lat="44.0471" lon="5.92541">
        <ele>748.79998779297</ele>
        <time>2022-01-02T07:52:55.351Z</time>
      </trkpt>
      <trkpt lat="44.0471" lon="5.92537">
        <ele>749</ele>
        <time>2022-01-02T07:52:56.452Z</time>
      </trkpt>
      <trkpt lat="44.04713" lon="5.92531">
        <ele>749.79998779297</ele>
        <time>2022-01-02T07:52:57.555Z</time>
      </trkpt>
      <trkpt lat="44.04718" lon="5.92519">
        <ele>750.79998779297</ele>
        <time>2022-01-02T07:52:58.660Z</time>
      </trkpt>
      <trkpt lat="44.0472" lon="5.92515">
        <ele>750.79998779297</ele>
        <time>2022-01-02T07:52:59.766Z</time>
      </trkpt>
      <trkpt lat="44.04726" lon="5.925">
        <ele>751.79998779297</ele>
        <time>2022-01-02T07:53:00.876Z</time>
      </trkpt>
      <trkpt lat="44.04727" lon="5.92493">
        <ele>752.40002441406</ele>
        <time>2022-01-02T07:53:01.987Z</time>
      </trkpt>
      <trkpt lat="44.04732" lon="5.92487">
        <ele>752.59997558594</ele>
        <time>2022-01-02T07:53:03.100Z</time>
      </trkpt>
      <trkpt lat="44.04737" lon="5.9248">
        <ele>752.79998779297</ele>
        <time>2022-01-02T07:53:04.215Z</time>
      </trkpt>
      <trkpt lat="44.04743" lon="5.92468">
        <ele>753.20001220703</ele>
        <time>2022-01-02T07:53:05.333Z</time>
      </trkpt>
      <trkpt lat="44.04746" lon="5.9246">
        <ele>753.79998779297</ele>
        <time>2022-01-02T07:53:06.453Z</time>
      </trkpt>
      <trkpt lat="44.04749" lon="5.92457">
        <ele>754</ele>
        <time>2022-01-02T07:53:07.574Z</time>
      </trkpt>
      <trkpt lat="44.04752" lon="5.92455">
        <ele>754.20001220703</ele>
        <time>2022-01-02T07:53:08.696Z</time>
      </trkpt>
      <trkpt lat="44.0477" lon="5.92447">
        <ele>754.79998779297</ele>
        <time>2022-01-02T07:53:09.823Z</time>
      </trkpt>
      <trkpt lat="44.04784" lon="5.92442">
        <ele>754.59997558594</ele>
        <time>2022-01-02T07:53:10.954Z</time>
      </trkpt>
      <trkpt lat="44.04795" lon="5.92442">
        <ele>755</ele>
        <time>2022-01-02T07:53:12.088Z</time>
      </trkpt>
      <trkpt lat="44.04797" lon="5.92439">
        <ele>755.79998779297</ele>
        <time>2022-01-02T07:53:13.223Z</time>
      </trkpt>
      <trkpt lat="44.04802" lon="5.92439">
        <ele>657.59997558594</ele>
        <time>2022-01-02T07:53:14.360Z</time>
      </trkpt>
      <trkpt lat="44.04806" lon="5.92441">
        <ele>755.79998779297</ele>
        <time>2022-01-02T07:53:15.498Z</time>
      </trkpt>
      <trkpt lat="44.04812" lon="5.92447">
        <ele>755.59997558594</ele>
        <time>2022-01-02T07:53:16.638Z</time>
      </trkpt>
      <trkpt lat="44.0482" lon="5.92454">
        <ele>755</ele>
        <time>2022-01-02T07:53:17.781Z</time>
      </trkpt>
      <trkpt lat="44.04825" lon="5.92462">
        <ele>754.59997558594</ele>
        <time>2022-01-02T07:53:18.926Z</time>
      </trkpt>
      <trkpt lat="44.04829" lon="5.92474">
        <ele>754</ele>
        <time>2022-01-02T07:53:20.073Z</time>
      </trkpt>
      <trkpt lat="44.04831" lon="5.92481">
        <ele>753.40002441406</ele>
        <time>2022-01-02T07:53:21.222Z</time>
      </trkpt>
      <trkpt lat="44.04837" lon="5.92494">
        <ele>752</ele>
        <time>2022-01-02T07:53:22.374Z</time>
      </trkpt>
      <trkpt lat="44.0484" lon="5.92499">
        <ele>751.20001220703</ele>
        <time>2022-01-02T07:53:23.527Z</time>
      </trkpt>
      <trkpt lat="44.04843" lon="5.92502">
        <ele>750.59997558594</ele>
        <time>2022-01-02T07:53:24.681Z</time>
      </trkpt>
      <trkpt lat="44.04849" lon="5.92503">
        <ele>750.40002441406</ele>
        <time>2022-01-02T07:53:25.837Z</time>
      </trkpt>
      <trkpt lat="44.04854" lon="5.92508">
        <ele>750.20001220703</ele>
        <time>2022-01-02T07:53:26.995Z</time>
      </trkpt>
      <trkpt lat="44.04859" lon="5.92513">
        <ele>750.40002441406</ele>
        <time>2022-01-02T07:53:28.155Z</time>
      </trkpt>
      <trkpt lat="44.04861" lon="5.92515">
        <ele>750.20001220703</ele>
        <time>2022-01-02T07:53:29.315Z</time>
      </trkpt>
      <trkpt lat="44.04862" lon="5.92514">
        <ele>749.79998779297</ele>
        <time>2022-01-02T07:53:30.476Z</time>
      </trkpt>
      <trkpt lat="44.04864" lon="5.92513">
        <ele>749.59997558594</ele>
        <time>2022-01-02T07:53:31.637Z</time>
      </trkpt>
      <trkpt lat="44.04868" lon="5.92497">
        <ele>749.79998779297</ele>
        <time>2022-01-02T07:53:32.802Z</time>
      </trkpt>
      <trkpt lat="44.04863" lon="5.92474">
        <ele>750.40002441406</ele>
        <time>2022-01-02T07:53:33.971Z</time>
      </trkpt>
      <trkpt lat="44.04859" lon="5.92451">
        <ele>751.20001220703</ele>
        <time>2022-01-02T07:53:35.145Z</time>
      </trkpt>
      <trkpt lat="44.04858" lon="5.92443">
        <ele>751.59997558594</ele>
        <time>2022-01-02T07:53:36.321Z</time>
      </trkpt>
      <trkpt lat="44.04854" lon="5.9242">
        <ele>752.59997558594</ele>
        <time>2022-01-02T07:53:37.502Z</time>
      </trkpt>
      <trkpt lat="44.04852" lon="5.92413">
        <ele>753</ele>
        <time>2022-01-02T07:53:38.684Z</time>
      </trkpt>
      <trkpt lat="44.04847" lon="5.92401">
        <ele>753.79998779297</ele>
        <time>2022-01-02T07:53:39.869Z</time>
      </trkpt>
      <trkpt lat="44.04839" lon="5.92382">
        <ele>754.59997558594</ele>
        <time>2022-01-02T07:53:41.058Z</time>
      </trkpt>
      <trkpt lat="44.0483" lon="5.92367">
        <ele>755.79998779297</ele>
        <time>2022-01-02T07:53:42.251Z</time>
      </trkpt>
      <trkpt lat="44.04813" lon="5.92341">
        <ele>757.20001220703</ele>
        <time>2022-01-02T07:53:43.452Z</time>
      </trkpt>
      <trkpt lat="44.04791" lon="5.92326">
        <ele>757.79998779297</ele>
        <time>2022-01-02T07:53:44.659Z</time>
      </trkpt>
      <trkpt lat="44.04772" lon="5.92312">
        <ele>757.40002441406</ele>
        <time>2022-01-02T07:53:45.873Z</time>
      </trkpt>
      <trkpt lat="44.04766" lon="5.92302">
        <ele>756.79998779297</ele>
        <time>2022-01-02T07:53:47.089Z</time>
      </trkpt>
      <trkpt lat="44.04764" lon="5.92292">
        <ele>756.59997558594</ele>
        <time>2022-01-02T07:53:48.307Z</time>
      </trkpt>
      <trkpt lat="44.04769" lon="5.9228">
        <ele>756.40002441406</ele>
        <time>2022-01-02T07:53:49.528Z</time>
      </trkpt>
      <trkpt lat="44.04788" lon="5.92257">
        <ele>756.40002441406</ele>
        <time>2022-01-02T07:53:50.756Z</time>
      </trkpt>
      <trkpt lat="44.04794" lon="5.92247">
        <ele>756.20001220703</ele>
        <time>2022-01-02T07:53:51.987Z</time>
      </trkpt>
      <trkpt lat="44.04799" lon="5.92236">
        <ele>756</ele>
        <time>2022-01-02T07:53:53.220Z</time>
      </trkpt>
      <trkpt lat="44.04805" lon="5.92216">
        <ele>755.20001220703</ele>
        <time>2022-01-02T07:53:54.458Z</time>
      </trkpt>
      <trkpt lat="44.04811" lon="5.92195">
        <ele>754.40002441406</ele>
        <time>2022-01-02T07:53:55.700Z</time>
      </trkpt>
      <trkpt lat="44.04813" lon="5.92188">
        <ele>754.20001220703</ele>
        <time>2022-01-02T07:53:56.944Z</time>
      </trkpt>
      <trkpt lat="44.04821" lon="5.92161">
        <ele>753.40002441406</ele>
        <time>2022-01-02T07:53:58.194Z</time>
      </trkpt>
      <trkpt lat="44.04824" lon="5.92155">
        <ele>753.20001220703</ele>
        <time>2022-01-02T07:53:59.445Z</time>
      </trkpt>
      <trkpt lat="44.04826" lon="5.92148">
        <ele>753</ele>
        <time>2022-01-02T07:54:00.698Z</time>
      </trkpt>
      <trkpt lat="44.04834" lon="5.92127">
        <ele>752.40002441406</ele>
        <time>2022-01-02T07:54:01.955Z</time>
      </trkpt>
      <trkpt lat="44.0484" lon="5.92106">
        <ele>751.40002441406</ele>
        <time>2022-01-02T07:54:03.217Z</time>
      </trkpt>
      <trkpt lat="44.04846" lon="5.92083">
        <ele>750.20001220703</ele>
        <time>2022-01-02T07:54:04.484Z</time>
      </trkpt>
      <trkpt lat="44.04853" lon="5.9206">
        <ele>748.59997558594</ele>
        <time>2022-01-02T07:54:05.756Z</time>
      </trkpt>
      <trkpt lat="44.04859" lon="5.92037">
        <ele>747.79998779297</ele>
        <time>2022-01-02T07:54:07.033Z</time>
      </trkpt>
      <trkpt lat="44.04864" lon="5.92017">
        <ele>747.79998779297</ele>
        <time>2022-01-02T07:54:08.314Z</time>
      </trkpt>
      <trkpt lat="44.04868" lon="5.91978">
        <ele>746.79998779297</ele>
        <time>2022-01-02T07:54:09.603Z</time>
      </trkpt>
      <trkpt lat="44.04869" lon="5.9197">
        <ele>746</ele>
        <time>2022-01-02T07:54:10.894Z</time>
      </trkpt>
      <trkpt lat="44.0487" lon="5.91964">
        <ele>745.40002441406</ele>
        <time>2022-01-02T07:54:12.186Z</time>
      </trkpt>
      <trkpt lat="44.04873" lon="5.9196">
        <ele>745.20001220703</ele>
        <time>2022-01-02T07:54:13.479Z</time>
      </trkpt>
      <trkpt lat="44.04884" lon="5.91959">
        <ele>744.59997558594</ele>
        <time>2022-01-02T07:54:14.776Z</time>
      </trkpt>
      <trkpt lat="44.04904" lon="5.9196">
        <ele>743.79998779297</ele>
        <time>2022-01-02T07:54:16.078Z</time>
      </trkpt>
      <trkpt lat="44.04908" lon="5.91957">
        <ele>743.79998779297</ele>
        <time>2022-01-02T07:54:17.381Z</time>
      </trkpt>
      <trkpt lat="44.0492" lon="5.91944">
        <ele>742.40002441406</ele>
        <time>2022-01-02T07:54:18.689Z</time>
      </trkpt>
      <trkpt lat="44.04924" lon="5.9194">
        <ele>742</ele>
        <time>2022-01-02T07:54:19.998Z</time>
      </trkpt>
      <trkpt lat="44.04933" lon="5.91933">
        <ele>741</ele>
        <time>2022-01-02T07:54:21.310Z</time>
      </trkpt>
      <trkpt lat="44.04938" lon="5.91929">
        <ele>740.79998779297</ele>
        <time>2022-01-02T07:54:22.624Z</time>
      </trkpt>
      <trkpt lat="44.04943" lon="5.91925">
        <ele>740.40002441406</ele>
        <time>2022-01-02T07:54:23.939Z</time>
      </trkpt>
      <trkpt lat="44.04952" lon="5.91917">
        <ele>739.79998779297</ele>
        <time>2022-01-02T07:54:25.257Z</time>
      </trkpt>
      <trkpt lat="44.04961" lon="5.91909">
        <ele>739.20001220703</ele>
        <time>2022-01-02T07:54:26.578Z</time>
      </trkpt>
      <trkpt lat="44.04976" lon="5.91893">
        <ele>739</ele>
        <time>2022-01-02T07:54:27.905Z</time>
      </trkpt>
      <trkpt lat="44.04979" lon="5.91889">
        <ele>739</ele>
        <time>2022-01-02T07:54:29.233Z</time>
      </trkpt>
      <trkpt lat="44.04981" lon="5.91886">
        <ele>739</ele>
        <time>2022-01-02T07:54:30.562Z</time>
      </trkpt>
      <trkpt lat="44.04983" lon="5.91884">
        <ele>738.79998779297</ele>
        <time>2022-01-02T07:54:31.891Z</time>
      </trkpt>
      <trkpt lat="44.04985" lon="5.91885">
        <ele>738.79998779297</ele>
        <time>2022-01-02T07:54:33.221Z</time>
      </trkpt>
      <trkpt lat="44.04985" lon="5.91884">
        <ele>738.79998779297</ele>
        <time>2022-01-02T07:54:34.551Z</time>
      </trkpt>
      <trkpt lat="44.04987" lon="5.91887">
        <ele>738.79998779297</ele>
        <time>2022-01-02T07:54:35.882Z</time>
      </trkpt>
      <trkpt lat="44.04991" lon="5.9189">
        <ele>738.59997558594</ele>
        <time>2022-01-02T07:54:37.214Z</time>
      </trkpt>
      <trkpt lat="44.04993" lon="5.91891">
        <ele>738.59997558594</ele>
        <time>2022-01-02T07:54:38.546Z</time>
      </trkpt>
      <trkpt lat="44.05" lon="5.91894">
        <ele>738.20001220703</ele>
        <time>2022-01-02T07:54:39.881Z</time>
      </trkpt>
      <trkpt lat="44.05004" lon="5.91896">
        <ele>737.79998779297</ele>
        <time>2022-01-02T07:54:41.217Z</time>
      </trkpt>
      <trkpt lat="44.05012" lon="5.919">
        <ele>736.79998779297</ele>
        <time>2022-01-02T07:54:42.555Z</time>
      </trkpt>
      <trkpt lat="44.05021" lon="5.91904">
        <ele>735.40002441406</ele>
        <time>2022-01-02T07:54:43.896Z</time>
      </trkpt>
      <trkpt lat="44.05033" lon="5.91913">
        <ele>734.20001220703</ele>
        <time>2022-01-02T07:54:45.241Z</time>
      </trkpt>
      <trkpt lat="44.05041" lon="5.91917">
        <ele>733.79998779297</ele>
        <time>2022-01-02T07:54:46.588Z</time>
      </trkpt>
      <trkpt lat="44.05058" lon="5.91929">
        <ele>733.40002441406</ele>
        <time>2022-01-02T07:54:47.940Z</time>
      </trkpt>
      <trkpt lat="44.05062" lon="5.91931">
        <ele>733.40002441406</ele>
        <time>2022-01-02T07:54:49.294Z</time>
      </trkpt>
      <trkpt lat="44.05072" lon="5.91932">
        <ele>733.79998779297</ele>
        <time>2022-01-02T07:54:50.650Z</time>
      </trkpt>
      <trkpt lat="44.05076" lon="5.91931">
        <ele>733.59997558594</ele>
        <time>2022-01-02T07:54:52.008Z</time>
      </trkpt>
      <trkpt lat="44.0508" lon="5.9193">
        <ele>733.59997558594</ele>
        <time>2022-01-02T07:54:53.367Z</time>
      </trkpt>
      <trkpt lat="44.05089" lon="5.91928">
        <ele>733.20001220703</ele>
        <time>2022-01-02T07:54:54.728Z</time>
      </trkpt>
      <trkpt lat="44.05096" lon="5.9193">
        <ele>732.40002441406</ele>
        <time>2022-01-02T07:54:56.091Z</time>
      </trkpt>
      <trkpt lat="44.05103" lon="5.9194">
        <ele>731.20001220703</ele>
        <time>2022-01-02T07:54:57.457Z</time>
      </trkpt>
      <trkpt lat="44.05105" lon="5.91945">
        <ele>730.79998779297</ele>
        <time>2022-01-02T07:54:58.824Z</time>
      </trkpt>
      <trkpt lat="44.05109" lon="5.91955">
        <ele>730</ele>
        <time>2022-01-02T07:55:00.194Z</time>
      </trkpt>
      <trkpt lat="44.05111" lon="5.91961">
        <ele>729.79998779297</ele>
        <time>2022-01-02T07:55:01.565Z</time>
      </trkpt>
      <trkpt lat="44.05111" lon="5.91967">
        <ele>728.79998779297</ele>
        <time>2022-01-02T07:55:02.937Z</time>
      </trkpt>
      <trkpt lat="44.05107" lon="5.91977">
        <ele>727.40002441406</ele>
        <time>2022-01-02T07:55:04.311Z</time>
      </trkpt>
      <trkpt lat="44.05103" lon="5.9198">
        <ele>726.40002441406</ele>
        <time>2022-01-02T07:55:05.687Z</time>
      </trkpt>
      <trkpt lat="44.05099" lon="5.91982">
        <ele>725.59997558594</ele>
        <time>2022-01-02T07:55:07.064Z</time>
      </trkpt>
      <trkpt lat="44.05093" lon="5.91989">
        <ele>724.20001220703</ele>
        <time>2022-01-02T07:55:08.443Z</time>
      </trkpt>
      <trkpt lat="44.05094" lon="5.92002">
        <ele>722.40002441406</ele>
        <time>2022-01-02T07:55:09.825Z</time>
      </trkpt>
      <trkpt lat="44.051" lon="5.92012">
        <ele>720.59997558594</ele>
        <time>2022-01-02T07:55:11.209Z</time>
      </trkpt>
      <trkpt lat="44.05104" lon="5.92015">
        <ele>719.59997558594</ele>
        <time>2022-01-02T07:55:12.595Z</time>
      </trkpt>
      <trkpt lat="44.05114" lon="5.92016">
        <ele>717.79998779297</ele>
        <time>2022-01-02T07:55:13.984Z</time>
      </trkpt>
      <trkpt lat="44.05119" lon="5.92016">
        <ele>717</ele>
        <time>2022-01-02T07:55:15.374Z</time>
      </trkpt>
      <trkpt lat="44.05124" lon="5.92014">
        <ele>716.40002441406</ele>
        <time>2022-01-02T07:55:16.765Z</time>
      </trkpt>
      <trkpt lat="44.05133" lon="5.92008">
        <ele>715.79998779297</ele>
        <time>2022-01-02T07:55:18.159Z</time>
      </trkpt>
      <trkpt lat="44.05138" lon="5.92004">
        <ele>715.40002441406</ele>
        <time>2022-01-02T07:55:19.555Z</time>
      </trkpt>
      <trkpt lat="44.05147" lon="5.91997">
        <ele>714.79998779297</ele>
        <time>2022-01-02T07:55:20.954Z</time>
      </trkpt>
      <trkpt lat="44.05151" lon="5.91995">
        <ele>714.59997558594</ele>
        <time>2022-01-02T07:55:22.354Z</time>
      </trkpt>
      <trkpt lat="44.05154" lon="5.91993">
        <ele>714.20001220703</ele>
        <time>2022-01-02T07:55:23.755Z</time>
      </trkpt>
      <trkpt lat="44.05159" lon="5.91992">
        <ele>713.59997558594</ele>
        <time>2022-01-02T07:55:25.157Z</time>
      </trkpt>
      <trkpt lat="44.05163" lon="5.9199">
        <ele>713</ele>
        <time>2022-01-02T07:55:26.561Z</time>
      </trkpt>
      <trkpt lat="44.05169" lon="5.91989">
        <ele>712</ele>
        <time>2022-01-02T07:55:27.966Z</time>
      </trkpt>
      <trkpt lat="44.0518" lon="5.91986">
        <ele>710.59997558594</ele>
        <time>2022-01-02T07:55:29.374Z</time>
      </trkpt>
      <trkpt lat="44.05191" lon="5.91984">
        <ele>709.79998779297</ele>
        <time>2022-01-02T07:55:30.786Z</time>
      </trkpt>
      <trkpt lat="44.05196" lon="5.91984">
        <ele>709.40002441406</ele>
        <time>2022-01-02T07:55:32.199Z</time>
      </trkpt>
      <trkpt lat="44.05211" lon="5.91981">
        <ele>709</ele>
        <time>2022-01-02T07:55:33.616Z</time>
      </trkpt>
      <trkpt lat="44.05221" lon="5.91978">
        <ele>709.20001220703</ele>
        <time>2022-01-02T07:55:35.036Z</time>
      </trkpt>
      <trkpt lat="44.05248" lon="5.9197">
        <ele>709.40002441406</ele>
        <time>2022-01-02T07:55:36.464Z</time>
      </trkpt>
      <trkpt lat="44.05266" lon="5.91969">
        <ele>709.59997558594</ele>
        <time>2022-01-02T07:55:37.897Z</time>
      </trkpt>
      <trkpt lat="44.0527" lon="5.91968">
        <ele>709.59997558594</ele>
        <time>2022-01-02T07:55:39.331Z</time>
      </trkpt>
      <trkpt lat="44.05285" lon="5.91964">
        <ele>709.40002441406</ele>
        <time>2022-01-02T07:55:40.769Z</time>
      </trkpt>
      <trkpt lat="44.05288" lon="5.91963">
        <ele>709.40002441406</ele>
        <time>2022-01-02T07:55:42.208Z</time>
      </trkpt>
      <trkpt lat="44.05304" lon="5.91966">
        <ele>708.79998779297</ele>
        <time>2022-01-02T07:55:43.652Z</time>
      </trkpt>
      <trkpt lat="44.05311" lon="5.91966">
        <ele>708.40002441406</ele>
        <time>2022-01-02T07:55:45.098Z</time>
      </trkpt>
      <trkpt lat="44.05315" lon="5.91966">
        <ele>708.20001220703</ele>
        <time>2022-01-02T07:55:46.545Z</time>
      </trkpt>
      <trkpt lat="44.05327" lon="5.91967">
        <ele>706.79998779297</ele>
        <time>2022-01-02T07:55:47.995Z</time>
      </trkpt>
      <trkpt lat="44.05331" lon="5.91967">
        <ele>706.20001220703</ele>
        <time>2022-01-02T07:55:49.446Z</time>
      </trkpt>
      <trkpt lat="44.05335" lon="5.91965">
        <ele>705.20001220703</ele>
        <time>2022-01-02T07:55:50.898Z</time>
      </trkpt>
      <trkpt lat="44.05345" lon="5.91963">
        <ele>703.79998779297</ele>
        <time>2022-01-02T07:55:52.353Z</time>
      </trkpt>
      <trkpt lat="44.05349" lon="5.91962">
        <ele>702.79998779297</ele>
        <time>2022-01-02T07:55:53.810Z</time>
      </trkpt>
      <trkpt lat="44.05354" lon="5.91961">
        <ele>702.20001220703</ele>
        <time>2022-01-02T07:55:55.268Z</time>
      </trkpt>
      <trkpt lat="44.05363" lon="5.91964">
        <ele>701.40002441406</ele>
        <time>2022-01-02T07:55:56.728Z</time>
      </trkpt>
      <trkpt lat="44.05366" lon="5.91967">
        <ele>701</ele>
        <time>2022-01-02T07:55:58.190Z</time>
      </trkpt>
      <trkpt lat="44.05378" lon="5.91975">
        <ele>700.40002441406</ele>
        <time>2022-01-02T07:55:59.655Z</time>
      </trkpt>
      <trkpt lat="44.05387" lon="5.91984">
        <ele>700.20001220703</ele>
        <time>2022-01-02T07:56:01.123Z</time>
      </trkpt>
      <trkpt lat="44.05387" lon="5.91993">
        <ele>699.79998779297</ele>
        <time>2022-01-02T07:56:02.593Z</time>
      </trkpt>
      <trkpt lat="44.05388" lon="5.92003">
        <ele>698.40002441406</ele>
        <time>2022-01-02T07:56:04.065Z</time>
      </trkpt>
      <trkpt lat="44.05392" lon="5.92013">
        <ele>696.20001220703</ele>
        <time>2022-01-02T07:56:05.540Z</time>
      </trkpt>
      <trkpt lat="44.05393" lon="5.92018">
        <ele>695</ele>
        <time>2022-01-02T07:56:07.016Z</time>
      </trkpt>
      <trkpt lat="44.05394" lon="5.92023">
        <ele>694</ele>
        <time>2022-01-02T07:56:08.493Z</time>
      </trkpt>
      <trkpt lat="44.05395" lon="5.92032">
        <ele>691.79998779297</ele>
        <time>2022-01-02T07:56:09.972Z</time>
      </trkpt>
      <trkpt lat="44.05397" lon="5.92036">
        <ele>690.79998779297</ele>
        <time>2022-01-02T07:56:11.451Z</time>
      </trkpt>
      <trkpt lat="44.054" lon="5.92039">
        <ele>689.79998779297</ele>
        <time>2022-01-02T07:56:12.932Z</time>
      </trkpt>
      <trkpt lat="44.05407" lon="5.92046">
        <ele>688</ele>
        <time>2022-01-02T07:56:14.415Z</time>
      </trkpt>
      <trkpt lat="44.05414" lon="5.92053">
        <ele>686.40002441406</ele>
        <time>2022-01-02T07:56:15.900Z</time>
      </trkpt>
      <trkpt lat="44.05418" lon="5.92061">
        <ele>684.40002441406</ele>
        <time>2022-01-02T07:56:17.387Z</time>
      </trkpt>
      <trkpt lat="44.05418" lon="5.9207">
        <ele>682.59997558594</ele>
        <time>2022-01-02T07:56:18.876Z</time>
      </trkpt>
      <trkpt lat="44.05416" lon="5.9208">
        <ele>680.59997558594</ele>
        <time>2022-01-02T07:56:20.367Z</time>
      </trkpt>
      <trkpt lat="44.05414" lon="5.92083">
        <ele>679.59997558594</ele>
        <time>2022-01-02T07:56:21.859Z</time>
      </trkpt>
      <trkpt lat="44.0541" lon="5.9209">
        <ele>678</ele>
        <time>2022-01-02T07:56:23.353Z</time>
      </trkpt>
      <trkpt lat="44.05407" lon="5.92095">
        <ele>677.20001220703</ele>
        <time>2022-01-02T07:56:24.848Z</time>
      </trkpt>
      <trkpt lat="44.05405" lon="5.921">
        <ele>676.40002441406</ele>
        <time>2022-01-02T07:56:26.344Z</time>
      </trkpt>
      <trkpt lat="44.05403" lon="5.92105">
        <ele>675.20001220703</ele>
        <time>2022-01-02T07:56:27.841Z</time>
      </trkpt>
      <trkpt lat="44.05403" lon="5.92109">
        <ele>674.59997558594</ele>
        <time>2022-01-02T07:56:29.339Z</time>
      </trkpt>
      <trkpt lat="44.05403" lon="5.92111">
        <ele>674</ele>
        <time>2022-01-02T07:56:30.838Z</time>
      </trkpt>
      <trkpt lat="44.05404" lon="5.92114">
        <ele>673.59997558594</ele>
        <time>2022-01-02T07:56:32.338Z</time>
      </trkpt>
      <trkpt lat="44.05407" lon="5.92119">
        <ele>673.20001220703</ele>
        <time>2022-01-02T07:56:33.839Z</time>
      </trkpt>
      <trkpt lat="44.0541" lon="5.92123">
        <ele>672.79998779297</ele>
        <time>2022-01-02T07:56:35.341Z</time>
      </trkpt>
      <trkpt lat="44.05417" lon="5.92131">
        <ele>671.40002441406</ele>
        <time>2022-01-02T07:56:36.846Z</time>
      </trkpt>
      <trkpt lat="44.05425" lon="5.92141">
        <ele>670.20001220703</ele>
        <time>2022-01-02T07:56:38.353Z</time>
      </trkpt>
      <trkpt lat="44.05432" lon="5.92154">
        <ele>669</ele>
        <time>2022-01-02T07:56:39.864Z</time>
      </trkpt>
      <trkpt lat="44.05433" lon="5.92165">
        <ele>667.20001220703</ele>
        <time>2022-01-02T07:56:41.377Z</time>
      </trkpt>
      <trkpt lat="44.05433" lon="5.9217">
        <ele>666.40002441406</ele>
        <time>2022-01-02T07:56:42.891Z</time>
      </trkpt>
      <trkpt lat="44.05433" lon="5.92176">
        <ele>665.79998779297</ele>
        <time>2022-01-02T07:56:44.406Z</time>
      </trkpt>
      <trkpt lat="44.05437" lon="5.92184">
        <ele>665</ele>
        <time>2022-01-02T07:56:45.923Z</time>
      </trkpt>
      <trkpt lat="44.05441" lon="5.92187">
        <ele>664.20001220703</ele>
        <time>2022-01-02T07:56:47.442Z</time>
      </trkpt>
      <trkpt lat="44.05443" lon="5.9219">
        <ele>663.59997558594</ele>
        <time>2022-01-02T07:56:48.961Z</time>
      </trkpt>
      <trkpt lat="44.05446" lon="5.92192">
        <ele>663.20001220703</ele>
        <time>2022-01-02T07:56:50.481Z</time>
      </trkpt>
      <trkpt lat="44.05451" lon="5.92197">
        <ele>662.20001220703</ele>
        <time>2022-01-02T07:56:52.003Z</time>
      </trkpt>
      <trkpt lat="44.05452" lon="5.922">
        <ele>661.40002441406</ele>
        <time>2022-01-02T07:56:53.526Z</time>
      </trkpt>
      <trkpt lat="44.05453" lon="5.92203">
        <ele>660.40002441406</ele>
        <time>2022-01-02T07:56:55.049Z</time>
      </trkpt>
      <trkpt lat="44.05455" lon="5.92208">
        <ele>660</ele>
        <time>2022-01-02T07:56:56.573Z</time>
      </trkpt>
      <trkpt lat="44.05457" lon="5.92212">
        <ele>659</ele>
        <time>2022-01-02T07:56:58.098Z</time>
      </trkpt>
      <trkpt lat="44.05458" lon="5.92216">
        <ele>657.79998779297</ele>
        <time>2022-01-02T07:56:59.624Z</time>
      </trkpt>
      <trkpt lat="44.05459" lon="5.9222">
        <ele>657</ele>
        <time>2022-01-02T07:57:01.151Z</time>
      </trkpt>
      <trkpt lat="44.05462" lon="5.92224">
        <ele>655.59997558594</ele>
        <time>2022-01-02T07:57:02.679Z</time>
      </trkpt>
      <trkpt lat="44.05463" lon="5.92228">
        <ele>654.59997558594</ele>
        <time>2022-01-02T07:57:04.208Z</time>
      </trkpt>
      <trkpt lat="44.05463" lon="5.92231">
        <ele>653.79998779297</ele>
        <time>2022-01-02T07:57:05.738Z</time>
      </trkpt>
      <trkpt lat="44.05463" lon="5.92239">
        <ele>652.79998779297</ele>
        <time>2022-01-02T07:57:07.269Z</time>
      </trkpt>
      <trkpt lat="44.05462" lon="5.92243">
        <ele>652</ele>
        <time>2022-01-02T07:57:08.801Z</time>
      </trkpt>
      <trkpt lat="44.05462" lon="5.92247">
        <ele>651.20001220703</ele>
        <time>2022-01-02T07:57:10.334Z</time>
      </trkpt>
      <trkpt lat="44.05465" lon="5.92256">
        <ele>649.79998779297</ele>
        <time>2022-01-02T07:57:11.869Z</time>
      </trkpt>
      <trkpt lat="44.05467" lon="5.92266">
        <ele>649</ele>
        <time>2022-01-02T07:57:13.406Z</time>
      </trkpt>
      <trkpt lat="44.05468" lon="5.92272">
        <ele>648.40002441406</ele>
        <time>2022-01-02T07:57:14.944Z</time>
      </trkpt>
      <trkpt lat="44.05467" lon="5.92277">
        <ele>647.79998779297</ele>
        <time>2022-01-02T07:57:16.483Z</time>
      </trkpt>
      <trkpt lat="44.05467" lon="5.92281">
        <ele>647</ele>
        <time>2022-01-02T07:57:18.023Z</time>
      </trkpt>
      <trkpt lat="44.05465" lon="5.92289">
        <ele>645.59997558594</ele>
        <time>2022-01-02T07:57:19.565Z</time>
      </trkpt>
      <trkpt lat="44.05466" lon="5.92293">
        <ele>644.59997558594</ele>
        <time>2022-01-02T07:57:21.108Z</time>
      </trkpt>
      <trkpt lat="44.05468" lon="5.92303">
        <ele>643</ele>
        <time>2022-01-02T07:57:22.653Z</time>
      </trkpt>
      <trkpt lat="44.05466" lon="5.92305">
        <ele>642.59997558594</ele>
        <time>2022-01-02T07:57:24.198Z</time>
      </trkpt>
      <trkpt lat="44.05465" lon="5.92306">
        <ele>642</ele>
        <time>2022-01-02T07:57:25.744Z</time>
      </trkpt>
      <trkpt lat="44.05465" lon="5.92307">
        <ele>641</ele>
        <time>2022-01-02T07:57:27.290Z</time>
      </trkpt>
      <trkpt lat="44.05462" lon="5.92308">
        <ele>640.40002441406</ele>
        <time>2022-01-02T07:57:28.837Z</time>
      </trkpt>
      <trkpt lat="44.05454" lon="5.92308">
        <ele>639.40002441406</ele>
        <time>2022-01-02T07:57:30.386Z</time>
      </trkpt>
      <trkpt lat="44.05452" lon="5.92308">
        <ele>639.20001220703</ele>
        <time>2022-01-02T07:57:31.936Z</time>
      </trkpt>
      <trkpt lat="44.05447" lon="5.92315">
        <ele>638.59997558594</ele>
        <time>2022-01-02T07:57:33.487Z</time>
      </trkpt>
      <trkpt lat="44.05443" lon="5.92319">
        <ele>638.59997558594</ele>
        <time>2022-01-02T07:57:35.040Z</time>
      </trkpt>
      <trkpt lat="44.0544" lon="5.9232">
        <ele>638.79998779297</ele>
        <time>2022-01-02T07:57:36.594Z</time>
      </trkpt>
      <trkpt lat="44.0544" lon="5.9232">
        <ele>639.20001220703</ele>
        <time>2022-01-02T07:57:38.148Z</time>
      </trkpt>
      <trkpt lat="44.05435" lon="5.92322">
        <ele>639.40002441406</ele>
        <time>2022-01-02T07:57:39.703Z</time>
      </trkpt>
      <trkpt lat="44.05432" lon="5.92323">
        <ele>639.40002441406</ele>
        <time>2022-01-02T07:57:41.259Z</time>
      </trkpt>
      <trkpt lat="44.05421" lon="5.92322">
        <ele>639.40002441406</ele>
        <time>2022-01-02T07:57:42.818Z</time>
      </trkpt>
      <trkpt lat="44.05414" lon="5.92326">
        <ele>639</ele>
        <time>2022-01-02T07:57:44.379Z</time>
      </trkpt>
      <trkpt lat="44.05412" lon="5.92331">
        <ele>638.59997558594</ele>
        <time>2022-01-02T07:57:45.941Z</time>
      </trkpt>
      <trkpt lat="44.05411" lon="5.92337">
        <ele>638</ele>
        <time>2022-01-02T07:57:47.505Z</time>
      </trkpt>
      <trkpt lat="44.0541" lon="5.92347">
        <ele>637.59997558594</ele>
        <time>2022-01-02T07:57:49.071Z</time>
      </trkpt>
      <trkpt lat="44.05411" lon="5.92352">
        <ele>637.40002441406</ele>
        <time>2022-01-02T07:57:50.638Z</time>
      </trkpt>
      <trkpt lat="44.05412" lon="5.92358">
        <ele>636.79998779297</ele>
        <time>2022-01-02T07:57:52.206Z</time>
      </trkpt>
      <trkpt lat="44.05411" lon="5.92363">
        <ele>636.40002441406</ele>
        <time>2022-01-02T07:57:53.775Z</time>
      </trkpt>
      <trkpt lat="44.05414" lon="5.92376">
        <ele>635.20001220703</ele>
        <time>2022-01-02T07:57:55.347Z</time>
      </trkpt>
      <trkpt lat="44.05417" lon="5.9238">
        <ele>635</ele>
        <time>2022-01-02T07:57:56.920Z</time>
      </trkpt>
      <trkpt lat="44.05428" lon="5.9239">
        <ele>635.20001220703</ele>
        <time>2022-01-02T07:57:58.497Z</time>
      </trkpt>
      <trkpt lat="44.05432" lon="5.92396">
        <ele>636</ele>
        <time>2022-01-02T07:58:00.075Z</time>
      </trkpt>
      <trkpt lat="44.05436" lon="5.92402">
        <ele>636.79998779297</ele>
        <time>2022-01-02T07:58:01.655Z</time>
      </trkpt>
      <trkpt lat="44.05441" lon="5.92408">
        <ele>638</ele>
        <time>2022-01-02T07:58:03.237Z</time>
      </trkpt>
      <trkpt lat="44.05448" lon="5.92417">
        <ele>639.40002441406</ele>
        <time>2022-01-02T07:58:04.822Z</time>
      </trkpt>
      <trkpt lat="44.0545" lon="5.92422">
        <ele>640.20001220703</ele>
        <time>2022-01-02T07:58:06.408Z</time>
      </trkpt>
      <trkpt lat="44.05451" lon="5.92426">
        <ele>640.59997558594</ele>
        <time>2022-01-02T07:58:07.995Z</time>
      </trkpt>
      <trkpt lat="44.05454" lon="5.92438">
        <ele>641.79998779297</ele>
        <time>2022-01-02T07:58:09.584Z</time>
      </trkpt>
      <trkpt lat="44.05457" lon="5.92445">
        <ele>643.20001220703</ele>
        <time>2022-01-02T07:58:11.175Z</time>
      </trkpt>
      <trkpt lat="44.05462" lon="5.92452">
        <ele>644.40002441406</ele>
        <time>2022-01-02T07:58:12.768Z</time>
      </trkpt>
      <trkpt lat="44.05465" lon="5.92455">
        <ele>644.79998779297</ele>
        <time>2022-01-02T07:58:14.362Z</time>
      </trkpt>
      <trkpt lat="44.05475" lon="5.92465">
        <ele>645.79998779297</ele>
        <time>2022-01-02T07:58:15.959Z</time>
      </trkpt>
      <trkpt lat="44.05478" lon="5.92469">
        <ele>646</ele>
        <time>2022-01-02T07:58:17.557Z</time>
      </trkpt>
      <trkpt lat="44.05483" lon="5.92484">
        <ele>647</ele>
        <time>2022-01-02T07:58:19.159Z</time>
      </trkpt>
      <trkpt lat="44.05489" lon="5.92498">
        <ele>648.59997558594</ele>
        <time>2022-01-02T07:58:20.764Z</time>
      </trkpt>
      <trkpt lat="44.05493" lon="5.92511">
        <ele>649.79998779297</ele>
        <time>2022-01-02T07:58:22.372Z</time>
      </trkpt>
      <trkpt lat="44.05493" lon="5.92515">
        <ele>650.40002441406</ele>
        <time>2022-01-02T07:58:23.981Z</time>
      </trkpt>
      <trkpt lat="44.05492" lon="5.92519">
        <ele>651</ele>
        <time>2022-01-02T07:58:25.591Z</time>
      </trkpt>
      <trkpt lat="44.0549" lon="5.92523">
        <ele>651.40002441406</ele>
        <time>2022-01-02T07:58:27.202Z</time>
      </trkpt>
      <trkpt lat="44.05483" lon="5.92532">
        <ele>652</ele>
        <time>2022-01-02T07:58:28.815Z</time>
      </trkpt>
      <trkpt lat="44.05481" lon="5.92534">
        <ele>652.20001220703</ele>
        <time>2022-01-02T07:58:30.429Z</time>
      </trkpt>
      <trkpt lat="44.05479" lon="5.92536">
        <ele>652.40002441406</ele>
        <time>2022-01-02T07:58:32.044Z</time>
      </trkpt>
      <trkpt lat="44.05473" lon="5.92547">
        <ele>651.40002441406</ele>
        <time>2022-01-02T07:58:33.662Z</time>
      </trkpt>
      <trkpt lat="44.05474" lon="5.9255">
        <ele>650.79998779297</ele>
        <time>2022-01-02T07:58:35.280Z</time>
      </trkpt>
      <trkpt lat="44.05477" lon="5.92554">
        <ele>650.20001220703</ele>
        <time>2022-01-02T07:58:36.899Z</time>
      </trkpt>
      <trkpt lat="44.05483" lon="5.92555">
        <ele>650.20001220703</ele>
        <time>2022-01-02T07:58:38.520Z</time>
      </trkpt>
      <trkpt lat="44.05489" lon="5.92556">
        <ele>650.40002441406</ele>
        <time>2022-01-02T07:58:40.143Z</time>
      </trkpt>
      <trkpt lat="44.05501" lon="5.9256">
        <ele>652.20001220703</ele>
        <time>2022-01-02T07:58:41.769Z</time>
      </trkpt>
      <trkpt lat="44.05504" lon="5.9256">
        <ele>652.59997558594</ele>
        <time>2022-01-02T07:58:43.396Z</time>
      </trkpt>
      <trkpt lat="44.05507" lon="5.92561">
        <ele>653.20001220703</ele>
        <time>2022-01-02T07:58:45.024Z</time>
      </trkpt>
      <trkpt lat="44.05513" lon="5.92563">
        <ele>654.79998779297</ele>
        <time>2022-01-02T07:58:46.654Z</time>
      </trkpt>
      <trkpt lat="44.05518" lon="5.92565">
        <ele>655.79998779297</ele>
        <time>2022-01-02T07:58:48.285Z</time>
      </trkpt>
      <trkpt lat="44.05525" lon="5.92571">
        <ele>657.40002441406</ele>
        <time>2022-01-02T07:58:49.918Z</time>
      </trkpt>
      <trkpt lat="44.0553" lon="5.92574">
        <ele>658.79998779297</ele>
        <time>2022-01-02T07:58:51.553Z</time>
      </trkpt>
      <trkpt lat="44.05535" lon="5.92578">
        <ele>660</ele>
        <time>2022-01-02T07:58:53.189Z</time>
      </trkpt>
      <trkpt lat="44.05536" lon="5.92581">
        <ele>660.20001220703</ele>
        <time>2022-01-02T07:58:54.826Z</time>
      </trkpt>
      <trkpt lat="44.05541" lon="5.92589">
        <ele>661.40002441406</ele>
        <time>2022-01-02T07:58:56.465Z</time>
      </trkpt>
      <trkpt lat="44.05543" lon="5.92591">
        <ele>661.79998779297</ele>
        <time>2022-01-02T07:58:58.105Z</time>
      </trkpt>
      <trkpt lat="44.05545" lon="5.92593">
        <ele>662.59997558594</ele>
        <time>2022-01-02T07:58:59.746Z</time>
      </trkpt>
      <trkpt lat="44.05552" lon="5.92606">
        <ele>663.59997558594</ele>
        <time>2022-01-02T07:59:01.390Z</time>
      </trkpt>
      <trkpt lat="44.05553" lon="5.9261">
        <ele>664</ele>
        <time>2022-01-02T07:59:03.035Z</time>
      </trkpt>
      <trkpt lat="44.05558" lon="5.92618">
        <ele>664.79998779297</ele>
        <time>2022-01-02T07:59:04.682Z</time>
      </trkpt>
      <trkpt lat="44.05561" lon="5.92624">
        <ele>665.40002441406</ele>
        <time>2022-01-02T07:59:06.331Z</time>
      </trkpt>
      <trkpt lat="44.05563" lon="5.92631">
        <ele>666</ele>
        <time>2022-01-02T07:59:07.981Z</time>
      </trkpt>
      <trkpt lat="44.05565" lon="5.92638">
        <ele>666.40002441406</ele>
        <time>2022-01-02T07:59:09.633Z</time>
      </trkpt>
      <trkpt lat="44.05569" lon="5.92652">
        <ele>666.20001220703</ele>
        <time>2022-01-02T07:59:11.288Z</time>
      </trkpt>
      <trkpt lat="44.0557" lon="5.92654">
        <ele>665.79998779297</ele>
        <time>2022-01-02T07:59:12.943Z</time>
      </trkpt>
      <trkpt lat="44.05568" lon="5.92657">
        <ele>666</ele>
        <time>2022-01-02T07:59:14.599Z</time>
      </trkpt>
      <trkpt lat="44.05571" lon="5.92669">
        <ele>665.79998779297</ele>
        <time>2022-01-02T07:59:16.257Z</time>
      </trkpt>
      <trkpt lat="44.05576" lon="5.92676">
        <ele>664.40002441406</ele>
        <time>2022-01-02T07:59:17.917Z</time>
      </trkpt>
      <trkpt lat="44.05576" lon="5.92679">
        <ele>663.59997558594</ele>
        <time>2022-01-02T07:59:19.578Z</time>
      </trkpt>
      <trkpt lat="44.05575" lon="5.9268">
        <ele>663.40002441406</ele>
        <time>2022-01-02T07:59:21.239Z</time>
      </trkpt>
      <trkpt lat="44.05572" lon="5.92686">
        <ele>663.20001220703</ele>
        <time>2022-01-02T07:59:22.902Z</time>
      </trkpt>
      <trkpt lat="44.05577" lon="5.92695">
        <ele>663</ele>
        <time>2022-01-02T07:59:24.567Z</time>
      </trkpt>
      <trkpt lat="44.05585" lon="5.92695">
        <ele>662.79998779297</ele>
        <time>2022-01-02T07:59:26.234Z</time>
      </trkpt>
      <trkpt lat="44.05596" lon="5.92689">
        <ele>662.59997558594</ele>
        <time>2022-01-02T07:59:27.905Z</time>
      </trkpt>
      <trkpt lat="44.05602" lon="5.92687">
        <ele>662.40002441406</ele>
        <time>2022-01-02T07:59:29.577Z</time>
      </trkpt>
      <trkpt lat="44.05609" lon="5.92687">
        <ele>662.59997558594</ele>
        <time>2022-01-02T07:59:31.251Z</time>
      </trkpt>
      <trkpt lat="44.05621" lon="5.92691">
        <ele>663.40002441406</ele>
        <time>2022-01-02T07:59:32.929Z</time>
      </trkpt>
      <trkpt lat="44.05623" lon="5.92693">
        <ele>664.20001220703</ele>
        <time>2022-01-02T07:59:34.608Z</time>
      </trkpt>
      <trkpt lat="44.05628" lon="5.92698">
        <ele>665.79998779297</ele>
        <time>2022-01-02T07:59:36.288Z</time>
      </trkpt>
      <trkpt lat="44.0563" lon="5.92705">
        <ele>667.20001220703</ele>
        <time>2022-01-02T07:59:37.970Z</time>
      </trkpt>
      <trkpt lat="44.05631" lon="5.92712">
        <ele>667.79998779297</ele>
        <time>2022-01-02T07:59:39.653Z</time>
      </trkpt>
      <trkpt lat="44.05633" lon="5.92715">
        <ele>668.20001220703</ele>
        <time>2022-01-02T07:59:41.337Z</time>
      </trkpt>
      <trkpt lat="44.05635" lon="5.92715">
        <ele>668.40002441406</ele>
        <time>2022-01-02T07:59:43.022Z</time>
      </trkpt>
      <trkpt lat="44.05644" lon="5.92716">
        <ele>669.79998779297</ele>
        <time>2022-01-02T07:59:44.709Z</time>
      </trkpt>
      <trkpt lat="44.05649" lon="5.9272">
        <ele>670.20001220703</ele>
        <time>2022-01-02T07:59:46.398Z</time>
      </trkpt>
      <trkpt lat="44.05651" lon="5.92723">
        <ele>670.79998779297</ele>
        <time>2022-01-02T07:59:48.087Z</time>
      </trkpt>
      <trkpt lat="44.05657" lon="5.92727">
        <ele>672.20001220703</ele>
        <time>2022-01-02T07:59:49.778Z</time>
      </trkpt>
      <trkpt lat="44.05666" lon="5.92734">
        <ele>673.20001220703</ele>
        <time>2022-01-02T07:59:51.472Z</time>
      </trkpt>
      <trkpt lat="44.05676" lon="5.92739">
        <ele>674.20001220703</ele>
        <time>2022-01-02T07:59:53.169Z</time>
      </trkpt>
      <trkpt lat="44.05681" lon="5.92742">
        <ele>675.20001220703</ele>
        <time>2022-01-02T07:59:54.868Z</time>
      </trkpt>
      <trkpt lat="44.05686" lon="5.92744">
        <ele>675.79998779297</ele>
        <time>2022-01-02T07:59:56.568Z</time>
      </trkpt>
      <trkpt lat="44.05696" lon="5.92747">
        <ele>677.20001220703</ele>
        <time>2022-01-02T07:59:58.271Z</time>
      </trkpt>
      <trkpt lat="44.05703" lon="5.92751">
        <ele>678.20001220703</ele>
        <time>2022-01-02T07:59:59.976Z</time>
      </trkpt>
      <trkpt lat="44.0571" lon="5.92757">
        <ele>678.20001220703</ele>
        <time>2022-01-02T08:00:01.684Z</time>
      </trkpt>
      <trkpt lat="44.05724" lon="5.92769">
        <ele>677.59997558594</ele>
        <time>2022-01-02T08:00:03.396Z</time>
      </trkpt>
      <trkpt lat="44.05728" lon="5.92778">
        <ele>677.20001220703</ele>
        <time>2022-01-02T08:00:05.110Z</time>
      </trkpt>
      <trkpt lat="44.0573" lon="5.92781">
        <ele>677</ele>
        <time>2022-01-02T08:00:06.825Z</time>
      </trkpt>
      <trkpt lat="44.05733" lon="5.92784">
        <ele>676.20001220703</ele>
        <time>2022-01-02T08:00:08.541Z</time>
      </trkpt>
      <trkpt lat="44.0574" lon="5.92792">
        <ele>674.79998779297</ele>
        <time>2022-01-02T08:00:10.260Z</time>
      </trkpt>
      <trkpt lat="44.05742" lon="5.92797">
        <ele>674</ele>
        <time>2022-01-02T08:00:11.980Z</time>
      </trkpt>
      <trkpt lat="44.05745" lon="5.92803">
        <ele>673.20001220703</ele>
        <time>2022-01-02T08:00:13.702Z</time>
      </trkpt>
      <trkpt lat="44.05749" lon="5.92809">
        <ele>672.59997558594</ele>
        <time>2022-01-02T08:00:15.425Z</time>
      </trkpt>
      <trkpt lat="44.05753" lon="5.92814">
        <ele>671.79998779297</ele>
        <time>2022-01-02T08:00:17.150Z</time>
      </trkpt>
      <trkpt lat="44.05759" lon="5.92819">
        <ele>670.79998779297</ele>
        <time>2022-01-02T08:00:18.877Z</time>
      </trkpt>
      <trkpt lat="44.05765" lon="5.92823">
        <ele>670</ele>
        <time>2022-01-02T08:00:20.605Z</time>
      </trkpt>
      <trkpt lat="44.05771" lon="5.92827">
        <ele>668.40002441406</ele>
        <time>2022-01-02T08:00:22.335Z</time>
      </trkpt>
      <trkpt lat="44.0578" lon="5.92835">
        <ele>667.20001220703</ele>
        <time>2022-01-02T08:00:24.068Z</time>
      </trkpt>
      <trkpt lat="44.05783" lon="5.92838">
        <ele>666.40002441406</ele>
        <time>2022-01-02T08:00:25.802Z</time>
      </trkpt>
      <trkpt lat="44.05786" lon="5.92841">
        <ele>666</ele>
        <time>2022-01-02T08:00:27.537Z</time>
      </trkpt>
      <trkpt lat="44.05794" lon="5.92856">
        <ele>665.20001220703</ele>
        <time>2022-01-02T08:00:29.276Z</time>
      </trkpt>
      <trkpt lat="44.05794" lon="5.9286">
        <ele>665</ele>
        <time>2022-01-02T08:00:31.016Z</time>
      </trkpt>
      <trkpt lat="44.05795" lon="5.92869">
        <ele>664.59997558594</ele>
        <time>2022-01-02T08:00:32.758Z</time>
      </trkpt>
      <trkpt lat="44.058" lon="5.92877">
        <ele>663.79998779297</ele>
        <time>2022-01-02T08:00:34.502Z</time>
      </trkpt>
      <trkpt lat="44.05806" lon="5.92883">
        <ele>663.40002441406</ele>
        <time>2022-01-02T08:00:36.248Z</time>
      </trkpt>
      <trkpt lat="44.05808" lon="5.92887">
        <ele>663.40002441406</ele>
        <time>2022-01-02T08:00:37.995Z</time>
      </trkpt>
      <trkpt lat="44.05816" lon="5.92899">
        <ele>663</ele>
        <time>2022-01-02T08:00:39.746Z</time>
      </trkpt>
      <trkpt lat="44.05823" lon="5.92907">
        <ele>663</ele>
        <time>2022-01-02T08:00:41.499Z</time>
      </trkpt>
      <trkpt lat="44.05825" lon="5.92912">
        <ele>662.79998779297</ele>
        <time>2022-01-02T08:00:43.253Z</time>
      </trkpt>
      <trkpt lat="44.05829" lon="5.92925">
        <ele>662.79998779297</ele>
        <time>2022-01-02T08:00:45.010Z</time>
      </trkpt>
      <trkpt lat="44.05839" lon="5.92942">
        <ele>662.40002441406</ele>
        <time>2022-01-02T08:00:46.771Z</time>
      </trkpt>
      <trkpt lat="44.05843" lon="5.9295">
        <ele>662.20001220703</ele>
        <time>2022-01-02T08:00:48.535Z</time>
      </trkpt>
      <trkpt lat="44.05857" lon="5.92975">
        <ele>662.40002441406</ele>
        <time>2022-01-02T08:00:50.305Z</time>
      </trkpt>
      <trkpt lat="44.05863" lon="5.92979">
        <ele>662.59997558594</ele>
        <time>2022-01-02T08:00:52.077Z</time>
      </trkpt>
      <trkpt lat="44.05865" lon="5.92978">
        <ele>663</ele>
        <time>2022-01-02T08:00:53.849Z</time>
      </trkpt>
      <trkpt lat="44.05867" lon="5.92978">
        <ele>663</ele>
        <time>2022-01-02T08:00:55.622Z</time>
      </trkpt>
      <trkpt lat="44.0587" lon="5.92977">
        <ele>662.59997558594</ele>
        <time>2022-01-02T08:00:57.396Z</time>
      </trkpt>
      <trkpt lat="44.05878" lon="5.92978">
        <ele>661.20001220703</ele>
        <time>2022-01-02T08:00:59.172Z</time>
      </trkpt>
      <trkpt lat="44.05882" lon="5.92977">
        <ele>660.40002441406</ele>
        <time>2022-01-02T08:01:00.949Z</time>
      </trkpt>
      <trkpt lat="44.05887" lon="5.92975">
        <ele>659.20001220703</ele>
        <time>2022-01-02T08:01:02.728Z</time>
      </trkpt>
      <trkpt lat="44.05891" lon="5.92974">
        <ele>658.20001220703</ele>
        <time>2022-01-02T08:01:04.508Z</time>
      </trkpt>
      <trkpt lat="44.05897" lon="5.92976">
        <ele>657</ele>
        <time>2022-01-02T08:01:06.289Z</time>
      </trkpt>
      <trkpt lat="44.05903" lon="5.92978">
        <ele>656</ele>
        <time>2022-01-02T08:01:08.072Z</time>
      </trkpt>
      <trkpt lat="44.05908" lon="5.9298">
        <ele>655.40002441406</ele>
        <time>2022-01-02T08:01:09.857Z</time>
      </trkpt>
      <trkpt lat="44.05913" lon="5.92984">
        <ele>654.59997558594</ele>
        <time>2022-01-02T08:01:11.643Z</time>
      </trkpt>
      <trkpt lat="44.0592" lon="5.92992">
        <ele>653.59997558594</ele>
        <time>2022-01-02T08:01:13.432Z</time>
      </trkpt>
      <trkpt lat="44.05919" lon="5.93008">
        <ele>653</ele>
        <time>2022-01-02T08:01:15.224Z</time>
      </trkpt>
      <trkpt lat="44.05916" lon="5.93012">
        <ele>652.59997558594</ele>
        <time>2022-01-02T08:01:17.017Z</time>
      </trkpt>
      <trkpt lat="44.05913" lon="5.93017">
        <ele>652.20001220703</ele>
        <time>2022-01-02T08:01:18.811Z</time>
      </trkpt>
      <trkpt lat="44.0591" lon="5.93022">
        <ele>651.20001220703</ele>
        <time>2022-01-02T08:01:20.607Z</time>
      </trkpt>
      <trkpt lat="44.05909" lon="5.93027">
        <ele>650.40002441406</ele>
        <time>2022-01-02T08:01:22.404Z</time>
      </trkpt>
      <trkpt lat="44.05906" lon="5.93038">
        <ele>649.20001220703</ele>
        <time>2022-01-02T08:01:24.203Z</time>
      </trkpt>
      <trkpt lat="44.059" lon="5.93042">
        <ele>647.59997558594</ele>
        <time>2022-01-02T08:01:26.004Z</time>
      </trkpt>
      <trkpt lat="44.05896" lon="5.93042">
        <ele>647.20001220703</ele>
        <time>2022-01-02T08:01:27.806Z</time>
      </trkpt>
      <trkpt lat="44.05887" lon="5.93048">
        <ele>646.40002441406</ele>
        <time>2022-01-02T08:01:29.611Z</time>
      </trkpt>
      <trkpt lat="44.05884" lon="5.93051">
        <ele>646.20001220703</ele>
        <time>2022-01-02T08:01:31.417Z</time>
      </trkpt>
      <trkpt lat="44.05882" lon="5.93051">
        <ele>646.20001220703</ele>
        <time>2022-01-02T08:01:33.223Z</time>
      </trkpt>
      <trkpt lat="44.05874" lon="5.93052">
        <ele>646.40002441406</ele>
        <time>2022-01-02T08:01:35.032Z</time>
      </trkpt>
      <trkpt lat="44.05863" lon="5.9305">
        <ele>648</ele>
        <time>2022-01-02T08:01:36.844Z</time>
      </trkpt>
      <trkpt lat="44.0586" lon="5.9305">
        <ele>648.20001220703</ele>
        <time>2022-01-02T08:01:38.657Z</time>
      </trkpt>
      <trkpt lat="44.05853" lon="5.93047">
        <ele>648.40002441406</ele>
        <time>2022-01-02T08:01:40.472Z</time>
      </trkpt>
      <trkpt lat="44.0585" lon="5.93044">
        <ele>648.59997558594</ele>
        <time>2022-01-02T08:01:42.288Z</time>
      </trkpt>
      <trkpt lat="44.05847" lon="5.93042">
        <ele>648.59997558594</ele>
        <time>2022-01-02T08:01:44.105Z</time>
      </trkpt>
      <trkpt lat="44.05844" lon="5.93037">
        <ele>649.40002441406</ele>
        <time>2022-01-02T08:01:45.923Z</time>
      </trkpt>
      <trkpt lat="44.05841" lon="5.93035">
        <ele>649.59997558594</ele>
        <time>2022-01-02T08:01:47.742Z</time>
      </trkpt>
      <trkpt lat="44.05838" lon="5.93035">
        <ele>649.79998779297</ele>
        <time>2022-01-02T08:01:49.562Z</time>
      </trkpt>
      <trkpt lat="44.05832" lon="5.93038">
        <ele>649.79998779297</ele>
        <time>2022-01-02T08:01:51.383Z</time>
      </trkpt>
      <trkpt lat="44.05815" lon="5.9304">
        <ele>649.40002441406</ele>
        <time>2022-01-02T08:01:53.209Z</time>
      </trkpt>
      <trkpt lat="44.0581" lon="5.9304">
        <ele>649.59997558594</ele>
        <time>2022-01-02T08:01:55.037Z</time>
      </trkpt>
      <trkpt lat="44.05801" lon="5.9304">
        <ele>650</ele>
        <time>2022-01-02T08:01:56.867Z</time>
      </trkpt>
      <trkpt lat="44.05791" lon="5.93039">
        <ele>650.59997558594</ele>
        <time>2022-01-02T08:01:58.700Z</time>
      </trkpt>
      <trkpt lat="44.05787" lon="5.93039">
        <ele>651</ele>
        <time>2022-01-02T08:02:00.534Z</time>
      </trkpt>
      <trkpt lat="44.05784" lon="5.9304">
        <ele>651.20001220703</ele>
        <time>2022-01-02T08:02:02.369Z</time>
      </trkpt>
      <trkpt lat="44.05783" lon="5.93042">
        <ele>651.40002441406</ele>
        <time>2022-01-02T08:02:04.204Z</time>
      </trkpt>
      <trkpt lat="44.05778" lon="5.93051">
        <ele>651.59997558594</ele>
        <time>2022-01-02T08:02:06.042Z</time>
      </trkpt>
      <trkpt lat="44.05773" lon="5.93063">
        <ele>651.79998779297</ele>
        <time>2022-01-02T08:02:07.883Z</time>
      </trkpt>
      <trkpt lat="44.05779" lon="5.9307">
        <ele>652</ele>
        <time>2022-01-02T08:02:09.726Z</time>
      </trkpt>
      <trkpt lat="44.05795" lon="5.93079">
        <ele>651.59997558594</ele>
        <time>2022-01-02T08:02:11.574Z</time>
      </trkpt>
      <trkpt lat="44.05808" lon="5.93089">
        <ele>651.59997558594</ele>
        <time>2022-01-02T08:02:13.426Z</time>
      </trkpt>
      <trkpt lat="44.05811" lon="5.93092">
        <ele>652.79998779297</ele>
        <time>2022-01-02T08:02:15.279Z</time>
      </trkpt>
      <trkpt lat="44.05813" lon="5.93094">
        <ele>653.40002441406</ele>
        <time>2022-01-02T08:02:17.133Z</time>
      </trkpt>
      <trkpt lat="44.05818" lon="5.93098">
        <ele>653.40002441406</ele>
        <time>2022-01-02T08:02:18.988Z</time>
      </trkpt>
      <trkpt lat="44.05821" lon="5.93099">
        <ele>653.59997558594</ele>
        <time>2022-01-02T08:02:20.844Z</time>
      </trkpt>
      <trkpt lat="44.05837" lon="5.93108">
        <ele>653.59997558594</ele>
        <time>2022-01-02T08:02:22.705Z</time>
      </trkpt>
      <trkpt lat="44.05849" lon="5.9312">
        <ele>654.79998779297</ele>
        <time>2022-01-02T08:02:24.570Z</time>
      </trkpt>
      <trkpt lat="44.05852" lon="5.93128">
        <ele>655.40002441406</ele>
        <time>2022-01-02T08:02:26.437Z</time>
      </trkpt>
      <trkpt lat="44.05857" lon="5.93134">
        <ele>656.20001220703</ele>
        <time>2022-01-02T08:02:28.306Z</time>
      </trkpt>
      <trkpt lat="44.05864" lon="5.93139">
        <ele>657.59997558594</ele>
        <time>2022-01-02T08:02:30.177Z</time>
      </trkpt>
      <trkpt lat="44.05869" lon="5.93143">
        <ele>658.40002441406</ele>
        <time>2022-01-02T08:02:32.050Z</time>
      </trkpt>
      <trkpt lat="44.05871" lon="5.93145">
        <ele>658.79998779297</ele>
        <time>2022-01-02T08:02:33.923Z</time>
      </trkpt>
      <trkpt lat="44.05878" lon="5.93151">
        <ele>660</ele>
        <time>2022-01-02T08:02:35.799Z</time>
      </trkpt>
      <trkpt lat="44.05884" lon="5.93153">
        <ele>660.59997558594</ele>
        <time>2022-01-02T08:02:37.676Z</time>
      </trkpt>
      <trkpt lat="44.059" lon="5.93159">
        <ele>661.40002441406</ele>
        <time>2022-01-02T08:02:39.558Z</time>
      </trkpt>
      <trkpt lat="44.05912" lon="5.93169">
        <ele>662.40002441406</ele>
        <time>2022-01-02T08:02:41.444Z</time>
      </trkpt>
      <trkpt lat="44.05918" lon="5.93173">
        <ele>662.79998779297</ele>
        <time>2022-01-02T08:02:43.332Z</time>
      </trkpt>
      <trkpt lat="44.05927" lon="5.93181">
        <ele>663.79998779297</ele>
        <time>2022-01-02T08:02:45.223Z</time>
      </trkpt>
      <trkpt lat="44.05931" lon="5.93183">
        <ele>664.20001220703</ele>
        <time>2022-01-02T08:02:47.115Z</time>
      </trkpt>
      <trkpt lat="44.05941" lon="5.93189">
        <ele>665.20001220703</ele>
        <time>2022-01-02T08:02:49.010Z</time>
      </trkpt>
      <trkpt lat="44.05946" lon="5.93194">
        <ele>666</ele>
        <time>2022-01-02T08:02:50.907Z</time>
      </trkpt>
      <trkpt lat="44.05948" lon="5.93197">
        <ele>666.79998779297</ele>
        <time>2022-01-02T08:02:52.805Z</time>
      </trkpt>
      <trkpt lat="44.05959" lon="5.93205">
        <ele>668.40002441406</ele>
        <time>2022-01-02T08:02:54.706Z</time>
      </trkpt>
      <trkpt lat="44.0597" lon="5.93216">
        <ele>670</ele>
        <time>2022-01-02T08:02:56.611Z</time>
      </trkpt>
      <trkpt lat="44.05972" lon="5.93219">
        <ele>670.40002441406</ele>
        <time>2022-01-02T08:02:58.517Z</time>
      </trkpt>
      <trkpt lat="44.05973" lon="5.93222">
        <ele>670.59997558594</ele>
        <time>2022-01-02T08:03:00.423Z</time>
      </trkpt>
      <trkpt lat="44.05969" lon="5.93225">
        <ele>671.20001220703</ele>
        <time>2022-01-02T08:03:02.331Z</time>
      </trkpt>
      <trkpt lat="44.05967" lon="5.93225">
        <ele>671.79998779297</ele>
        <time>2022-01-02T08:03:04.239Z</time>
      </trkpt>
      <trkpt lat="44.05962" lon="5.93227">
        <ele>672.59997558594</ele>
        <time>2022-01-02T08:03:06.149Z</time>
      </trkpt>
      <trkpt lat="44.05952" lon="5.93229">
        <ele>673.59997558594</ele>
        <time>2022-01-02T08:03:08.062Z</time>
      </trkpt>
      <trkpt lat="44.05948" lon="5.93229">
        <ele>673.79998779297</ele>
        <time>2022-01-02T08:03:09.976Z</time>
      </trkpt>
      <trkpt lat="44.05938" lon="5.93228">
        <ele>674.79998779297</ele>
        <time>2022-01-02T08:03:11.893Z</time>
      </trkpt>
      <trkpt lat="44.05924" lon="5.93226">
        <ele>675.40002441406</ele>
        <time>2022-01-02T08:03:13.814Z</time>
      </trkpt>
      <trkpt lat="44.0592" lon="5.93225">
        <ele>675.40002441406</ele>
        <time>2022-01-02T08:03:15.736Z</time>
      </trkpt>
      <trkpt lat="44.05905" lon="5.93223">
        <ele>676.59997558594</ele>
        <time>2022-01-02T08:03:17.662Z</time>
      </trkpt>
      <trkpt lat="44.05902" lon="5.93223">
        <ele>677.20001220703</ele>
        <time>2022-01-02T08:03:19.589Z</time>
      </trkpt>
      <trkpt lat="44.05901" lon="5.93224">
        <ele>677.40002441406</ele>
        <time>2022-01-02T08:03:21.516Z</time>
      </trkpt>
      <trkpt lat="44.059" lon="5.93227">
        <ele>677.79998779297</ele>
        <time>2022-01-02T08:03:23.444Z</time>
      </trkpt>
      <trkpt lat="44.05902" lon="5.9323">
        <ele>678</ele>
        <time>2022-01-02T08:03:25.372Z</time>
      </trkpt>
      <trkpt lat="44.05906" lon="5.93235">
        <ele>679</ele>
        <time>2022-01-02T08:03:27.302Z</time>
      </trkpt>
      <trkpt lat="44.0591" lon="5.93238">
        <ele>679.40002441406</ele>
        <time>2022-01-02T08:03:29.233Z</time>
      </trkpt>
      <trkpt lat="44.05913" lon="5.9324">
        <ele>679.79998779297</ele>
        <time>2022-01-02T08:03:31.165Z</time>
      </trkpt>
      <trkpt lat="44.05926" lon="5.93253">
        <ele>680.40002441406</ele>
        <time>2022-01-02T08:03:33.102Z</time>
      </trkpt>
      <trkpt lat="44.05929" lon="5.93256">
        <ele>680.59997558594</ele>
        <time>2022-01-02T08:03:35.040Z</time>
      </trkpt>
      <trkpt lat="44.05938" lon="5.93262">
        <ele>681.59997558594</ele>
        <time>2022-01-02T08:03:36.981Z</time>
      </trkpt>
      <trkpt lat="44.0594" lon="5.93265">
        <ele>681.79998779297</ele>
        <time>2022-01-02T08:03:38.922Z</time>
      </trkpt>
      <trkpt lat="44.05941" lon="5.93267">
        <ele>682</ele>
        <time>2022-01-02T08:03:40.864Z</time>
      </trkpt>
      <trkpt lat="44.05945" lon="5.93269">
        <ele>682.59997558594</ele>
        <time>2022-01-02T08:03:42.807Z</time>
      </trkpt>
      <trkpt lat="44.05949" lon="5.93276">
        <ele>683</ele>
        <time>2022-01-02T08:03:44.752Z</time>
      </trkpt>
      <trkpt lat="44.05952" lon="5.93282">
        <ele>683.40002441406</ele>
        <time>2022-01-02T08:03:46.698Z</time>
      </trkpt>
      <trkpt lat="44.05951" lon="5.93284">
        <ele>683.79998779297</ele>
        <time>2022-01-02T08:03:48.645Z</time>
      </trkpt>
      <trkpt lat="44.05949" lon="5.93285">
        <ele>684.40002441406</ele>
        <time>2022-01-02T08:03:50.593Z</time>
      </trkpt>
      <trkpt lat="44.05944" lon="5.93285">
        <ele>685</ele>
        <time>2022-01-02T08:03:52.542Z</time>
      </trkpt>
      <trkpt lat="44.05941" lon="5.93284">
        <ele>685.20001220703</ele>
        <time>2022-01-02T08:03:54.492Z</time>
      </trkpt>
      <trkpt lat="44.05938" lon="5.93284">
        <ele>685.40002441406</ele>
        <time>2022-01-02T08:03:56.443Z</time>
      </trkpt>
      <trkpt lat="44.0593" lon="5.9328">
        <ele>685.79998779297</ele>
        <time>2022-01-02T08:03:58.396Z</time>
      </trkpt>
      <trkpt lat="44.05912" lon="5.93273">
        <ele>685.79998779297</ele>
        <time>2022-01-02T08:04:00.354Z</time>
      </trkpt>
      <trkpt lat="44.05896" lon="5.93269">
        <ele>687</ele>
        <time>2022-01-02T08:04:02.317Z</time>
      </trkpt>
      <trkpt lat="44.0589" lon="5.93267">
        <ele>687.40002441406</ele>
        <time>2022-01-02T08:04:04.282Z</time>
      </trkpt>
      <trkpt lat="44.0588" lon="5.93263">
        <ele>687.59997558594</ele>
        <time>2022-01-02T08:04:06.249Z</time>
      </trkpt>
      <trkpt lat="44.05873" lon="5.9326">
        <ele>687.40002441406</ele>
        <time>2022-01-02T08:04:08.219Z</time>
      </trkpt>
      <trkpt lat="44.05859" lon="5.93263">
        <ele>687.20001220703</ele>
        <time>2022-01-02T08:04:10.193Z</time>
      </trkpt>
      <trkpt lat="44.05856" lon="5.93265">
        <ele>687.40002441406</ele>
        <time>2022-01-02T08:04:12.168Z</time>
      </trkpt>
      <trkpt lat="44.05847" lon="5.9327">
        <ele>687.40002441406</ele>
        <time>2022-01-02T08:04:14.145Z</time>
      </trkpt>
      <trkpt lat="44.05845" lon="5.93274">
        <ele>687.40002441406</ele>
        <time>2022-01-02T08:04:16.123Z</time>
      </trkpt>
      <trkpt lat="44.05847" lon="5.93297">
        <ele>687.40002441406</ele>
        <time>2022-01-02T08:04:18.106Z</time>
      </trkpt>
      <trkpt lat="44.05848" lon="5.93324">
        <ele>688</ele>
        <time>2022-01-02T08:04:20.094Z</time>
      </trkpt>
      <trkpt lat="44.05849" lon="5.93329">
        <ele>688</ele>
        <time>2022-01-02T08:04:22.083Z</time>
      </trkpt>
      <trkpt lat="44.05849" lon="5.9335">
        <ele>688.40002441406</ele>
        <time>2022-01-02T08:04:24.077Z</time>
      </trkpt>
      <trkpt lat="44.05847" lon="5.93368">
        <ele>688.20001220703</ele>
        <time>2022-01-02T08:04:26.074Z</time>
      </trkpt>
      <trkpt lat="44.05844" lon="5.93377">
        <ele>688</ele>
        <time>2022-01-02T08:04:28.074Z</time>
      </trkpt>
      <trkpt lat="44.05832" lon="5.93401">
        <ele>688</ele>
        <time>2022-01-02T08:04:30.079Z</time>
      </trkpt>
      <trkpt lat="44.0582" lon="5.93422">
        <ele>687.20001220703</ele>
        <time>2022-01-02T08:04:32.090Z</time>
      </trkpt>
      <trkpt lat="44.05817" lon="5.93432">
        <ele>686.20001220703</ele>
        <time>2022-01-02T08:04:34.103Z</time>
      </trkpt>
      <trkpt lat="44.05816" lon="5.93433">
        <ele>686</ele>
        <time>2022-01-02T08:04:36.116Z</time>
      </trkpt>
      <trkpt lat="44.05815" lon="5.93434">
        <ele>686.20001220703</ele>
        <time>2022-01-02T08:04:38.130Z</time>
      </trkpt>
      <trkpt lat="44.05811" lon="5.9344">
        <ele>685.79998779297</ele>
        <time>2022-01-02T08:04:40.145Z</time>
      </trkpt>
      <trkpt lat="44.05811" lon="5.93443">
        <ele>685.59997558594</ele>
        <time>2022-01-02T08:04:42.161Z</time>
      </trkpt>
      <trkpt lat="44.05806" lon="5.93447">
        <ele>685</ele>
        <time>2022-01-02T08:04:44.178Z</time>
      </trkpt>
      <trkpt lat="44.05804" lon="5.9345">
        <ele>684.79998779297</ele>
        <time>2022-01-02T08:04:46.196Z</time>
      </trkpt>
      <trkpt lat="44.05797" lon="5.93454">
        <ele>683.79998779297</ele>
        <time>2022-01-02T08:04:48.216Z</time>
      </trkpt>
      <trkpt lat="44.05793" lon="5.93452">
        <ele>683.20001220703</ele>
        <time>2022-01-02T08:04:50.238Z</time>
      </trkpt>
      <trkpt lat="44.05789" lon="5.93451">
        <ele>682.59997558594</ele>
        <time>2022-01-02T08:04:52.261Z</time>
      </trkpt>
      <trkpt lat="44.0578" lon="5.93445">
        <ele>682</ele>
        <time>2022-01-02T08:04:54.287Z</time>
      </trkpt>
      <trkpt lat="44.05774" lon="5.9344">
        <ele>681.79998779297</ele>
        <time>2022-01-02T08:04:56.315Z</time>
      </trkpt>
      <trkpt lat="44.05765" lon="5.93434">
        <ele>681</ele>
        <time>2022-01-02T08:04:58.346Z</time>
      </trkpt>
      <trkpt lat="44.05762" lon="5.93431">
        <ele>681</ele>
        <time>2022-01-02T08:05:00.378Z</time>
      </trkpt>
      <trkpt lat="44.05747" lon="5.93418">
        <ele>679.79998779297</ele>
        <time>2022-01-02T08:05:02.414Z</time>
      </trkpt>
      <trkpt lat="44.05734" lon="5.93412">
        <ele>678.79998779297</ele>
        <time>2022-01-02T08:05:04.454Z</time>
      </trkpt>
      <trkpt lat="44.05732" lon="5.93413">
        <ele>678.40002441406</ele>
        <time>2022-01-02T08:05:06.495Z</time>
      </trkpt>
      <trkpt lat="44.05724" lon="5.93415">
        <ele>677.40002441406</ele>
        <time>2022-01-02T08:05:08.538Z</time>
      </trkpt>
      <trkpt lat="44.05719" lon="5.93418">
        <ele>676.79998779297</ele>
        <time>2022-01-02T08:05:10.583Z</time>
      </trkpt>
      <trkpt lat="44.05715" lon="5.9342">
        <ele>676.59997558594</ele>
        <time>2022-01-02T08:05:12.629Z</time>
      </trkpt>
      <trkpt lat="44.05715" lon="5.9342">
        <ele>676.40002441406</ele>
        <time>2022-01-02T08:05:14.675Z</time>
      </trkpt>
      <trkpt lat="44.05715" lon="5.9342">
        <ele>676.20001220703</ele>
        <time>2022-01-02T08:05:16.721Z</time>
      </trkpt>
      <trkpt lat="44.05713" lon="5.93422">
        <ele>675.79998779297</ele>
        <time>2022-01-02T08:05:18.768Z</time>
      </trkpt>
      <trkpt lat="44.05709" lon="5.93423">
        <ele>675.59997558594</ele>
        <time>2022-01-02T08:05:20.816Z</time>
      </trkpt>
      <trkpt lat="44.05701" lon="5.93425">
        <ele>675</ele>
        <time>2022-01-02T08:05:22.866Z</time>
      </trkpt>
      <trkpt lat="44.05697" lon="5.93424">
        <ele>674.40002441406</ele>
        <time>2022-01-02T08:05:24.917Z</time>
      </trkpt>
      <trkpt lat="44.05691" lon="5.93419">
        <ele>673.40002441406</ele>
        <time>2022-01-02T08:05:26.970Z</time>
      </trkpt>
      <trkpt lat="44.05686" lon="5.9342">
        <ele>672.40002441406</ele>
        <time>2022-01-02T08:05:29.025Z</time>
      </trkpt>
      <trkpt lat="44.05683" lon="5.93421">
        <ele>672.40002441406</ele>
        <time>2022-01-02T08:05:31.081Z</time>
      </trkpt>
      <trkpt lat="44.05673" lon="5.93427">
        <ele>671.20001220703</ele>
        <time>2022-01-02T08:05:33.140Z</time>
      </trkpt>
      <trkpt lat="44.05669" lon="5.9343">
        <ele>670.79998779297</ele>
        <time>2022-01-02T08:05:35.200Z</time>
      </trkpt>
      <trkpt lat="44.05665" lon="5.93433">
        <ele>670.20001220703</ele>
        <time>2022-01-02T08:05:37.261Z</time>
      </trkpt>
      <trkpt lat="44.0566" lon="5.93436">
        <ele>669.79998779297</ele>
        <time>2022-01-02T08:05:39.324Z</time>
      </trkpt>
      <trkpt lat="44.05652" lon="5.93435">
        <ele>669.40002441406</ele>
        <time>2022-01-02T08:05:41.389Z</time>
      </trkpt>
      <trkpt lat="44.05645" lon="5.93435">
        <ele>669.20001220703</ele>
        <time>2022-01-02T08:05:43.456Z</time>
      </trkpt>
      <trkpt lat="44.05643" lon="5.93439">
        <ele>669</ele>
        <time>2022-01-02T08:05:45.524Z</time>
      </trkpt>
      <trkpt lat="44.05635" lon="5.93451">
        <ele>668</ele>
        <time>2022-01-02T08:05:47.595Z</time>
      </trkpt>
      <trkpt lat="44.0563" lon="5.93454">
        <ele>667.20001220703</ele>
        <time>2022-01-02T08:05:49.667Z</time>
      </trkpt>
      <trkpt lat="44.05626" lon="5.93454">
        <ele>666.59997558594</ele>
        <time>2022-01-02T08:05:51.741Z</time>
      </trkpt>
      <trkpt lat="44.05622" lon="5.93459">
        <ele>666</ele>
        <time>2022-01-02T08:05:53.816Z</time>
      </trkpt>
      <trkpt lat="44.05622" lon="5.93462">
        <ele>665.40002441406</ele>
        <time>2022-01-02T08:05:55.892Z</time>
      </trkpt>
      <trkpt lat="44.0562" lon="5.93467">
        <ele>664.40002441406</ele>
        <time>2022-01-02T08:05:57.969Z</time>
      </trkpt>
      <trkpt lat="44.05618" lon="5.93468">
        <ele>663.79998779297</ele>
        <time>2022-01-02T08:06:00.046Z</time>
      </trkpt>
      <trkpt lat="44.05613" lon="5.9347">
        <ele>662.79998779297</ele>
        <time>2022-01-02T08:06:02.125Z</time>
      </trkpt>
      <trkpt lat="44.0561" lon="5.93474">
        <ele>662.40002441406</ele>
        <time>2022-01-02T08:06:04.205Z</time>
      </trkpt>
      <trkpt lat="44.05604" lon="5.93491">
        <ele>661.79998779297</ele>
        <time>2022-01-02T08:06:06.289Z</time>
      </trkpt>
      <trkpt lat="44.05595" lon="5.93499">
        <ele>662</ele>
        <time>2022-01-02T08:06:08.376Z</time>
      </trkpt>
      <trkpt lat="44.05587" lon="5.93512">
        <ele>662.40002441406</ele>
        <time>2022-01-02T08:06:10.466Z</time>
      </trkpt>
      <trkpt lat="44.05587" lon="5.9352">
        <ele>662.79998779297</ele>
        <time>2022-01-02T08:06:12.558Z</time>
      </trkpt>
      <trkpt lat="44.05592" lon="5.93529">
        <ele>663</ele>
        <time>2022-01-02T08:06:14.652Z</time>
      </trkpt>
      <trkpt lat="44.05593" lon="5.9353">
        <ele>662.79998779297</ele>
        <time>2022-01-02T08:06:16.747Z</time>
      </trkpt>
      <trkpt lat="44.05599" lon="5.93534">
        <ele>662.59997558594</ele>
        <time>2022-01-02T08:06:18.843Z</time>
      </trkpt>
      <trkpt lat="44.0561" lon="5.93539">
        <ele>661.59997558594</ele>
        <time>2022-01-02T08:06:20.943Z</time>
      </trkpt>
      <trkpt lat="44.05613" lon="5.93543">
        <ele>661.40002441406</ele>
        <time>2022-01-02T08:06:23.044Z</time>
      </trkpt>
      <trkpt lat="44.05627" lon="5.93557">
        <ele>660.79998779297</ele>
        <time>2022-01-02T08:06:25.150Z</time>
      </trkpt>
      <trkpt lat="44.05645" lon="5.93574">
        <ele>661.79998779297</ele>
        <time>2022-01-02T08:06:27.262Z</time>
      </trkpt>
      <trkpt lat="44.05656" lon="5.93588">
        <ele>663</ele>
        <time>2022-01-02T08:06:29.378Z</time>
      </trkpt>
      <trkpt lat="44.05678" lon="5.93606">
        <ele>663.79998779297</ele>
        <time>2022-01-02T08:06:31.501Z</time>
      </trkpt>
      <trkpt lat="44.05696" lon="5.93621">
        <ele>663.79998779297</ele>
        <time>2022-01-02T08:06:33.630Z</time>
      </trkpt>
      <trkpt lat="44.0571" lon="5.93636">
        <ele>664.40002441406</ele>
        <time>2022-01-02T08:06:35.764Z</time>
      </trkpt>
      <trkpt lat="44.05714" lon="5.9364">
        <ele>664.79998779297</ele>
        <time>2022-01-02T08:06:37.899Z</time>
      </trkpt>
      <trkpt lat="44.05729" lon="5.93657">
        <ele>665.20001220703</ele>
        <time>2022-01-02T08:06:40.040Z</time>
      </trkpt>
      <trkpt lat="44.05724" lon="5.93668">
        <ele>664.59997558594</ele>
        <time>2022-01-02T08:06:42.184Z</time>
      </trkpt>
      <trkpt lat="44.0571" lon="5.93678">
        <ele>664.79998779297</ele>
        <time>2022-01-02T08:06:44.332Z</time>
      </trkpt>
      <trkpt lat="44.057" lon="5.93685">
        <ele>666</ele>
        <time>2022-01-02T08:06:46.483Z</time>
      </trkpt>
      <trkpt lat="44.05692" lon="5.93688">
        <ele>666.40002441406</ele>
        <time>2022-01-02T08:06:48.636Z</time>
      </trkpt>
      <trkpt lat="44.05681" lon="5.93685">
        <ele>666.79998779297</ele>
        <time>2022-01-02T08:06:50.792Z</time>
      </trkpt>
      <trkpt lat="44.05678" lon="5.93683">
        <ele>666.79998779297</ele>
        <time>2022-01-02T08:06:52.950Z</time>
      </trkpt>
      <trkpt lat="44.05674" lon="5.93682">
        <ele>667</ele>
        <time>2022-01-02T08:06:55.109Z</time>
      </trkpt>
      <trkpt lat="44.0567" lon="5.93681">
        <ele>667.40002441406</ele>
        <time>2022-01-02T08:06:57.269Z</time>
      </trkpt>
      <trkpt lat="44.05667" lon="5.93683">
        <ele>667.59997558594</ele>
        <time>2022-01-02T08:06:59.430Z</time>
      </trkpt>
      <trkpt lat="44.05656" lon="5.93683">
        <ele>668.20001220703</ele>
        <time>2022-01-02T08:07:01.594Z</time>
      </trkpt>
      <trkpt lat="44.05651" lon="5.93682">
        <ele>668.40002441406</ele>
        <time>2022-01-02T08:07:03.759Z</time>
      </trkpt>
      <trkpt lat="44.05641" lon="5.93687">
        <ele>669.20001220703</ele>
        <time>2022-01-02T08:07:05.927Z</time>
      </trkpt>
      <trkpt lat="44.0563" lon="5.93693">
        <ele>669.40002441406</ele>
        <time>2022-01-02T08:07:08.098Z</time>
      </trkpt>
      <trkpt lat="44.05622" lon="5.93695">
        <ele>669.59997558594</ele>
        <time>2022-01-02T08:07:10.272Z</time>
      </trkpt>
      <trkpt lat="44.05619" lon="5.93696">
        <ele>669.59997558594</ele>
        <time>2022-01-02T08:07:12.447Z</time>
      </trkpt>
      <trkpt lat="44.05616" lon="5.93698">
        <ele>669.59997558594</ele>
        <time>2022-01-02T08:07:14.623Z</time>
      </trkpt>
      <trkpt lat="44.05616" lon="5.93711">
        <ele>669.79998779297</ele>
        <time>2022-01-02T08:07:16.801Z</time>
      </trkpt>
      <trkpt lat="44.0562" lon="5.93722">
        <ele>669.79998779297</ele>
        <time>2022-01-02T08:07:18.982Z</time>
      </trkpt>
      <trkpt lat="44.05627" lon="5.93733">
        <ele>670.40002441406</ele>
        <time>2022-01-02T08:07:21.166Z</time>
      </trkpt>
      <trkpt lat="44.05625" lon="5.93742">
        <ele>670.79998779297</ele>
        <time>2022-01-02T08:07:23.352Z</time>
      </trkpt>
      <trkpt lat="44.05621" lon="5.93743">
        <ele>671</ele>
        <time>2022-01-02T08:07:25.539Z</time>
      </trkpt>
      <trkpt lat="44.05612" lon="5.9374">
        <ele>671.59997558594</ele>
        <time>2022-01-02T08:07:27.728Z</time>
      </trkpt>
      <trkpt lat="44.05608" lon="5.93738">
        <ele>672</ele>
        <time>2022-01-02T08:07:29.919Z</time>
      </trkpt>
      <trkpt lat="44.05597" lon="5.93728">
        <ele>672.79998779297</ele>
        <time>2022-01-02T08:07:32.113Z</time>
      </trkpt>
      <trkpt lat="44.05593" lon="5.93724">
        <ele>673.20001220703</ele>
        <time>2022-01-02T08:07:34.309Z</time>
      </trkpt>
      <trkpt lat="44.0559" lon="5.93721">
        <ele>673.20001220703</ele>
        <time>2022-01-02T08:07:36.506Z</time>
      </trkpt>
      <trkpt lat="44.05577" lon="5.93717">
        <ele>673.79998779297</ele>
        <time>2022-01-02T08:07:38.706Z</time>
      </trkpt>
      <trkpt lat="44.05569" lon="5.93714">
        <ele>674.59997558594</ele>
        <time>2022-01-02T08:07:40.909Z</time>
      </trkpt>
      <trkpt lat="44.05564" lon="5.93706">
        <ele>675.20001220703</ele>
        <time>2022-01-02T08:07:43.114Z</time>
      </trkpt>
      <trkpt lat="44.05555" lon="5.93692">
        <ele>675.59997558594</ele>
        <time>2022-01-02T08:07:45.323Z</time>
      </trkpt>
      <trkpt lat="44.05553" lon="5.93687">
        <ele>675.59997558594</ele>
        <time>2022-01-02T08:07:47.533Z</time>
      </trkpt>
      <trkpt lat="44.05557" lon="5.93673">
        <ele>675.79998779297</ele>
        <time>2022-01-02T08:07:49.746Z</time>
      </trkpt>
      <trkpt lat="44.05563" lon="5.93657">
        <ele>676.20001220703</ele>
        <time>2022-01-02T08:07:51.963Z</time>
      </trkpt>
      <trkpt lat="44.05568" lon="5.93648">
        <ele>676.40002441406</ele>
        <time>2022-01-02T08:07:54.182Z</time>
      </trkpt>
      <trkpt lat="44.05572" lon="5.93645">
        <ele>677</ele>
        <time>2022-01-02T08:07:56.402Z</time>
      </trkpt>
      <trkpt lat="44.05582" lon="5.93637">
        <ele>678</ele>
        <time>2022-01-02T08:07:58.625Z</time>
      </trkpt>
      <trkpt lat="44.05585" lon="5.93634">
        <ele>678.40002441406</ele>
        <time>2022-01-02T08:08:00.849Z</time>
      </trkpt>
      <trkpt lat="44.05586" lon="5.9363">
        <ele>678.79998779297</ele>
        <time>2022-01-02T08:08:03.074Z</time>
      </trkpt>
      <trkpt lat="44.05583" lon="5.93623">
        <ele>679</ele>
        <time>2022-01-02T08:08:05.301Z</time>
      </trkpt>
      <trkpt lat="44.05573" lon="5.93621">
        <ele>680.20001220703</ele>
        <time>2022-01-02T08:08:07.531Z</time>
      </trkpt>
      <trkpt lat="44.05569" lon="5.93621">
        <ele>681</ele>
        <time>2022-01-02T08:08:09.762Z</time>
      </trkpt>
      <trkpt lat="44.05561" lon="5.93624">
        <ele>681.59997558594</ele>
        <time>2022-01-02T08:08:11.995Z</time>
      </trkpt>
      <trkpt lat="44.05556" lon="5.93625">
        <ele>681.59997558594</ele>
        <time>2022-01-02T08:08:14.229Z</time>
      </trkpt>
      <trkpt lat="44.05537" lon="5.93619">
        <ele>682</ele>
        <time>2022-01-02T08:08:16.469Z</time>
      </trkpt>
      <trkpt lat="44.05527" lon="5.93617">
        <ele>682.59997558594</ele>
        <time>2022-01-02T08:08:18.712Z</time>
      </trkpt>
      <trkpt lat="44.05522" lon="5.93618">
        <ele>683</ele>
        <time>2022-01-02T08:08:20.956Z</time>
      </trkpt>
      <trkpt lat="44.05517" lon="5.93619">
        <ele>683.40002441406</ele>
        <time>2022-01-02T08:08:23.202Z</time>
      </trkpt>
      <trkpt lat="44.05512" lon="5.9362">
        <ele>683.59997558594</ele>
        <time>2022-01-02T08:08:25.449Z</time>
      </trkpt>
      <trkpt lat="44.05507" lon="5.93621">
        <ele>683.79998779297</ele>
        <time>2022-01-02T08:08:27.698Z</time>
      </trkpt>
      <trkpt lat="44.05497" lon="5.93625">
        <ele>684.20001220703</ele>
        <time>2022-01-02T08:08:29.950Z</time>
      </trkpt>
      <trkpt lat="44.05478" lon="5.93631">
        <ele>685</ele>
        <time>2022-01-02T08:08:32.207Z</time>
      </trkpt>
      <trkpt lat="44.05469" lon="5.93632">
        <ele>685.40002441406</ele>
        <time>2022-01-02T08:08:34.466Z</time>
      </trkpt>
      <trkpt lat="44.05466" lon="5.93634">
        <ele>686</ele>
        <time>2022-01-02T08:08:36.726Z</time>
      </trkpt>
      <trkpt lat="44.05453" lon="5.93638">
        <ele>687.20001220703</ele>
        <time>2022-01-02T08:08:38.990Z</time>
      </trkpt>
      <trkpt lat="44.05442" lon="5.93626">
        <ele>688</ele>
        <time>2022-01-02T08:08:41.258Z</time>
      </trkpt>
      <trkpt lat="44.05439" lon="5.93622">
        <ele>688.40002441406</ele>
        <time>2022-01-02T08:08:43.527Z</time>
      </trkpt>
      <trkpt lat="44.05436" lon="5.93618">
        <ele>688.59997558594</ele>
        <time>2022-01-02T08:08:45.797Z</time>
      </trkpt>
      <trkpt lat="44.05429" lon="5.93616">
        <ele>689.40002441406</ele>
        <time>2022-01-02T08:08:48.069Z</time>
      </trkpt>
      <trkpt lat="44.05424" lon="5.93616">
        <ele>689.59997558594</ele>
        <time>2022-01-02T08:08:50.343Z</time>
      </trkpt>
      <trkpt lat="44.0541" lon="5.93612">
        <ele>690.20001220703</ele>
        <time>2022-01-02T08:08:52.621Z</time>
      </trkpt>
      <trkpt lat="44.05398" lon="5.9361">
        <ele>691</ele>
        <time>2022-01-02T08:08:54.902Z</time>
      </trkpt>
      <trkpt lat="44.05393" lon="5.93594">
        <ele>692</ele>
        <time>2022-01-02T08:08:57.187Z</time>
      </trkpt>
      <trkpt lat="44.05392" lon="5.93588">
        <ele>692.40002441406</ele>
        <time>2022-01-02T08:08:59.473Z</time>
      </trkpt>
      <trkpt lat="44.05386" lon="5.93581">
        <ele>693</ele>
        <time>2022-01-02T08:09:01.761Z</time>
      </trkpt>
      <trkpt lat="44.05381" lon="5.93574">
        <ele>693.40002441406</ele>
        <time>2022-01-02T08:09:04.051Z</time>
      </trkpt>
      <trkpt lat="44.05374" lon="5.93567">
        <ele>694</ele>
        <time>2022-01-02T08:09:06.344Z</time>
      </trkpt>
      <trkpt lat="44.0537" lon="5.93563">
        <ele>694.40002441406</ele>
        <time>2022-01-02T08:09:08.638Z</time>
      </trkpt>
      <trkpt lat="44.05366" lon="5.9356">
        <ele>694.59997558594</ele>
        <time>2022-01-02T08:09:10.933Z</time>
      </trkpt>
      <trkpt lat="44.05358" lon="5.93551">
        <ele>695</ele>
        <time>2022-01-02T08:09:13.231Z</time>
      </trkpt>
      <trkpt lat="44.0534" lon="5.93541">
        <ele>695.59997558594</ele>
        <time>2022-01-02T08:09:15.535Z</time>
      </trkpt>
      <trkpt lat="44.05336" lon="5.93539">
        <ele>695.79998779297</ele>
        <time>2022-01-02T08:09:17.840Z</time>
      </trkpt>
      <trkpt lat="44.05323" lon="5.93529">
        <ele>696.40002441406</ele>
        <time>2022-01-02T08:09:20.149Z</time>
      </trkpt>
      <trkpt lat="44.05314" lon="5.93525">
        <ele>696.79998779297</ele>
        <time>2022-01-02T08:09:22.461Z</time>
      </trkpt>
      <trkpt lat="44.0531" lon="5.93523">
        <ele>697</ele>
        <time>2022-01-02T08:09:24.774Z</time>
      </trkpt>
      <trkpt lat="44.05303" lon="5.9352">
        <ele>697.20001220703</ele>
        <time>2022-01-02T08:09:27.089Z</time>
      </trkpt>
      <trkpt lat="44.05293" lon="5.93513">
        <ele>697.20001220703</ele>
        <time>2022-01-02T08:09:29.407Z</time>
      </trkpt>
      <trkpt lat="44.05287" lon="5.9351">
        <ele>697.20001220703</ele>
        <time>2022-01-02T08:09:31.727Z</time>
      </trkpt>
      <trkpt lat="44.05281" lon="5.93509">
        <ele>696.79998779297</ele>
        <time>2022-01-02T08:09:34.049Z</time>
      </trkpt>
      <trkpt lat="44.05281" lon="5.93509">
        <ele>696.79998779297</ele>
        <time>2022-01-02T08:09:36.371Z</time>
      </trkpt>
      <trkpt lat="44.05278" lon="5.9351">
        <ele>696.79998779297</ele>
        <time>2022-01-02T08:09:38.693Z</time>
      </trkpt>
      <trkpt lat="44.05273" lon="5.93509">
        <ele>696.40002441406</ele>
        <time>2022-01-02T08:09:41.017Z</time>
      </trkpt>
      <trkpt lat="44.05263" lon="5.93504">
        <ele>695.79998779297</ele>
        <time>2022-01-02T08:09:43.344Z</time>
      </trkpt>
      <trkpt lat="44.05255" lon="5.93498">
        <ele>695.20001220703</ele>
        <time>2022-01-02T08:09:45.673Z</time>
      </trkpt>
      <trkpt lat="44.05241" lon="5.93483">
        <ele>694.79998779297</ele>
        <time>2022-01-02T08:09:48.007Z</time>
      </trkpt>
      <trkpt lat="44.05237" lon="5.9348">
        <ele>694.59997558594</ele>
        <time>2022-01-02T08:09:50.342Z</time>
      </trkpt>
      <trkpt lat="44.05216" lon="5.93461">
        <ele>694</ele>
        <time>2022-01-02T08:09:52.685Z</time>
      </trkpt>
      <trkpt lat="44.05212" lon="5.93459">
        <ele>693.79998779297</ele>
        <time>2022-01-02T08:09:55.029Z</time>
      </trkpt>
      <trkpt lat="44.05198" lon="5.93451">
        <ele>692.79998779297</ele>
        <time>2022-01-02T08:09:57.377Z</time>
      </trkpt>
      <trkpt lat="44.05194" lon="5.9345">
        <ele>692.40002441406</ele>
        <time>2022-01-02T08:09:59.726Z</time>
      </trkpt>
      <trkpt lat="44.05186" lon="5.93452">
        <ele>691.40002441406</ele>
        <time>2022-01-02T08:10:02.078Z</time>
      </trkpt>
      <trkpt lat="44.05177" lon="5.93459">
        <ele>690</ele>
        <time>2022-01-02T08:10:04.432Z</time>
      </trkpt>
      <trkpt lat="44.05169" lon="5.93467">
        <ele>688.59997558594</ele>
        <time>2022-01-02T08:10:06.789Z</time>
      </trkpt>
      <trkpt lat="44.05162" lon="5.93467">
        <ele>687.20001220703</ele>
        <time>2022-01-02T08:10:09.148Z</time>
      </trkpt>
      <trkpt lat="44.05154" lon="5.93467">
        <ele>686</ele>
        <time>2022-01-02T08:10:11.509Z</time>
      </trkpt>
      <trkpt lat="44.0515" lon="5.93468">
        <ele>685.59997558594</ele>
        <time>2022-01-02T08:10:13.872Z</time>
      </trkpt>
      <trkpt lat="44.05146" lon="5.9347">
        <ele>684.79998779297</ele>
        <time>2022-01-02T08:10:16.236Z</time>
      </trkpt>
      <trkpt lat="44.05142" lon="5.93472">
        <ele>684</ele>
        <time>2022-01-02T08:10:18.601Z</time>
      </trkpt>
      <trkpt lat="44.0514" lon="5.93474">
        <ele>683.59997558594</ele>
        <time>2022-01-02T08:10:20.967Z</time>
      </trkpt>
      <trkpt lat="44.05139" lon="5.93481">
        <ele>682.59997558594</ele>
        <time>2022-01-02T08:10:23.334Z</time>
      </trkpt>
      <trkpt lat="44.05138" lon="5.93493">
        <ele>681.79998779297</ele>
        <time>2022-01-02T08:10:25.703Z</time>
      </trkpt>
      <trkpt lat="44.05137" lon="5.935">
        <ele>681.20001220703</ele>
        <time>2022-01-02T08:10:28.074Z</time>
      </trkpt>
      <trkpt lat="44.05135" lon="5.93503">
        <ele>681.20001220703</ele>
        <time>2022-01-02T08:10:30.446Z</time>
      </trkpt>
      <trkpt lat="44.05135" lon="5.93503">
        <ele>681.40002441406</ele>
        <time>2022-01-02T08:10:32.818Z</time>
      </trkpt>
      <trkpt lat="44.05132" lon="5.93504">
        <ele>681.20001220703</ele>
        <time>2022-01-02T08:10:35.191Z</time>
      </trkpt>
      <trkpt lat="44.05129" lon="5.93505">
        <ele>681.20001220703</ele>
        <time>2022-01-02T08:10:37.564Z</time>
      </trkpt>
      <trkpt lat="44.05126" lon="5.93507">
        <ele>680.79998779297</ele>
        <time>2022-01-02T08:10:39.938Z</time>
      </trkpt>
      <trkpt lat="44.05116" lon="5.9351">
        <ele>679.79998779297</ele>
        <time>2022-01-02T08:10:42.315Z</time>
      </trkpt>
      <trkpt lat="44.05111" lon="5.93511">
        <ele>679.40002441406</ele>
        <time>2022-01-02T08:10:44.694Z</time>
      </trkpt>
      <trkpt lat="44.05105" lon="5.93513">
        <ele>679.20001220703</ele>
        <time>2022-01-02T08:10:47.074Z</time>
      </trkpt>
      <trkpt lat="44.05093" lon="5.9352">
        <ele>678.40002441406</ele>
        <time>2022-01-02T08:10:49.458Z</time>
      </trkpt>
      <trkpt lat="44.05082" lon="5.93527">
        <ele>676.79998779297</ele>
        <time>2022-01-02T08:10:51.846Z</time>
      </trkpt>
      <trkpt lat="44.05074" lon="5.93538">
        <ele>675.79998779297</ele>
        <time>2022-01-02T08:10:54.237Z</time>
      </trkpt>
      <trkpt lat="44.0507" lon="5.93551">
        <ele>674.20001220703</ele>
        <time>2022-01-02T08:10:56.631Z</time>
      </trkpt>
      <trkpt lat="44.05069" lon="5.93561">
        <ele>673.20001220703</ele>
        <time>2022-01-02T08:10:59.027Z</time>
      </trkpt>
      <trkpt lat="44.05068" lon="5.93569">
        <ele>672</ele>
        <time>2022-01-02T08:11:01.424Z</time>
      </trkpt>
      <trkpt lat="44.05067" lon="5.93578">
        <ele>670.79998779297</ele>
        <time>2022-01-02T08:11:03.823Z</time>
      </trkpt>
      <trkpt lat="44.05065" lon="5.93586">
        <ele>670</ele>
        <time>2022-01-02T08:11:06.224Z</time>
      </trkpt>
      <trkpt lat="44.05061" lon="5.93593">
        <ele>669.20001220703</ele>
        <time>2022-01-02T08:11:08.626Z</time>
      </trkpt>
      <trkpt lat="44.05058" lon="5.936">
        <ele>668.79998779297</ele>
        <time>2022-01-02T08:11:11.030Z</time>
      </trkpt>
      <trkpt lat="44.05054" lon="5.93608">
        <ele>668.20001220703</ele>
        <time>2022-01-02T08:11:13.436Z</time>
      </trkpt>
      <trkpt lat="44.0505" lon="5.93614">
        <ele>667</ele>
        <time>2022-01-02T08:11:15.844Z</time>
      </trkpt>
      <trkpt lat="44.05046" lon="5.93621">
        <ele>666.20001220703</ele>
        <time>2022-01-02T08:11:18.254Z</time>
      </trkpt>
      <trkpt lat="44.05041" lon="5.93628">
        <ele>665.59997558594</ele>
        <time>2022-01-02T08:11:20.666Z</time>
      </trkpt>
      <trkpt lat="44.05037" lon="5.93635">
        <ele>664.79998779297</ele>
        <time>2022-01-02T08:11:23.079Z</time>
      </trkpt>
      <trkpt lat="44.05034" lon="5.93642">
        <ele>664.40002441406</ele>
        <time>2022-01-02T08:11:25.494Z</time>
      </trkpt>
      <trkpt lat="44.05025" lon="5.93662">
        <ele>664</ele>
        <time>2022-01-02T08:11:27.914Z</time>
      </trkpt>
      <trkpt lat="44.0502" lon="5.93668">
        <ele>663.79998779297</ele>
        <time>2022-01-02T08:11:30.336Z</time>
      </trkpt>
      <trkpt lat="44.05012" lon="5.93679">
        <ele>663.59997558594</ele>
        <time>2022-01-02T08:11:32.761Z</time>
      </trkpt>
      <trkpt lat="44.05007" lon="5.93683">
        <ele>663.20001220703</ele>
        <time>2022-01-02T08:11:35.188Z</time>
      </trkpt>
      <trkpt lat="44.04997" lon="5.93685">
        <ele>661.40002441406</ele>
        <time>2022-01-02T08:11:37.617Z</time>
      </trkpt>
      <trkpt lat="44.04993" lon="5.93683">
        <ele>660.40002441406</ele>
        <time>2022-01-02T08:11:40.047Z</time>
      </trkpt>
      <trkpt lat="44.0499" lon="5.93679">
        <ele>659.59997558594</ele>
        <time>2022-01-02T08:11:42.479Z</time>
      </trkpt>
      <trkpt lat="44.04984" lon="5.93667">
        <ele>658.40002441406</ele>
        <time>2022-01-02T08:11:44.914Z</time>
      </trkpt>
      <trkpt lat="44.0498" lon="5.93665">
        <ele>657.40002441406</ele>
        <time>2022-01-02T08:11:47.350Z</time>
      </trkpt>
      <trkpt lat="44.04975" lon="5.93665">
        <ele>656.59997558594</ele>
        <time>2022-01-02T08:11:49.787Z</time>
      </trkpt>
      <trkpt lat="44.0497" lon="5.93666">
        <ele>656.20001220703</ele>
        <time>2022-01-02T08:11:52.226Z</time>
      </trkpt>
      <trkpt lat="44.04947" lon="5.93666">
        <ele>655.20001220703</ele>
        <time>2022-01-02T08:11:54.671Z</time>
      </trkpt>
      <trkpt lat="44.04942" lon="5.93666">
        <ele>655</ele>
        <time>2022-01-02T08:11:57.118Z</time>
      </trkpt>
      <trkpt lat="44.04936" lon="5.93667">
        <ele>654.79998779297</ele>
        <time>2022-01-02T08:11:59.566Z</time>
      </trkpt>
      <trkpt lat="44.04926" lon="5.93671">
        <ele>654</ele>
        <time>2022-01-02T08:12:02.017Z</time>
      </trkpt>
      <trkpt lat="44.04921" lon="5.93673">
        <ele>653.79998779297</ele>
        <time>2022-01-02T08:12:04.470Z</time>
      </trkpt>
      <trkpt lat="44.0491" lon="5.93676">
        <ele>653.59997558594</ele>
        <time>2022-01-02T08:12:06.926Z</time>
      </trkpt>
      <trkpt lat="44.04894" lon="5.93689">
        <ele>653.40002441406</ele>
        <time>2022-01-02T08:12:09.387Z</time>
      </trkpt>
      <trkpt lat="44.0489" lon="5.93694">
        <ele>653</ele>
        <time>2022-01-02T08:12:11.850Z</time>
      </trkpt>
      <trkpt lat="44.04871" lon="5.93714">
        <ele>652</ele>
        <time>2022-01-02T08:12:14.319Z</time>
      </trkpt>
      <trkpt lat="44.04866" lon="5.9372">
        <ele>651.79998779297</ele>
        <time>2022-01-02T08:12:16.790Z</time>
      </trkpt>
      <trkpt lat="44.04847" lon="5.93739">
        <ele>650.79998779297</ele>
        <time>2022-01-02T08:12:19.268Z</time>
      </trkpt>
      <trkpt lat="44.04843" lon="5.93744">
        <ele>650.59997558594</ele>
        <time>2022-01-02T08:12:21.747Z</time>
      </trkpt>
      <trkpt lat="44.04839" lon="5.93747">
        <ele>650.59997558594</ele>
        <time>2022-01-02T08:12:24.228Z</time>
      </trkpt>
      <trkpt lat="44.0483" lon="5.93748">
        <ele>650.59997558594</ele>
        <time>2022-01-02T08:12:26.711Z</time>
      </trkpt>
      <trkpt lat="44.04812" lon="5.93731">
        <ele>649.20001220703</ele>
        <time>2022-01-02T08:12:29.200Z</time>
      </trkpt>
      <trkpt lat="44.04809" lon="5.93724">
        <ele>648</ele>
        <time>2022-01-02T08:12:31.691Z</time>
      </trkpt>
      <trkpt lat="44.04805" lon="5.93718">
        <ele>647.59997558594</ele>
        <time>2022-01-02T08:12:34.183Z</time>
      </trkpt>
      <trkpt lat="44.04795" lon="5.93702">
        <ele>647</ele>
        <time>2022-01-02T08:12:36.680Z</time>
      </trkpt>
      <trkpt lat="44.04785" lon="5.93687">
        <ele>648</ele>
        <time>2022-01-02T08:12:39.181Z</time>
      </trkpt>
      <trkpt lat="44.04781" lon="5.93682">
        <ele>648</ele>
        <time>2022-01-02T08:12:41.683Z</time>
      </trkpt>
      <trkpt lat="44.04768" lon="5.93669">
        <ele>647.40002441406</ele>
        <time>2022-01-02T08:12:44.190Z</time>
      </trkpt>
      <trkpt lat="44.04763" lon="5.93666">
        <ele>647</ele>
        <time>2022-01-02T08:12:46.698Z</time>
      </trkpt>
      <trkpt lat="44.04756" lon="5.93663">
        <ele>646.59997558594</ele>
        <time>2022-01-02T08:12:49.209Z</time>
      </trkpt>
      <trkpt lat="44.04751" lon="5.93661">
        <ele>647</ele>
        <time>2022-01-02T08:12:51.721Z</time>
      </trkpt>
      <trkpt lat="44.04745" lon="5.93652">
        <ele>646.20001220703</ele>
        <time>2022-01-02T08:12:54.235Z</time>
      </trkpt>
      <trkpt lat="44.04741" lon="5.93641">
        <ele>645</ele>
        <time>2022-01-02T08:12:56.752Z</time>
      </trkpt>
      <trkpt lat="44.04739" lon="5.93638">
        <ele>644.59997558594</ele>
        <time>2022-01-02T08:12:59.270Z</time>
      </trkpt>
      <trkpt lat="44.04737" lon="5.93637">
        <ele>644.40002441406</ele>
        <time>2022-01-02T08:13:01.788Z</time>
      </trkpt>
      <trkpt lat="44.04732" lon="5.93635">
        <ele>643.40002441406</ele>
        <time>2022-01-02T08:13:04.308Z</time>
      </trkpt>
      <trkpt lat="44.0473" lon="5.93637">
        <ele>642.79998779297</ele>
        <time>2022-01-02T08:13:06.829Z</time>
      </trkpt>
      <trkpt lat="44.04726" lon="5.93641">
        <ele>642.59997558594</ele>
        <time>2022-01-02T08:13:09.351Z</time>
      </trkpt>
      <trkpt lat="44.04721" lon="5.93653">
        <ele>643.79998779297</ele>
        <time>2022-01-02T08:13:11.876Z</time>
      </trkpt>
      <trkpt lat="44.04719" lon="5.93668">
        <ele>644.79998779297</ele>
        <time>2022-01-02T08:13:14.404Z</time>
      </trkpt>
      <trkpt lat="44.04719" lon="5.93677">
        <ele>645.79998779297</ele>
        <time>2022-01-02T08:13:16.934Z</time>
      </trkpt>
      <trkpt lat="44.0472" lon="5.93682">
        <ele>646.20001220703</ele>
        <time>2022-01-02T08:13:19.465Z</time>
      </trkpt>
      <trkpt lat="44.04726" lon="5.93694">
        <ele>647.59997558594</ele>
        <time>2022-01-02T08:13:21.999Z</time>
      </trkpt>
      <trkpt lat="44.04728" lon="5.93698">
        <ele>648.20001220703</ele>
        <time>2022-01-02T08:13:24.534Z</time>
      </trkpt>
      <trkpt lat="44.04731" lon="5.93702">
        <ele>649.20001220703</ele>
        <time>2022-01-02T08:13:27.070Z</time>
      </trkpt>
      <trkpt lat="44.04732" lon="5.93707">
        <ele>649.79998779297</ele>
        <time>2022-01-02T08:13:29.607Z</time>
      </trkpt>
      <trkpt lat="44.04731" lon="5.93712">
        <ele>650.40002441406</ele>
        <time>2022-01-02T08:13:32.145Z</time>
      </trkpt>
      <trkpt lat="44.04723" lon="5.93726">
        <ele>651.79998779297</ele>
        <time>2022-01-02T08:13:34.686Z</time>
      </trkpt>
      <trkpt lat="44.04708" lon="5.93737">
        <ele>652.40002441406</ele>
        <time>2022-01-02T08:13:37.232Z</time>
      </trkpt>
      <trkpt lat="44.04692" lon="5.93756">
        <ele>652.20001220703</ele>
        <time>2022-01-02T08:13:39.784Z</time>
      </trkpt>
      <trkpt lat="44.04682" lon="5.93771">
        <ele>652.79998779297</ele>
        <time>2022-01-02T08:13:42.340Z</time>
      </trkpt>
      <trkpt lat="44.04677" lon="5.93779">
        <ele>653.20001220703</ele>
        <time>2022-01-02T08:13:44.899Z</time>
      </trkpt>
      <trkpt lat="44.04671" lon="5.93791">
        <ele>653.79998779297</ele>
        <time>2022-01-02T08:13:47.460Z</time>
      </trkpt>
      <trkpt lat="44.04668" lon="5.93798">
        <ele>654.40002441406</ele>
        <time>2022-01-02T08:13:50.023Z</time>
      </trkpt>
      <trkpt lat="44.04667" lon="5.93808">
        <ele>654.59997558594</ele>
        <time>2022-01-02T08:13:52.588Z</time>
      </trkpt>
      <trkpt lat="44.04668" lon="5.93832">
        <ele>654.20001220703</ele>
        <time>2022-01-02T08:13:55.158Z</time>
      </trkpt>
      <trkpt lat="44.04668" lon="5.93838">
        <ele>654</ele>
        <time>2022-01-02T08:13:57.729Z</time>
      </trkpt>
      <trkpt lat="44.04672" lon="5.93879">
        <ele>654.40002441406</ele>
        <time>2022-01-02T08:14:00.309Z</time>
      </trkpt>
      <trkpt lat="44.04666" lon="5.93909">
        <ele>655</ele>
        <time>2022-01-02T08:14:02.895Z</time>
      </trkpt>
      <trkpt lat="44.04651" lon="5.93933">
        <ele>655.40002441406</ele>
        <time>2022-01-02T08:14:05.487Z</time>
      </trkpt>
      <trkpt lat="44.04637" lon="5.93955">
        <ele>656.59997558594</ele>
        <time>2022-01-02T08:14:08.085Z</time>
      </trkpt>
      <trkpt lat="44.04635" lon="5.93957">
        <ele>657</ele>
        <time>2022-01-02T08:14:10.684Z</time>
      </trkpt>
      <trkpt lat="44.04629" lon="5.93962">
        <ele>658</ele>
        <time>2022-01-02T08:14:13.285Z</time>
      </trkpt>
      <trkpt lat="44.04624" lon="5.93977">
        <ele>657.59997558594</ele>
        <time>2022-01-02T08:14:15.889Z</time>
      </trkpt>
      <trkpt lat="44.04622" lon="5.93981">
        <ele>657.40002441406</ele>
        <time>2022-01-02T08:14:18.494Z</time>
      </trkpt>
      <trkpt lat="44.04619" lon="5.93986">
        <ele>657.20001220703</ele>
        <time>2022-01-02T08:14:21.101Z</time>
      </trkpt>
      <trkpt lat="44.04615" lon="5.93992">
        <ele>656.20001220703</ele>
        <time>2022-01-02T08:14:23.709Z</time>
      </trkpt>
      <trkpt lat="44.04612" lon="5.93999">
        <ele>655.79998779297</ele>
        <time>2022-01-02T08:14:26.319Z</time>
      </trkpt>
      <trkpt lat="44.04609" lon="5.94007">
        <ele>655</ele>
        <time>2022-01-02T08:14:28.931Z</time>
      </trkpt>
      <trkpt lat="44.04603" lon="5.94023">
        <ele>653.40002441406</ele>
        <time>2022-01-02T08:14:31.546Z</time>
      </trkpt>
      <trkpt lat="44.046" lon="5.94031">
        <ele>652.20001220703</ele>
        <time>2022-01-02T08:14:34.163Z</time>
      </trkpt>
      <trkpt lat="44.04592" lon="5.94048">
        <ele>650.79998779297</ele>
        <time>2022-01-02T08:14:36.784Z</time>
      </trkpt>
      <trkpt lat="44.04585" lon="5.94068">
        <ele>649.20001220703</ele>
        <time>2022-01-02T08:14:39.410Z</time>
      </trkpt>
      <trkpt lat="44.04581" lon="5.94078">
        <ele>648.79998779297</ele>
        <time>2022-01-02T08:14:42.038Z</time>
      </trkpt>
      <trkpt lat="44.04577" lon="5.94087">
        <ele>648.20001220703</ele>
        <time>2022-01-02T08:14:44.668Z</time>
      </trkpt>
      <trkpt lat="44.04569" lon="5.94109">
        <ele>647</ele>
        <time>2022-01-02T08:14:47.303Z</time>
      </trkpt>
      <trkpt lat="44.04562" lon="5.94128">
        <ele>646</ele>
        <time>2022-01-02T08:14:49.943Z</time>
      </trkpt>
      <trkpt lat="44.04558" lon="5.94135">
        <ele>645.59997558594</ele>
        <time>2022-01-02T08:14:52.585Z</time>
      </trkpt>
      <trkpt lat="44.04539" lon="5.94148">
        <ele>644.59997558594</ele>
        <time>2022-01-02T08:14:55.232Z</time>
      </trkpt>
      <trkpt lat="44.04521" lon="5.94169">
        <ele>642.79998779297</ele>
        <time>2022-01-02T08:14:57.886Z</time>
      </trkpt>
      <trkpt lat="44.0451" lon="5.94186">
        <ele>640.59997558594</ele>
        <time>2022-01-02T08:15:00.545Z</time>
      </trkpt>
      <trkpt lat="44.04495" lon="5.94197">
        <ele>638.59997558594</ele>
        <time>2022-01-02T08:15:03.209Z</time>
      </trkpt>
      <trkpt lat="44.04479" lon="5.9421">
        <ele>637</ele>
        <time>2022-01-02T08:15:05.878Z</time>
      </trkpt>
      <trkpt lat="44.04472" lon="5.94218">
        <ele>636</ele>
        <time>2022-01-02T08:15:08.549Z</time>
      </trkpt>
      <trkpt lat="44.04465" lon="5.94226">
        <ele>635.40002441406</ele>
        <time>2022-01-02T08:15:11.223Z</time>
      </trkpt>
      <trkpt lat="44.04452" lon="5.94241">
        <ele>634.20001220703</ele>
        <time>2022-01-02T08:15:13.902Z</time>
      </trkpt>
      <trkpt lat="44.04446" lon="5.94249">
        <ele>634</ele>
        <time>2022-01-02T08:15:16.583Z</time>
      </trkpt>
      <trkpt lat="44.04437" lon="5.94263">
        <ele>634.20001220703</ele>
        <time>2022-01-02T08:15:19.268Z</time>
      </trkpt>
      <trkpt lat="44.04417" lon="5.94281">
        <ele>635.40002441406</ele>
        <time>2022-01-02T08:15:21.959Z</time>
      </trkpt>
      <trkpt lat="44.04393" lon="5.94286">
        <ele>635</ele>
        <time>2022-01-02T08:15:24.657Z</time>
      </trkpt>
      <trkpt lat="44.0438" lon="5.94283">
        <ele>634.79998779297</ele>
        <time>2022-01-02T08:15:27.359Z</time>
      </trkpt>
      <trkpt lat="44.04357" lon="5.94274">
        <ele>634.79998779297</ele>
        <time>2022-01-02T08:15:30.068Z</time>
      </trkpt>
      <trkpt lat="44.04326" lon="5.94255">
        <ele>634</ele>
        <time>2022-01-02T08:15:32.786Z</time>
      </trkpt>
      <trkpt lat="44.04307" lon="5.94245">
        <ele>634.79998779297</ele>
        <time>2022-01-02T08:15:35.510Z</time>
      </trkpt>
      <trkpt lat="44.04292" lon="5.94237">
        <ele>634.40002441406</ele>
        <time>2022-01-02T08:15:38.238Z</time>
      </trkpt>
      <trkpt lat="44.04286" lon="5.94233">
        <ele>633.59997558594</ele>
        <time>2022-01-02T08:15:40.968Z</time>
      </trkpt>
      <trkpt lat="44.04279" lon="5.94229">
        <ele>632.59997558594</ele>
        <time>2022-01-02T08:15:43.700Z</time>
      </trkpt>
      <trkpt lat="44.04272" lon="5.94226">
        <ele>631.59997558594</ele>
        <time>2022-01-02T08:15:46.434Z</time>
      </trkpt>
      <trkpt lat="44.04261" lon="5.9422">
        <ele>630.59997558594</ele>
        <time>2022-01-02T08:15:49.172Z</time>
      </trkpt>
      <trkpt lat="44.04217" lon="5.94197">
        <ele>632.40002441406</ele>
        <time>2022-01-02T08:15:51.923Z</time>
      </trkpt>
      <trkpt lat="44.04173" lon="5.94173">
        <ele>632.40002441406</ele>
        <time>2022-01-02T08:15:54.687Z</time>
      </trkpt>
      <trkpt lat="44.04118" lon="5.94142">
        <ele>631.79998779297</ele>
        <time>2022-01-02T08:15:57.468Z</time>
      </trkpt>
      <trkpt lat="44.04113" lon="5.94139">
        <ele>631.79998779297</ele>
        <time>2022-01-02T08:16:00.250Z</time>
      </trkpt>
      <trkpt lat="44.04069" lon="5.94114">
        <ele>630.79998779297</ele>
        <time>2022-01-02T08:16:03.046Z</time>
      </trkpt>
      <trkpt lat="44.04059" lon="5.9411">
        <ele>630.59997558594</ele>
        <time>2022-01-02T08:16:05.845Z</time>
      </trkpt>
      <trkpt lat="44.04037" lon="5.94098">
        <ele>630.20001220703</ele>
        <time>2022-01-02T08:16:08.650Z</time>
      </trkpt>
      <trkpt lat="44.04006" lon="5.94082">
        <ele>629.79998779297</ele>
        <time>2022-01-02T08:16:11.465Z</time>
      </trkpt>
      <trkpt lat="44.03996" lon="5.94076">
        <ele>629.59997558594</ele>
        <time>2022-01-02T08:16:14.283Z</time>
      </trkpt>
      <trkpt lat="44.03967" lon="5.94061">
        <ele>629</ele>
        <time>2022-01-02T08:16:17.110Z</time>
      </trkpt>
      <trkpt lat="44.03949" lon="5.94051">
        <ele>628.59997558594</ele>
        <time>2022-01-02T08:16:19.942Z</time>
      </trkpt>
      <trkpt lat="44.03936" lon="5.94044">
        <ele>628.40002441406</ele>
        <time>2022-01-02T08:16:22.778Z</time>
      </trkpt>
      <trkpt lat="44.03911" lon="5.9403">
        <ele>628</ele>
        <time>2022-01-02T08:16:25.622Z</time>
      </trkpt>
      <trkpt lat="44.03872" lon="5.9401">
        <ele>627.79998779297</ele>
        <time>2022-01-02T08:16:28.477Z</time>
      </trkpt>
      <trkpt lat="44.03856" lon="5.94002">
        <ele>627.59997558594</ele>
        <time>2022-01-02T08:16:31.337Z</time>
      </trkpt>
      <trkpt lat="44.03831" lon="5.93988">
        <ele>627.20001220703</ele>
        <time>2022-01-02T08:16:34.205Z</time>
      </trkpt>
      <trkpt lat="44.03808" lon="5.93977">
        <ele>626.40002441406</ele>
        <time>2022-01-02T08:16:37.079Z</time>
      </trkpt>
      <trkpt lat="44.03797" lon="5.93973">
        <ele>625.79998779297</ele>
        <time>2022-01-02T08:16:39.956Z</time>
      </trkpt>
      <trkpt lat="44.03787" lon="5.93969">
        <ele>625</ele>
        <time>2022-01-02T08:16:42.837Z</time>
      </trkpt>
      <trkpt lat="44.03769" lon="5.93962">
        <ele>623.59997558594</ele>
        <time>2022-01-02T08:16:45.723Z</time>
      </trkpt>
      <trkpt lat="44.03755" lon="5.93956">
        <ele>622.79998779297</ele>
        <time>2022-01-02T08:16:48.613Z</time>
      </trkpt>
      <trkpt lat="44.03748" lon="5.93954">
        <ele>622.20001220703</ele>
        <time>2022-01-02T08:16:51.505Z</time>
      </trkpt>
      <trkpt lat="44.03734" lon="5.93949">
        <ele>621</ele>
        <time>2022-01-02T08:16:54.401Z</time>
      </trkpt>
      <trkpt lat="44.03712" lon="5.93942">
        <ele>619.59997558594</ele>
        <time>2022-01-02T08:16:57.303Z</time>
      </trkpt>
      <trkpt lat="44.03704" lon="5.93939">
        <ele>619</ele>
        <time>2022-01-02T08:17:00.208Z</time>
      </trkpt>
      <trkpt lat="44.03697" lon="5.93936">
        <ele>618.59997558594</ele>
        <time>2022-01-02T08:17:03.115Z</time>
      </trkpt>
      <trkpt lat="44.03669" lon="5.93927">
        <ele>617.40002441406</ele>
        <time>2022-01-02T08:17:06.030Z</time>
      </trkpt>
      <trkpt lat="44.03655" lon="5.93923">
        <ele>616.79998779297</ele>
        <time>2022-01-02T08:17:08.949Z</time>
      </trkpt>
      <trkpt lat="44.03635" lon="5.93916">
        <ele>616.40002441406</ele>
        <time>2022-01-02T08:17:11.874Z</time>
      </trkpt>
      <trkpt lat="44.03601" lon="5.93905">
        <ele>615.20001220703</ele>
        <time>2022-01-02T08:17:14.808Z</time>
      </trkpt>
      <trkpt lat="44.03585" lon="5.939">
        <ele>614.20001220703</ele>
        <time>2022-01-02T08:17:17.747Z</time>
      </trkpt>
      <trkpt lat="44.03566" lon="5.93894">
        <ele>611.79998779297</ele>
        <time>2022-01-02T08:17:20.692Z</time>
      </trkpt>
      <trkpt lat="44.03555" lon="5.93891">
        <ele>610.40002441406</ele>
        <time>2022-01-02T08:17:23.640Z</time>
      </trkpt>
      <trkpt lat="44.03544" lon="5.93888">
        <ele>608.79998779297</ele>
        <time>2022-01-02T08:17:26.591Z</time>
      </trkpt>
      <trkpt lat="44.03534" lon="5.93887">
        <ele>607.40002441406</ele>
        <time>2022-01-02T08:17:29.545Z</time>
      </trkpt>
      <trkpt lat="44.03525" lon="5.93889">
        <ele>606.40002441406</ele>
        <time>2022-01-02T08:17:32.501Z</time>
      </trkpt>
      <trkpt lat="44.03504" lon="5.93903">
        <ele>606.59997558594</ele>
        <time>2022-01-02T08:17:35.464Z</time>
      </trkpt>
      <trkpt lat="44.03498" lon="5.93907">
        <ele>607.79998779297</ele>
        <time>2022-01-02T08:17:38.429Z</time>
      </trkpt>
      <trkpt lat="44.03493" lon="5.9391">
        <ele>608.59997558594</ele>
        <time>2022-01-02T08:17:41.395Z</time>
      </trkpt>
      <trkpt lat="44.03487" lon="5.93913">
        <ele>609.40002441406</ele>
        <time>2022-01-02T08:17:44.363Z</time>
      </trkpt>
      <trkpt lat="44.03477" lon="5.93917">
        <ele>611.20001220703</ele>
        <time>2022-01-02T08:17:47.334Z</time>
      </trkpt>
      <trkpt lat="44.03461" lon="5.9392">
        <ele>612.20001220703</ele>
        <time>2022-01-02T08:17:50.309Z</time>
      </trkpt>
      <trkpt lat="44.03449" lon="5.93919">
        <ele>612.59997558594</ele>
        <time>2022-01-02T08:17:53.288Z</time>
      </trkpt>
      <trkpt lat="44.03443" lon="5.93918">
        <ele>612.79998779297</ele>
        <time>2022-01-02T08:17:56.268Z</time>
      </trkpt>
      <trkpt lat="44.03419" lon="5.93907">
        <ele>612.20001220703</ele>
        <time>2022-01-02T08:17:59.256Z</time>
      </trkpt>
      <trkpt lat="44.03391" lon="5.93896">
        <ele>610.79998779297</ele>
        <time>2022-01-02T08:18:02.252Z</time>
      </trkpt>
      <trkpt lat="44.0337" lon="5.93887">
        <ele>609.79998779297</ele>
        <time>2022-01-02T08:18:05.254Z</time>
      </trkpt>
      <trkpt lat="44.03349" lon="5.93877">
        <ele>608.79998779297</ele>
        <time>2022-01-02T08:18:08.262Z</time>
      </trkpt>
      <trkpt lat="44.03309" lon="5.93861">
        <ele>608</ele>
        <time>2022-01-02T08:18:11.282Z</time>
      </trkpt>
      <trkpt lat="44.03278" lon="5.93853">
        <ele>607.79998779297</ele>
        <time>2022-01-02T08:18:14.311Z</time>
      </trkpt>
      <trkpt lat="44.03272" lon="5.93853">
        <ele>607.79998779297</ele>
        <time>2022-01-02T08:18:17.342Z</time>
      </trkpt>
      <trkpt lat="44.0322" lon="5.93854">
        <ele>606.40002441406</ele>
        <time>2022-01-02T08:18:20.387Z</time>
      </trkpt>
      <trkpt lat="44.03213" lon="5.93854">
        <ele>606</ele>
        <time>2022-01-02T08:18:23.434Z</time>
      </trkpt>
      <trkpt lat="44.03198" lon="5.93853">
        <ele>605.20001220703</ele>
        <time>2022-01-02T08:18:26.485Z</time>
      </trkpt>
      <trkpt lat="44.03183" lon="5.93849">
        <ele>604.40002441406</ele>
        <time>2022-01-02T08:18:29.541Z</time>
      </trkpt>
      <trkpt lat="44.03175" lon="5.93845">
        <ele>603.79998779297</ele>
        <time>2022-01-02T08:18:32.599Z</time>
      </trkpt>
      <trkpt lat="44.03159" lon="5.93835">
        <ele>602.40002441406</ele>
        <time>2022-01-02T08:18:35.662Z</time>
      </trkpt>
      <trkpt lat="44.03152" lon="5.93828">
        <ele>601.59997558594</ele>
        <time>2022-01-02T08:18:38.727Z</time>
      </trkpt>
      <trkpt lat="44.03145" lon="5.93822">
        <ele>601</ele>
        <time>2022-01-02T08:18:41.795Z</time>
      </trkpt>
      <trkpt lat="44.03137" lon="5.93817">
        <ele>600.79998779297</ele>
        <time>2022-01-02T08:18:44.865Z</time>
      </trkpt>
      <trkpt lat="44.03116" lon="5.93811">
        <ele>600.79998779297</ele>
        <time>2022-01-02T08:18:47.941Z</time>
      </trkpt>
      <trkpt lat="44.031" lon="5.93819">
        <ele>601.20001220703</ele>
        <time>2022-01-02T08:18:51.022Z</time>
      </trkpt>
      <trkpt lat="44.03095" lon="5.93833">
        <ele>601.20001220703</ele>
        <time>2022-01-02T08:18:54.106Z</time>
      </trkpt>
      <trkpt lat="44.03091" lon="5.93849">
        <ele>601</ele>
        <time>2022-01-02T08:18:57.194Z</time>
      </trkpt>
      <trkpt lat="44.03085" lon="5.93864">
        <ele>600.40002441406</ele>
        <time>2022-01-02T08:19:00.285Z</time>
      </trkpt>
      <trkpt lat="44.0308" lon="5.9387">
        <ele>600.20001220703</ele>
        <time>2022-01-02T08:19:03.378Z</time>
      </trkpt>
      <trkpt lat="44.03074" lon="5.93874">
        <ele>600</ele>
        <time>2022-01-02T08:19:06.473Z</time>
      </trkpt>
      <trkpt lat="44.0305" lon="5.9388">
        <ele>599</ele>
        <time>2022-01-02T08:19:09.575Z</time>
      </trkpt>
      <trkpt lat="44.03043" lon="5.9388">
        <ele>598.79998779297</ele>
        <time>2022-01-02T08:19:12.678Z</time>
      </trkpt>
      <trkpt lat="44.03037" lon="5.9388">
        <ele>598.59997558594</ele>
        <time>2022-01-02T08:19:15.783Z</time>
      </trkpt>
      <trkpt lat="44.03014" lon="5.93873">
        <ele>598</ele>
        <time>2022-01-02T08:19:18.895Z</time>
      </trkpt>
      <trkpt lat="44.02972" lon="5.93869">
        <ele>597.20001220703</ele>
        <time>2022-01-02T08:19:22.019Z</time>
      </trkpt>
      <trkpt lat="44.0296" lon="5.93867">
        <ele>596.79998779297</ele>
        <time>2022-01-02T08:19:25.146Z</time>
      </trkpt>
      <trkpt lat="44.02942" lon="5.93864">
        <ele>596.59997558594</ele>
        <time>2022-01-02T08:19:28.278Z</time>
      </trkpt>
      <trkpt lat="44.02936" lon="5.93861">
        <ele>596.40002441406</ele>
        <time>2022-01-02T08:19:31.412Z</time>
      </trkpt>
      <trkpt lat="44.02907" lon="5.93852">
        <ele>596</ele>
        <time>2022-01-02T08:19:34.554Z</time>
      </trkpt>
      <trkpt lat="44.02896" lon="5.93851">
        <ele>596</ele>
        <time>2022-01-02T08:19:37.699Z</time>
      </trkpt>
      <trkpt lat="44.02887" lon="5.9385">
        <ele>596.20001220703</ele>
        <time>2022-01-02T08:19:40.847Z</time>
      </trkpt>
      <trkpt lat="44.02881" lon="5.93847">
        <ele>596.40002441406</ele>
        <time>2022-01-02T08:19:43.997Z</time>
      </trkpt>
      <trkpt lat="44.02877" lon="5.93848">
        <ele>596.40002441406</ele>
        <time>2022-01-02T08:19:47.148Z</time>
      </trkpt>
      <trkpt lat="44.02876" lon="5.93851">
        <ele>596.59997558594</ele>
        <time>2022-01-02T08:19:50.299Z</time>
      </trkpt>
      <trkpt lat="44.02876" lon="5.93852">
        <ele>596.79998779297</ele>
        <time>2022-01-02T08:19:53.451Z</time>
      </trkpt>
      <trkpt lat="44.02868" lon="5.93859">
        <ele>597.40002441406</ele>
        <time>2022-01-02T08:19:56.605Z</time>
      </trkpt>
      <trkpt lat="44.02866" lon="5.93858">
        <ele>597.40002441406</ele>
        <time>2022-01-02T08:19:59.760Z</time>
      </trkpt>
      <trkpt lat="44.02858" lon="5.93857">
        <ele>597.40002441406</ele>
        <time>2022-01-02T08:20:02.917Z</time>
      </trkpt>
      <trkpt lat="44.02851" lon="5.93855">
        <ele>597.59997558594</ele>
        <time>2022-01-02T08:20:06.076Z</time>
      </trkpt>
      <trkpt lat="44.02848" lon="5.93852">
        <ele>597.79998779297</ele>
        <time>2022-01-02T08:20:09.236Z</time>
      </trkpt>
      <trkpt lat="44.02863" lon="5.93857">
        <ele>602.20001220703</ele>
        <time>2022-01-02T08:20:12.400Z</time>
      </trkpt>
      <trkpt lat="44.02871" lon="5.93858">
        <ele>602</ele>
        <time>2022-01-02T08:20:15.567Z</time>
      </trkpt>
      <trkpt lat="44.02873" lon="5.93858">
        <ele>602</ele>
        <time>2022-01-02T08:20:18.734Z</time>
      </trkpt>
      <trkpt lat="44.02878" lon="5.9386">
        <ele>602</ele>
        <time>2022-01-02T08:20:21.903Z</time>
      </trkpt>
      <trkpt lat="44.0289" lon="5.93855">
        <ele>603.20001220703</ele>
        <time>2022-01-02T08:20:25.075Z</time>
      </trkpt>
      <trkpt lat="44.02885" lon="5.9385">
        <ele>603</ele>
        <time>2022-01-02T08:20:28.249Z</time>
      </trkpt>
      <trkpt lat="44.02882" lon="5.93846">
        <ele>603.20001220703</ele>
        <time>2022-01-02T08:20:31.424Z</time>
      </trkpt>
      <trkpt lat="44.02882" lon="5.93848">
        <ele>603.40002441406</ele>
        <time>2022-01-02T08:20:34.600Z</time>
      </trkpt>
      <trkpt lat="44.02886" lon="5.9385">
        <ele>603.40002441406</ele>
        <time>2022-01-02T08:20:37.777Z</time>
      </trkpt>
      <trkpt lat="44.02887" lon="5.93846">
        <ele>603.20001220703</ele>
        <time>2022-01-02T08:20:40.955Z</time>
      </trkpt>
      <trkpt lat="44.02886" lon="5.93845">
        <ele>603.20001220703</ele>
        <time>2022-01-02T08:20:44.133Z</time>
      </trkpt>
      <trkpt lat="44.02884" lon="5.93848">
        <ele>603.20001220703</ele>
        <time>2022-01-02T08:20:47.312Z</time>
      </trkpt>
      <trkpt lat="44.02885" lon="5.93853">
        <ele>603.20001220703</ele>
        <time>2022-01-02T08:20:50.492Z</time>
      </trkpt>
      <trkpt lat="44.02885" lon="5.93855">
        <ele>603.20001220703</ele>
        <time>2022-01-02T08:20:53.672Z</time>
      </trkpt>
      <trkpt lat="44.02894" lon="5.93857">
        <ele>603.59997558594</ele>
        <time>2022-01-02T08:20:56.855Z</time>
      </trkpt>
      <trkpt lat="44.02896" lon="5.93857">
        <ele>603.40002441406</ele>
        <time>2022-01-02T08:21:00.038Z</time>
      </trkpt>
      <trkpt lat="44.02912" lon="5.93857">
        <ele>603.59997558594</ele>
        <time>2022-01-02T08:21:03.226Z</time>
      </trkpt>
      <trkpt lat="44.02933" lon="5.93864">
        <ele>603.79998779297</ele>
        <time>2022-01-02T08:21:06.420Z</time>
      </trkpt>
      <trkpt lat="44.02955" lon="5.93869">
        <ele>604.20001220703</ele>
        <time>2022-01-02T08:21:09.620Z</time>
      </trkpt>
      <trkpt lat="44.02979" lon="5.93873">
        <ele>604.40002441406</ele>
        <time>2022-01-02T08:21:12.827Z</time>
      </trkpt>
      <trkpt lat="44.02982" lon="5.93873">
        <ele>604.40002441406</ele>
        <time>2022-01-02T08:21:16.035Z</time>
      </trkpt>
      <trkpt lat="44.02994" lon="5.93873">
        <ele>604.79998779297</ele>
        <time>2022-01-02T08:21:19.246Z</time>
      </trkpt>
      <trkpt lat="44.03017" lon="5.93874">
        <ele>605.20001220703</ele>
        <time>2022-01-02T08:21:22.464Z</time>
      </trkpt>
      <trkpt lat="44.0304" lon="5.93881">
        <ele>605.40002441406</ele>
        <time>2022-01-02T08:21:25.688Z</time>
      </trkpt>
      <trkpt lat="44.03053" lon="5.93882">
        <ele>605.59997558594</ele>
        <time>2022-01-02T08:21:28.916Z</time>
      </trkpt>
      <trkpt lat="44.03063" lon="5.93881">
        <ele>606</ele>
        <time>2022-01-02T08:21:32.147Z</time>
      </trkpt>
      <trkpt lat="44.03087" lon="5.93869">
        <ele>606.79998779297</ele>
        <time>2022-01-02T08:21:35.385Z</time>
      </trkpt>
      <trkpt lat="44.03096" lon="5.93849">
        <ele>607.40002441406</ele>
        <time>2022-01-02T08:21:38.628Z</time>
      </trkpt>
      <trkpt lat="44.03097" lon="5.93846">
        <ele>607.59997558594</ele>
        <time>2022-01-02T08:21:41.871Z</time>
      </trkpt>
      <trkpt lat="44.031" lon="5.93838">
        <ele>607.79998779297</ele>
        <time>2022-01-02T08:21:45.116Z</time>
      </trkpt>
      <trkpt lat="44.03109" lon="5.93822">
        <ele>608.40002441406</ele>
        <time>2022-01-02T08:21:48.365Z</time>
      </trkpt>
      <trkpt lat="44.03114" lon="5.93818">
        <ele>608.59997558594</ele>
        <time>2022-01-02T08:21:51.616Z</time>
      </trkpt>
      <trkpt lat="44.0312" lon="5.93817">
        <ele>608.79998779297</ele>
        <time>2022-01-02T08:21:54.869Z</time>
      </trkpt>
      <trkpt lat="44.03131" lon="5.93818">
        <ele>608.40002441406</ele>
        <time>2022-01-02T08:21:58.125Z</time>
      </trkpt>
      <trkpt lat="44.03141" lon="5.93822">
        <ele>608.20001220703</ele>
        <time>2022-01-02T08:22:01.384Z</time>
      </trkpt>
      <trkpt lat="44.0316" lon="5.93839">
        <ele>608.20001220703</ele>
        <time>2022-01-02T08:22:04.649Z</time>
      </trkpt>
      <trkpt lat="44.03172" lon="5.93848">
        <ele>608.79998779297</ele>
        <time>2022-01-02T08:22:07.918Z</time>
      </trkpt>
      <trkpt lat="44.03181" lon="5.93852">
        <ele>609.40002441406</ele>
        <time>2022-01-02T08:22:11.189Z</time>
      </trkpt>
      <trkpt lat="44.0319" lon="5.93855">
        <ele>610.20001220703</ele>
        <time>2022-01-02T08:22:14.463Z</time>
      </trkpt>
      <trkpt lat="44.03205" lon="5.93857">
        <ele>611.20001220703</ele>
        <time>2022-01-02T08:22:17.741Z</time>
      </trkpt>
      <trkpt lat="44.03208" lon="5.93858">
        <ele>611.20001220703</ele>
        <time>2022-01-02T08:22:21.020Z</time>
      </trkpt>
      <trkpt lat="44.03222" lon="5.93858">
        <ele>612.20001220703</ele>
        <time>2022-01-02T08:22:24.303Z</time>
      </trkpt>
      <trkpt lat="44.03231" lon="5.93858">
        <ele>613</ele>
        <time>2022-01-02T08:22:27.589Z</time>
      </trkpt>
      <trkpt lat="44.03236" lon="5.93858">
        <ele>613.20001220703</ele>
        <time>2022-01-02T08:22:30.876Z</time>
      </trkpt>
      <trkpt lat="44.03251" lon="5.93854">
        <ele>613.79998779297</ele>
        <time>2022-01-02T08:22:34.167Z</time>
      </trkpt>
      <trkpt lat="44.03257" lon="5.93846">
        <ele>614.20001220703</ele>
        <time>2022-01-02T08:22:37.461Z</time>
      </trkpt>
      <trkpt lat="44.03258" lon="5.93843">
        <ele>614.40002441406</ele>
        <time>2022-01-02T08:22:40.755Z</time>
      </trkpt>
      <trkpt lat="44.03261" lon="5.93833">
        <ele>615.59997558594</ele>
        <time>2022-01-02T08:22:44.052Z</time>
      </trkpt>
      <trkpt lat="44.03263" lon="5.93822">
        <ele>616.40002441406</ele>
        <time>2022-01-02T08:22:47.351Z</time>
      </trkpt>
      <trkpt lat="44.03263" lon="5.93818">
        <ele>617</ele>
        <time>2022-01-02T08:22:50.651Z</time>
      </trkpt>
      <trkpt lat="44.03266" lon="5.93802">
        <ele>618</ele>
        <time>2022-01-02T08:22:53.954Z</time>
      </trkpt>
      <trkpt lat="44.03269" lon="5.93788">
        <ele>618.79998779297</ele>
        <time>2022-01-02T08:22:57.260Z</time>
      </trkpt>
      <trkpt lat="44.03271" lon="5.9378">
        <ele>619.20001220703</ele>
        <time>2022-01-02T08:23:00.568Z</time>
      </trkpt>
      <trkpt lat="44.03274" lon="5.93765">
        <ele>620</ele>
        <time>2022-01-02T08:23:03.879Z</time>
      </trkpt>
      <trkpt lat="44.03278" lon="5.93747">
        <ele>621.40002441406</ele>
        <time>2022-01-02T08:23:07.194Z</time>
      </trkpt>
      <trkpt lat="44.03278" lon="5.93744">
        <ele>621.59997558594</ele>
        <time>2022-01-02T08:23:10.509Z</time>
      </trkpt>
      <trkpt lat="44.03281" lon="5.93727">
        <ele>622.59997558594</ele>
        <time>2022-01-02T08:23:13.828Z</time>
      </trkpt>
      <trkpt lat="44.03281" lon="5.93724">
        <ele>622.79998779297</ele>
        <time>2022-01-02T08:23:17.148Z</time>
      </trkpt>
      <trkpt lat="44.03284" lon="5.93707">
        <ele>623.59997558594</ele>
        <time>2022-01-02T08:23:20.471Z</time>
      </trkpt>
      <trkpt lat="44.03287" lon="5.93691">
        <ele>624.59997558594</ele>
        <time>2022-01-02T08:23:23.797Z</time>
      </trkpt>
      <trkpt lat="44.03288" lon="5.93688">
        <ele>624.79998779297</ele>
        <time>2022-01-02T08:23:27.124Z</time>
      </trkpt>
      <trkpt lat="44.03291" lon="5.93671">
        <ele>625.79998779297</ele>
        <time>2022-01-02T08:23:30.454Z</time>
      </trkpt>
      <trkpt lat="44.03292" lon="5.93665">
        <ele>626</ele>
        <time>2022-01-02T08:23:33.786Z</time>
      </trkpt>
      <trkpt lat="44.03295" lon="5.93652">
        <ele>627</ele>
        <time>2022-01-02T08:23:37.120Z</time>
      </trkpt>
      <trkpt lat="44.033" lon="5.93637">
        <ele>628</ele>
        <time>2022-01-02T08:23:40.458Z</time>
      </trkpt>
      <trkpt lat="44.03303" lon="5.93633">
        <ele>628.20001220703</ele>
        <time>2022-01-02T08:23:43.797Z</time>
      </trkpt>
      <trkpt lat="44.0331" lon="5.9363">
        <ele>629</ele>
        <time>2022-01-02T08:23:47.138Z</time>
      </trkpt>
      <trkpt lat="44.03315" lon="5.93629">
        <ele>629.40002441406</ele>
        <time>2022-01-02T08:23:50.481Z</time>
      </trkpt>
      <trkpt lat="44.03323" lon="5.93628">
        <ele>629.79998779297</ele>
        <time>2022-01-02T08:23:53.826Z</time>
      </trkpt>
      <trkpt lat="44.0333" lon="5.93625">
        <ele>630.40002441406</ele>
        <time>2022-01-02T08:23:57.173Z</time>
      </trkpt>
      <trkpt lat="44.03332" lon="5.93624">
        <ele>630.59997558594</ele>
        <time>2022-01-02T08:24:00.520Z</time>
      </trkpt>
      <trkpt lat="44.03343" lon="5.93617">
        <ele>631.59997558594</ele>
        <time>2022-01-02T08:24:03.871Z</time>
      </trkpt>
      <trkpt lat="44.03353" lon="5.93608">
        <ele>632.59997558594</ele>
        <time>2022-01-02T08:24:07.225Z</time>
      </trkpt>
      <trkpt lat="44.03355" lon="5.93606">
        <ele>632.79998779297</ele>
        <time>2022-01-02T08:24:10.580Z</time>
      </trkpt>
      <trkpt lat="44.03364" lon="5.93592">
        <ele>633.79998779297</ele>
        <time>2022-01-02T08:24:13.939Z</time>
      </trkpt>
      <trkpt lat="44.03365" lon="5.9359">
        <ele>634</ele>
        <time>2022-01-02T08:24:17.298Z</time>
      </trkpt>
      <trkpt lat="44.0337" lon="5.93575">
        <ele>634.79998779297</ele>
        <time>2022-01-02T08:24:20.661Z</time>
      </trkpt>
      <trkpt lat="44.03371" lon="5.93572">
        <ele>635</ele>
        <time>2022-01-02T08:24:24.024Z</time>
      </trkpt>
      <trkpt lat="44.03374" lon="5.93559">
        <ele>636</ele>
        <time>2022-01-02T08:24:27.390Z</time>
      </trkpt>
      <trkpt lat="44.0338" lon="5.93541">
        <ele>637</ele>
        <time>2022-01-02T08:24:30.760Z</time>
      </trkpt>
      <trkpt lat="44.03382" lon="5.93538">
        <ele>637.40002441406</ele>
        <time>2022-01-02T08:24:34.131Z</time>
      </trkpt>
      <trkpt lat="44.03387" lon="5.93527">
        <ele>638.40002441406</ele>
        <time>2022-01-02T08:24:37.505Z</time>
      </trkpt>
      <trkpt lat="44.03391" lon="5.93523">
        <ele>638.79998779297</ele>
        <time>2022-01-02T08:24:40.880Z</time>
      </trkpt>
      <trkpt lat="44.03399" lon="5.93523">
        <ele>639.40002441406</ele>
        <time>2022-01-02T08:24:44.257Z</time>
      </trkpt>
      <trkpt lat="44.03402" lon="5.93524">
        <ele>639.40002441406</ele>
        <time>2022-01-02T08:24:47.635Z</time>
      </trkpt>
      <trkpt lat="44.03423" lon="5.93536">
        <ele>639.79998779297</ele>
        <time>2022-01-02T08:24:51.019Z</time>
      </trkpt>
      <trkpt lat="44.03436" lon="5.93539">
        <ele>640.20001220703</ele>
        <time>2022-01-02T08:24:54.407Z</time>
      </trkpt>
      <trkpt lat="44.03454" lon="5.93544">
        <ele>640.40002441406</ele>
        <time>2022-01-02T08:24:57.800Z</time>
      </trkpt>
      <trkpt lat="44.03482" lon="5.93559">
        <ele>640.59997558594</ele>
        <time>2022-01-02T08:25:01.202Z</time>
      </trkpt>
      <trkpt lat="44.03504" lon="5.93568">
        <ele>640.79998779297</ele>
        <time>2022-01-02T08:25:04.610Z</time>
      </trkpt>
      <trkpt lat="44.03516" lon="5.93575">
        <ele>641.59997558594</ele>
        <time>2022-01-02T08:25:08.022Z</time>
      </trkpt>
      <trkpt lat="44.03526" lon="5.93578">
        <ele>642</ele>
        <time>2022-01-02T08:25:11.437Z</time>
      </trkpt>
      <trkpt lat="44.03536" lon="5.93578">
        <ele>642.79998779297</ele>
        <time>2022-01-02T08:25:14.855Z</time>
      </trkpt>
      <trkpt lat="44.03545" lon="5.93577">
        <ele>643.59997558594</ele>
        <time>2022-01-02T08:25:18.275Z</time>
      </trkpt>
      <trkpt lat="44.03548" lon="5.93577">
        <ele>644</ele>
        <time>2022-01-02T08:25:21.696Z</time>
      </trkpt>
      <trkpt lat="44.03565" lon="5.9358">
        <ele>644.79998779297</ele>
        <time>2022-01-02T08:25:25.122Z</time>
      </trkpt>
      <trkpt lat="44.03573" lon="5.9358">
        <ele>645</ele>
        <time>2022-01-02T08:25:28.550Z</time>
      </trkpt>
      <trkpt lat="44.03591" lon="5.93576">
        <ele>646.20001220703</ele>
        <time>2022-01-02T08:25:31.983Z</time>
      </trkpt>
      <trkpt lat="44.03595" lon="5.93574">
        <ele>646.40002441406</ele>
        <time>2022-01-02T08:25:35.417Z</time>
      </trkpt>
      <trkpt lat="44.03607" lon="5.93562">
        <ele>647.40002441406</ele>
        <time>2022-01-02T08:25:38.855Z</time>
      </trkpt>
      <trkpt lat="44.03612" lon="5.93555">
        <ele>648.79998779297</ele>
        <time>2022-01-02T08:25:42.296Z</time>
      </trkpt>
      <trkpt lat="44.03621" lon="5.93547">
        <ele>650.20001220703</ele>
        <time>2022-01-02T08:25:45.739Z</time>
      </trkpt>
      <trkpt lat="44.03629" lon="5.93539">
        <ele>651.40002441406</ele>
        <time>2022-01-02T08:25:49.185Z</time>
      </trkpt>
      <trkpt lat="44.03634" lon="5.93533">
        <ele>652.20001220703</ele>
        <time>2022-01-02T08:25:52.633Z</time>
      </trkpt>
      <trkpt lat="44.03637" lon="5.9353">
        <ele>652.59997558594</ele>
        <time>2022-01-02T08:25:56.082Z</time>
      </trkpt>
      <trkpt lat="44.0365" lon="5.93524">
        <ele>653.20001220703</ele>
        <time>2022-01-02T08:25:59.535Z</time>
      </trkpt>
      <trkpt lat="44.03655" lon="5.93523">
        <ele>652.79998779297</ele>
        <time>2022-01-02T08:26:02.990Z</time>
      </trkpt>
      <trkpt lat="44.03657" lon="5.93525">
        <ele>652.59997558594</ele>
        <time>2022-01-02T08:26:06.445Z</time>
      </trkpt>
      <trkpt lat="44.03659" lon="5.93543">
        <ele>652.40002441406</ele>
        <time>2022-01-02T08:26:09.904Z</time>
      </trkpt>
      <trkpt lat="44.03662" lon="5.93568">
        <ele>653</ele>
        <time>2022-01-02T08:26:13.368Z</time>
      </trkpt>
      <trkpt lat="44.03666" lon="5.93574">
        <ele>653.79998779297</ele>
        <time>2022-01-02T08:26:16.834Z</time>
      </trkpt>
      <trkpt lat="44.0367" lon="5.9358">
        <ele>655.59997558594</ele>
        <time>2022-01-02T08:26:20.301Z</time>
      </trkpt>
      <trkpt lat="44.03672" lon="5.93583">
        <ele>656.20001220703</ele>
        <time>2022-01-02T08:26:23.769Z</time>
      </trkpt>
      <trkpt lat="44.03673" lon="5.93586">
        <ele>656.79998779297</ele>
        <time>2022-01-02T08:26:27.238Z</time>
      </trkpt>
      <trkpt lat="44.0368" lon="5.93596">
        <ele>658.20001220703</ele>
        <time>2022-01-02T08:26:30.710Z</time>
      </trkpt>
      <trkpt lat="44.03683" lon="5.93601">
        <ele>659.40002441406</ele>
        <time>2022-01-02T08:26:34.183Z</time>
      </trkpt>
      <trkpt lat="44.03689" lon="5.93608">
        <ele>661</ele>
        <time>2022-01-02T08:26:37.658Z</time>
      </trkpt>
      <trkpt lat="44.03695" lon="5.93615">
        <ele>662.20001220703</ele>
        <time>2022-01-02T08:26:41.135Z</time>
      </trkpt>
      <trkpt lat="44.03699" lon="5.9362">
        <ele>662.79998779297</ele>
        <time>2022-01-02T08:26:44.614Z</time>
      </trkpt>
      <trkpt lat="44.03704" lon="5.93626">
        <ele>663.40002441406</ele>
        <time>2022-01-02T08:26:48.095Z</time>
      </trkpt>
      <trkpt lat="44.03716" lon="5.93638">
        <ele>664.59997558594</ele>
        <time>2022-01-02T08:26:51.580Z</time>
      </trkpt>
      <trkpt lat="44.03719" lon="5.9364">
        <ele>665</ele>
        <time>2022-01-02T08:26:55.066Z</time>
      </trkpt>
      <trkpt lat="44.03728" lon="5.93648">
        <ele>665.59997558594</ele>
        <time>2022-01-02T08:26:58.555Z</time>
      </trkpt>
      <trkpt lat="44.03731" lon="5.9365">
        <ele>665.79998779297</ele>
        <time>2022-01-02T08:27:02.045Z</time>
      </trkpt>
      <trkpt lat="44.0375" lon="5.93667">
        <ele>667</ele>
        <time>2022-01-02T08:27:05.541Z</time>
      </trkpt>
      <trkpt lat="44.03766" lon="5.93676">
        <ele>668</ele>
        <time>2022-01-02T08:27:09.042Z</time>
      </trkpt>
      <trkpt lat="44.0377" lon="5.93678">
        <ele>668.20001220703</ele>
        <time>2022-01-02T08:27:12.544Z</time>
      </trkpt>
      <trkpt lat="44.0379" lon="5.93688">
        <ele>669.20001220703</ele>
        <time>2022-01-02T08:27:16.052Z</time>
      </trkpt>
      <trkpt lat="44.03815" lon="5.93702">
        <ele>669.79998779297</ele>
        <time>2022-01-02T08:27:19.568Z</time>
      </trkpt>
      <trkpt lat="44.03825" lon="5.93707">
        <ele>669.79998779297</ele>
        <time>2022-01-02T08:27:23.087Z</time>
      </trkpt>
      <trkpt lat="44.03838" lon="5.93715">
        <ele>669.59997558594</ele>
        <time>2022-01-02T08:27:26.610Z</time>
      </trkpt>
      <trkpt lat="44.03851" lon="5.93723">
        <ele>669.40002441406</ele>
        <time>2022-01-02T08:27:30.137Z</time>
      </trkpt>
      <trkpt lat="44.03865" lon="5.93731">
        <ele>669.20001220703</ele>
        <time>2022-01-02T08:27:33.668Z</time>
      </trkpt>
      <trkpt lat="44.03895" lon="5.93746">
        <ele>668.79998779297</ele>
        <time>2022-01-02T08:27:37.208Z</time>
      </trkpt>
      <trkpt lat="44.03914" lon="5.93761">
        <ele>668.40002441406</ele>
        <time>2022-01-02T08:27:40.754Z</time>
      </trkpt>
      <trkpt lat="44.0392" lon="5.93764">
        <ele>668.20001220703</ele>
        <time>2022-01-02T08:27:44.302Z</time>
      </trkpt>
      <trkpt lat="44.03925" lon="5.93769">
        <ele>668.20001220703</ele>
        <time>2022-01-02T08:27:47.851Z</time>
      </trkpt>
      <trkpt lat="44.03958" lon="5.938">
        <ele>667.79998779297</ele>
        <time>2022-01-02T08:27:51.412Z</time>
      </trkpt>
      <trkpt lat="44.0398" lon="5.93824">
        <ele>667.79998779297</ele>
        <time>2022-01-02T08:27:54.981Z</time>
      </trkpt>
      <trkpt lat="44.04009" lon="5.93847">
        <ele>667.79998779297</ele>
        <time>2022-01-02T08:27:58.559Z</time>
      </trkpt>
      <trkpt lat="44.0402" lon="5.93856">
        <ele>667.20001220703</ele>
        <time>2022-01-02T08:28:02.141Z</time>
      </trkpt>
      <trkpt lat="44.04031" lon="5.93865">
        <ele>666.79998779297</ele>
        <time>2022-01-02T08:28:05.726Z</time>
      </trkpt>
      <trkpt lat="44.04036" lon="5.9387">
        <ele>666.40002441406</ele>
        <time>2022-01-02T08:28:09.313Z</time>
      </trkpt>
      <trkpt lat="44.04041" lon="5.93875">
        <ele>666</ele>
        <time>2022-01-02T08:28:12.902Z</time>
      </trkpt>
      <trkpt lat="44.04056" lon="5.93888">
        <ele>665.59997558594</ele>
        <time>2022-01-02T08:28:16.496Z</time>
      </trkpt>
      <trkpt lat="44.0406" lon="5.93892">
        <ele>665.59997558594</ele>
        <time>2022-01-02T08:28:20.091Z</time>
      </trkpt>
      <trkpt lat="44.0406" lon="5.93892">
        <ele>665.59997558594</ele>
        <time>2022-01-02T08:28:23.686Z</time>
      </trkpt>
      <trkpt lat="44.04064" lon="5.93894">
        <ele>665.40002441406</ele>
        <time>2022-01-02T08:28:27.282Z</time>
      </trkpt>
      <trkpt lat="44.04066" lon="5.93896">
        <ele>665.40002441406</ele>
        <time>2022-01-02T08:28:30.879Z</time>
      </trkpt>
      <trkpt lat="44.04079" lon="5.93907">
        <ele>665</ele>
        <time>2022-01-02T08:28:34.480Z</time>
      </trkpt>
      <trkpt lat="44.04085" lon="5.93912">
        <ele>664.59997558594</ele>
        <time>2022-01-02T08:28:38.083Z</time>
      </trkpt>
      <trkpt lat="44.04089" lon="5.93914">
        <ele>664.59997558594</ele>
        <time>2022-01-02T08:28:41.687Z</time>
      </trkpt>
      <trkpt lat="44.04093" lon="5.93912">
        <ele>664.59997558594</ele>
        <time>2022-01-02T08:28:45.293Z</time>
      </trkpt>
      <trkpt lat="44.04096" lon="5.93914">
        <ele>665.59997558594</ele>
        <time>2022-01-02T08:28:48.900Z</time>
      </trkpt>
      <trkpt lat="44.04103" lon="5.93916">
        <ele>666.20001220703</ele>
        <time>2022-01-02T08:28:52.509Z</time>
      </trkpt>
      <trkpt lat="44.04106" lon="5.93916">
        <ele>666.40002441406</ele>
        <time>2022-01-02T08:28:56.118Z</time>
      </trkpt>
      <trkpt lat="44.0411" lon="5.93917">
        <ele>666.59997558594</ele>
        <time>2022-01-02T08:28:59.728Z</time>
      </trkpt>
      <trkpt lat="44.04119" lon="5.93918">
        <ele>667.79998779297</ele>
        <time>2022-01-02T08:29:03.341Z</time>
      </trkpt>
      <trkpt lat="44.04124" lon="5.93921">
        <ele>668.40002441406</ele>
        <time>2022-01-02T08:29:06.956Z</time>
      </trkpt>
      <trkpt lat="44.04127" lon="5.93922">
        <ele>669</ele>
        <time>2022-01-02T08:29:10.571Z</time>
      </trkpt>
      <trkpt lat="44.04133" lon="5.93925">
        <ele>670</ele>
        <time>2022-01-02T08:29:14.188Z</time>
      </trkpt>
      <trkpt lat="44.04135" lon="5.93926">
        <ele>670.59997558594</ele>
        <time>2022-01-02T08:29:17.806Z</time>
      </trkpt>
      <trkpt lat="44.0414" lon="5.93931">
        <ele>671.20001220703</ele>
        <time>2022-01-02T08:29:21.426Z</time>
      </trkpt>
      <trkpt lat="44.04143" lon="5.93934">
        <ele>671.40002441406</ele>
        <time>2022-01-02T08:29:25.047Z</time>
      </trkpt>
      <trkpt lat="44.04153" lon="5.93937">
        <ele>672.40002441406</ele>
        <time>2022-01-02T08:29:28.670Z</time>
      </trkpt>
      <trkpt lat="44.04159" lon="5.93938">
        <ele>673.59997558594</ele>
        <time>2022-01-02T08:29:32.295Z</time>
      </trkpt>
      <trkpt lat="44.04165" lon="5.93939">
        <ele>674.59997558594</ele>
        <time>2022-01-02T08:29:35.922Z</time>
      </trkpt>
      <trkpt lat="44.04171" lon="5.93941">
        <ele>676</ele>
        <time>2022-01-02T08:29:39.551Z</time>
      </trkpt>
      <trkpt lat="44.04177" lon="5.93942">
        <ele>676.59997558594</ele>
        <time>2022-01-02T08:29:43.181Z</time>
      </trkpt>
      <trkpt lat="44.04179" lon="5.93943">
        <ele>677.40002441406</ele>
        <time>2022-01-02T08:29:46.812Z</time>
      </trkpt>
      <trkpt lat="44.04188" lon="5.93945">
        <ele>678.59997558594</ele>
        <time>2022-01-02T08:29:50.445Z</time>
      </trkpt>
      <trkpt lat="44.04191" lon="5.93946">
        <ele>679.20001220703</ele>
        <time>2022-01-02T08:29:54.079Z</time>
      </trkpt>
      <trkpt lat="44.04197" lon="5.93949">
        <ele>680</ele>
        <time>2022-01-02T08:29:57.715Z</time>
      </trkpt>
      <trkpt lat="44.04205" lon="5.93956">
        <ele>680.59997558594</ele>
        <time>2022-01-02T08:30:01.354Z</time>
      </trkpt>
      <trkpt lat="44.04213" lon="5.93966">
        <ele>681</ele>
        <time>2022-01-02T08:30:04.996Z</time>
      </trkpt>
      <trkpt lat="44.04215" lon="5.93971">
        <ele>681.20001220703</ele>
        <time>2022-01-02T08:30:08.639Z</time>
      </trkpt>
      <trkpt lat="44.04221" lon="5.9398">
        <ele>681.40002441406</ele>
        <time>2022-01-02T08:30:12.284Z</time>
      </trkpt>
      <trkpt lat="44.04226" lon="5.93987">
        <ele>681.40002441406</ele>
        <time>2022-01-02T08:30:15.931Z</time>
      </trkpt>
      <trkpt lat="44.0424" lon="5.94003">
        <ele>681.20001220703</ele>
        <time>2022-01-02T08:30:19.583Z</time>
      </trkpt>
      <trkpt lat="44.04253" lon="5.94016">
        <ele>681.20001220703</ele>
        <time>2022-01-02T08:30:23.240Z</time>
      </trkpt>
      <trkpt lat="44.04268" lon="5.94026">
        <ele>682</ele>
        <time>2022-01-02T08:30:26.902Z</time>
      </trkpt>
      <trkpt lat="44.04271" lon="5.94029">
        <ele>682.59997558594</ele>
        <time>2022-01-02T08:30:30.565Z</time>
      </trkpt>
      <trkpt lat="44.04283" lon="5.94043">
        <ele>683.59997558594</ele>
        <time>2022-01-02T08:30:34.232Z</time>
      </trkpt>
      <trkpt lat="44.04285" lon="5.94048">
        <ele>683.59997558594</ele>
        <time>2022-01-02T08:30:37.900Z</time>
      </trkpt>
      <trkpt lat="44.0429" lon="5.94059">
        <ele>683.59997558594</ele>
        <time>2022-01-02T08:30:41.571Z</time>
      </trkpt>
      <trkpt lat="44.04293" lon="5.94065">
        <ele>683.59997558594</ele>
        <time>2022-01-02T08:30:45.243Z</time>
      </trkpt>
      <trkpt lat="44.04307" lon="5.94085">
        <ele>682.59997558594</ele>
        <time>2022-01-02T08:30:48.921Z</time>
      </trkpt>
      <trkpt lat="44.0431" lon="5.94089">
        <ele>682.59997558594</ele>
        <time>2022-01-02T08:30:52.600Z</time>
      </trkpt>
      <trkpt lat="44.04319" lon="5.941">
        <ele>682.59997558594</ele>
        <time>2022-01-02T08:30:56.283Z</time>
      </trkpt>
      <trkpt lat="44.0433" lon="5.94111">
        <ele>682.20001220703</ele>
        <time>2022-01-02T08:30:59.969Z</time>
      </trkpt>
      <trkpt lat="44.04338" lon="5.94118">
        <ele>681.79998779297</ele>
        <time>2022-01-02T08:31:03.658Z</time>
      </trkpt>
      <trkpt lat="44.04347" lon="5.94123">
        <ele>681.79998779297</ele>
        <time>2022-01-02T08:31:07.350Z</time>
      </trkpt>
      <trkpt lat="44.04359" lon="5.94132">
        <ele>682</ele>
        <time>2022-01-02T08:31:11.046Z</time>
      </trkpt>
      <trkpt lat="44.04363" lon="5.94134">
        <ele>682</ele>
        <time>2022-01-02T08:31:14.743Z</time>
      </trkpt>
      <trkpt lat="44.04372" lon="5.94138">
        <ele>683.59997558594</ele>
        <time>2022-01-02T08:31:18.443Z</time>
      </trkpt>
      <trkpt lat="44.04375" lon="5.9414">
        <ele>684</ele>
        <time>2022-01-02T08:31:22.144Z</time>
      </trkpt>
      <trkpt lat="44.04384" lon="5.94144">
        <ele>684.79998779297</ele>
        <time>2022-01-02T08:31:25.847Z</time>
      </trkpt>
      <trkpt lat="44.04387" lon="5.94144">
        <ele>685</ele>
        <time>2022-01-02T08:31:29.551Z</time>
      </trkpt>
      <trkpt lat="44.04393" lon="5.94144">
        <ele>685.40002441406</ele>
        <time>2022-01-02T08:31:33.257Z</time>
      </trkpt>
      <trkpt lat="44.04401" lon="5.9414">
        <ele>685.40002441406</ele>
        <time>2022-01-02T08:31:36.965Z</time>
      </trkpt>
      <trkpt lat="44.04416" lon="5.94131">
        <ele>684.40002441406</ele>
        <time>2022-01-02T08:31:40.678Z</time>
      </trkpt>
      <trkpt lat="44.04421" lon="5.94125">
        <ele>683.79998779297</ele>
        <time>2022-01-02T08:31:44.393Z</time>
      </trkpt>
      <trkpt lat="44.04421" lon="5.94121">
        <ele>683.40002441406</ele>
        <time>2022-01-02T08:31:48.108Z</time>
      </trkpt>
      <trkpt lat="44.04425" lon="5.94099">
        <ele>683</ele>
        <time>2022-01-02T08:31:51.828Z</time>
      </trkpt>
      <trkpt lat="44.04426" lon="5.94079">
        <ele>682.79998779297</ele>
        <time>2022-01-02T08:31:55.552Z</time>
      </trkpt>
      <trkpt lat="44.04426" lon="5.94052">
        <ele>683.59997558594</ele>
        <time>2022-01-02T08:31:59.281Z</time>
      </trkpt>
      <trkpt lat="44.04428" lon="5.94038">
        <ele>683.20001220703</ele>
        <time>2022-01-02T08:32:03.013Z</time>
      </trkpt>
      <trkpt lat="44.04429" lon="5.94038">
        <ele>683.20001220703</ele>
        <time>2022-01-02T08:32:06.745Z</time>
      </trkpt>
      <trkpt lat="44.04429" lon="5.94031">
        <ele>683</ele>
        <time>2022-01-02T08:32:10.479Z</time>
      </trkpt>
      <trkpt lat="44.04428" lon="5.94026">
        <ele>683</ele>
        <time>2022-01-02T08:32:14.214Z</time>
      </trkpt>
      <trkpt lat="44.04426" lon="5.9401">
        <ele>683</ele>
        <time>2022-01-02T08:32:17.952Z</time>
      </trkpt>
      <trkpt lat="44.04425" lon="5.93993">
        <ele>681.79998779297</ele>
        <time>2022-01-02T08:32:21.694Z</time>
      </trkpt>
      <trkpt lat="44.04425" lon="5.9399">
        <ele>681.59997558594</ele>
        <time>2022-01-02T08:32:25.436Z</time>
      </trkpt>
      <trkpt lat="44.04423" lon="5.93967">
        <ele>681.79998779297</ele>
        <time>2022-01-02T08:32:29.183Z</time>
      </trkpt>
      <trkpt lat="44.04424" lon="5.9395">
        <ele>681.59997558594</ele>
        <time>2022-01-02T08:32:32.933Z</time>
      </trkpt>
      <trkpt lat="44.04425" lon="5.93935">
        <ele>681.20001220703</ele>
        <time>2022-01-02T08:32:36.687Z</time>
      </trkpt>
      <trkpt lat="44.04427" lon="5.93918">
        <ele>681.79998779297</ele>
        <time>2022-01-02T08:32:40.444Z</time>
      </trkpt>
      <trkpt lat="44.04432" lon="5.93892">
        <ele>680.79998779297</ele>
        <time>2022-01-02T08:32:44.206Z</time>
      </trkpt>
      <trkpt lat="44.04432" lon="5.93877">
        <ele>680</ele>
        <time>2022-01-02T08:32:47.971Z</time>
      </trkpt>
      <trkpt lat="44.04427" lon="5.93858">
        <ele>681</ele>
        <time>2022-01-02T08:32:51.740Z</time>
      </trkpt>
      <trkpt lat="44.0442" lon="5.93831">
        <ele>682</ele>
        <time>2022-01-02T08:32:55.515Z</time>
      </trkpt>
      <trkpt lat="44.0442" lon="5.93827">
        <ele>682.20001220703</ele>
        <time>2022-01-02T08:32:59.291Z</time>
      </trkpt>
      <trkpt lat="44.04416" lon="5.93808">
        <ele>683.20001220703</ele>
        <time>2022-01-02T08:33:03.071Z</time>
      </trkpt>
      <trkpt lat="44.04414" lon="5.93804">
        <ele>683.40002441406</ele>
        <time>2022-01-02T08:33:06.852Z</time>
      </trkpt>
      <trkpt lat="44.04411" lon="5.93796">
        <ele>683.79998779297</ele>
        <time>2022-01-02T08:33:10.635Z</time>
      </trkpt>
      <trkpt lat="44.0441" lon="5.93785">
        <ele>684</ele>
        <time>2022-01-02T08:33:14.420Z</time>
      </trkpt>
      <trkpt lat="44.04405" lon="5.9376">
        <ele>684.20001220703</ele>
        <time>2022-01-02T08:33:18.210Z</time>
      </trkpt>
      <trkpt lat="44.04404" lon="5.93755">
        <ele>684.40002441406</ele>
        <time>2022-01-02T08:33:22.001Z</time>
      </trkpt>
      <trkpt lat="44.04401" lon="5.93736">
        <ele>685.20001220703</ele>
        <time>2022-01-02T08:33:25.797Z</time>
      </trkpt>
      <trkpt lat="44.04399" lon="5.93731">
        <ele>685.59997558594</ele>
        <time>2022-01-02T08:33:29.594Z</time>
      </trkpt>
      <trkpt lat="44.04393" lon="5.9372">
        <ele>686.59997558594</ele>
        <time>2022-01-02T08:33:33.393Z</time>
      </trkpt>
      <trkpt lat="44.04391" lon="5.9371">
        <ele>687.20001220703</ele>
        <time>2022-01-02T08:33:37.194Z</time>
      </trkpt>
      <trkpt lat="44.0439" lon="5.93697">
        <ele>687.20001220703</ele>
        <time>2022-01-02T08:33:40.998Z</time>
      </trkpt>
      <trkpt lat="44.04386" lon="5.93682">
        <ele>687</ele>
        <time>2022-01-02T08:33:44.805Z</time>
      </trkpt>
      <trkpt lat="44.04386" lon="5.93663">
        <ele>686.59997558594</ele>
        <time>2022-01-02T08:33:48.616Z</time>
      </trkpt>
      <trkpt lat="44.04379" lon="5.93647">
        <ele>686.20001220703</ele>
        <time>2022-01-02T08:33:52.431Z</time>
      </trkpt>
      <trkpt lat="44.04366" lon="5.93616">
        <ele>687.79998779297</ele>
        <time>2022-01-02T08:33:56.253Z</time>
      </trkpt>
      <trkpt lat="44.04359" lon="5.93602">
        <ele>689.20001220703</ele>
        <time>2022-01-02T08:34:00.079Z</time>
      </trkpt>
      <trkpt lat="44.04355" lon="5.93592">
        <ele>690.20001220703</ele>
        <time>2022-01-02T08:34:03.907Z</time>
      </trkpt>
      <trkpt lat="44.04353" lon="5.93582">
        <ele>691.20001220703</ele>
        <time>2022-01-02T08:34:07.737Z</time>
      </trkpt>
      <trkpt lat="44.04353" lon="5.93579">
        <ele>691.40002441406</ele>
        <time>2022-01-02T08:34:11.568Z</time>
      </trkpt>
      <trkpt lat="44.04351" lon="5.9357">
        <ele>692.20001220703</ele>
        <time>2022-01-02T08:34:15.401Z</time>
      </trkpt>
      <trkpt lat="44.04351" lon="5.93568">
        <ele>692.59997558594</ele>
        <time>2022-01-02T08:34:19.234Z</time>
      </trkpt>
      <trkpt lat="44.0435" lon="5.93556">
        <ele>693.40002441406</ele>
        <time>2022-01-02T08:34:23.069Z</time>
      </trkpt>
      <trkpt lat="44.04351" lon="5.93554">
        <ele>693.59997558594</ele>
        <time>2022-01-02T08:34:26.905Z</time>
      </trkpt>
      <trkpt lat="44.0435" lon="5.93546">
        <ele>694.40002441406</ele>
        <time>2022-01-02T08:34:30.743Z</time>
      </trkpt>
      <trkpt lat="44.04349" lon="5.93545">
        <ele>694.59997558594</ele>
        <time>2022-01-02T08:34:34.581Z</time>
      </trkpt>
      <trkpt lat="44.04349" lon="5.93546">
        <ele>694.79998779297</ele>
        <time>2022-01-02T08:34:38.419Z</time>
      </trkpt>
      <trkpt lat="44.04347" lon="5.93542">
        <ele>695.40002441406</ele>
        <time>2022-01-02T08:34:42.258Z</time>
      </trkpt>
      <trkpt lat="44.04344" lon="5.93537">
        <ele>695.59997558594</ele>
        <time>2022-01-02T08:34:46.098Z</time>
      </trkpt>
      <trkpt lat="44.04342" lon="5.9353">
        <ele>696</ele>
        <time>2022-01-02T08:34:49.940Z</time>
      </trkpt>
      <trkpt lat="44.04341" lon="5.93522">
        <ele>696.59997558594</ele>
        <time>2022-01-02T08:34:53.783Z</time>
      </trkpt>
      <trkpt lat="44.0434" lon="5.93518">
        <ele>697</ele>
        <time>2022-01-02T08:34:57.627Z</time>
      </trkpt>
      <trkpt lat="44.04338" lon="5.9351">
        <ele>697.79998779297</ele>
        <time>2022-01-02T08:35:01.473Z</time>
      </trkpt>
      <trkpt lat="44.04336" lon="5.93507">
        <ele>698.20001220703</ele>
        <time>2022-01-02T08:35:05.320Z</time>
      </trkpt>
      <trkpt lat="44.0433" lon="5.93497">
        <ele>699.59997558594</ele>
        <time>2022-01-02T08:35:09.169Z</time>
      </trkpt>
      <trkpt lat="44.04329" lon="5.93494">
        <ele>700</ele>
        <time>2022-01-02T08:35:13.019Z</time>
      </trkpt>
      <trkpt lat="44.04325" lon="5.93491">
        <ele>700.79998779297</ele>
        <time>2022-01-02T08:35:16.870Z</time>
      </trkpt>
      <trkpt lat="44.04323" lon="5.93492">
        <ele>701</ele>
        <time>2022-01-02T08:35:20.722Z</time>
      </trkpt>
      <trkpt lat="44.04321" lon="5.93494">
        <ele>701.40002441406</ele>
        <time>2022-01-02T08:35:24.574Z</time>
      </trkpt>
      <trkpt lat="44.04318" lon="5.93498">
        <ele>701.79998779297</ele>
        <time>2022-01-02T08:35:28.428Z</time>
      </trkpt>
      <trkpt lat="44.04316" lon="5.93499">
        <ele>702</ele>
        <time>2022-01-02T08:35:32.282Z</time>
      </trkpt>
      <trkpt lat="44.04315" lon="5.93497">
        <ele>702.40002441406</ele>
        <time>2022-01-02T08:35:36.137Z</time>
      </trkpt>
      <trkpt lat="44.04315" lon="5.93492">
        <ele>703</ele>
        <time>2022-01-02T08:35:39.993Z</time>
      </trkpt>
      <trkpt lat="44.04313" lon="5.9349">
        <ele>703.79998779297</ele>
        <time>2022-01-02T08:35:43.850Z</time>
      </trkpt>
      <trkpt lat="44.0431" lon="5.93491">
        <ele>704.40002441406</ele>
        <time>2022-01-02T08:35:47.707Z</time>
      </trkpt>
      <trkpt lat="44.04308" lon="5.93495">
        <ele>704.79998779297</ele>
        <time>2022-01-02T08:35:51.565Z</time>
      </trkpt>
      <trkpt lat="44.04305" lon="5.93499">
        <ele>705.20001220703</ele>
        <time>2022-01-02T08:35:55.425Z</time>
      </trkpt>
      <trkpt lat="44.04303" lon="5.93501">
        <ele>705.40002441406</ele>
        <time>2022-01-02T08:35:59.285Z</time>
      </trkpt>
      <trkpt lat="44.04298" lon="5.93502">
        <ele>706</ele>
        <time>2022-01-02T08:36:03.147Z</time>
      </trkpt>
      <trkpt lat="44.04295" lon="5.93498">
        <ele>706.79998779297</ele>
        <time>2022-01-02T08:36:07.010Z</time>
      </trkpt>
      <trkpt lat="44.04296" lon="5.93495">
        <ele>707.59997558594</ele>
        <time>2022-01-02T08:36:10.873Z</time>
      </trkpt>
      <trkpt lat="44.04296" lon="5.93492">
        <ele>708.20001220703</ele>
        <time>2022-01-02T08:36:14.737Z</time>
      </trkpt>
      <trkpt lat="44.04299" lon="5.93483">
        <ele>709.59997558594</ele>
        <time>2022-01-02T08:36:18.603Z</time>
      </trkpt>
      <trkpt lat="44.04299" lon="5.93481">
        <ele>709.79998779297</ele>
        <time>2022-01-02T08:36:22.469Z</time>
      </trkpt>
      <trkpt lat="44.04299" lon="5.93465">
        <ele>710.59997558594</ele>
        <time>2022-01-02T08:36:26.339Z</time>
      </trkpt>
      <trkpt lat="44.04298" lon="5.93461">
        <ele>710.79998779297</ele>
        <time>2022-01-02T08:36:30.210Z</time>
      </trkpt>
      <trkpt lat="44.04291" lon="5.93455">
        <ele>711.79998779297</ele>
        <time>2022-01-02T08:36:34.083Z</time>
      </trkpt>
      <trkpt lat="44.04283" lon="5.93457">
        <ele>713.59997558594</ele>
        <time>2022-01-02T08:36:37.958Z</time>
      </trkpt>
      <trkpt lat="44.0428" lon="5.93458">
        <ele>714.20001220703</ele>
        <time>2022-01-02T08:36:41.834Z</time>
      </trkpt>
      <trkpt lat="44.04277" lon="5.93457">
        <ele>714.59997558594</ele>
        <time>2022-01-02T08:36:45.711Z</time>
      </trkpt>
      <trkpt lat="44.04267" lon="5.93448">
        <ele>715.59997558594</ele>
        <time>2022-01-02T08:36:49.591Z</time>
      </trkpt>
      <trkpt lat="44.04264" lon="5.93444">
        <ele>715.59997558594</ele>
        <time>2022-01-02T08:36:53.472Z</time>
      </trkpt>
      <trkpt lat="44.04248" lon="5.93419">
        <ele>714.20001220703</ele>
        <time>2022-01-02T08:36:57.360Z</time>
      </trkpt>
      <trkpt lat="44.04239" lon="5.93395">
        <ele>713.79998779297</ele>
        <time>2022-01-02T08:37:01.254Z</time>
      </trkpt>
      <trkpt lat="44.04239" lon="5.93384">
        <ele>713.40002441406</ele>
        <time>2022-01-02T08:37:05.150Z</time>
      </trkpt>
      <trkpt lat="44.04242" lon="5.93381">
        <ele>713.40002441406</ele>
        <time>2022-01-02T08:37:09.047Z</time>
      </trkpt>
      <trkpt lat="44.04248" lon="5.93381">
        <ele>713</ele>
        <time>2022-01-02T08:37:12.945Z</time>
      </trkpt>
      <trkpt lat="44.04252" lon="5.93378">
        <ele>712.59997558594</ele>
        <time>2022-01-02T08:37:16.845Z</time>
      </trkpt>
      <trkpt lat="44.04252" lon="5.93375">
        <ele>712.59997558594</ele>
        <time>2022-01-02T08:37:20.745Z</time>
      </trkpt>
      <trkpt lat="44.0425" lon="5.93362">
        <ele>713.40002441406</ele>
        <time>2022-01-02T08:37:24.648Z</time>
      </trkpt>
      <trkpt lat="44.0425" lon="5.93359">
        <ele>713.40002441406</ele>
        <time>2022-01-02T08:37:28.552Z</time>
      </trkpt>
      <trkpt lat="44.04252" lon="5.93355">
        <ele>713.59997558594</ele>
        <time>2022-01-02T08:37:32.457Z</time>
      </trkpt>
      <trkpt lat="44.04254" lon="5.93352">
        <ele>714.40002441406</ele>
        <time>2022-01-02T08:37:36.362Z</time>
      </trkpt>
      <trkpt lat="44.04255" lon="5.93342">
        <ele>715</ele>
        <time>2022-01-02T08:37:40.270Z</time>
      </trkpt>
      <trkpt lat="44.04255" lon="5.93338">
        <ele>715.20001220703</ele>
        <time>2022-01-02T08:37:44.178Z</time>
      </trkpt>
      <trkpt lat="44.04254" lon="5.9333">
        <ele>716</ele>
        <time>2022-01-02T08:37:48.088Z</time>
      </trkpt>
      <trkpt lat="44.04255" lon="5.93324">
        <ele>716.59997558594</ele>
        <time>2022-01-02T08:37:51.999Z</time>
      </trkpt>
      <trkpt lat="44.04262" lon="5.93315">
        <ele>716.40002441406</ele>
        <time>2022-01-02T08:37:55.913Z</time>
      </trkpt>
      <trkpt lat="44.04265" lon="5.93319">
        <ele>716.40002441406</ele>
        <time>2022-01-02T08:37:59.828Z</time>
      </trkpt>
      <trkpt lat="44.0427" lon="5.93325">
        <ele>716.59997558594</ele>
        <time>2022-01-02T08:38:03.745Z</time>
      </trkpt>
      <trkpt lat="44.04277" lon="5.9333">
        <ele>716.79998779297</ele>
        <time>2022-01-02T08:38:07.664Z</time>
      </trkpt>
      <trkpt lat="44.04284" lon="5.93331">
        <ele>717</ele>
        <time>2022-01-02T08:38:11.585Z</time>
      </trkpt>
      <trkpt lat="44.04287" lon="5.93331">
        <ele>717</ele>
        <time>2022-01-02T08:38:15.507Z</time>
      </trkpt>
      <trkpt lat="44.04298" lon="5.93328">
        <ele>718</ele>
        <time>2022-01-02T08:38:19.432Z</time>
      </trkpt>
      <trkpt lat="44.04302" lon="5.93328">
        <ele>718.40002441406</ele>
        <time>2022-01-02T08:38:23.358Z</time>
      </trkpt>
      <trkpt lat="44.04308" lon="5.9333">
        <ele>719.20001220703</ele>
        <time>2022-01-02T08:38:27.286Z</time>
      </trkpt>
      <trkpt lat="44.04315" lon="5.93331">
        <ele>719.79998779297</ele>
        <time>2022-01-02T08:38:31.216Z</time>
      </trkpt>
      <trkpt lat="44.04321" lon="5.93336">
        <ele>720.79998779297</ele>
        <time>2022-01-02T08:38:35.148Z</time>
      </trkpt>
      <trkpt lat="44.04331" lon="5.93342">
        <ele>722.59997558594</ele>
        <time>2022-01-02T08:38:39.083Z</time>
      </trkpt>
      <trkpt lat="44.04335" lon="5.93345">
        <ele>723.20001220703</ele>
        <time>2022-01-02T08:38:43.019Z</time>
      </trkpt>
      <trkpt lat="44.0434" lon="5.93351">
        <ele>723.79998779297</ele>
        <time>2022-01-02T08:38:46.957Z</time>
      </trkpt>
      <trkpt lat="44.04347" lon="5.93359">
        <ele>723.79998779297</ele>
        <time>2022-01-02T08:38:50.898Z</time>
      </trkpt>
      <trkpt lat="44.04357" lon="5.93366">
        <ele>724</ele>
        <time>2022-01-02T08:38:54.842Z</time>
      </trkpt>
      <trkpt lat="44.04367" lon="5.93371">
        <ele>724.79998779297</ele>
        <time>2022-01-02T08:38:58.789Z</time>
      </trkpt>
      <trkpt lat="44.04374" lon="5.93374">
        <ele>725.79998779297</ele>
        <time>2022-01-02T08:39:02.738Z</time>
      </trkpt>
      <trkpt lat="44.04377" lon="5.93375">
        <ele>726.20001220703</ele>
        <time>2022-01-02T08:39:06.688Z</time>
      </trkpt>
      <trkpt lat="44.04386" lon="5.93375">
        <ele>726.59997558594</ele>
        <time>2022-01-02T08:39:10.640Z</time>
      </trkpt>
      <trkpt lat="44.04392" lon="5.93374">
        <ele>726.79998779297</ele>
        <time>2022-01-02T08:39:14.594Z</time>
      </trkpt>
      <trkpt lat="44.04402" lon="5.93372">
        <ele>727.40002441406</ele>
        <time>2022-01-02T08:39:18.551Z</time>
      </trkpt>
      <trkpt lat="44.04407" lon="5.93372">
        <ele>727.40002441406</ele>
        <time>2022-01-02T08:39:22.509Z</time>
      </trkpt>
      <trkpt lat="44.04412" lon="5.93369">
        <ele>727.59997558594</ele>
        <time>2022-01-02T08:39:26.469Z</time>
      </trkpt>
      <trkpt lat="44.0443" lon="5.93353">
        <ele>727.79998779297</ele>
        <time>2022-01-02T08:39:30.435Z</time>
      </trkpt>
      <trkpt lat="44.04444" lon="5.93331">
        <ele>728</ele>
        <time>2022-01-02T08:39:34.407Z</time>
      </trkpt>
      <trkpt lat="44.04446" lon="5.93326">
        <ele>728</ele>
        <time>2022-01-02T08:39:38.380Z</time>
      </trkpt>
      <trkpt lat="44.04454" lon="5.93303">
        <ele>728</ele>
        <time>2022-01-02T08:39:42.358Z</time>
      </trkpt>
      <trkpt lat="44.04458" lon="5.93277">
        <ele>728.40002441406</ele>
        <time>2022-01-02T08:39:46.342Z</time>
      </trkpt>
      <trkpt lat="44.04455" lon="5.93259">
        <ele>728.79998779297</ele>
        <time>2022-01-02T08:39:50.329Z</time>
      </trkpt>
      <trkpt lat="44.04455" lon="5.93253">
        <ele>729.20001220703</ele>
        <time>2022-01-02T08:39:54.318Z</time>
      </trkpt>
      <trkpt lat="44.04456" lon="5.93247">
        <ele>729.59997558594</ele>
        <time>2022-01-02T08:39:58.308Z</time>
      </trkpt>
      <trkpt lat="44.04458" lon="5.93233">
        <ele>729.79998779297</ele>
        <time>2022-01-02T08:40:02.301Z</time>
      </trkpt>
      <trkpt lat="44.0446" lon="5.93227">
        <ele>729.79998779297</ele>
        <time>2022-01-02T08:40:06.295Z</time>
      </trkpt>
      <trkpt lat="44.04468" lon="5.93205">
        <ele>729</ele>
        <time>2022-01-02T08:40:10.294Z</time>
      </trkpt>
      <trkpt lat="44.0447" lon="5.93199">
        <ele>728.79998779297</ele>
        <time>2022-01-02T08:40:14.295Z</time>
      </trkpt>
      <trkpt lat="44.04477" lon="5.93175">
        <ele>728.40002441406</ele>
        <time>2022-01-02T08:40:18.301Z</time>
      </trkpt>
      <trkpt lat="44.04477" lon="5.9317">
        <ele>728.40002441406</ele>
        <time>2022-01-02T08:40:22.308Z</time>
      </trkpt>
      <trkpt lat="44.04479" lon="5.93153">
        <ele>728.20001220703</ele>
        <time>2022-01-02T08:40:26.318Z</time>
      </trkpt>
      <trkpt lat="44.0448" lon="5.93148">
        <ele>728.20001220703</ele>
        <time>2022-01-02T08:40:30.329Z</time>
      </trkpt>
      <trkpt lat="44.0448" lon="5.93128">
        <ele>728.20001220703</ele>
        <time>2022-01-02T08:40:34.344Z</time>
      </trkpt>
      <trkpt lat="44.04486" lon="5.93126">
        <ele>728</ele>
        <time>2022-01-02T08:40:38.361Z</time>
      </trkpt>
      <trkpt lat="44.04488" lon="5.93132">
        <ele>727.20001220703</ele>
        <time>2022-01-02T08:40:42.379Z</time>
      </trkpt>
      <trkpt lat="44.0449" lon="5.93137">
        <ele>726.40002441406</ele>
        <time>2022-01-02T08:40:46.398Z</time>
      </trkpt>
      <trkpt lat="44.04491" lon="5.93143">
        <ele>725.79998779297</ele>
        <time>2022-01-02T08:40:50.419Z</time>
      </trkpt>
      <trkpt lat="44.04493" lon="5.93149">
        <ele>725.20001220703</ele>
        <time>2022-01-02T08:40:54.441Z</time>
      </trkpt>
      <trkpt lat="44.04496" lon="5.93164">
        <ele>724</ele>
        <time>2022-01-02T08:40:58.466Z</time>
      </trkpt>
      <trkpt lat="44.04497" lon="5.93171">
        <ele>723.40002441406</ele>
        <time>2022-01-02T08:41:02.493Z</time>
      </trkpt>
      <trkpt lat="44.04497" lon="5.93177">
        <ele>722.79998779297</ele>
        <time>2022-01-02T08:41:06.521Z</time>
      </trkpt>
      <trkpt lat="44.04494" lon="5.93195">
        <ele>722</ele>
        <time>2022-01-02T08:41:10.553Z</time>
      </trkpt>
      <trkpt lat="44.04491" lon="5.93207">
        <ele>721.79998779297</ele>
        <time>2022-01-02T08:41:14.587Z</time>
      </trkpt>
      <trkpt lat="44.0449" lon="5.93211">
        <ele>721.79998779297</ele>
        <time>2022-01-02T08:41:18.622Z</time>
      </trkpt>
      <trkpt lat="44.0449" lon="5.93216">
        <ele>721.59997558594</ele>
        <time>2022-01-02T08:41:22.658Z</time>
      </trkpt>
      <trkpt lat="44.04491" lon="5.93228">
        <ele>721.40002441406</ele>
        <time>2022-01-02T08:41:26.697Z</time>
      </trkpt>
      <trkpt lat="44.04494" lon="5.9323">
        <ele>720.20001220703</ele>
        <time>2022-01-02T08:41:30.736Z</time>
      </trkpt>
      <trkpt lat="44.04498" lon="5.93226">
        <ele>719.20001220703</ele>
        <time>2022-01-02T08:41:34.777Z</time>
      </trkpt>
      <trkpt lat="44.04503" lon="5.93219">
        <ele>718.20001220703</ele>
        <time>2022-01-02T08:41:38.820Z</time>
      </trkpt>
      <trkpt lat="44.04507" lon="5.93214">
        <ele>717.79998779297</ele>
        <time>2022-01-02T08:41:42.864Z</time>
      </trkpt>
      <trkpt lat="44.04513" lon="5.93202">
        <ele>716.40002441406</ele>
        <time>2022-01-02T08:41:46.911Z</time>
      </trkpt>
      <trkpt lat="44.04516" lon="5.93196">
        <ele>716</ele>
        <time>2022-01-02T08:41:50.960Z</time>
      </trkpt>
      <trkpt lat="44.0452" lon="5.93192">
        <ele>715.40002441406</ele>
        <time>2022-01-02T08:41:55.010Z</time>
      </trkpt>
      <trkpt lat="44.04526" lon="5.93181">
        <ele>714.20001220703</ele>
        <time>2022-01-02T08:41:59.063Z</time>
      </trkpt>
      <trkpt lat="44.04528" lon="5.93176">
        <ele>713.40002441406</ele>
        <time>2022-01-02T08:42:03.117Z</time>
      </trkpt>
      <trkpt lat="44.0453" lon="5.9317">
        <ele>712.79998779297</ele>
        <time>2022-01-02T08:42:07.172Z</time>
      </trkpt>
      <trkpt lat="44.04536" lon="5.93162">
        <ele>712</ele>
        <time>2022-01-02T08:42:11.230Z</time>
      </trkpt>
      <trkpt lat="44.0454" lon="5.93159">
        <ele>711.79998779297</ele>
        <time>2022-01-02T08:42:15.289Z</time>
      </trkpt>
      <trkpt lat="44.04547" lon="5.93147">
        <ele>710.79998779297</ele>
        <time>2022-01-02T08:42:19.351Z</time>
      </trkpt>
      <trkpt lat="44.04552" lon="5.93144">
        <ele>710.59997558594</ele>
        <time>2022-01-02T08:42:23.415Z</time>
      </trkpt>
      <trkpt lat="44.04562" lon="5.93137">
        <ele>709.79998779297</ele>
        <time>2022-01-02T08:42:27.482Z</time>
      </trkpt>
      <trkpt lat="44.04566" lon="5.93132">
        <ele>709.40002441406</ele>
        <time>2022-01-02T08:42:31.550Z</time>
      </trkpt>
      <trkpt lat="44.0457" lon="5.93127">
        <ele>709.20001220703</ele>
        <time>2022-01-02T08:42:35.620Z</time>
      </trkpt>
      <trkpt lat="44.04577" lon="5.93118">
        <ele>709</ele>
        <time>2022-01-02T08:42:39.693Z</time>
      </trkpt>
      <trkpt lat="44.0458" lon="5.93116">
        <ele>709</ele>
        <time>2022-01-02T08:42:43.767Z</time>
      </trkpt>
      <trkpt lat="44.04583" lon="5.93116">
        <ele>708.59997558594</ele>
        <time>2022-01-02T08:42:47.841Z</time>
      </trkpt>
      <trkpt lat="44.04583" lon="5.93117">
        <ele>708.20001220703</ele>
        <time>2022-01-02T08:42:51.916Z</time>
      </trkpt>
      <trkpt lat="44.04583" lon="5.93115">
        <ele>707.40002441406</ele>
        <time>2022-01-02T08:42:55.991Z</time>
      </trkpt>
      <trkpt lat="44.04583" lon="5.93115">
        <ele>707.20001220703</ele>
        <time>2022-01-02T08:43:00.066Z</time>
      </trkpt>
      <trkpt lat="44.04583" lon="5.93115">
        <ele>707</ele>
        <time>2022-01-02T08:43:04.141Z</time>
      </trkpt>
      <trkpt lat="44.04588" lon="5.93112">
        <ele>706.79998779297</ele>
        <time>2022-01-02T08:43:08.218Z</time>
      </trkpt>
      <trkpt lat="44.04591" lon="5.93107">
        <ele>706.59997558594</ele>
        <time>2022-01-02T08:43:12.296Z</time>
      </trkpt>
      <trkpt lat="44.04594" lon="5.93099">
        <ele>706.40002441406</ele>
        <time>2022-01-02T08:43:16.376Z</time>
      </trkpt>
      <trkpt lat="44.04594" lon="5.93098">
        <ele>706.40002441406</ele>
        <time>2022-01-02T08:43:20.456Z</time>
      </trkpt>
      <trkpt lat="44.04592" lon="5.93092">
        <ele>706.40002441406</ele>
        <time>2022-01-02T08:43:24.537Z</time>
      </trkpt>
      <trkpt lat="44.04591" lon="5.93088">
        <ele>706.40002441406</ele>
        <time>2022-01-02T08:43:28.619Z</time>
      </trkpt>
      <trkpt lat="44.04587" lon="5.93073">
        <ele>706.40002441406</ele>
        <time>2022-01-02T08:43:32.705Z</time>
      </trkpt>
      <trkpt lat="44.04587" lon="5.93066">
        <ele>706</ele>
        <time>2022-01-02T08:43:36.792Z</time>
      </trkpt>
      <trkpt lat="44.0459" lon="5.9306">
        <ele>705.79998779297</ele>
        <time>2022-01-02T08:43:40.880Z</time>
      </trkpt>
      <trkpt lat="44.046" lon="5.93057">
        <ele>705.40002441406</ele>
        <time>2022-01-02T08:43:44.971Z</time>
      </trkpt>
      <trkpt lat="44.04605" lon="5.9306">
        <ele>705.20001220703</ele>
        <time>2022-01-02T08:43:49.064Z</time>
      </trkpt>
      <trkpt lat="44.04612" lon="5.93065">
        <ele>705.40002441406</ele>
        <time>2022-01-02T08:43:53.159Z</time>
      </trkpt>
      <trkpt lat="44.04627" lon="5.93075">
        <ele>705.79998779297</ele>
        <time>2022-01-02T08:43:57.259Z</time>
      </trkpt>
      <trkpt lat="44.04641" lon="5.93084">
        <ele>706.59997558594</ele>
        <time>2022-01-02T08:44:01.363Z</time>
      </trkpt>
      <trkpt lat="44.04644" lon="5.93083">
        <ele>706.59997558594</ele>
        <time>2022-01-02T08:44:05.468Z</time>
      </trkpt>
      <trkpt lat="44.0465" lon="5.93077">
        <ele>707.40002441406</ele>
        <time>2022-01-02T08:44:09.575Z</time>
      </trkpt>
      <trkpt lat="44.04653" lon="5.93075">
        <ele>707.59997558594</ele>
        <time>2022-01-02T08:44:13.683Z</time>
      </trkpt>
      <trkpt lat="44.04664" lon="5.93073">
        <ele>708.79998779297</ele>
        <time>2022-01-02T08:44:17.794Z</time>
      </trkpt>
      <trkpt lat="44.04665" lon="5.93059">
        <ele>710</ele>
        <time>2022-01-02T08:44:21.908Z</time>
      </trkpt>
      <trkpt lat="44.04664" lon="5.93055">
        <ele>710.59997558594</ele>
        <time>2022-01-02T08:44:26.023Z</time>
      </trkpt>
      <trkpt lat="44.04661" lon="5.93051">
        <ele>711.20001220703</ele>
        <time>2022-01-02T08:44:30.139Z</time>
      </trkpt>
      <trkpt lat="44.04658" lon="5.93048">
        <ele>711.79998779297</ele>
        <time>2022-01-02T08:44:34.256Z</time>
      </trkpt>
      <trkpt lat="44.04652" lon="5.93045">
        <ele>712.40002441406</ele>
        <time>2022-01-02T08:44:38.375Z</time>
      </trkpt>
      <trkpt lat="44.04649" lon="5.93044">
        <ele>712.40002441406</ele>
        <time>2022-01-02T08:44:42.495Z</time>
      </trkpt>
      <trkpt lat="44.04646" lon="5.93042">
        <ele>712.59997558594</ele>
        <time>2022-01-02T08:44:46.616Z</time>
      </trkpt>
      <trkpt lat="44.04642" lon="5.93033">
        <ele>713</ele>
        <time>2022-01-02T08:44:50.739Z</time>
      </trkpt>
      <trkpt lat="44.04643" lon="5.93022">
        <ele>713.59997558594</ele>
        <time>2022-01-02T08:44:54.864Z</time>
      </trkpt>
      <trkpt lat="44.04646" lon="5.93018">
        <ele>714</ele>
        <time>2022-01-02T08:44:58.990Z</time>
      </trkpt>
      <trkpt lat="44.04654" lon="5.93016">
        <ele>715</ele>
        <time>2022-01-02T08:45:03.119Z</time>
      </trkpt>
      <trkpt lat="44.04658" lon="5.93016">
        <ele>715.40002441406</ele>
        <time>2022-01-02T08:45:07.249Z</time>
      </trkpt>
      <trkpt lat="44.04664" lon="5.93013">
        <ele>715.79998779297</ele>
        <time>2022-01-02T08:45:11.381Z</time>
      </trkpt>
      <trkpt lat="44.0466" lon="5.93007">
        <ele>716.40002441406</ele>
        <time>2022-01-02T08:45:15.514Z</time>
      </trkpt>
      <trkpt lat="44.04657" lon="5.93002">
        <ele>716.59997558594</ele>
        <time>2022-01-02T08:45:19.648Z</time>
      </trkpt>
      <trkpt lat="44.04655" lon="5.92998">
        <ele>716.79998779297</ele>
        <time>2022-01-02T08:45:23.783Z</time>
      </trkpt>
      <trkpt lat="44.04655" lon="5.92994">
        <ele>717.40002441406</ele>
        <time>2022-01-02T08:45:27.919Z</time>
      </trkpt>
      <trkpt lat="44.04656" lon="5.92991">
        <ele>718.20001220703</ele>
        <time>2022-01-02T08:45:32.056Z</time>
      </trkpt>
      <trkpt lat="44.04657" lon="5.92988">
        <ele>718.79998779297</ele>
        <time>2022-01-02T08:45:36.194Z</time>
      </trkpt>
      <trkpt lat="44.04659" lon="5.92978">
        <ele>720</ele>
        <time>2022-01-02T08:45:40.334Z</time>
      </trkpt>
      <trkpt lat="44.0466" lon="5.92973">
        <ele>720.59997558594</ele>
        <time>2022-01-02T08:45:44.475Z</time>
      </trkpt>
      <trkpt lat="44.04661" lon="5.92965">
        <ele>721.40002441406</ele>
        <time>2022-01-02T08:45:48.617Z</time>
      </trkpt>
      <trkpt lat="44.04658" lon="5.92961">
        <ele>722</ele>
        <time>2022-01-02T08:45:52.760Z</time>
      </trkpt>
      <trkpt lat="44.04655" lon="5.92957">
        <ele>722.40002441406</ele>
        <time>2022-01-02T08:45:56.905Z</time>
      </trkpt>
      <trkpt lat="44.04652" lon="5.92953">
        <ele>722.79998779297</ele>
        <time>2022-01-02T08:46:01.051Z</time>
      </trkpt>
      <trkpt lat="44.0465" lon="5.92949">
        <ele>723.59997558594</ele>
        <time>2022-01-02T08:46:05.198Z</time>
      </trkpt>
      <trkpt lat="44.04649" lon="5.92946">
        <ele>724.20001220703</ele>
        <time>2022-01-02T08:46:09.346Z</time>
      </trkpt>
      <trkpt lat="44.04651" lon="5.92941">
        <ele>725</ele>
        <time>2022-01-02T08:46:13.495Z</time>
      </trkpt>
      <trkpt lat="44.04653" lon="5.92941">
        <ele>725.20001220703</ele>
        <time>2022-01-02T08:46:17.644Z</time>
      </trkpt>
      <trkpt lat="44.04657" lon="5.92941">
        <ele>725.40002441406</ele>
        <time>2022-01-02T08:46:21.794Z</time>
      </trkpt>
      <trkpt lat="44.04665" lon="5.92941">
        <ele>725.20001220703</ele>
        <time>2022-01-02T08:46:25.946Z</time>
      </trkpt>
      <trkpt lat="44.04676" lon="5.92939">
        <ele>723.59997558594</ele>
        <time>2022-01-02T08:46:30.102Z</time>
      </trkpt>
      <trkpt lat="44.04681" lon="5.92937">
        <ele>723</ele>
        <time>2022-01-02T08:46:34.259Z</time>
      </trkpt>
      <trkpt lat="44.04686" lon="5.92934">
        <ele>722.79998779297</ele>
        <time>2022-01-02T08:46:38.418Z</time>
      </trkpt>
      <trkpt lat="44.0469" lon="5.92932">
        <ele>722.59997558594</ele>
        <time>2022-01-02T08:46:42.578Z</time>
      </trkpt>
      <trkpt lat="44.04698" lon="5.92933">
        <ele>723</ele>
        <time>2022-01-02T08:46:46.740Z</time>
      </trkpt>
      <trkpt lat="44.04702" lon="5.92932">
        <ele>723</ele>
        <time>2022-01-02T08:46:50.903Z</time>
      </trkpt>
      <trkpt lat="44.04707" lon="5.9293">
        <ele>723.20001220703</ele>
        <time>2022-01-02T08:46:55.068Z</time>
      </trkpt>
      <trkpt lat="44.04719" lon="5.92923">
        <ele>724</ele>
        <time>2022-01-02T08:46:59.236Z</time>
      </trkpt>
      <trkpt lat="44.04727" lon="5.92919">
        <ele>724.59997558594</ele>
        <time>2022-01-02T08:47:03.407Z</time>
      </trkpt>
      <trkpt lat="44.04732" lon="5.92911">
        <ele>725.20001220703</ele>
        <time>2022-01-02T08:47:07.580Z</time>
      </trkpt>
      <trkpt lat="44.04732" lon="5.92907">
        <ele>725.40002441406</ele>
        <time>2022-01-02T08:47:11.754Z</time>
      </trkpt>
      <trkpt lat="44.04734" lon="5.92902">
        <ele>726.59997558594</ele>
        <time>2022-01-02T08:47:15.929Z</time>
      </trkpt>
      <trkpt lat="44.04736" lon="5.92901">
        <ele>727.40002441406</ele>
        <time>2022-01-02T08:47:20.105Z</time>
      </trkpt>
      <trkpt lat="44.04737" lon="5.92899">
        <ele>728</ele>
        <time>2022-01-02T08:47:24.281Z</time>
      </trkpt>
      <trkpt lat="44.04739" lon="5.92895">
        <ele>729</ele>
        <time>2022-01-02T08:47:28.458Z</time>
      </trkpt>
      <trkpt lat="44.04737" lon="5.92893">
        <ele>729.59997558594</ele>
        <time>2022-01-02T08:47:32.636Z</time>
      </trkpt>
      <trkpt lat="44.04736" lon="5.92889">
        <ele>730.40002441406</ele>
        <time>2022-01-02T08:47:36.814Z</time>
      </trkpt>
      <trkpt lat="44.04736" lon="5.92885">
        <ele>730.79998779297</ele>
        <time>2022-01-02T08:47:40.993Z</time>
      </trkpt>
      <trkpt lat="44.04736" lon="5.92881">
        <ele>731.59997558594</ele>
        <time>2022-01-02T08:47:45.173Z</time>
      </trkpt>
      <trkpt lat="44.04737" lon="5.92875">
        <ele>732.20001220703</ele>
        <time>2022-01-02T08:47:49.354Z</time>
      </trkpt>
      <trkpt lat="44.04737" lon="5.9287">
        <ele>732.59997558594</ele>
        <time>2022-01-02T08:47:53.536Z</time>
      </trkpt>
      <trkpt lat="44.04737" lon="5.92864">
        <ele>732.79998779297</ele>
        <time>2022-01-02T08:47:57.719Z</time>
      </trkpt>
      <trkpt lat="44.0474" lon="5.92845">
        <ele>733.40002441406</ele>
        <time>2022-01-02T08:48:01.906Z</time>
      </trkpt>
      <trkpt lat="44.04743" lon="5.9284">
        <ele>733.59997558594</ele>
        <time>2022-01-02T08:48:06.095Z</time>
      </trkpt>
      <trkpt lat="44.04745" lon="5.9283">
        <ele>734.59997558594</ele>
        <time>2022-01-02T08:48:10.286Z</time>
      </trkpt>
      <trkpt lat="44.04746" lon="5.92826">
        <ele>735</ele>
        <time>2022-01-02T08:48:14.478Z</time>
      </trkpt>
      <trkpt lat="44.04745" lon="5.92813">
        <ele>736.20001220703</ele>
        <time>2022-01-02T08:48:18.672Z</time>
      </trkpt>
      <trkpt lat="44.04743" lon="5.92809">
        <ele>736.59997558594</ele>
        <time>2022-01-02T08:48:22.867Z</time>
      </trkpt>
      <trkpt lat="44.04736" lon="5.92804">
        <ele>737.40002441406</ele>
        <time>2022-01-02T08:48:27.064Z</time>
      </trkpt>
      <trkpt lat="44.04732" lon="5.92796">
        <ele>737.79998779297</ele>
        <time>2022-01-02T08:48:31.263Z</time>
      </trkpt>
      <trkpt lat="44.04731" lon="5.92788">
        <ele>738.40002441406</ele>
        <time>2022-01-02T08:48:35.464Z</time>
      </trkpt>
      <trkpt lat="44.04731" lon="5.92783">
        <ele>738.79998779297</ele>
        <time>2022-01-02T08:48:39.666Z</time>
      </trkpt>
      <trkpt lat="44.0473" lon="5.92778">
        <ele>739.40002441406</ele>
        <time>2022-01-02T08:48:43.869Z</time>
      </trkpt>
      <trkpt lat="44.04729" lon="5.92773">
        <ele>739.79998779297</ele>
        <time>2022-01-02T08:48:48.073Z</time>
      </trkpt>
      <trkpt lat="44.04728" lon="5.92761">
        <ele>741.59997558594</ele>
        <time>2022-01-02T08:48:52.280Z</time>
      </trkpt>
      <trkpt lat="44.04733" lon="5.92754">
        <ele>742.59997558594</ele>
        <time>2022-01-02T08:48:56.489Z</time>
      </trkpt>
      <trkpt lat="44.04736" lon="5.92742">
        <ele>741.40002441406</ele>
        <time>2022-01-02T08:49:00.700Z</time>
      </trkpt>
      <trkpt lat="44.04741" lon="5.92745">
        <ele>740.79998779297</ele>
        <time>2022-01-02T08:49:04.913Z</time>
      </trkpt>
      <trkpt lat="44.04744" lon="5.92747">
        <ele>740.79998779297</ele>
        <time>2022-01-02T08:49:09.127Z</time>
      </trkpt>
      <trkpt lat="44.04752" lon="5.9275">
        <ele>741.79998779297</ele>
        <time>2022-01-02T08:49:13.343Z</time>
      </trkpt>
      <trkpt lat="44.04767" lon="5.92747">
        <ele>742.20001220703</ele>
        <time>2022-01-02T08:49:17.563Z</time>
      </trkpt>
      <trkpt lat="44.04778" lon="5.92733">
        <ele>742.59997558594</ele>
        <time>2022-01-02T08:49:21.787Z</time>
      </trkpt>
      <trkpt lat="44.04789" lon="5.9271">
        <ele>743.40002441406</ele>
        <time>2022-01-02T08:49:26.017Z</time>
      </trkpt>
      <trkpt lat="44.04795" lon="5.92687">
        <ele>744.20001220703</ele>
        <time>2022-01-02T08:49:30.252Z</time>
      </trkpt>
      <trkpt lat="44.04797" lon="5.92677">
        <ele>744.59997558594</ele>
        <time>2022-01-02T08:49:34.489Z</time>
      </trkpt>
      <trkpt lat="44.04795" lon="5.92673">
        <ele>745</ele>
        <time>2022-01-02T08:49:38.727Z</time>
      </trkpt>
      <trkpt lat="44.0479" lon="5.92666">
        <ele>745.40002441406</ele>
        <time>2022-01-02T08:49:42.967Z</time>
      </trkpt>
      <trkpt lat="44.04784" lon="5.92658">
        <ele>746.59997558594</ele>
        <time>2022-01-02T08:49:47.209Z</time>
      </trkpt>
      <trkpt lat="44.04781" lon="5.92654">
        <ele>747</ele>
        <time>2022-01-02T08:49:51.452Z</time>
      </trkpt>
      <trkpt lat="44.04775" lon="5.92648">
        <ele>748.20001220703</ele>
        <time>2022-01-02T08:49:55.698Z</time>
      </trkpt>
      <trkpt lat="44.04771" lon="5.92647">
        <ele>748.79998779297</ele>
        <time>2022-01-02T08:49:59.945Z</time>
      </trkpt>
      <trkpt lat="44.04765" lon="5.92644">
        <ele>749.59997558594</ele>
        <time>2022-01-02T08:50:04.193Z</time>
      </trkpt>
      <trkpt lat="44.04764" lon="5.9264">
        <ele>750</ele>
        <time>2022-01-02T08:50:08.442Z</time>
      </trkpt>
      <trkpt lat="44.04763" lon="5.92626">
        <ele>750.79998779297</ele>
        <time>2022-01-02T08:50:12.694Z</time>
      </trkpt>
      <trkpt lat="44.0476" lon="5.9262">
        <ele>751</ele>
        <time>2022-01-02T08:50:16.948Z</time>
      </trkpt>
      <trkpt lat="44.04757" lon="5.92616">
        <ele>751</ele>
        <time>2022-01-02T08:50:21.203Z</time>
      </trkpt>
      <trkpt lat="44.0475" lon="5.92602">
        <ele>752.40002441406</ele>
        <time>2022-01-02T08:50:25.461Z</time>
      </trkpt>
      <trkpt lat="44.0475" lon="5.92597">
        <ele>753.20001220703</ele>
        <time>2022-01-02T08:50:29.720Z</time>
      </trkpt>
      <trkpt lat="44.04749" lon="5.92592">
        <ele>754</ele>
        <time>2022-01-02T08:50:33.980Z</time>
      </trkpt>
      <trkpt lat="44.04746" lon="5.92582">
        <ele>755</ele>
        <time>2022-01-02T08:50:38.242Z</time>
      </trkpt>
      <trkpt lat="44.04745" lon="5.92577">
        <ele>755.40002441406</ele>
        <time>2022-01-02T08:50:42.506Z</time>
      </trkpt>
      <trkpt lat="44.04743" lon="5.92573">
        <ele>756</ele>
        <time>2022-01-02T08:50:46.770Z</time>
      </trkpt>
      <trkpt lat="44.0474" lon="5.92571">
        <ele>757</ele>
        <time>2022-01-02T08:50:51.036Z</time>
      </trkpt>
      <trkpt lat="44.04731" lon="5.92573">
        <ele>757.59997558594</ele>
        <time>2022-01-02T08:50:55.304Z</time>
      </trkpt>
      <trkpt lat="44.0472" lon="5.92571">
        <ele>758.20001220703</ele>
        <time>2022-01-02T08:50:59.575Z</time>
      </trkpt>
      <trkpt lat="44.04717" lon="5.92569">
        <ele>758.79998779297</ele>
        <time>2022-01-02T08:51:03.847Z</time>
      </trkpt>
      <trkpt lat="44.04714" lon="5.92562">
        <ele>759.59997558594</ele>
        <time>2022-01-02T08:51:08.121Z</time>
      </trkpt>
      <trkpt lat="44.04714" lon="5.92558">
        <ele>760</ele>
        <time>2022-01-02T08:51:12.396Z</time>
      </trkpt>
      <trkpt lat="44.04715" lon="5.92553">
        <ele>760.40002441406</ele>
        <time>2022-01-02T08:51:16.672Z</time>
      </trkpt>
      <trkpt lat="44.04717" lon="5.92544">
        <ele>760.79998779297</ele>
        <time>2022-01-02T08:51:20.950Z</time>
      </trkpt>
      <trkpt lat="44.0472" lon="5.92535">
        <ele>761.20001220703</ele>
        <time>2022-01-02T08:51:25.230Z</time>
      </trkpt>
      <trkpt lat="44.04723" lon="5.92526">
        <ele>762.59997558594</ele>
        <time>2022-01-02T08:51:29.512Z</time>
      </trkpt>
      <trkpt lat="44.04731" lon="5.92513">
        <ele>763.59997558594</ele>
        <time>2022-01-02T08:51:33.797Z</time>
      </trkpt>
      <trkpt lat="44.04734" lon="5.92508">
        <ele>763.79998779297</ele>
        <time>2022-01-02T08:51:38.083Z</time>
      </trkpt>
      <trkpt lat="44.04737" lon="5.92496">
        <ele>764.40002441406</ele>
        <time>2022-01-02T08:51:42.372Z</time>
      </trkpt>
      <trkpt lat="44.04739" lon="5.92491">
        <ele>765</ele>
        <time>2022-01-02T08:51:46.662Z</time>
      </trkpt>
      <trkpt lat="44.04742" lon="5.92487">
        <ele>765.20001220703</ele>
        <time>2022-01-02T08:51:50.953Z</time>
      </trkpt>
      <trkpt lat="44.04752" lon="5.9247">
        <ele>765.79998779297</ele>
        <time>2022-01-02T08:51:55.249Z</time>
      </trkpt>
      <trkpt lat="44.04754" lon="5.92465">
        <ele>766.20001220703</ele>
        <time>2022-01-02T08:51:59.546Z</time>
      </trkpt>
      <trkpt lat="44.04757" lon="5.92462">
        <ele>766.40002441406</ele>
        <time>2022-01-02T08:52:03.844Z</time>
      </trkpt>
      <trkpt lat="44.0476" lon="5.9246">
        <ele>766.59997558594</ele>
        <time>2022-01-02T08:52:08.143Z</time>
      </trkpt>
      <trkpt lat="44.04768" lon="5.92456">
        <ele>767.20001220703</ele>
        <time>2022-01-02T08:52:12.444Z</time>
      </trkpt>
      <trkpt lat="44.04777" lon="5.92448">
        <ele>767.40002441406</ele>
        <time>2022-01-02T08:52:16.748Z</time>
      </trkpt>
      <trkpt lat="44.04779" lon="5.92439">
        <ele>768.20001220703</ele>
        <time>2022-01-02T08:52:21.054Z</time>
      </trkpt>
      <trkpt lat="44.04778" lon="5.92437">
        <ele>768.59997558594</ele>
        <time>2022-01-02T08:52:25.360Z</time>
      </trkpt>
      <trkpt lat="44.04777" lon="5.92436">
        <ele>769.20001220703</ele>
        <time>2022-01-02T08:52:29.667Z</time>
      </trkpt>
      <trkpt lat="44.04776" lon="5.92434">
        <ele>769.40002441406</ele>
        <time>2022-01-02T08:52:33.974Z</time>
      </trkpt>
      <trkpt lat="44.04772" lon="5.9243">
        <ele>769.59997558594</ele>
        <time>2022-01-02T08:52:38.283Z</time>
      </trkpt>
      <trkpt lat="44.0477" lon="5.92428">
        <ele>770</ele>
        <time>2022-01-02T08:52:42.592Z</time>
      </trkpt>
      <trkpt lat="44.04762" lon="5.92427">
        <ele>771</ele>
        <time>2022-01-02T08:52:46.904Z</time>
      </trkpt>
      <trkpt lat="44.04759" lon="5.92426">
        <ele>771.40002441406</ele>
        <time>2022-01-02T08:52:51.216Z</time>
      </trkpt>
      <trkpt lat="44.04753" lon="5.92425">
        <ele>772</ele>
        <time>2022-01-02T08:52:55.530Z</time>
      </trkpt>
      <trkpt lat="44.04751" lon="5.92419">
        <ele>772.79998779297</ele>
        <time>2022-01-02T08:52:59.845Z</time>
      </trkpt>
      <trkpt lat="44.04752" lon="5.92415">
        <ele>773.20001220703</ele>
        <time>2022-01-02T08:53:04.161Z</time>
      </trkpt>
      <trkpt lat="44.04753" lon="5.92405">
        <ele>774.79998779297</ele>
        <time>2022-01-02T08:53:08.479Z</time>
      </trkpt>
      <trkpt lat="44.04752" lon="5.92398">
        <ele>776.40002441406</ele>
        <time>2022-01-02T08:53:12.799Z</time>
      </trkpt>
      <trkpt lat="44.0475" lon="5.92386">
        <ele>777.40002441406</ele>
        <time>2022-01-02T08:53:17.121Z</time>
      </trkpt>
      <trkpt lat="44.04747" lon="5.92376">
        <ele>778.59997558594</ele>
        <time>2022-01-02T08:53:21.445Z</time>
      </trkpt>
      <trkpt lat="44.04745" lon="5.9236">
        <ele>779.40002441406</ele>
        <time>2022-01-02T08:53:25.773Z</time>
      </trkpt>
      <trkpt lat="44.04745" lon="5.92359">
        <ele>779.59997558594</ele>
        <time>2022-01-02T08:53:30.101Z</time>
      </trkpt>
      <trkpt lat="44.04741" lon="5.92352">
        <ele>780</ele>
        <time>2022-01-02T08:53:34.431Z</time>
      </trkpt>
      <trkpt lat="44.04733" lon="5.92341">
        <ele>780.20001220703</ele>
        <time>2022-01-02T08:53:38.764Z</time>
      </trkpt>
      <trkpt lat="44.04727" lon="5.92336">
        <ele>780.40002441406</ele>
        <time>2022-01-02T08:53:43.099Z</time>
      </trkpt>
      <trkpt lat="44.04716" lon="5.92321">
        <ele>780.40002441406</ele>
        <time>2022-01-02T08:53:47.438Z</time>
      </trkpt>
      <trkpt lat="44.04715" lon="5.92317">
        <ele>780.40002441406</ele>
        <time>2022-01-02T08:53:51.778Z</time>
      </trkpt>
      <trkpt lat="44.04718" lon="5.92311">
        <ele>780.20001220703</ele>
        <time>2022-01-02T08:53:56.120Z</time>
      </trkpt>
      <trkpt lat="44.04719" lon="5.923">
        <ele>778.79998779297</ele>
        <time>2022-01-02T08:54:00.464Z</time>
      </trkpt>
      <trkpt lat="44.04721" lon="5.92296">
        <ele>778.59997558594</ele>
        <time>2022-01-02T08:54:04.809Z</time>
      </trkpt>
      <trkpt lat="44.04729" lon="5.92282">
        <ele>778.40002441406</ele>
        <time>2022-01-02T08:54:09.157Z</time>
      </trkpt>
      <trkpt lat="44.04734" lon="5.92279">
        <ele>778.59997558594</ele>
        <time>2022-01-02T08:54:13.507Z</time>
      </trkpt>
      <trkpt lat="44.04737" lon="5.92273">
        <ele>778.59997558594</ele>
        <time>2022-01-02T08:54:17.858Z</time>
      </trkpt>
      <trkpt lat="44.04739" lon="5.92261">
        <ele>778.79998779297</ele>
        <time>2022-01-02T08:54:22.212Z</time>
      </trkpt>
      <trkpt lat="44.04741" lon="5.92254">
        <ele>779.20001220703</ele>
        <time>2022-01-02T08:54:26.568Z</time>
      </trkpt>
      <trkpt lat="44.04742" lon="5.9224">
        <ele>779.40002441406</ele>
        <time>2022-01-02T08:54:30.926Z</time>
      </trkpt>
      <trkpt lat="44.04741" lon="5.92236">
        <ele>779</ele>
        <time>2022-01-02T08:54:35.285Z</time>
      </trkpt>
      <trkpt lat="44.04746" lon="5.92225">
        <ele>777.59997558594</ele>
        <time>2022-01-02T08:54:39.647Z</time>
      </trkpt>
      <trkpt lat="44.04755" lon="5.92214">
        <ele>776</ele>
        <time>2022-01-02T08:54:44.012Z</time>
      </trkpt>
      <trkpt lat="44.04759" lon="5.9221">
        <ele>775.40002441406</ele>
        <time>2022-01-02T08:54:48.379Z</time>
      </trkpt>
      <trkpt lat="44.04764" lon="5.92206">
        <ele>774.79998779297</ele>
        <time>2022-01-02T08:54:52.747Z</time>
      </trkpt>
      <trkpt lat="44.04768" lon="5.92202">
        <ele>774.20001220703</ele>
        <time>2022-01-02T08:54:57.116Z</time>
      </trkpt>
      <trkpt lat="44.04775" lon="5.92193">
        <ele>773.59997558594</ele>
        <time>2022-01-02T08:55:01.488Z</time>
      </trkpt>
      <trkpt lat="44.04779" lon="5.92189">
        <ele>773.40002441406</ele>
        <time>2022-01-02T08:55:05.862Z</time>
      </trkpt>
      <trkpt lat="44.04783" lon="5.92174">
        <ele>772.59997558594</ele>
        <time>2022-01-02T08:55:10.239Z</time>
      </trkpt>
      <trkpt lat="44.04782" lon="5.92155">
        <ele>773.59997558594</ele>
        <time>2022-01-02T08:55:14.620Z</time>
      </trkpt>
      <trkpt lat="44.04791" lon="5.92135">
        <ele>772.79998779297</ele>
        <time>2022-01-02T08:55:19.005Z</time>
      </trkpt>
      <trkpt lat="44.04791" lon="5.9213">
        <ele>772.40002441406</ele>
        <time>2022-01-02T08:55:23.391Z</time>
      </trkpt>
      <trkpt lat="44.04788" lon="5.9212">
        <ele>772.20001220703</ele>
        <time>2022-01-02T08:55:27.780Z</time>
      </trkpt>
      <trkpt lat="44.04782" lon="5.92102">
        <ele>773.20001220703</ele>
        <time>2022-01-02T08:55:32.173Z</time>
      </trkpt>
      <trkpt lat="44.04782" lon="5.92096">
        <ele>773.59997558594</ele>
        <time>2022-01-02T08:55:36.567Z</time>
      </trkpt>
      <trkpt lat="44.04782" lon="5.92074">
        <ele>774.40002441406</ele>
        <time>2022-01-02T08:55:40.965Z</time>
      </trkpt>
      <trkpt lat="44.04783" lon="5.92063">
        <ele>774.59997558594</ele>
        <time>2022-01-02T08:55:45.366Z</time>
      </trkpt>
      <trkpt lat="44.04785" lon="5.92049">
        <ele>775.20001220703</ele>
        <time>2022-01-02T08:55:49.769Z</time>
      </trkpt>
      <trkpt lat="44.04789" lon="5.92042">
        <ele>776</ele>
        <time>2022-01-02T08:55:54.174Z</time>
      </trkpt>
      <trkpt lat="44.04791" lon="5.92034">
        <ele>776.59997558594</ele>
        <time>2022-01-02T08:55:58.581Z</time>
      </trkpt>
      <trkpt lat="44.04791" lon="5.92031">
        <ele>777</ele>
        <time>2022-01-02T08:56:02.989Z</time>
      </trkpt>
      <trkpt lat="44.04787" lon="5.92024">
        <ele>778.20001220703</ele>
        <time>2022-01-02T08:56:07.398Z</time>
      </trkpt>
      <trkpt lat="44.04792" lon="5.92016">
        <ele>778.59997558594</ele>
        <time>2022-01-02T08:56:11.809Z</time>
      </trkpt>
      <trkpt lat="44.04795" lon="5.92008">
        <ele>778.20001220703</ele>
        <time>2022-01-02T08:56:16.222Z</time>
      </trkpt>
      <trkpt lat="44.0479" lon="5.91993">
        <ele>777.79998779297</ele>
        <time>2022-01-02T08:56:20.639Z</time>
      </trkpt>
      <trkpt lat="44.04785" lon="5.91975">
        <ele>779.59997558594</ele>
        <time>2022-01-02T08:56:25.059Z</time>
      </trkpt>
      <trkpt lat="44.04782" lon="5.9196">
        <ele>780.40002441406</ele>
        <time>2022-01-02T08:56:29.483Z</time>
      </trkpt>
      <trkpt lat="44.0478" lon="5.91956">
        <ele>780.59997558594</ele>
        <time>2022-01-02T08:56:33.908Z</time>
      </trkpt>
      <trkpt lat="44.04779" lon="5.91952">
        <ele>780.79998779297</ele>
        <time>2022-01-02T08:56:38.333Z</time>
      </trkpt>
      <trkpt lat="44.04777" lon="5.91948">
        <ele>781.20001220703</ele>
        <time>2022-01-02T08:56:42.759Z</time>
      </trkpt>
      <trkpt lat="44.04775" lon="5.91939">
        <ele>781.79998779297</ele>
        <time>2022-01-02T08:56:47.187Z</time>
      </trkpt>
      <trkpt lat="44.04776" lon="5.9193">
        <ele>782.59997558594</ele>
        <time>2022-01-02T08:56:51.617Z</time>
      </trkpt>
      <trkpt lat="44.04777" lon="5.91926">
        <ele>783.20001220703</ele>
        <time>2022-01-02T08:56:56.048Z</time>
      </trkpt>
      <trkpt lat="44.04776" lon="5.91922">
        <ele>783.59997558594</ele>
        <time>2022-01-02T08:57:00.480Z</time>
      </trkpt>
      <trkpt lat="44.04775" lon="5.9192">
        <ele>784</ele>
        <time>2022-01-02T08:57:04.913Z</time>
      </trkpt>
      <trkpt lat="44.04772" lon="5.91919">
        <ele>784.20001220703</ele>
        <time>2022-01-02T08:57:09.346Z</time>
      </trkpt>
      <trkpt lat="44.04767" lon="5.91919">
        <ele>785</ele>
        <time>2022-01-02T08:57:13.781Z</time>
      </trkpt>
      <trkpt lat="44.04764" lon="5.91925">
        <ele>785.40002441406</ele>
        <time>2022-01-02T08:57:18.217Z</time>
      </trkpt>
      <trkpt lat="44.04763" lon="5.91929">
        <ele>785.59997558594</ele>
        <time>2022-01-02T08:57:22.654Z</time>
      </trkpt>
      <trkpt lat="44.04762" lon="5.91933">
        <ele>785.59997558594</ele>
        <time>2022-01-02T08:57:27.092Z</time>
      </trkpt>
      <trkpt lat="44.04763" lon="5.91937">
        <ele>785.40002441406</ele>
        <time>2022-01-02T08:57:31.531Z</time>
      </trkpt>
      <trkpt lat="44.04765" lon="5.91942">
        <ele>784.59997558594</ele>
        <time>2022-01-02T08:57:35.971Z</time>
      </trkpt>
      <trkpt lat="44.04765" lon="5.91946">
        <ele>784.40002441406</ele>
        <time>2022-01-02T08:57:40.412Z</time>
      </trkpt>
      <trkpt lat="44.04765" lon="5.91955">
        <ele>783.79998779297</ele>
        <time>2022-01-02T08:57:44.854Z</time>
      </trkpt>
      <trkpt lat="44.04762" lon="5.91956">
        <ele>783.79998779297</ele>
        <time>2022-01-02T08:57:49.297Z</time>
      </trkpt>
      <trkpt lat="44.04762" lon="5.91949">
        <ele>784.79998779297</ele>
        <time>2022-01-02T08:57:53.742Z</time>
      </trkpt>
      <trkpt lat="44.04758" lon="5.91944">
        <ele>785.40002441406</ele>
        <time>2022-01-02T08:57:58.188Z</time>
      </trkpt>
      <trkpt lat="44.04756" lon="5.91941">
        <ele>785.59997558594</ele>
        <time>2022-01-02T08:58:02.635Z</time>
      </trkpt>
      <trkpt lat="44.04754" lon="5.91939">
        <ele>786.20001220703</ele>
        <time>2022-01-02T08:58:07.083Z</time>
      </trkpt>
      <trkpt lat="44.04751" lon="5.91931">
        <ele>787</ele>
        <time>2022-01-02T08:58:11.533Z</time>
      </trkpt>
      <trkpt lat="44.0475" lon="5.91922">
        <ele>787.79998779297</ele>
        <time>2022-01-02T08:58:15.984Z</time>
      </trkpt>
      <trkpt lat="44.04749" lon="5.91919">
        <ele>788.20001220703</ele>
        <time>2022-01-02T08:58:20.436Z</time>
      </trkpt>
      <trkpt lat="44.04748" lon="5.91907">
        <ele>789</ele>
        <time>2022-01-02T08:58:24.891Z</time>
      </trkpt>
      <trkpt lat="44.04747" lon="5.91904">
        <ele>789.20001220703</ele>
        <time>2022-01-02T08:58:29.346Z</time>
      </trkpt>
      <trkpt lat="44.04747" lon="5.91894">
        <ele>790.20001220703</ele>
        <time>2022-01-02T08:58:33.803Z</time>
      </trkpt>
      <trkpt lat="44.04746" lon="5.91887">
        <ele>790</ele>
        <time>2022-01-02T08:58:38.262Z</time>
      </trkpt>
      <trkpt lat="44.04744" lon="5.91878">
        <ele>789</ele>
        <time>2022-01-02T08:58:42.723Z</time>
      </trkpt>
      <trkpt lat="44.04743" lon="5.91873">
        <ele>788</ele>
        <time>2022-01-02T08:58:47.185Z</time>
      </trkpt>
      <trkpt lat="44.04745" lon="5.91869">
        <ele>786.20001220703</ele>
        <time>2022-01-02T08:58:51.648Z</time>
      </trkpt>
      <trkpt lat="44.04748" lon="5.91867">
        <ele>785.20001220703</ele>
        <time>2022-01-02T08:58:56.111Z</time>
      </trkpt>
      <trkpt lat="44.0475" lon="5.91867">
        <ele>784.79998779297</ele>
        <time>2022-01-02T08:59:00.575Z</time>
      </trkpt>
      <trkpt lat="44.04756" lon="5.91863">
        <ele>785.20001220703</ele>
        <time>2022-01-02T08:59:05.041Z</time>
      </trkpt>
      <trkpt lat="44.04759" lon="5.91862">
        <ele>786</ele>
        <time>2022-01-02T08:59:09.508Z</time>
      </trkpt>
      <trkpt lat="44.04761" lon="5.91863">
        <ele>786.79998779297</ele>
        <time>2022-01-02T08:59:13.975Z</time>
      </trkpt>
      <trkpt lat="44.04762" lon="5.91862">
        <ele>787.79998779297</ele>
        <time>2022-01-02T08:59:18.443Z</time>
      </trkpt>
      <trkpt lat="44.04765" lon="5.91861">
        <ele>788.20001220703</ele>
        <time>2022-01-02T08:59:22.912Z</time>
      </trkpt>
      <trkpt lat="44.04773" lon="5.91855">
        <ele>788</ele>
        <time>2022-01-02T08:59:27.383Z</time>
      </trkpt>
      <trkpt lat="44.04786" lon="5.91851">
        <ele>787.79998779297</ele>
        <time>2022-01-02T08:59:31.858Z</time>
      </trkpt>
      <trkpt lat="44.04801" lon="5.91843">
        <ele>788.40002441406</ele>
        <time>2022-01-02T08:59:36.337Z</time>
      </trkpt>
      <trkpt lat="44.0481" lon="5.91842">
        <ele>788.79998779297</ele>
        <time>2022-01-02T08:59:40.819Z</time>
      </trkpt>
      <trkpt lat="44.04812" lon="5.91841">
        <ele>789</ele>
        <time>2022-01-02T08:59:45.302Z</time>
      </trkpt>
      <trkpt lat="44.04816" lon="5.91836">
        <ele>789.40002441406</ele>
        <time>2022-01-02T08:59:49.786Z</time>
      </trkpt>
      <trkpt lat="44.04819" lon="5.91834">
        <ele>789.59997558594</ele>
        <time>2022-01-02T08:59:54.271Z</time>
      </trkpt>
      <trkpt lat="44.04825" lon="5.91833">
        <ele>790.40002441406</ele>
        <time>2022-01-02T08:59:58.758Z</time>
      </trkpt>
      <trkpt lat="44.04831" lon="5.91829">
        <ele>791.20001220703</ele>
        <time>2022-01-02T09:00:03.247Z</time>
      </trkpt>
      <trkpt lat="44.04834" lon="5.91827">
        <ele>791.79998779297</ele>
        <time>2022-01-02T09:00:07.737Z</time>
      </trkpt>
      <trkpt lat="44.04839" lon="5.91825">
        <ele>792.40002441406</ele>
        <time>2022-01-02T09:00:12.228Z</time>
      </trkpt>
      <trkpt lat="44.0485" lon="5.91821">
        <ele>792.79998779297</ele>
        <time>2022-01-02T09:00:16.722Z</time>
      </trkpt>
      <trkpt lat="44.04854" lon="5.91819">
        <ele>793</ele>
        <time>2022-01-02T09:00:21.217Z</time>
      </trkpt>
      <trkpt lat="44.0486" lon="5.91811">
        <ele>793</ele>
        <time>2022-01-02T09:00:25.715Z</time>
      </trkpt>
      <trkpt lat="44.04862" lon="5.91807">
        <ele>793</ele>
        <time>2022-01-02T09:00:30.214Z</time>
      </trkpt>
      <trkpt lat="44.04875" lon="5.91795">
        <ele>792.79998779297</ele>
        <time>2022-01-02T09:00:34.717Z</time>
      </trkpt>
      <trkpt lat="44.04879" lon="5.9179">
        <ele>792.79998779297</ele>
        <time>2022-01-02T09:00:39.222Z</time>
      </trkpt>
      <trkpt lat="44.04888" lon="5.91774">
        <ele>792.79998779297</ele>
        <time>2022-01-02T09:00:43.731Z</time>
      </trkpt>
      <trkpt lat="44.04891" lon="5.91769">
        <ele>792.79998779297</ele>
        <time>2022-01-02T09:00:48.241Z</time>
      </trkpt>
      <trkpt lat="44.04893" lon="5.91766">
        <ele>792.79998779297</ele>
        <time>2022-01-02T09:00:52.752Z</time>
      </trkpt>
      <trkpt lat="44.04893" lon="5.91763">
        <ele>792.40002441406</ele>
        <time>2022-01-02T09:00:57.264Z</time>
      </trkpt>
      <trkpt lat="44.04891" lon="5.91752">
        <ele>792</ele>
        <time>2022-01-02T09:01:01.778Z</time>
      </trkpt>
      <trkpt lat="44.04891" lon="5.91746">
        <ele>791.79998779297</ele>
        <time>2022-01-02T09:01:06.293Z</time>
      </trkpt>
      <trkpt lat="44.04891" lon="5.91741">
        <ele>791.59997558594</ele>
        <time>2022-01-02T09:01:10.809Z</time>
      </trkpt>
      <trkpt lat="44.04891" lon="5.91718">
        <ele>791.20001220703</ele>
        <time>2022-01-02T09:01:15.330Z</time>
      </trkpt>
      <trkpt lat="44.04892" lon="5.91708">
        <ele>791.20001220703</ele>
        <time>2022-01-02T09:01:19.853Z</time>
      </trkpt>
      <trkpt lat="44.04893" lon="5.91702">
        <ele>791</ele>
        <time>2022-01-02T09:01:24.377Z</time>
      </trkpt>
      <trkpt lat="44.04899" lon="5.91681">
        <ele>790.59997558594</ele>
        <time>2022-01-02T09:01:28.906Z</time>
      </trkpt>
      <trkpt lat="44.049" lon="5.91677">
        <ele>790.40002441406</ele>
        <time>2022-01-02T09:01:33.436Z</time>
      </trkpt>
      <trkpt lat="44.04899" lon="5.91668">
        <ele>790.40002441406</ele>
        <time>2022-01-02T09:01:37.967Z</time>
      </trkpt>
      <trkpt lat="44.04895" lon="5.91659">
        <ele>791.40002441406</ele>
        <time>2022-01-02T09:01:42.501Z</time>
      </trkpt>
      <trkpt lat="44.0489" lon="5.91649">
        <ele>791.59997558594</ele>
        <time>2022-01-02T09:01:47.037Z</time>
      </trkpt>
      <trkpt lat="44.04882" lon="5.91638">
        <ele>791</ele>
        <time>2022-01-02T09:01:51.576Z</time>
      </trkpt>
      <trkpt lat="44.04879" lon="5.91634">
        <ele>790.59997558594</ele>
        <time>2022-01-02T09:01:56.116Z</time>
      </trkpt>
      <trkpt lat="44.04878" lon="5.9163">
        <ele>790.20001220703</ele>
        <time>2022-01-02T09:02:00.657Z</time>
      </trkpt>
      <trkpt lat="44.04881" lon="5.91624">
        <ele>789.79998779297</ele>
        <time>2022-01-02T09:02:05.200Z</time>
      </trkpt>
      <trkpt lat="44.04882" lon="5.91622">
        <ele>789.20001220703</ele>
        <time>2022-01-02T09:02:09.743Z</time>
      </trkpt>
      <trkpt lat="44.04884" lon="5.9162">
        <ele>788.59997558594</ele>
        <time>2022-01-02T09:02:14.287Z</time>
      </trkpt>
      <trkpt lat="44.04882" lon="5.91613">
        <ele>788</ele>
        <time>2022-01-02T09:02:18.832Z</time>
      </trkpt>
      <trkpt lat="44.04884" lon="5.91602">
        <ele>786.79998779297</ele>
        <time>2022-01-02T09:02:23.379Z</time>
      </trkpt>
      <trkpt lat="44.04889" lon="5.91601">
        <ele>785.59997558594</ele>
        <time>2022-01-02T09:02:27.928Z</time>
      </trkpt>
      <trkpt lat="44.04893" lon="5.916">
        <ele>785.20001220703</ele>
        <time>2022-01-02T09:02:32.478Z</time>
      </trkpt>
      <trkpt lat="44.04899" lon="5.91597">
        <ele>784.79998779297</ele>
        <time>2022-01-02T09:02:37.030Z</time>
      </trkpt>
      <trkpt lat="44.049" lon="5.91591">
        <ele>784</ele>
        <time>2022-01-02T09:02:41.583Z</time>
      </trkpt>
      <trkpt lat="44.04898" lon="5.91588">
        <ele>783</ele>
        <time>2022-01-02T09:02:46.137Z</time>
      </trkpt>
      <trkpt lat="44.04898" lon="5.91586">
        <ele>782.20001220703</ele>
        <time>2022-01-02T09:02:50.691Z</time>
      </trkpt>
      <trkpt lat="44.049" lon="5.91583">
        <ele>781.59997558594</ele>
        <time>2022-01-02T09:02:55.246Z</time>
      </trkpt>
      <trkpt lat="44.04904" lon="5.91577">
        <ele>780.59997558594</ele>
        <time>2022-01-02T09:02:59.803Z</time>
      </trkpt>
      <trkpt lat="44.04906" lon="5.91573">
        <ele>779.20001220703</ele>
        <time>2022-01-02T09:03:04.361Z</time>
      </trkpt>
      <trkpt lat="44.04902" lon="5.91567">
        <ele>778</ele>
        <time>2022-01-02T09:03:08.920Z</time>
      </trkpt>
      <trkpt lat="44.04902" lon="5.91565">
        <ele>777.79998779297</ele>
        <time>2022-01-02T09:03:13.480Z</time>
      </trkpt>
      <trkpt lat="44.049" lon="5.91562">
        <ele>778</ele>
        <time>2022-01-02T09:03:18.041Z</time>
      </trkpt>
      <trkpt lat="44.04898" lon="5.91552">
        <ele>778.59997558594</ele>
        <time>2022-01-02T09:03:22.604Z</time>
      </trkpt>
      <trkpt lat="44.04896" lon="5.91547">
        <ele>778.79998779297</ele>
        <time>2022-01-02T09:03:27.168Z</time>
      </trkpt>
      <trkpt lat="44.04895" lon="5.91541">
        <ele>779.59997558594</ele>
        <time>2022-01-02T09:03:31.733Z</time>
      </trkpt>
      <trkpt lat="44.04896" lon="5.91537">
        <ele>780</ele>
        <time>2022-01-02T09:03:36.299Z</time>
      </trkpt>
      <trkpt lat="44.04898" lon="5.9153">
        <ele>780.79998779297</ele>
        <time>2022-01-02T09:03:40.866Z</time>
      </trkpt>
      <trkpt lat="44.04899" lon="5.91523">
        <ele>781.79998779297</ele>
        <time>2022-01-02T09:03:45.435Z</time>
      </trkpt>
      <trkpt lat="44.04903" lon="5.91514">
        <ele>783</ele>
        <time>2022-01-02T09:03:50.006Z</time>
      </trkpt>
      <trkpt lat="44.04904" lon="5.91511">
        <ele>783.40002441406</ele>
        <time>2022-01-02T09:03:54.578Z</time>
      </trkpt>
      <trkpt lat="44.04906" lon="5.91506">
        <ele>784.40002441406</ele>
        <time>2022-01-02T09:03:59.151Z</time>
      </trkpt>
      <trkpt lat="44.04911" lon="5.91497">
        <ele>785.79998779297</ele>
        <time>2022-01-02T09:04:03.726Z</time>
      </trkpt>
      <trkpt lat="44.04917" lon="5.91484">
        <ele>787</ele>
        <time>2022-01-02T09:04:08.304Z</time>
      </trkpt>
      <trkpt lat="44.04916" lon="5.91479">
        <ele>787</ele>
        <time>2022-01-02T09:04:12.883Z</time>
      </trkpt>
      <trkpt lat="44.04912" lon="5.91461">
        <ele>787</ele>
        <time>2022-01-02T09:04:17.466Z</time>
      </trkpt>
      <trkpt lat="44.04909" lon="5.91451">
        <ele>787</ele>
        <time>2022-01-02T09:04:22.051Z</time>
      </trkpt>
      <trkpt lat="44.04907" lon="5.9144">
        <ele>787</ele>
        <time>2022-01-02T09:04:26.639Z</time>
      </trkpt>
      <trkpt lat="44.04903" lon="5.91429">
        <ele>787</ele>
        <time>2022-01-02T09:04:31.229Z</time>
      </trkpt>
      <trkpt lat="44.04899" lon="5.91414">
        <ele>787.59997558594</ele>
        <time>2022-01-02T09:04:35.822Z</time>
      </trkpt>
      <trkpt lat="44.0489" lon="5.91401">
        <ele>787.20001220703</ele>
        <time>2022-01-02T09:04:40.419Z</time>
      </trkpt>
      <trkpt lat="44.04888" lon="5.91398">
        <ele>787</ele>
        <time>2022-01-02T09:04:45.017Z</time>
      </trkpt>
      <trkpt lat="44.04887" lon="5.91393">
        <ele>787</ele>
        <time>2022-01-02T09:04:49.616Z</time>
      </trkpt>
      <trkpt lat="44.04886" lon="5.91388">
        <ele>787.20001220703</ele>
        <time>2022-01-02T09:04:54.216Z</time>
      </trkpt>
      <trkpt lat="44.04885" lon="5.91382">
        <ele>787.79998779297</ele>
        <time>2022-01-02T09:04:58.817Z</time>
      </trkpt>
      <trkpt lat="44.0488" lon="5.91376">
        <ele>788.40002441406</ele>
        <time>2022-01-02T09:05:03.420Z</time>
      </trkpt>
      <trkpt lat="44.04875" lon="5.91372">
        <ele>789.40002441406</ele>
        <time>2022-01-02T09:05:08.024Z</time>
      </trkpt>
      <trkpt lat="44.0487" lon="5.91363">
        <ele>790.40002441406</ele>
        <time>2022-01-02T09:05:12.631Z</time>
      </trkpt>
      <trkpt lat="44.04868" lon="5.91357">
        <ele>790.40002441406</ele>
        <time>2022-01-02T09:05:17.239Z</time>
      </trkpt>
      <trkpt lat="44.04859" lon="5.9134">
        <ele>790.40002441406</ele>
        <time>2022-01-02T09:05:21.851Z</time>
      </trkpt>
      <trkpt lat="44.04854" lon="5.91336">
        <ele>790</ele>
        <time>2022-01-02T09:05:26.465Z</time>
      </trkpt>
      <trkpt lat="44.04851" lon="5.91335">
        <ele>789.59997558594</ele>
        <time>2022-01-02T09:05:31.080Z</time>
      </trkpt>
      <trkpt lat="44.04847" lon="5.91334">
        <ele>789.40002441406</ele>
        <time>2022-01-02T09:05:35.696Z</time>
      </trkpt>
      <trkpt lat="44.04843" lon="5.91331">
        <ele>789.20001220703</ele>
        <time>2022-01-02T09:05:40.313Z</time>
      </trkpt>
      <trkpt lat="44.04843" lon="5.91327">
        <ele>789.40002441406</ele>
        <time>2022-01-02T09:05:44.931Z</time>
      </trkpt>
      <trkpt lat="44.04842" lon="5.91319">
        <ele>790.59997558594</ele>
        <time>2022-01-02T09:05:49.551Z</time>
      </trkpt>
      <trkpt lat="44.04838" lon="5.91309">
        <ele>791.59997558594</ele>
        <time>2022-01-02T09:05:54.173Z</time>
      </trkpt>
      <trkpt lat="44.0484" lon="5.91304">
        <ele>791.79998779297</ele>
        <time>2022-01-02T09:05:58.796Z</time>
      </trkpt>
      <trkpt lat="44.04845" lon="5.913">
        <ele>792.20001220703</ele>
        <time>2022-01-02T09:06:03.421Z</time>
      </trkpt>
      <trkpt lat="44.04849" lon="5.91296">
        <ele>793</ele>
        <time>2022-01-02T09:06:08.047Z</time>
      </trkpt>
      <trkpt lat="44.04851" lon="5.91294">
        <ele>793.40002441406</ele>
        <time>2022-01-02T09:06:12.674Z</time>
      </trkpt>
      <trkpt lat="44.04853" lon="5.91293">
        <ele>794</ele>
        <time>2022-01-02T09:06:17.301Z</time>
      </trkpt>
      <trkpt lat="44.04855" lon="5.91292">
        <ele>794.20001220703</ele>
        <time>2022-01-02T09:06:21.929Z</time>
      </trkpt>
      <trkpt lat="44.04861" lon="5.91288">
        <ele>794.20001220703</ele>
        <time>2022-01-02T09:06:26.559Z</time>
      </trkpt>
      <trkpt lat="44.04862" lon="5.91285">
        <ele>794.20001220703</ele>
        <time>2022-01-02T09:06:31.190Z</time>
      </trkpt>
      <trkpt lat="44.04863" lon="5.9128">
        <ele>794.20001220703</ele>
        <time>2022-01-02T09:06:35.822Z</time>
      </trkpt>
      <trkpt lat="44.04858" lon="5.91271">
        <ele>794.79998779297</ele>
        <time>2022-01-02T09:06:40.456Z</time>
      </trkpt>
      <trkpt lat="44.04855" lon="5.91268">
        <ele>795.40002441406</ele>
        <time>2022-01-02T09:06:45.091Z</time>
      </trkpt>
      <trkpt lat="44.04851" lon="5.91267">
        <ele>796</ele>
        <time>2022-01-02T09:06:49.727Z</time>
      </trkpt>
      <trkpt lat="44.04848" lon="5.91268">
        <ele>796.59997558594</ele>
        <time>2022-01-02T09:06:54.364Z</time>
      </trkpt>
      <trkpt lat="44.04845" lon="5.91271">
        <ele>797.59997558594</ele>
        <time>2022-01-02T09:06:59.002Z</time>
      </trkpt>
      <trkpt lat="44.04842" lon="5.91273">
        <ele>798</ele>
        <time>2022-01-02T09:07:03.641Z</time>
      </trkpt>
      <trkpt lat="44.04834" lon="5.91269">
        <ele>798.59997558594</ele>
        <time>2022-01-02T09:07:08.282Z</time>
      </trkpt>
      <trkpt lat="44.04827" lon="5.9126">
        <ele>800</ele>
        <time>2022-01-02T09:07:12.926Z</time>
      </trkpt>
      <trkpt lat="44.04825" lon="5.91258">
        <ele>800.20001220703</ele>
        <time>2022-01-02T09:07:17.571Z</time>
      </trkpt>
      <trkpt lat="44.04819" lon="5.91251">
        <ele>801.20001220703</ele>
        <time>2022-01-02T09:07:22.218Z</time>
      </trkpt>
      <trkpt lat="44.04813" lon="5.91246">
        <ele>802.20001220703</ele>
        <time>2022-01-02T09:07:26.867Z</time>
      </trkpt>
      <trkpt lat="44.04811" lon="5.91245">
        <ele>802.59997558594</ele>
        <time>2022-01-02T09:07:31.517Z</time>
      </trkpt>
      <trkpt lat="44.04804" lon="5.91242">
        <ele>803.59997558594</ele>
        <time>2022-01-02T09:07:36.169Z</time>
      </trkpt>
      <trkpt lat="44.04801" lon="5.91241">
        <ele>804</ele>
        <time>2022-01-02T09:07:40.822Z</time>
      </trkpt>
      <trkpt lat="44.04795" lon="5.9124">
        <ele>805</ele>
        <time>2022-01-02T09:07:45.476Z</time>
      </trkpt>
      <trkpt lat="44.04789" lon="5.91241">
        <ele>805.79998779297</ele>
        <time>2022-01-02T09:07:50.132Z</time>
      </trkpt>
      <trkpt lat="44.04783" lon="5.91242">
        <ele>806.79998779297</ele>
        <time>2022-01-02T09:07:54.790Z</time>
      </trkpt>
      <trkpt lat="44.0478" lon="5.91242">
        <ele>807</ele>
        <time>2022-01-02T09:07:59.448Z</time>
      </trkpt>
      <trkpt lat="44.04778" lon="5.9124">
        <ele>807.20001220703</ele>
        <time>2022-01-02T09:08:04.107Z</time>
      </trkpt>
      <trkpt lat="44.04775" lon="5.91234">
        <ele>808</ele>
        <time>2022-01-02T09:08:08.768Z</time>
      </trkpt>
      <trkpt lat="44.04773" lon="5.91227">
        <ele>809.20001220703</ele>
        <time>2022-01-02T09:08:13.430Z</time>
      </trkpt>
      <trkpt lat="44.0477" lon="5.91225">
        <ele>810.20001220703</ele>
        <time>2022-01-02T09:08:18.093Z</time>
      </trkpt>
      <trkpt lat="44.04768" lon="5.91227">
        <ele>810.59997558594</ele>
        <time>2022-01-02T09:08:22.757Z</time>
      </trkpt>
      <trkpt lat="44.04763" lon="5.91228">
        <ele>811.20001220703</ele>
        <time>2022-01-02T09:08:27.422Z</time>
      </trkpt>
      <trkpt lat="44.04761" lon="5.91227">
        <ele>811.59997558594</ele>
        <time>2022-01-02T09:08:32.088Z</time>
      </trkpt>
      <trkpt lat="44.0476" lon="5.91224">
        <ele>811.79998779297</ele>
        <time>2022-01-02T09:08:36.755Z</time>
      </trkpt>
      <trkpt lat="44.04759" lon="5.91213">
        <ele>813</ele>
        <time>2022-01-02T09:08:41.424Z</time>
      </trkpt>
      <trkpt lat="44.04753" lon="5.91198">
        <ele>814.20001220703</ele>
        <time>2022-01-02T09:08:46.096Z</time>
      </trkpt>
      <trkpt lat="44.04751" lon="5.91196">
        <ele>814.59997558594</ele>
        <time>2022-01-02T09:08:50.769Z</time>
      </trkpt>
      <trkpt lat="44.0475" lon="5.91193">
        <ele>815.20001220703</ele>
        <time>2022-01-02T09:08:55.443Z</time>
      </trkpt>
      <trkpt lat="44.04747" lon="5.91184">
        <ele>816.40002441406</ele>
        <time>2022-01-02T09:09:00.118Z</time>
      </trkpt>
      <trkpt lat="44.04739" lon="5.91184">
        <ele>817.40002441406</ele>
        <time>2022-01-02T09:09:04.796Z</time>
      </trkpt>
      <trkpt lat="44.04738" lon="5.91186">
        <ele>818</ele>
        <time>2022-01-02T09:09:09.474Z</time>
      </trkpt>
      <trkpt lat="44.04733" lon="5.9119">
        <ele>818.59997558594</ele>
        <time>2022-01-02T09:09:14.154Z</time>
      </trkpt>
      <trkpt lat="44.04729" lon="5.91194">
        <ele>819</ele>
        <time>2022-01-02T09:09:18.835Z</time>
      </trkpt>
      <trkpt lat="44.04726" lon="5.91198">
        <ele>819.59997558594</ele>
        <time>2022-01-02T09:09:23.517Z</time>
      </trkpt>
      <trkpt lat="44.04722" lon="5.91205">
        <ele>819.79998779297</ele>
        <time>2022-01-02T09:09:28.201Z</time>
      </trkpt>
      <trkpt lat="44.04718" lon="5.91212">
        <ele>820</ele>
        <time>2022-01-02T09:09:32.887Z</time>
      </trkpt>
      <trkpt lat="44.04715" lon="5.91219">
        <ele>819.79998779297</ele>
        <time>2022-01-02T09:09:37.575Z</time>
      </trkpt>
      <trkpt lat="44.04709" lon="5.91222">
        <ele>819.59997558594</ele>
        <time>2022-01-02T09:09:42.265Z</time>
      </trkpt>
      <trkpt lat="44.04704" lon="5.91225">
        <ele>819.79998779297</ele>
        <time>2022-01-02T09:09:46.956Z</time>
      </trkpt>
      <trkpt lat="44.04703" lon="5.91223">
        <ele>820</ele>
        <time>2022-01-02T09:09:51.648Z</time>
      </trkpt>
      <trkpt lat="44.04702" lon="5.9122">
        <ele>820.20001220703</ele>
        <time>2022-01-02T09:09:56.340Z</time>
      </trkpt>
      <trkpt lat="44.04703" lon="5.91213">
        <ele>821.20001220703</ele>
        <time>2022-01-02T09:10:01.034Z</time>
      </trkpt>
      <trkpt lat="44.04703" lon="5.91205">
        <ele>822</ele>
        <time>2022-01-02T09:10:05.729Z</time>
      </trkpt>
      <trkpt lat="44.04704" lon="5.91203">
        <ele>822.40002441406</ele>
        <time>2022-01-02T09:10:10.425Z</time>
      </trkpt>
      <trkpt lat="44.04708" lon="5.91193">
        <ele>822.79998779297</ele>
        <time>2022-01-02T09:10:15.123Z</time>
      </trkpt>
      <trkpt lat="44.04708" lon="5.91183">
        <ele>822.79998779297</ele>
        <time>2022-01-02T09:10:19.823Z</time>
      </trkpt>
      <trkpt lat="44.04704" lon="5.91186">
        <ele>823.59997558594</ele>
        <time>2022-01-02T09:10:24.524Z</time>
      </trkpt>
      <trkpt lat="44.04704" lon="5.9119">
        <ele>824</ele>
        <time>2022-01-02T09:10:29.226Z</time>
      </trkpt>
      <trkpt lat="44.04701" lon="5.91196">
        <ele>824.40002441406</ele>
        <time>2022-01-02T09:10:33.930Z</time>
      </trkpt>
      <trkpt lat="44.04691" lon="5.91208">
        <ele>825.20001220703</ele>
        <time>2022-01-02T09:10:38.637Z</time>
      </trkpt>
      <trkpt lat="44.04689" lon="5.91211">
        <ele>825.40002441406</ele>
        <time>2022-01-02T09:10:43.345Z</time>
      </trkpt>
      <trkpt lat="44.04682" lon="5.91217">
        <ele>825.79998779297</ele>
        <time>2022-01-02T09:10:48.055Z</time>
      </trkpt>
      <trkpt lat="44.04679" lon="5.91216">
        <ele>826.40002441406</ele>
        <time>2022-01-02T09:10:52.766Z</time>
      </trkpt>
      <trkpt lat="44.04679" lon="5.91213">
        <ele>826.79998779297</ele>
        <time>2022-01-02T09:10:57.478Z</time>
      </trkpt>
      <trkpt lat="44.04679" lon="5.91206">
        <ele>827.40002441406</ele>
        <time>2022-01-02T09:11:02.191Z</time>
      </trkpt>
      <trkpt lat="44.0468" lon="5.91202">
        <ele>827.79998779297</ele>
        <time>2022-01-02T09:11:06.905Z</time>
      </trkpt>
      <trkpt lat="44.04679" lon="5.91194">
        <ele>828.20001220703</ele>
        <time>2022-01-02T09:11:11.621Z</time>
      </trkpt>
      <trkpt lat="44.04675" lon="5.91196">
        <ele>828.79998779297</ele>
        <time>2022-01-02T09:11:16.338Z</time>
      </trkpt>
      <trkpt lat="44.04672" lon="5.91199">
        <ele>829.20001220703</ele>
        <time>2022-01-02T09:11:21.056Z</time>
      </trkpt>
      <trkpt lat="44.04669" lon="5.91203">
        <ele>829.79998779297</ele>
        <time>2022-01-02T09:11:25.775Z</time>
      </trkpt>
      <trkpt lat="44.04663" lon="5.91212">
        <ele>830.59997558594</ele>
        <time>2022-01-02T09:11:30.497Z</time>
      </trkpt>
      <trkpt lat="44.04661" lon="5.91212">
        <ele>830.79998779297</ele>
        <time>2022-01-02T09:11:35.219Z</time>
      </trkpt>
      <trkpt lat="44.04658" lon="5.91211">
        <ele>831</ele>
        <time>2022-01-02T09:11:39.942Z</time>
      </trkpt>
      <trkpt lat="44.04657" lon="5.91209">
        <ele>831.40002441406</ele>
        <time>2022-01-02T09:11:44.666Z</time>
      </trkpt>
      <trkpt lat="44.04658" lon="5.91201">
        <ele>832</ele>
        <time>2022-01-02T09:11:49.391Z</time>
      </trkpt>
      <trkpt lat="44.04659" lon="5.91198">
        <ele>832.40002441406</ele>
        <time>2022-01-02T09:11:54.117Z</time>
      </trkpt>
      <trkpt lat="44.0466" lon="5.91194">
        <ele>833.20001220703</ele>
        <time>2022-01-02T09:11:58.844Z</time>
      </trkpt>
      <trkpt lat="44.04659" lon="5.91191">
        <ele>833.20001220703</ele>
        <time>2022-01-02T09:12:03.571Z</time>
      </trkpt>
      <trkpt lat="44.04656" lon="5.91182">
        <ele>833.40002441406</ele>
        <time>2022-01-02T09:12:08.301Z</time>
      </trkpt>
      <trkpt lat="44.04652" lon="5.91172">
        <ele>833.79998779297</ele>
        <time>2022-01-02T09:12:13.033Z</time>
      </trkpt>
      <trkpt lat="44.04647" lon="5.91153">
        <ele>834.59997558594</ele>
        <time>2022-01-02T09:12:17.769Z</time>
      </trkpt>
      <trkpt lat="44.04649" lon="5.91132">
        <ele>834.40002441406</ele>
        <time>2022-01-02T09:12:22.509Z</time>
      </trkpt>
      <trkpt lat="44.04651" lon="5.91129">
        <ele>834.40002441406</ele>
        <time>2022-01-02T09:12:27.250Z</time>
      </trkpt>
      <trkpt lat="44.04654" lon="5.9112">
        <ele>834.59997558594</ele>
        <time>2022-01-02T09:12:31.993Z</time>
      </trkpt>
      <trkpt lat="44.04656" lon="5.91111">
        <ele>835</ele>
        <time>2022-01-02T09:12:36.738Z</time>
      </trkpt>
      <trkpt lat="44.04654" lon="5.91101">
        <ele>835.59997558594</ele>
        <time>2022-01-02T09:12:41.485Z</time>
      </trkpt>
      <trkpt lat="44.04651" lon="5.91091">
        <ele>836.59997558594</ele>
        <time>2022-01-02T09:12:46.234Z</time>
      </trkpt>
      <trkpt lat="44.04647" lon="5.91076">
        <ele>838</ele>
        <time>2022-01-02T09:12:50.987Z</time>
      </trkpt>
      <trkpt lat="44.04645" lon="5.91067">
        <ele>839.59997558594</ele>
        <time>2022-01-02T09:12:55.741Z</time>
      </trkpt>
      <trkpt lat="44.0464" lon="5.91062">
        <ele>840.40002441406</ele>
        <time>2022-01-02T09:13:00.497Z</time>
      </trkpt>
      <trkpt lat="44.04635" lon="5.91066">
        <ele>841</ele>
        <time>2022-01-02T09:13:05.255Z</time>
      </trkpt>
      <trkpt lat="44.04633" lon="5.9107">
        <ele>841.40002441406</ele>
        <time>2022-01-02T09:13:10.014Z</time>
      </trkpt>
      <trkpt lat="44.04629" lon="5.91078">
        <ele>842</ele>
        <time>2022-01-02T09:13:14.775Z</time>
      </trkpt>
      <trkpt lat="44.04622" lon="5.91085">
        <ele>842.59997558594</ele>
        <time>2022-01-02T09:13:19.538Z</time>
      </trkpt>
      <trkpt lat="44.04617" lon="5.91093">
        <ele>843.40002441406</ele>
        <time>2022-01-02T09:13:24.303Z</time>
      </trkpt>
      <trkpt lat="44.04613" lon="5.91104">
        <ele>844.20001220703</ele>
        <time>2022-01-02T09:13:29.071Z</time>
      </trkpt>
      <trkpt lat="44.0461" lon="5.91109">
        <ele>844.59997558594</ele>
        <time>2022-01-02T09:13:33.840Z</time>
      </trkpt>
      <trkpt lat="44.04607" lon="5.91114">
        <ele>845</ele>
        <time>2022-01-02T09:13:38.610Z</time>
      </trkpt>
      <trkpt lat="44.04601" lon="5.91126">
        <ele>845.79998779297</ele>
        <time>2022-01-02T09:13:43.383Z</time>
      </trkpt>
      <trkpt lat="44.04595" lon="5.91138">
        <ele>846.40002441406</ele>
        <time>2022-01-02T09:13:48.159Z</time>
      </trkpt>
      <trkpt lat="44.0459" lon="5.91156">
        <ele>846.59997558594</ele>
        <time>2022-01-02T09:13:52.939Z</time>
      </trkpt>
      <trkpt lat="44.04583" lon="5.91176">
        <ele>846.79998779297</ele>
        <time>2022-01-02T09:13:57.724Z</time>
      </trkpt>
      <trkpt lat="44.04581" lon="5.91177">
        <ele>846.79998779297</ele>
        <time>2022-01-02T09:14:02.510Z</time>
      </trkpt>
      <trkpt lat="44.04578" lon="5.91172">
        <ele>847.20001220703</ele>
        <time>2022-01-02T09:14:07.297Z</time>
      </trkpt>
      <trkpt lat="44.04579" lon="5.91162">
        <ele>847.79998779297</ele>
        <time>2022-01-02T09:14:12.086Z</time>
      </trkpt>
      <trkpt lat="44.0458" lon="5.9115">
        <ele>848.40002441406</ele>
        <time>2022-01-02T09:14:16.877Z</time>
      </trkpt>
      <trkpt lat="44.04581" lon="5.91132">
        <ele>848.59997558594</ele>
        <time>2022-01-02T09:14:21.672Z</time>
      </trkpt>
      <trkpt lat="44.04584" lon="5.91128">
        <ele>849</ele>
        <time>2022-01-02T09:14:26.468Z</time>
      </trkpt>
      <trkpt lat="44.04589" lon="5.9111">
        <ele>849.79998779297</ele>
        <time>2022-01-02T09:14:31.268Z</time>
      </trkpt>
      <trkpt lat="44.04593" lon="5.91085">
        <ele>850</ele>
        <time>2022-01-02T09:14:36.073Z</time>
      </trkpt>
      <trkpt lat="44.04594" lon="5.91079">
        <ele>850.20001220703</ele>
        <time>2022-01-02T09:14:40.879Z</time>
      </trkpt>
      <trkpt lat="44.04596" lon="5.91073">
        <ele>850.20001220703</ele>
        <time>2022-01-02T09:14:45.687Z</time>
      </trkpt>
      <trkpt lat="44.04599" lon="5.91044">
        <ele>850.40002441406</ele>
        <time>2022-01-02T09:14:50.501Z</time>
      </trkpt>
      <trkpt lat="44.04606" lon="5.91017">
        <ele>850.20001220703</ele>
        <time>2022-01-02T09:14:55.320Z</time>
      </trkpt>
      <trkpt lat="44.04608" lon="5.91003">
        <ele>851</ele>
        <time>2022-01-02T09:15:00.143Z</time>
      </trkpt>
      <trkpt lat="44.04607" lon="5.91001">
        <ele>851.20001220703</ele>
        <time>2022-01-02T09:15:04.966Z</time>
      </trkpt>
      <trkpt lat="44.04605" lon="5.91002">
        <ele>851.40002441406</ele>
        <time>2022-01-02T09:15:09.790Z</time>
      </trkpt>
      <trkpt lat="44.04602" lon="5.91008">
        <ele>852.20001220703</ele>
        <time>2022-01-02T09:15:14.615Z</time>
      </trkpt>
      <trkpt lat="44.04597" lon="5.91018">
        <ele>852.59997558594</ele>
        <time>2022-01-02T09:15:19.443Z</time>
      </trkpt>
      <trkpt lat="44.04593" lon="5.91022">
        <ele>852.59997558594</ele>
        <time>2022-01-02T09:15:24.272Z</time>
      </trkpt>
      <trkpt lat="44.0459" lon="5.91025">
        <ele>852.79998779297</ele>
        <time>2022-01-02T09:15:29.102Z</time>
      </trkpt>
      <trkpt lat="44.04585" lon="5.91033">
        <ele>853.40002441406</ele>
        <time>2022-01-02T09:15:33.934Z</time>
      </trkpt>
      <trkpt lat="44.04583" lon="5.91039">
        <ele>853.59997558594</ele>
        <time>2022-01-02T09:15:38.767Z</time>
      </trkpt>
      <trkpt lat="44.04581" lon="5.91044">
        <ele>853.79998779297</ele>
        <time>2022-01-02T09:15:43.602Z</time>
      </trkpt>
      <trkpt lat="44.04576" lon="5.91053">
        <ele>854</ele>
        <time>2022-01-02T09:15:48.439Z</time>
      </trkpt>
      <trkpt lat="44.04572" lon="5.91061">
        <ele>855.20001220703</ele>
        <time>2022-01-02T09:15:53.278Z</time>
      </trkpt>
      <trkpt lat="44.04571" lon="5.91067">
        <ele>855.59997558594</ele>
        <time>2022-01-02T09:15:58.118Z</time>
      </trkpt>
      <trkpt lat="44.04567" lon="5.91078">
        <ele>856.20001220703</ele>
        <time>2022-01-02T09:16:02.961Z</time>
      </trkpt>
      <trkpt lat="44.04565" lon="5.91082">
        <ele>856.40002441406</ele>
        <time>2022-01-02T09:16:07.805Z</time>
      </trkpt>
      <trkpt lat="44.04562" lon="5.91086">
        <ele>856.59997558594</ele>
        <time>2022-01-02T09:16:12.650Z</time>
      </trkpt>
      <trkpt lat="44.04557" lon="5.91102">
        <ele>857</ele>
        <time>2022-01-02T09:16:17.498Z</time>
      </trkpt>
      <trkpt lat="44.04555" lon="5.91107">
        <ele>857.20001220703</ele>
        <time>2022-01-02T09:16:22.347Z</time>
      </trkpt>
      <trkpt lat="44.0455" lon="5.91109">
        <ele>857.40002441406</ele>
        <time>2022-01-02T09:16:27.198Z</time>
      </trkpt>
      <trkpt lat="44.0455" lon="5.91095">
        <ele>858.59997558594</ele>
        <time>2022-01-02T09:16:32.052Z</time>
      </trkpt>
      <trkpt lat="44.04551" lon="5.91073">
        <ele>859.59997558594</ele>
        <time>2022-01-02T09:16:36.910Z</time>
      </trkpt>
      <trkpt lat="44.04553" lon="5.91062">
        <ele>860.20001220703</ele>
        <time>2022-01-02T09:16:41.771Z</time>
      </trkpt>
      <trkpt lat="44.04554" lon="5.91056">
        <ele>860.59997558594</ele>
        <time>2022-01-02T09:16:46.633Z</time>
      </trkpt>
      <trkpt lat="44.04555" lon="5.9105">
        <ele>860.79998779297</ele>
        <time>2022-01-02T09:16:51.496Z</time>
      </trkpt>
      <trkpt lat="44.04555" lon="5.91037">
        <ele>861.20001220703</ele>
        <time>2022-01-02T09:16:56.362Z</time>
      </trkpt>
      <trkpt lat="44.04561" lon="5.91021">
        <ele>861.20001220703</ele>
        <time>2022-01-02T09:17:01.231Z</time>
      </trkpt>
      <trkpt lat="44.04564" lon="5.91001">
        <ele>861.20001220703</ele>
        <time>2022-01-02T09:17:06.105Z</time>
      </trkpt>
      <trkpt lat="44.04565" lon="5.90988">
        <ele>861.79998779297</ele>
        <time>2022-01-02T09:17:10.981Z</time>
      </trkpt>
      <trkpt lat="44.04566" lon="5.90982">
        <ele>862.20001220703</ele>
        <time>2022-01-02T09:17:15.858Z</time>
      </trkpt>
      <trkpt lat="44.04566" lon="5.90977">
        <ele>862.40002441406</ele>
        <time>2022-01-02T09:17:20.736Z</time>
      </trkpt>
      <trkpt lat="44.04563" lon="5.90965">
        <ele>863.20001220703</ele>
        <time>2022-01-02T09:17:25.617Z</time>
      </trkpt>
      <trkpt lat="44.04562" lon="5.90949">
        <ele>864.40002441406</ele>
        <time>2022-01-02T09:17:30.501Z</time>
      </trkpt>
      <trkpt lat="44.04562" lon="5.90942">
        <ele>864.79998779297</ele>
        <time>2022-01-02T09:17:35.387Z</time>
      </trkpt>
      <trkpt lat="44.04564" lon="5.90937">
        <ele>865</ele>
        <time>2022-01-02T09:17:40.274Z</time>
      </trkpt>
      <trkpt lat="44.04567" lon="5.90925">
        <ele>865</ele>
        <time>2022-01-02T09:17:45.163Z</time>
      </trkpt>
      <trkpt lat="44.04569" lon="5.90907">
        <ele>864.59997558594</ele>
        <time>2022-01-02T09:17:50.056Z</time>
      </trkpt>
      <trkpt lat="44.04564" lon="5.90904">
        <ele>864.59997558594</ele>
        <time>2022-01-02T09:17:54.951Z</time>
      </trkpt>
      <trkpt lat="44.04557" lon="5.90918">
        <ele>866.20001220703</ele>
        <time>2022-01-02T09:17:59.849Z</time>
      </trkpt>
      <trkpt lat="44.04553" lon="5.90932">
        <ele>867.20001220703</ele>
        <time>2022-01-02T09:18:04.750Z</time>
      </trkpt>
      <trkpt lat="44.0455" lon="5.90942">
        <ele>867.79998779297</ele>
        <time>2022-01-02T09:18:09.653Z</time>
      </trkpt>
      <trkpt lat="44.04548" lon="5.90951">
        <ele>868.40002441406</ele>
        <time>2022-01-02T09:18:14.558Z</time>
      </trkpt>
      <trkpt lat="44.04544" lon="5.90965">
        <ele>869.59997558594</ele>
        <time>2022-01-02T09:18:19.466Z</time>
      </trkpt>
      <trkpt lat="44.04542" lon="5.90971">
        <ele>870.20001220703</ele>
        <time>2022-01-02T09:18:24.376Z</time>
      </trkpt>
      <trkpt lat="44.0454" lon="5.9097">
        <ele>870.59997558594</ele>
        <time>2022-01-02T09:18:29.286Z</time>
      </trkpt>
      <trkpt lat="44.04541" lon="5.90963">
        <ele>871.20001220703</ele>
        <time>2022-01-02T09:18:34.198Z</time>
      </trkpt>
      <trkpt lat="44.04541" lon="5.90943">
        <ele>871.59997558594</ele>
        <time>2022-01-02T09:18:39.113Z</time>
      </trkpt>
      <trkpt lat="44.0454" lon="5.90937">
        <ele>871.59997558594</ele>
        <time>2022-01-02T09:18:44.030Z</time>
      </trkpt>
      <trkpt lat="44.0454" lon="5.90931">
        <ele>871.59997558594</ele>
        <time>2022-01-02T09:18:48.948Z</time>
      </trkpt>
      <trkpt lat="44.04539" lon="5.90914">
        <ele>872</ele>
        <time>2022-01-02T09:18:53.869Z</time>
      </trkpt>
      <trkpt lat="44.04532" lon="5.90893">
        <ele>872.40002441406</ele>
        <time>2022-01-02T09:18:58.795Z</time>
      </trkpt>
      <trkpt lat="44.04528" lon="5.90881">
        <ele>872.40002441406</ele>
        <time>2022-01-02T09:19:03.724Z</time>
      </trkpt>
      <trkpt lat="44.04522" lon="5.9087">
        <ele>871.79998779297</ele>
        <time>2022-01-02T09:19:08.656Z</time>
      </trkpt>
      <trkpt lat="44.04508" lon="5.90849">
        <ele>871.79998779297</ele>
        <time>2022-01-02T09:19:13.593Z</time>
      </trkpt>
      <trkpt lat="44.04505" lon="5.90845">
        <ele>873.20001220703</ele>
        <time>2022-01-02T09:19:18.532Z</time>
      </trkpt>
      <trkpt lat="44.04503" lon="5.90841">
        <ele>874.20001220703</ele>
        <time>2022-01-02T09:19:23.472Z</time>
      </trkpt>
      <trkpt lat="44.04502" lon="5.90835">
        <ele>875.59997558594</ele>
        <time>2022-01-02T09:19:28.413Z</time>
      </trkpt>
      <trkpt lat="44.04502" lon="5.90826">
        <ele>876.20001220703</ele>
        <time>2022-01-02T09:19:33.356Z</time>
      </trkpt>
      <trkpt lat="44.04503" lon="5.90814">
        <ele>876.59997558594</ele>
        <time>2022-01-02T09:19:38.301Z</time>
      </trkpt>
      <trkpt lat="44.04506" lon="5.90807">
        <ele>877.20001220703</ele>
        <time>2022-01-02T09:19:43.248Z</time>
      </trkpt>
      <trkpt lat="44.04509" lon="5.90798">
        <ele>877.59997558594</ele>
        <time>2022-01-02T09:19:48.197Z</time>
      </trkpt>
      <trkpt lat="44.04513" lon="5.90789">
        <ele>878.20001220703</ele>
        <time>2022-01-02T09:19:53.148Z</time>
      </trkpt>
      <trkpt lat="44.04525" lon="5.90773">
        <ele>878.20001220703</ele>
        <time>2022-01-02T09:19:58.104Z</time>
      </trkpt>
      <trkpt lat="44.04543" lon="5.90752">
        <ele>877</ele>
        <time>2022-01-02T09:20:03.066Z</time>
      </trkpt>
      <trkpt lat="44.04552" lon="5.90738">
        <ele>876.59997558594</ele>
        <time>2022-01-02T09:20:08.032Z</time>
      </trkpt>
      <trkpt lat="44.04558" lon="5.90727">
        <ele>876.79998779297</ele>
        <time>2022-01-02T09:20:13.001Z</time>
      </trkpt>
      <trkpt lat="44.04564" lon="5.90716">
        <ele>877</ele>
        <time>2022-01-02T09:20:17.973Z</time>
      </trkpt>
      <trkpt lat="44.0457" lon="5.90708">
        <ele>877</ele>
        <time>2022-01-02T09:20:22.947Z</time>
      </trkpt>
      <trkpt lat="44.04577" lon="5.90686">
        <ele>877.40002441406</ele>
        <time>2022-01-02T09:20:27.926Z</time>
      </trkpt>
      <trkpt lat="44.0458" lon="5.90677">
        <ele>878</ele>
        <time>2022-01-02T09:20:32.907Z</time>
      </trkpt>
      <trkpt lat="44.04582" lon="5.90672">
        <ele>878.59997558594</ele>
        <time>2022-01-02T09:20:37.889Z</time>
      </trkpt>
      <trkpt lat="44.04587" lon="5.90663">
        <ele>879.20001220703</ele>
        <time>2022-01-02T09:20:42.874Z</time>
      </trkpt>
      <trkpt lat="44.04589" lon="5.90659">
        <ele>879.20001220703</ele>
        <time>2022-01-02T09:20:47.859Z</time>
      </trkpt>
      <trkpt lat="44.04593" lon="5.90652">
        <ele>879.40002441406</ele>
        <time>2022-01-02T09:20:52.846Z</time>
      </trkpt>
      <trkpt lat="44.04594" lon="5.90647">
        <ele>879.59997558594</ele>
        <time>2022-01-02T09:20:57.834Z</time>
      </trkpt>
      <trkpt lat="44.04594" lon="5.90645">
        <ele>879.59997558594</ele>
        <time>2022-01-02T09:21:02.823Z</time>
      </trkpt>
      <trkpt lat="44.04594" lon="5.90645">
        <ele>879.59997558594</ele>
        <time>2022-01-02T09:21:07.812Z</time>
      </trkpt>
      <trkpt lat="44.04591" lon="5.90648">
        <ele>880.20001220703</ele>
        <time>2022-01-02T09:21:12.802Z</time>
      </trkpt>
      <trkpt lat="44.04589" lon="5.90652">
        <ele>880.59997558594</ele>
        <time>2022-01-02T09:21:17.793Z</time>
      </trkpt>
      <trkpt lat="44.04582" lon="5.90656">
        <ele>881.79998779297</ele>
        <time>2022-01-02T09:21:22.786Z</time>
      </trkpt>
      <trkpt lat="44.04577" lon="5.90658">
        <ele>883</ele>
        <time>2022-01-02T09:21:27.780Z</time>
      </trkpt>
      <trkpt lat="44.04573" lon="5.9066">
        <ele>884</ele>
        <time>2022-01-02T09:21:32.776Z</time>
      </trkpt>
      <trkpt lat="44.04568" lon="5.90664">
        <ele>885</ele>
        <time>2022-01-02T09:21:37.773Z</time>
      </trkpt>
      <trkpt lat="44.04566" lon="5.90665">
        <ele>885.79998779297</ele>
        <time>2022-01-02T09:21:42.771Z</time>
      </trkpt>
      <trkpt lat="44.04564" lon="5.90666">
        <ele>886.40002441406</ele>
        <time>2022-01-02T09:21:47.769Z</time>
      </trkpt>
      <trkpt lat="44.04562" lon="5.90668">
        <ele>887</ele>
        <time>2022-01-02T09:21:52.768Z</time>
      </trkpt>
      <trkpt lat="44.04559" lon="5.90672">
        <ele>887.40002441406</ele>
        <time>2022-01-02T09:21:57.768Z</time>
      </trkpt>
      <trkpt lat="44.04556" lon="5.90674">
        <ele>887.79998779297</ele>
        <time>2022-01-02T09:22:02.769Z</time>
      </trkpt>
      <trkpt lat="44.04549" lon="5.90678">
        <ele>888.59997558594</ele>
        <time>2022-01-02T09:22:07.772Z</time>
      </trkpt>
      <trkpt lat="44.04544" lon="5.9068">
        <ele>889.59997558594</ele>
        <time>2022-01-02T09:22:12.777Z</time>
      </trkpt>
      <trkpt lat="44.04536" lon="5.90685">
        <ele>890.79998779297</ele>
        <time>2022-01-02T09:22:17.784Z</time>
      </trkpt>
      <trkpt lat="44.04529" lon="5.90691">
        <ele>892.20001220703</ele>
        <time>2022-01-02T09:22:22.793Z</time>
      </trkpt>
      <trkpt lat="44.04525" lon="5.90696">
        <ele>893.20001220703</ele>
        <time>2022-01-02T09:22:27.804Z</time>
      </trkpt>
      <trkpt lat="44.04518" lon="5.90703">
        <ele>894</ele>
        <time>2022-01-02T09:22:32.818Z</time>
      </trkpt>
      <trkpt lat="44.04513" lon="5.90709">
        <ele>894.40002441406</ele>
        <time>2022-01-02T09:22:37.833Z</time>
      </trkpt>
      <trkpt lat="44.04508" lon="5.90715">
        <ele>895.20001220703</ele>
        <time>2022-01-02T09:22:42.850Z</time>
      </trkpt>
      <trkpt lat="44.04505" lon="5.90717">
        <ele>895.79998779297</ele>
        <time>2022-01-02T09:22:47.868Z</time>
      </trkpt>
      <trkpt lat="44.045" lon="5.90719">
        <ele>896.79998779297</ele>
        <time>2022-01-02T09:22:52.888Z</time>
      </trkpt>
      <trkpt lat="44.04497" lon="5.90722">
        <ele>897.40002441406</ele>
        <time>2022-01-02T09:22:57.908Z</time>
      </trkpt>
      <trkpt lat="44.04495" lon="5.90724">
        <ele>898</ele>
        <time>2022-01-02T09:23:02.929Z</time>
      </trkpt>
      <trkpt lat="44.04488" lon="5.90733">
        <ele>899.40002441406</ele>
        <time>2022-01-02T09:23:07.953Z</time>
      </trkpt>
      <trkpt lat="44.04483" lon="5.90737">
        <ele>900.40002441406</ele>
        <time>2022-01-02T09:23:12.979Z</time>
      </trkpt>
      <trkpt lat="44.04481" lon="5.90739">
        <ele>900.79998779297</ele>
        <time>2022-01-02T09:23:18.005Z</time>
      </trkpt>
      <trkpt lat="44.04476" lon="5.90744">
        <ele>901.59997558594</ele>
        <time>2022-01-02T09:23:23.033Z</time>
      </trkpt>
      <trkpt lat="44.04468" lon="5.9075">
        <ele>902.79998779297</ele>
        <time>2022-01-02T09:23:28.064Z</time>
      </trkpt>
      <trkpt lat="44.04465" lon="5.90752">
        <ele>903.40002441406</ele>
        <time>2022-01-02T09:23:33.096Z</time>
      </trkpt>
      <trkpt lat="44.04456" lon="5.90758">
        <ele>904</ele>
        <time>2022-01-02T09:23:38.130Z</time>
      </trkpt>
      <trkpt lat="44.04451" lon="5.90765">
        <ele>904.40002441406</ele>
        <time>2022-01-02T09:23:43.166Z</time>
      </trkpt>
      <trkpt lat="44.04439" lon="5.90787">
        <ele>903.79998779297</ele>
        <time>2022-01-02T09:23:48.208Z</time>
      </trkpt>
      <trkpt lat="44.04434" lon="5.90796">
        <ele>903.59997558594</ele>
        <time>2022-01-02T09:23:53.252Z</time>
      </trkpt>
      <trkpt lat="44.04429" lon="5.90807">
        <ele>903</ele>
        <time>2022-01-02T09:23:58.299Z</time>
      </trkpt>
      <trkpt lat="44.04427" lon="5.90813">
        <ele>902.79998779297</ele>
        <time>2022-01-02T09:24:03.347Z</time>
      </trkpt>
      <trkpt lat="44.04425" lon="5.90818">
        <ele>902.40002441406</ele>
        <time>2022-01-02T09:24:08.396Z</time>
      </trkpt>
      <trkpt lat="44.04423" lon="5.90832">
        <ele>902.20001220703</ele>
        <time>2022-01-02T09:24:13.448Z</time>
      </trkpt>
      <trkpt lat="44.04428" lon="5.9085">
        <ele>901.79998779297</ele>
        <time>2022-01-02T09:24:18.504Z</time>
      </trkpt>
      <trkpt lat="44.04429" lon="5.90856">
        <ele>901.59997558594</ele>
        <time>2022-01-02T09:24:23.561Z</time>
      </trkpt>
      <trkpt lat="44.04432" lon="5.90876">
        <ele>901.40002441406</ele>
        <time>2022-01-02T09:24:28.622Z</time>
      </trkpt>
      <trkpt lat="44.04433" lon="5.90882">
        <ele>901.40002441406</ele>
        <time>2022-01-02T09:24:33.685Z</time>
      </trkpt>
      <trkpt lat="44.04439" lon="5.909">
        <ele>901.59997558594</ele>
        <time>2022-01-02T09:24:38.752Z</time>
      </trkpt>
      <trkpt lat="44.04446" lon="5.90924">
        <ele>901.79998779297</ele>
        <time>2022-01-02T09:24:43.824Z</time>
      </trkpt>
      <trkpt lat="44.04451" lon="5.90945">
        <ele>901.79998779297</ele>
        <time>2022-01-02T09:24:48.900Z</time>
      </trkpt>
      <trkpt lat="44.04454" lon="5.90959">
        <ele>901.40002441406</ele>
        <time>2022-01-02T09:24:53.979Z</time>
      </trkpt>
      <trkpt lat="44.04455" lon="5.90966">
        <ele>901.20001220703</ele>
        <time>2022-01-02T09:24:59.060Z</time>
      </trkpt>
      <trkpt lat="44.04455" lon="5.90972">
        <ele>901</ele>
        <time>2022-01-02T09:25:04.142Z</time>
      </trkpt>
      <trkpt lat="44.04456" lon="5.90982">
        <ele>900.20001220703</ele>
        <time>2022-01-02T09:25:09.226Z</time>
      </trkpt>
      <trkpt lat="44.04456" lon="5.90987">
        <ele>899.79998779297</ele>
        <time>2022-01-02T09:25:14.311Z</time>
      </trkpt>
      <trkpt lat="44.04454" lon="5.9101">
        <ele>898.79998779297</ele>
        <time>2022-01-02T09:25:19.401Z</time>
      </trkpt>
      <trkpt lat="44.04453" lon="5.91015">
        <ele>898.59997558594</ele>
        <time>2022-01-02T09:25:24.492Z</time>
      </trkpt>
      <trkpt lat="44.04451" lon="5.91032">
        <ele>898.20001220703</ele>
        <time>2022-01-02T09:25:29.586Z</time>
      </trkpt>
      <trkpt lat="44.04447" lon="5.91047">
        <ele>897.79998779297</ele>
        <time>2022-01-02T09:25:34.684Z</time>
      </trkpt>
      <trkpt lat="44.04445" lon="5.91051">
        <ele>898</ele>
        <time>2022-01-02T09:25:39.783Z</time>
      </trkpt>
      <trkpt lat="44.04438" lon="5.91065">
        <ele>897.20001220703</ele>
        <time>2022-01-02T09:25:44.885Z</time>
      </trkpt>
      <trkpt lat="44.04436" lon="5.91068">
        <ele>896.79998779297</ele>
        <time>2022-01-02T09:25:49.988Z</time>
      </trkpt>
      <trkpt lat="44.04427" lon="5.91078">
        <ele>896.40002441406</ele>
        <time>2022-01-02T09:25:55.094Z</time>
      </trkpt>
      <trkpt lat="44.04415" lon="5.9109">
        <ele>897.40002441406</ele>
        <time>2022-01-02T09:26:00.204Z</time>
      </trkpt>
      <trkpt lat="44.04398" lon="5.91107">
        <ele>897.79998779297</ele>
        <time>2022-01-02T09:26:05.320Z</time>
      </trkpt>
      <trkpt lat="44.04392" lon="5.91108">
        <ele>898.40002441406</ele>
        <time>2022-01-02T09:26:10.438Z</time>
      </trkpt>
      <trkpt lat="44.04386" lon="5.91112">
        <ele>899</ele>
        <time>2022-01-02T09:26:15.558Z</time>
      </trkpt>
      <trkpt lat="44.0438" lon="5.91115">
        <ele>899.59997558594</ele>
        <time>2022-01-02T09:26:20.680Z</time>
      </trkpt>
      <trkpt lat="44.04375" lon="5.91116">
        <ele>900.59997558594</ele>
        <time>2022-01-02T09:26:25.803Z</time>
      </trkpt>
      <trkpt lat="44.04366" lon="5.91123">
        <ele>901.79998779297</ele>
        <time>2022-01-02T09:26:30.929Z</time>
      </trkpt>
      <trkpt lat="44.04359" lon="5.91126">
        <ele>901.79998779297</ele>
        <time>2022-01-02T09:26:36.057Z</time>
      </trkpt>
      <trkpt lat="44.04354" lon="5.91131">
        <ele>902</ele>
        <time>2022-01-02T09:26:41.187Z</time>
      </trkpt>
      <trkpt lat="44.04348" lon="5.91137">
        <ele>903</ele>
        <time>2022-01-02T09:26:46.319Z</time>
      </trkpt>
      <trkpt lat="44.04344" lon="5.91143">
        <ele>903.40002441406</ele>
        <time>2022-01-02T09:26:51.453Z</time>
      </trkpt>
      <trkpt lat="44.04336" lon="5.91166">
        <ele>903.59997558594</ele>
        <time>2022-01-02T09:26:56.592Z</time>
      </trkpt>
      <trkpt lat="44.04331" lon="5.91186">
        <ele>904</ele>
        <time>2022-01-02T09:27:01.735Z</time>
      </trkpt>
      <trkpt lat="44.04328" lon="5.9119">
        <ele>904.40002441406</ele>
        <time>2022-01-02T09:27:06.879Z</time>
      </trkpt>
      <trkpt lat="44.04327" lon="5.91188">
        <ele>904.79998779297</ele>
        <time>2022-01-02T09:27:12.023Z</time>
      </trkpt>
      <trkpt lat="44.04327" lon="5.91187">
        <ele>905.40002441406</ele>
        <time>2022-01-02T09:27:17.168Z</time>
      </trkpt>
      <trkpt lat="44.04326" lon="5.91185">
        <ele>906</ele>
        <time>2022-01-02T09:27:22.313Z</time>
      </trkpt>
      <trkpt lat="44.04325" lon="5.91183">
        <ele>906.40002441406</ele>
        <time>2022-01-02T09:27:27.459Z</time>
      </trkpt>
      <trkpt lat="44.04323" lon="5.91177">
        <ele>907.40002441406</ele>
        <time>2022-01-02T09:27:32.606Z</time>
      </trkpt>
      <trkpt lat="44.04322" lon="5.91176">
        <ele>907.79998779297</ele>
        <time>2022-01-02T09:27:37.753Z</time>
      </trkpt>
      <trkpt lat="44.04319" lon="5.91168">
        <ele>909.40002441406</ele>
        <time>2022-01-02T09:27:42.902Z</time>
      </trkpt>
      <trkpt lat="44.04317" lon="5.91161">
        <ele>910.59997558594</ele>
        <time>2022-01-02T09:27:48.053Z</time>
      </trkpt>
      <trkpt lat="44.04318" lon="5.91149">
        <ele>912.40002441406</ele>
        <time>2022-01-02T09:27:53.206Z</time>
      </trkpt>
      <trkpt lat="44.0432" lon="5.91136">
        <ele>913.40002441406</ele>
        <time>2022-01-02T09:27:58.362Z</time>
      </trkpt>
      <trkpt lat="44.04321" lon="5.91122">
        <ele>914.40002441406</ele>
        <time>2022-01-02T09:28:03.521Z</time>
      </trkpt>
      <trkpt lat="44.04321" lon="5.91117">
        <ele>914.79998779297</ele>
        <time>2022-01-02T09:28:08.681Z</time>
      </trkpt>
      <trkpt lat="44.04321" lon="5.91113">
        <ele>915.40002441406</ele>
        <time>2022-01-02T09:28:13.842Z</time>
      </trkpt>
      <trkpt lat="44.04322" lon="5.9111">
        <ele>915.79998779297</ele>
        <time>2022-01-02T09:28:19.003Z</time>
      </trkpt>
      <trkpt lat="44.04322" lon="5.91106">
        <ele>916.40002441406</ele>
        <time>2022-01-02T09:28:24.165Z</time>
      </trkpt>
      <trkpt lat="44.04322" lon="5.91102">
        <ele>917</ele>
        <time>2022-01-02T09:28:29.328Z</time>
      </trkpt>
      <trkpt lat="44.04323" lon="5.91093">
        <ele>918.20001220703</ele>
        <time>2022-01-02T09:28:34.493Z</time>
      </trkpt>
      <trkpt lat="44.04325" lon="5.91085">
        <ele>919.59997558594</ele>
        <time>2022-01-02T09:28:39.659Z</time>
      </trkpt>
      <trkpt lat="44.04326" lon="5.91079">
        <ele>920.79998779297</ele>
        <time>2022-01-02T09:28:44.827Z</time>
      </trkpt>
      <trkpt lat="44.04325" lon="5.91072">
        <ele>922.40002441406</ele>
        <time>2022-01-02T09:28:49.996Z</time>
      </trkpt>
      <trkpt lat="44.04325" lon="5.91069">
        <ele>922.79998779297</ele>
        <time>2022-01-02T09:28:55.166Z</time>
      </trkpt>
      <trkpt lat="44.04325" lon="5.91065">
        <ele>923.40002441406</ele>
        <time>2022-01-02T09:29:00.336Z</time>
      </trkpt>
      <trkpt lat="44.04324" lon="5.91058">
        <ele>925</ele>
        <time>2022-01-02T09:29:05.508Z</time>
      </trkpt>
      <trkpt lat="44.04323" lon="5.91048">
        <ele>926.40002441406</ele>
        <time>2022-01-02T09:29:10.682Z</time>
      </trkpt>
      <trkpt lat="44.04322" lon="5.91047">
        <ele>927</ele>
        <time>2022-01-02T09:29:15.856Z</time>
      </trkpt>
      <trkpt lat="44.04322" lon="5.91046">
        <ele>927.59997558594</ele>
        <time>2022-01-02T09:29:21.030Z</time>
      </trkpt>
      <trkpt lat="44.04318" lon="5.91051">
        <ele>928</ele>
        <time>2022-01-02T09:29:26.206Z</time>
      </trkpt>
      <trkpt lat="44.04316" lon="5.91053">
        <ele>928</ele>
        <time>2022-01-02T09:29:31.382Z</time>
      </trkpt>
      <trkpt lat="44.04312" lon="5.91069">
        <ele>928.40002441406</ele>
        <time>2022-01-02T09:29:36.562Z</time>
      </trkpt>
      <trkpt lat="44.0431" lon="5.91074">
        <ele>928.20001220703</ele>
        <time>2022-01-02T09:29:41.743Z</time>
      </trkpt>
      <trkpt lat="44.04302" lon="5.91084">
        <ele>927.59997558594</ele>
        <time>2022-01-02T09:29:46.927Z</time>
      </trkpt>
      <trkpt lat="44.04299" lon="5.91085">
        <ele>927.59997558594</ele>
        <time>2022-01-02T09:29:52.112Z</time>
      </trkpt>
      <trkpt lat="44.0429" lon="5.91094">
        <ele>927.79998779297</ele>
        <time>2022-01-02T09:29:57.300Z</time>
      </trkpt>
      <trkpt lat="44.04282" lon="5.91105">
        <ele>928</ele>
        <time>2022-01-02T09:30:02.491Z</time>
      </trkpt>
      <trkpt lat="44.04281" lon="5.91112">
        <ele>928</ele>
        <time>2022-01-02T09:30:07.684Z</time>
      </trkpt>
      <trkpt lat="44.04279" lon="5.91122">
        <ele>928</ele>
        <time>2022-01-02T09:30:12.879Z</time>
      </trkpt>
      <trkpt lat="44.04271" lon="5.91145">
        <ele>928</ele>
        <time>2022-01-02T09:30:18.079Z</time>
      </trkpt>
      <trkpt lat="44.04269" lon="5.91154">
        <ele>928.59997558594</ele>
        <time>2022-01-02T09:30:23.281Z</time>
      </trkpt>
      <trkpt lat="44.04267" lon="5.91163">
        <ele>929.79998779297</ele>
        <time>2022-01-02T09:30:28.485Z</time>
      </trkpt>
      <trkpt lat="44.04268" lon="5.91183">
        <ele>930.79998779297</ele>
        <time>2022-01-02T09:30:33.693Z</time>
      </trkpt>
      <trkpt lat="44.04268" lon="5.91187">
        <ele>931</ele>
        <time>2022-01-02T09:30:38.902Z</time>
      </trkpt>
      <trkpt lat="44.04265" lon="5.91205">
        <ele>932.20001220703</ele>
        <time>2022-01-02T09:30:44.114Z</time>
      </trkpt>
      <trkpt lat="44.04261" lon="5.91227">
        <ele>933.40002441406</ele>
        <time>2022-01-02T09:30:49.331Z</time>
      </trkpt>
      <trkpt lat="44.04259" lon="5.91231">
        <ele>933.59997558594</ele>
        <time>2022-01-02T09:30:54.549Z</time>
      </trkpt>
      <trkpt lat="44.04257" lon="5.91239">
        <ele>934.40002441406</ele>
        <time>2022-01-02T09:30:59.769Z</time>
      </trkpt>
      <trkpt lat="44.04254" lon="5.91247">
        <ele>935.40002441406</ele>
        <time>2022-01-02T09:31:04.991Z</time>
      </trkpt>
      <trkpt lat="44.04253" lon="5.91251">
        <ele>936</ele>
        <time>2022-01-02T09:31:10.213Z</time>
      </trkpt>
      <trkpt lat="44.04252" lon="5.91255">
        <ele>936.59997558594</ele>
        <time>2022-01-02T09:31:15.436Z</time>
      </trkpt>
      <trkpt lat="44.04246" lon="5.9127">
        <ele>938.20001220703</ele>
        <time>2022-01-02T09:31:20.663Z</time>
      </trkpt>
      <trkpt lat="44.04243" lon="5.91275">
        <ele>939.20001220703</ele>
        <time>2022-01-02T09:31:25.891Z</time>
      </trkpt>
      <trkpt lat="44.0424" lon="5.9128">
        <ele>940</ele>
        <time>2022-01-02T09:31:31.120Z</time>
      </trkpt>
      <trkpt lat="44.04239" lon="5.91282">
        <ele>940.40002441406</ele>
        <time>2022-01-02T09:31:36.350Z</time>
      </trkpt>
      <trkpt lat="44.04237" lon="5.91288">
        <ele>941.59997558594</ele>
        <time>2022-01-02T09:31:41.581Z</time>
      </trkpt>
      <trkpt lat="44.04237" lon="5.91291">
        <ele>942</ele>
        <time>2022-01-02T09:31:46.813Z</time>
      </trkpt>
      <trkpt lat="44.04235" lon="5.91297">
        <ele>942.79998779297</ele>
        <time>2022-01-02T09:31:52.046Z</time>
      </trkpt>
      <trkpt lat="44.04234" lon="5.913">
        <ele>943</ele>
        <time>2022-01-02T09:31:57.280Z</time>
      </trkpt>
      <trkpt lat="44.04229" lon="5.91318">
        <ele>944</ele>
        <time>2022-01-02T09:32:02.518Z</time>
      </trkpt>
      <trkpt lat="44.04228" lon="5.91321">
        <ele>944.40002441406</ele>
        <time>2022-01-02T09:32:07.756Z</time>
      </trkpt>
      <trkpt lat="44.04225" lon="5.9133">
        <ele>945.40002441406</ele>
        <time>2022-01-02T09:32:12.996Z</time>
      </trkpt>
      <trkpt lat="44.04223" lon="5.91333">
        <ele>945.79998779297</ele>
        <time>2022-01-02T09:32:18.237Z</time>
      </trkpt>
      <trkpt lat="44.04222" lon="5.91335">
        <ele>946</ele>
        <time>2022-01-02T09:32:23.479Z</time>
      </trkpt>
      <trkpt lat="44.04222" lon="5.91337">
        <ele>946.59997558594</ele>
        <time>2022-01-02T09:32:28.721Z</time>
      </trkpt>
      <trkpt lat="44.0422" lon="5.91338">
        <ele>947.79998779297</ele>
        <time>2022-01-02T09:32:33.964Z</time>
      </trkpt>
      <trkpt lat="44.0422" lon="5.91336">
        <ele>948.20001220703</ele>
        <time>2022-01-02T09:32:39.207Z</time>
      </trkpt>
      <trkpt lat="44.0422" lon="5.91334">
        <ele>948.59997558594</ele>
        <time>2022-01-02T09:32:44.450Z</time>
      </trkpt>
      <trkpt lat="44.04219" lon="5.91333">
        <ele>949</ele>
        <time>2022-01-02T09:32:49.694Z</time>
      </trkpt>
      <trkpt lat="44.04219" lon="5.91328">
        <ele>949.59997558594</ele>
        <time>2022-01-02T09:32:54.939Z</time>
      </trkpt>
      <trkpt lat="44.04219" lon="5.91325">
        <ele>950.20001220703</ele>
        <time>2022-01-02T09:33:00.184Z</time>
      </trkpt>
      <trkpt lat="44.04218" lon="5.91322">
        <ele>950.59997558594</ele>
        <time>2022-01-02T09:33:05.430Z</time>
      </trkpt>
      <trkpt lat="44.04217" lon="5.91322">
        <ele>950.79998779297</ele>
        <time>2022-01-02T09:33:10.676Z</time>
      </trkpt>
      <trkpt lat="44.04213" lon="5.91328">
        <ele>951.59997558594</ele>
        <time>2022-01-02T09:33:15.924Z</time>
      </trkpt>
      <trkpt lat="44.04213" lon="5.91331">
        <ele>952</ele>
        <time>2022-01-02T09:33:21.172Z</time>
      </trkpt>
      <trkpt lat="44.04211" lon="5.9134">
        <ele>952.59997558594</ele>
        <time>2022-01-02T09:33:26.422Z</time>
      </trkpt>
      <trkpt lat="44.04208" lon="5.9135">
        <ele>953</ele>
        <time>2022-01-02T09:33:31.674Z</time>
      </trkpt>
      <trkpt lat="44.04208" lon="5.91354">
        <ele>953</ele>
        <time>2022-01-02T09:33:36.927Z</time>
      </trkpt>
      <trkpt lat="44.04206" lon="5.91367">
        <ele>953.79998779297</ele>
        <time>2022-01-02T09:33:42.183Z</time>
      </trkpt>
      <trkpt lat="44.04207" lon="5.91372">
        <ele>954.20001220703</ele>
        <time>2022-01-02T09:33:47.440Z</time>
      </trkpt>
      <trkpt lat="44.04207" lon="5.91376">
        <ele>954.59997558594</ele>
        <time>2022-01-02T09:33:52.698Z</time>
      </trkpt>
      <trkpt lat="44.04208" lon="5.91388">
        <ele>955.20001220703</ele>
        <time>2022-01-02T09:33:57.958Z</time>
      </trkpt>
      <trkpt lat="44.0421" lon="5.91394">
        <ele>956.20001220703</ele>
        <time>2022-01-02T09:34:03.220Z</time>
      </trkpt>
      <trkpt lat="44.04213" lon="5.91396">
        <ele>956.40002441406</ele>
        <time>2022-01-02T09:34:08.482Z</time>
      </trkpt>
      <trkpt lat="44.04215" lon="5.91399">
        <ele>956.59997558594</ele>
        <time>2022-01-02T09:34:13.745Z</time>
      </trkpt>
      <trkpt lat="44.0422" lon="5.91409">
        <ele>957.59997558594</ele>
        <time>2022-01-02T09:34:19.011Z</time>
      </trkpt>
      <trkpt lat="44.04222" lon="5.91412">
        <ele>958.40002441406</ele>
        <time>2022-01-02T09:34:24.278Z</time>
      </trkpt>
      <trkpt lat="44.04224" lon="5.91414">
        <ele>959</ele>
        <time>2022-01-02T09:34:29.546Z</time>
      </trkpt>
      <trkpt lat="44.04235" lon="5.91425">
        <ele>960.79998779297</ele>
        <time>2022-01-02T09:34:34.817Z</time>
      </trkpt>
      <trkpt lat="44.04242" lon="5.91432">
        <ele>962.40002441406</ele>
        <time>2022-01-02T09:34:40.091Z</time>
      </trkpt>
      <trkpt lat="44.04246" lon="5.91437">
        <ele>963.59997558594</ele>
        <time>2022-01-02T09:34:45.366Z</time>
      </trkpt>
      <trkpt lat="44.04252" lon="5.91442">
        <ele>964.40002441406</ele>
        <time>2022-01-02T09:34:50.643Z</time>
      </trkpt>
      <trkpt lat="44.04254" lon="5.91444">
        <ele>964.79998779297</ele>
        <time>2022-01-02T09:34:55.921Z</time>
      </trkpt>
      <trkpt lat="44.0426" lon="5.91448">
        <ele>965.20001220703</ele>
        <time>2022-01-02T09:35:01.201Z</time>
      </trkpt>
      <trkpt lat="44.04272" lon="5.91454">
        <ele>965.59997558594</ele>
        <time>2022-01-02T09:35:06.484Z</time>
      </trkpt>
      <trkpt lat="44.04279" lon="5.91453">
        <ele>966</ele>
        <time>2022-01-02T09:35:11.769Z</time>
      </trkpt>
      <trkpt lat="44.04292" lon="5.91447">
        <ele>967.59997558594</ele>
        <time>2022-01-02T09:35:17.058Z</time>
      </trkpt>
      <trkpt lat="44.04298" lon="5.91442">
        <ele>968.40002441406</ele>
        <time>2022-01-02T09:35:22.349Z</time>
      </trkpt>
      <trkpt lat="44.04306" lon="5.91435">
        <ele>968.79998779297</ele>
        <time>2022-01-02T09:35:27.643Z</time>
      </trkpt>
      <trkpt lat="44.04308" lon="5.91432">
        <ele>968.79998779297</ele>
        <time>2022-01-02T09:35:32.937Z</time>
      </trkpt>
      <trkpt lat="44.04309" lon="5.91429">
        <ele>969.20001220703</ele>
        <time>2022-01-02T09:35:38.232Z</time>
      </trkpt>
      <trkpt lat="44.04305" lon="5.91425">
        <ele>969.59997558594</ele>
        <time>2022-01-02T09:35:43.528Z</time>
      </trkpt>
      <trkpt lat="44.04299" lon="5.91434">
        <ele>969.40002441406</ele>
        <time>2022-01-02T09:35:48.827Z</time>
      </trkpt>
      <trkpt lat="44.04297" lon="5.91437">
        <ele>969.20001220703</ele>
        <time>2022-01-02T09:35:54.127Z</time>
      </trkpt>
      <trkpt lat="44.04293" lon="5.91445">
        <ele>968.79998779297</ele>
        <time>2022-01-02T09:35:59.429Z</time>
      </trkpt>
      <trkpt lat="44.04292" lon="5.9145">
        <ele>968</ele>
        <time>2022-01-02T09:36:04.732Z</time>
      </trkpt>
      <trkpt lat="44.04292" lon="5.91455">
        <ele>967.59997558594</ele>
        <time>2022-01-02T09:36:10.036Z</time>
      </trkpt>
      <trkpt lat="44.0429" lon="5.91467">
        <ele>966.20001220703</ele>
        <time>2022-01-02T09:36:15.342Z</time>
      </trkpt>
      <trkpt lat="44.04289" lon="5.91474">
        <ele>965.20001220703</ele>
        <time>2022-01-02T09:36:20.650Z</time>
      </trkpt>
      <trkpt lat="44.04287" lon="5.91482">
        <ele>964.79998779297</ele>
        <time>2022-01-02T09:36:25.959Z</time>
      </trkpt>
      <trkpt lat="44.04286" lon="5.91489">
        <ele>964.40002441406</ele>
        <time>2022-01-02T09:36:31.270Z</time>
      </trkpt>
      <trkpt lat="44.04285" lon="5.91496">
        <ele>963.79998779297</ele>
        <time>2022-01-02T09:36:36.582Z</time>
      </trkpt>
      <trkpt lat="44.04285" lon="5.9151">
        <ele>962.20001220703</ele>
        <time>2022-01-02T09:36:41.897Z</time>
      </trkpt>
      <trkpt lat="44.04284" lon="5.91523">
        <ele>960.40002441406</ele>
        <time>2022-01-02T09:36:47.215Z</time>
      </trkpt>
      <trkpt lat="44.04283" lon="5.91535">
        <ele>959.40002441406</ele>
        <time>2022-01-02T09:36:52.535Z</time>
      </trkpt>
      <trkpt lat="44.04282" lon="5.91539">
        <ele>959.20001220703</ele>
        <time>2022-01-02T09:36:57.856Z</time>
      </trkpt>
      <trkpt lat="44.04282" lon="5.91542">
        <ele>959.59997558594</ele>
        <time>2022-01-02T09:37:03.178Z</time>
      </trkpt>
      <trkpt lat="44.04283" lon="5.91549">
        <ele>960</ele>
        <time>2022-01-02T09:37:08.501Z</time>
      </trkpt>
      <trkpt lat="44.04284" lon="5.91554">
        <ele>960.40002441406</ele>
        <time>2022-01-02T09:37:13.825Z</time>
      </trkpt>
      <trkpt lat="44.04287" lon="5.91574">
        <ele>960.40002441406</ele>
        <time>2022-01-02T09:37:19.153Z</time>
      </trkpt>
      <trkpt lat="44.04288" lon="5.91594">
        <ele>960.59997558594</ele>
        <time>2022-01-02T09:37:24.485Z</time>
      </trkpt>
      <trkpt lat="44.04289" lon="5.91598">
        <ele>960.59997558594</ele>
        <time>2022-01-02T09:37:29.818Z</time>
      </trkpt>
      <trkpt lat="44.0429" lon="5.91606">
        <ele>961.40002441406</ele>
        <time>2022-01-02T09:37:35.153Z</time>
      </trkpt>
      <trkpt lat="44.04293" lon="5.9161">
        <ele>961.79998779297</ele>
        <time>2022-01-02T09:37:40.489Z</time>
      </trkpt>
      <trkpt lat="44.04298" lon="5.91626">
        <ele>962.59997558594</ele>
        <time>2022-01-02T09:37:45.829Z</time>
      </trkpt>
      <trkpt lat="44.04301" lon="5.91644">
        <ele>963</ele>
        <time>2022-01-02T09:37:51.172Z</time>
      </trkpt>
      <trkpt lat="44.043" lon="5.91655">
        <ele>962</ele>
        <time>2022-01-02T09:37:56.518Z</time>
      </trkpt>
      <trkpt lat="44.04299" lon="5.91659">
        <ele>961.20001220703</ele>
        <time>2022-01-02T09:38:01.865Z</time>
      </trkpt>
      <trkpt lat="44.04296" lon="5.91664">
        <ele>960.20001220703</ele>
        <time>2022-01-02T09:38:07.213Z</time>
      </trkpt>
      <trkpt lat="44.04293" lon="5.91673">
        <ele>959</ele>
        <time>2022-01-02T09:38:12.563Z</time>
      </trkpt>
      <trkpt lat="44.04294" lon="5.91682">
        <ele>957.79998779297</ele>
        <time>2022-01-02T09:38:17.915Z</time>
      </trkpt>
      <trkpt lat="44.04296" lon="5.91691">
        <ele>956.40002441406</ele>
        <time>2022-01-02T09:38:23.269Z</time>
      </trkpt>
      <trkpt lat="44.04299" lon="5.91704">
        <ele>955.20001220703</ele>
        <time>2022-01-02T09:38:28.625Z</time>
      </trkpt>
      <trkpt lat="44.04304" lon="5.91715">
        <ele>953.79998779297</ele>
        <time>2022-01-02T09:38:33.984Z</time>
      </trkpt>
      <trkpt lat="44.0431" lon="5.91724">
        <ele>953.40002441406</ele>
        <time>2022-01-02T09:38:39.345Z</time>
      </trkpt>
      <trkpt lat="44.04319" lon="5.91736">
        <ele>952.79998779297</ele>
        <time>2022-01-02T09:38:44.710Z</time>
      </trkpt>
      <trkpt lat="44.04321" lon="5.91741">
        <ele>952.79998779297</ele>
        <time>2022-01-02T09:38:50.076Z</time>
      </trkpt>
      <trkpt lat="44.04322" lon="5.91751">
        <ele>953.40002441406</ele>
        <time>2022-01-02T09:38:55.444Z</time>
      </trkpt>
      <trkpt lat="44.04323" lon="5.91755">
        <ele>953.79998779297</ele>
        <time>2022-01-02T09:39:00.813Z</time>
      </trkpt>
      <trkpt lat="44.04326" lon="5.91768">
        <ele>955</ele>
        <time>2022-01-02T09:39:06.185Z</time>
      </trkpt>
      <trkpt lat="44.04329" lon="5.91781">
        <ele>956.59997558594</ele>
        <time>2022-01-02T09:39:11.559Z</time>
      </trkpt>
      <trkpt lat="44.0433" lon="5.9179">
        <ele>957.20001220703</ele>
        <time>2022-01-02T09:39:16.935Z</time>
      </trkpt>
      <trkpt lat="44.04332" lon="5.91798">
        <ele>958</ele>
        <time>2022-01-02T09:39:22.313Z</time>
      </trkpt>
      <trkpt lat="44.04335" lon="5.91807">
        <ele>959.40002441406</ele>
        <time>2022-01-02T09:39:27.693Z</time>
      </trkpt>
      <trkpt lat="44.04338" lon="5.91815">
        <ele>960.79998779297</ele>
        <time>2022-01-02T09:39:33.075Z</time>
      </trkpt>
      <trkpt lat="44.04347" lon="5.91834">
        <ele>961.59997558594</ele>
        <time>2022-01-02T09:39:38.461Z</time>
      </trkpt>
      <trkpt lat="44.04359" lon="5.91843">
        <ele>961.20001220703</ele>
        <time>2022-01-02T09:39:43.851Z</time>
      </trkpt>
      <trkpt lat="44.04364" lon="5.91849">
        <ele>960</ele>
        <time>2022-01-02T09:39:49.243Z</time>
      </trkpt>
      <trkpt lat="44.04366" lon="5.91854">
        <ele>959.79998779297</ele>
        <time>2022-01-02T09:39:54.637Z</time>
      </trkpt>
      <trkpt lat="44.04367" lon="5.91859">
        <ele>959.59997558594</ele>
        <time>2022-01-02T09:40:00.031Z</time>
      </trkpt>
      <trkpt lat="44.04366" lon="5.91869">
        <ele>958.59997558594</ele>
        <time>2022-01-02T09:40:05.428Z</time>
      </trkpt>
      <trkpt lat="44.04366" lon="5.91876">
        <ele>957.20001220703</ele>
        <time>2022-01-02T09:40:10.826Z</time>
      </trkpt>
      <trkpt lat="44.0437" lon="5.9188">
        <ele>956</ele>
        <time>2022-01-02T09:40:16.225Z</time>
      </trkpt>
      <trkpt lat="44.04371" lon="5.91882">
        <ele>955.59997558594</ele>
        <time>2022-01-02T09:40:21.625Z</time>
      </trkpt>
      <trkpt lat="44.04371" lon="5.91889">
        <ele>954.79998779297</ele>
        <time>2022-01-02T09:40:27.026Z</time>
      </trkpt>
      <trkpt lat="44.04369" lon="5.91892">
        <ele>954</ele>
        <time>2022-01-02T09:40:32.428Z</time>
      </trkpt>
      <trkpt lat="44.04366" lon="5.91894">
        <ele>953.40002441406</ele>
        <time>2022-01-02T09:40:37.831Z</time>
      </trkpt>
      <trkpt lat="44.04359" lon="5.91896">
        <ele>952.40002441406</ele>
        <time>2022-01-02T09:40:43.236Z</time>
      </trkpt>
      <trkpt lat="44.04356" lon="5.91898">
        <ele>952</ele>
        <time>2022-01-02T09:40:48.642Z</time>
      </trkpt>
      <trkpt lat="44.04349" lon="5.91901">
        <ele>951.40002441406</ele>
        <time>2022-01-02T09:40:54.050Z</time>
      </trkpt>
      <trkpt lat="44.04346" lon="5.91904">
        <ele>950.79998779297</ele>
        <time>2022-01-02T09:40:59.459Z</time>
      </trkpt>
      <trkpt lat="44.04343" lon="5.91907">
        <ele>949.79998779297</ele>
        <time>2022-01-02T09:41:04.869Z</time>
      </trkpt>
      <trkpt lat="44.0434" lon="5.91911">
        <ele>948.59997558594</ele>
        <time>2022-01-02T09:41:10.280Z</time>
      </trkpt>
      <trkpt lat="44.04337" lon="5.91914">
        <ele>947.59997558594</ele>
        <time>2022-01-02T09:41:15.692Z</time>
      </trkpt>
      <trkpt lat="44.04333" lon="5.91916">
        <ele>947</ele>
        <time>2022-01-02T09:41:21.105Z</time>
      </trkpt>
      <trkpt lat="44.04331" lon="5.91919">
        <ele>945.59997558594</ele>
        <time>2022-01-02T09:41:26.519Z</time>
      </trkpt>
      <trkpt lat="44.04326" lon="5.91928">
        <ele>944.40002441406</ele>
        <time>2022-01-02T09:41:31.935Z</time>
      </trkpt>
      <trkpt lat="44.04319" lon="5.91938">
        <ele>942.79998779297</ele>
        <time>2022-01-02T09:41:37.354Z</time>
      </trkpt>
      <trkpt lat="44.04314" lon="5.91942">
        <ele>941.79998779297</ele>
        <time>2022-01-02T09:41:42.775Z</time>
      </trkpt>
      <trkpt lat="44.0431" lon="5.91947">
        <ele>941</ele>
        <time>2022-01-02T09:41:48.197Z</time>
      </trkpt>
      <trkpt lat="44.04303" lon="5.91956">
        <ele>939.59997558594</ele>
        <time>2022-01-02T09:41:53.622Z</time>
      </trkpt>
      <trkpt lat="44.04296" lon="5.91963">
        <ele>938.40002441406</ele>
        <time>2022-01-02T09:41:59.050Z</time>
      </trkpt>
      <trkpt lat="44.04294" lon="5.91966">
        <ele>937.79998779297</ele>
        <time>2022-01-02T09:42:04.478Z</time>
      </trkpt>
      <trkpt lat="44.04297" lon="5.91972">
        <ele>937</ele>
        <time>2022-01-02T09:42:09.908Z</time>
      </trkpt>
      <trkpt lat="44.04299" lon="5.91973">
        <ele>936.40002441406</ele>
        <time>2022-01-02T09:42:15.339Z</time>
      </trkpt>
      <trkpt lat="44.04302" lon="5.91974">
        <ele>935.79998779297</ele>
        <time>2022-01-02T09:42:20.770Z</time>
      </trkpt>
      <trkpt lat="44.04301" lon="5.91978">
        <ele>934.79998779297</ele>
        <time>2022-01-02T09:42:26.202Z</time>
      </trkpt>
      <trkpt lat="44.04296" lon="5.91979">
        <ele>933.79998779297</ele>
        <time>2022-01-02T09:42:31.635Z</time>
      </trkpt>
      <trkpt lat="44.04293" lon="5.91979">
        <ele>933.20001220703</ele>
        <time>2022-01-02T09:42:37.069Z</time>
      </trkpt>
      <trkpt lat="44.04289" lon="5.91977">
        <ele>933</ele>
        <time>2022-01-02T09:42:42.504Z</time>
      </trkpt>
      <trkpt lat="44.04285" lon="5.91975">
        <ele>932.59997558594</ele>
        <time>2022-01-02T09:42:47.941Z</time>
      </trkpt>
      <trkpt lat="44.04277" lon="5.9197">
        <ele>931.79998779297</ele>
        <time>2022-01-02T09:42:53.380Z</time>
      </trkpt>
      <trkpt lat="44.04275" lon="5.91971">
        <ele>931.20001220703</ele>
        <time>2022-01-02T09:42:58.820Z</time>
      </trkpt>
      <trkpt lat="44.04274" lon="5.91975">
        <ele>930.59997558594</ele>
        <time>2022-01-02T09:43:04.261Z</time>
      </trkpt>
      <trkpt lat="44.04275" lon="5.9198">
        <ele>930</ele>
        <time>2022-01-02T09:43:09.703Z</time>
      </trkpt>
      <trkpt lat="44.04279" lon="5.91993">
        <ele>928.59997558594</ele>
        <time>2022-01-02T09:43:15.147Z</time>
      </trkpt>
      <trkpt lat="44.04282" lon="5.91999">
        <ele>927.59997558594</ele>
        <time>2022-01-02T09:43:20.593Z</time>
      </trkpt>
      <trkpt lat="44.0429" lon="5.92006">
        <ele>926</ele>
        <time>2022-01-02T09:43:26.042Z</time>
      </trkpt>
      <trkpt lat="44.04298" lon="5.92012">
        <ele>925.59997558594</ele>
        <time>2022-01-02T09:43:31.493Z</time>
      </trkpt>
      <trkpt lat="44.0431" lon="5.92016">
        <ele>925.40002441406</ele>
        <time>2022-01-02T09:43:36.948Z</time>
      </trkpt>
      <trkpt lat="44.04315" lon="5.92018">
        <ele>925.20001220703</ele>
        <time>2022-01-02T09:43:42.404Z</time>
      </trkpt>
      <trkpt lat="44.04315" lon="5.9202">
        <ele>925</ele>
        <time>2022-01-02T09:43:47.860Z</time>
      </trkpt>
      <trkpt lat="44.0431" lon="5.92028">
        <ele>923.59997558594</ele>
        <time>2022-01-02T09:43:53.318Z</time>
      </trkpt>
      <trkpt lat="44.04307" lon="5.92032">
        <ele>923</ele>
        <time>2022-01-02T09:43:58.778Z</time>
      </trkpt>
      <trkpt lat="44.04304" lon="5.92035">
        <ele>922.40002441406</ele>
        <time>2022-01-02T09:44:04.239Z</time>
      </trkpt>
      <trkpt lat="44.04296" lon="5.92039">
        <ele>921</ele>
        <time>2022-01-02T09:44:09.702Z</time>
      </trkpt>
      <trkpt lat="44.04292" lon="5.92039">
        <ele>920.40002441406</ele>
        <time>2022-01-02T09:44:15.166Z</time>
      </trkpt>
      <trkpt lat="44.04283" lon="5.92038">
        <ele>919.40002441406</ele>
        <time>2022-01-02T09:44:20.633Z</time>
      </trkpt>
      <trkpt lat="44.04279" lon="5.92037">
        <ele>919.20001220703</ele>
        <time>2022-01-02T09:44:26.101Z</time>
      </trkpt>
      <trkpt lat="44.04273" lon="5.92035">
        <ele>918.20001220703</ele>
        <time>2022-01-02T09:44:31.571Z</time>
      </trkpt>
      <trkpt lat="44.04273" lon="5.92037">
        <ele>917.40002441406</ele>
        <time>2022-01-02T09:44:37.041Z</time>
      </trkpt>
      <trkpt lat="44.04275" lon="5.9204">
        <ele>916.79998779297</ele>
        <time>2022-01-02T09:44:42.512Z</time>
      </trkpt>
      <trkpt lat="44.04277" lon="5.92043">
        <ele>916</ele>
        <time>2022-01-02T09:44:47.984Z</time>
      </trkpt>
      <trkpt lat="44.04281" lon="5.92047">
        <ele>915.59997558594</ele>
        <time>2022-01-02T09:44:53.457Z</time>
      </trkpt>
      <trkpt lat="44.04284" lon="5.9205">
        <ele>915</ele>
        <time>2022-01-02T09:44:58.931Z</time>
      </trkpt>
      <trkpt lat="44.04291" lon="5.92056">
        <ele>914.20001220703</ele>
        <time>2022-01-02T09:45:04.407Z</time>
      </trkpt>
      <trkpt lat="44.04295" lon="5.92059">
        <ele>914</ele>
        <time>2022-01-02T09:45:09.885Z</time>
      </trkpt>
      <trkpt lat="44.04299" lon="5.92063">
        <ele>913.59997558594</ele>
        <time>2022-01-02T09:45:15.364Z</time>
      </trkpt>
      <trkpt lat="44.04307" lon="5.92065">
        <ele>913.20001220703</ele>
        <time>2022-01-02T09:45:20.845Z</time>
      </trkpt>
      <trkpt lat="44.04311" lon="5.92065">
        <ele>913</ele>
        <time>2022-01-02T09:45:26.327Z</time>
      </trkpt>
      <trkpt lat="44.04315" lon="5.92064">
        <ele>912.79998779297</ele>
        <time>2022-01-02T09:45:31.811Z</time>
      </trkpt>
      <trkpt lat="44.04319" lon="5.92063">
        <ele>912.59997558594</ele>
        <time>2022-01-02T09:45:37.296Z</time>
      </trkpt>
      <trkpt lat="44.04326" lon="5.92062">
        <ele>912.59997558594</ele>
        <time>2022-01-02T09:45:42.783Z</time>
      </trkpt>
      <trkpt lat="44.04335" lon="5.92058">
        <ele>912</ele>
        <time>2022-01-02T09:45:48.272Z</time>
      </trkpt>
      <trkpt lat="44.04337" lon="5.92058">
        <ele>911.79998779297</ele>
        <time>2022-01-02T09:45:53.762Z</time>
      </trkpt>
      <trkpt lat="44.04344" lon="5.9206">
        <ele>910.79998779297</ele>
        <time>2022-01-02T09:45:59.254Z</time>
      </trkpt>
      <trkpt lat="44.04347" lon="5.9206">
        <ele>910</ele>
        <time>2022-01-02T09:46:04.747Z</time>
      </trkpt>
      <trkpt lat="44.0435" lon="5.92059">
        <ele>909</ele>
        <time>2022-01-02T09:46:10.241Z</time>
      </trkpt>
      <trkpt lat="44.04357" lon="5.92055">
        <ele>906.59997558594</ele>
        <time>2022-01-02T09:46:15.737Z</time>
      </trkpt>
      <trkpt lat="44.0436" lon="5.92054">
        <ele>905.59997558594</ele>
        <time>2022-01-02T09:46:21.234Z</time>
      </trkpt>
      <trkpt lat="44.04362" lon="5.92054">
        <ele>905</ele>
        <time>2022-01-02T09:46:26.731Z</time>
      </trkpt>
      <trkpt lat="44.04365" lon="5.92053">
        <ele>904.40002441406</ele>
        <time>2022-01-02T09:46:32.229Z</time>
      </trkpt>
      <trkpt lat="44.04366" lon="5.92053">
        <ele>903.59997558594</ele>
        <time>2022-01-02T09:46:37.727Z</time>
      </trkpt>
      <trkpt lat="44.04365" lon="5.92056">
        <ele>902.40002441406</ele>
        <time>2022-01-02T09:46:43.226Z</time>
      </trkpt>
      <trkpt lat="44.04364" lon="5.92059">
        <ele>901.79998779297</ele>
        <time>2022-01-02T09:46:48.726Z</time>
      </trkpt>
      <trkpt lat="44.04363" lon="5.92063">
        <ele>900.79998779297</ele>
        <time>2022-01-02T09:46:54.226Z</time>
      </trkpt>
      <trkpt lat="44.04362" lon="5.92068">
        <ele>900.20001220703</ele>
        <time>2022-01-02T09:46:59.727Z</time>
      </trkpt>
      <trkpt lat="44.04359" lon="5.92078">
        <ele>899.40002441406</ele>
        <time>2022-01-02T09:47:05.231Z</time>
      </trkpt>
      <trkpt lat="44.04356" lon="5.92088">
        <ele>898</ele>
        <time>2022-01-02T09:47:10.737Z</time>
      </trkpt>
      <trkpt lat="44.04354" lon="5.92094">
        <ele>897.40002441406</ele>
        <time>2022-01-02T09:47:16.244Z</time>
      </trkpt>
      <trkpt lat="44.04352" lon="5.92099">
        <ele>897</ele>
        <time>2022-01-02T09:47:21.752Z</time>
      </trkpt>
      <trkpt lat="44.04349" lon="5.92104">
        <ele>896</ele>
        <time>2022-01-02T09:47:27.262Z</time>
      </trkpt>
      <trkpt lat="44.04343" lon="5.92115">
        <ele>894.40002441406</ele>
        <time>2022-01-02T09:47:32.775Z</time>
      </trkpt>
      <trkpt lat="44.04338" lon="5.92126">
        <ele>893.40002441406</ele>
        <time>2022-01-02T09:47:38.290Z</time>
      </trkpt>
      <trkpt lat="44.04332" lon="5.92138">
        <ele>892.20001220703</ele>
        <time>2022-01-02T09:47:43.808Z</time>
      </trkpt>
      <trkpt lat="44.04328" lon="5.92143">
        <ele>891.59997558594</ele>
        <time>2022-01-02T09:47:49.328Z</time>
      </trkpt>
      <trkpt lat="44.04325" lon="5.92146">
        <ele>890.79998779297</ele>
        <time>2022-01-02T09:47:54.849Z</time>
      </trkpt>
      <trkpt lat="44.04315" lon="5.92152">
        <ele>889.59997558594</ele>
        <time>2022-01-02T09:48:00.373Z</time>
      </trkpt>
      <trkpt lat="44.04311" lon="5.92155">
        <ele>889.40002441406</ele>
        <time>2022-01-02T09:48:05.898Z</time>
      </trkpt>
      <trkpt lat="44.04298" lon="5.92158">
        <ele>888.59997558594</ele>
        <time>2022-01-02T09:48:11.427Z</time>
      </trkpt>
      <trkpt lat="44.04282" lon="5.92158">
        <ele>887.40002441406</ele>
        <time>2022-01-02T09:48:16.960Z</time>
      </trkpt>
      <trkpt lat="44.04271" lon="5.92152">
        <ele>886.59997558594</ele>
        <time>2022-01-02T09:48:22.496Z</time>
      </trkpt>
      <trkpt lat="44.04268" lon="5.9215">
        <ele>886.59997558594</ele>
        <time>2022-01-02T09:48:28.034Z</time>
      </trkpt>
      <trkpt lat="44.04259" lon="5.92144">
        <ele>886.40002441406</ele>
        <time>2022-01-02T09:48:33.574Z</time>
      </trkpt>
      <trkpt lat="44.04252" lon="5.92135">
        <ele>886.20001220703</ele>
        <time>2022-01-02T09:48:39.117Z</time>
      </trkpt>
      <trkpt lat="44.04247" lon="5.92123">
        <ele>886</ele>
        <time>2022-01-02T09:48:44.663Z</time>
      </trkpt>
      <trkpt lat="44.04243" lon="5.92126">
        <ele>885.40002441406</ele>
        <time>2022-01-02T09:48:50.210Z</time>
      </trkpt>
      <trkpt lat="44.0424" lon="5.92129">
        <ele>884.79998779297</ele>
        <time>2022-01-02T09:48:55.758Z</time>
      </trkpt>
      <trkpt lat="44.0423" lon="5.92135">
        <ele>884</ele>
        <time>2022-01-02T09:49:01.309Z</time>
      </trkpt>
      <trkpt lat="44.04228" lon="5.92134">
        <ele>883.59997558594</ele>
        <time>2022-01-02T09:49:06.861Z</time>
      </trkpt>
      <trkpt lat="44.04222" lon="5.9213">
        <ele>882.59997558594</ele>
        <time>2022-01-02T09:49:12.415Z</time>
      </trkpt>
      <trkpt lat="44.04221" lon="5.92129">
        <ele>882</ele>
        <time>2022-01-02T09:49:17.969Z</time>
      </trkpt>
      <trkpt lat="44.04219" lon="5.92133">
        <ele>881.40002441406</ele>
        <time>2022-01-02T09:49:23.524Z</time>
      </trkpt>
      <trkpt lat="44.04209" lon="5.92141">
        <ele>881.40002441406</ele>
        <time>2022-01-02T09:49:29.082Z</time>
      </trkpt>
      <trkpt lat="44.04205" lon="5.92144">
        <ele>881.40002441406</ele>
        <time>2022-01-02T09:49:34.642Z</time>
      </trkpt>
      <trkpt lat="44.04186" lon="5.92158">
        <ele>882</ele>
        <time>2022-01-02T09:49:40.208Z</time>
      </trkpt>
      <trkpt lat="44.04177" lon="5.92165">
        <ele>881.59997558594</ele>
        <time>2022-01-02T09:49:45.777Z</time>
      </trkpt>
      <trkpt lat="44.04169" lon="5.92173">
        <ele>881.20001220703</ele>
        <time>2022-01-02T09:49:51.348Z</time>
      </trkpt>
      <trkpt lat="44.04166" lon="5.92176">
        <ele>881.20001220703</ele>
        <time>2022-01-02T09:49:56.920Z</time>
      </trkpt>
      <trkpt lat="44.04153" lon="5.9219">
        <ele>881.79998779297</ele>
        <time>2022-01-02T09:50:02.497Z</time>
      </trkpt>
      <trkpt lat="44.04149" lon="5.92194">
        <ele>882</ele>
        <time>2022-01-02T09:50:08.075Z</time>
      </trkpt>
      <trkpt lat="44.04146" lon="5.92199">
        <ele>882.20001220703</ele>
        <time>2022-01-02T09:50:13.655Z</time>
      </trkpt>
      <trkpt lat="44.04138" lon="5.92207">
        <ele>882.40002441406</ele>
        <time>2022-01-02T09:50:19.237Z</time>
      </trkpt>
      <trkpt lat="44.04127" lon="5.92224">
        <ele>883.20001220703</ele>
        <time>2022-01-02T09:50:24.824Z</time>
      </trkpt>
      <trkpt lat="44.04121" lon="5.92234">
        <ele>882.79998779297</ele>
        <time>2022-01-02T09:50:30.414Z</time>
      </trkpt>
      <trkpt lat="44.04118" lon="5.92238">
        <ele>882.40002441406</ele>
        <time>2022-01-02T09:50:36.005Z</time>
      </trkpt>
      <trkpt lat="44.04103" lon="5.9224">
        <ele>880.79998779297</ele>
        <time>2022-01-02T09:50:41.600Z</time>
      </trkpt>
      <trkpt lat="44.04098" lon="5.9224">
        <ele>879.59997558594</ele>
        <time>2022-01-02T09:50:47.197Z</time>
      </trkpt>
      <trkpt lat="44.04093" lon="5.92241">
        <ele>878.40002441406</ele>
        <time>2022-01-02T09:50:52.795Z</time>
      </trkpt>
      <trkpt lat="44.04088" lon="5.92243">
        <ele>877.40002441406</ele>
        <time>2022-01-02T09:50:58.394Z</time>
      </trkpt>
      <trkpt lat="44.04083" lon="5.92244">
        <ele>876</ele>
        <time>2022-01-02T09:51:03.995Z</time>
      </trkpt>
      <trkpt lat="44.04073" lon="5.92244">
        <ele>874</ele>
        <time>2022-01-02T09:51:09.599Z</time>
      </trkpt>
      <trkpt lat="44.04069" lon="5.92244">
        <ele>873.20001220703</ele>
        <time>2022-01-02T09:51:15.204Z</time>
      </trkpt>
      <trkpt lat="44.04064" lon="5.92244">
        <ele>872.40002441406</ele>
        <time>2022-01-02T09:51:20.810Z</time>
      </trkpt>
      <trkpt lat="44.04058" lon="5.92241">
        <ele>871.20001220703</ele>
        <time>2022-01-02T09:51:26.418Z</time>
      </trkpt>
      <trkpt lat="44.04056" lon="5.9224">
        <ele>871</ele>
        <time>2022-01-02T09:51:32.027Z</time>
      </trkpt>
      <trkpt lat="44.04055" lon="5.92238">
        <ele>870.59997558594</ele>
        <time>2022-01-02T09:51:37.636Z</time>
      </trkpt>
      <trkpt lat="44.04054" lon="5.92235">
        <ele>870.59997558594</ele>
        <time>2022-01-02T09:51:43.246Z</time>
      </trkpt>
      <trkpt lat="44.04052" lon="5.92235">
        <ele>870.40002441406</ele>
        <time>2022-01-02T09:51:48.856Z</time>
      </trkpt>
      <trkpt lat="44.04049" lon="5.92239">
        <ele>870.40002441406</ele>
        <time>2022-01-02T09:51:54.467Z</time>
      </trkpt>
      <trkpt lat="44.04046" lon="5.92245">
        <ele>870</ele>
        <time>2022-01-02T09:52:00.080Z</time>
      </trkpt>
      <trkpt lat="44.04042" lon="5.92254">
        <ele>869.59997558594</ele>
        <time>2022-01-02T09:52:05.695Z</time>
      </trkpt>
      <trkpt lat="44.0404" lon="5.92272">
        <ele>869</ele>
        <time>2022-01-02T09:52:11.314Z</time>
      </trkpt>
      <trkpt lat="44.04037" lon="5.92282">
        <ele>868.79998779297</ele>
        <time>2022-01-02T09:52:16.935Z</time>
      </trkpt>
      <trkpt lat="44.04034" lon="5.92296">
        <ele>869</ele>
        <time>2022-01-02T09:52:22.559Z</time>
      </trkpt>
      <trkpt lat="44.04032" lon="5.9231">
        <ele>869</ele>
        <time>2022-01-02T09:52:28.186Z</time>
      </trkpt>
      <trkpt lat="44.0403" lon="5.92327">
        <ele>869.59997558594</ele>
        <time>2022-01-02T09:52:33.816Z</time>
      </trkpt>
      <trkpt lat="44.04028" lon="5.9234">
        <ele>870</ele>
        <time>2022-01-02T09:52:39.449Z</time>
      </trkpt>
      <trkpt lat="44.04026" lon="5.92363">
        <ele>871</ele>
        <time>2022-01-02T09:52:45.087Z</time>
      </trkpt>
      <trkpt lat="44.04025" lon="5.92369">
        <ele>871.40002441406</ele>
        <time>2022-01-02T09:52:50.726Z</time>
      </trkpt>
      <trkpt lat="44.04026" lon="5.92385">
        <ele>872.59997558594</ele>
        <time>2022-01-02T09:52:56.368Z</time>
      </trkpt>
      <trkpt lat="44.04026" lon="5.9239">
        <ele>873.20001220703</ele>
        <time>2022-01-02T09:53:02.011Z</time>
      </trkpt>
      <trkpt lat="44.04027" lon="5.92395">
        <ele>873.59997558594</ele>
        <time>2022-01-02T09:53:07.655Z</time>
      </trkpt>
      <trkpt lat="44.0403" lon="5.92405">
        <ele>875</ele>
        <time>2022-01-02T09:53:13.301Z</time>
      </trkpt>
      <trkpt lat="44.04032" lon="5.92413">
        <ele>875.79998779297</ele>
        <time>2022-01-02T09:53:18.949Z</time>
      </trkpt>
      <trkpt lat="44.04033" lon="5.92416">
        <ele>876.40002441406</ele>
        <time>2022-01-02T09:53:24.598Z</time>
      </trkpt>
      <trkpt lat="44.04035" lon="5.92423">
        <ele>877.59997558594</ele>
        <time>2022-01-02T09:53:30.248Z</time>
      </trkpt>
      <trkpt lat="44.04038" lon="5.92429">
        <ele>879</ele>
        <time>2022-01-02T09:53:35.900Z</time>
      </trkpt>
      <trkpt lat="44.0404" lon="5.92437">
        <ele>879.79998779297</ele>
        <time>2022-01-02T09:53:41.554Z</time>
      </trkpt>
      <trkpt lat="44.0404" lon="5.92442">
        <ele>880</ele>
        <time>2022-01-02T09:53:47.209Z</time>
      </trkpt>
      <trkpt lat="44.04039" lon="5.92451">
        <ele>881.40002441406</ele>
        <time>2022-01-02T09:53:52.865Z</time>
      </trkpt>
      <trkpt lat="44.04039" lon="5.92454">
        <ele>882</ele>
        <time>2022-01-02T09:53:58.522Z</time>
      </trkpt>
      <trkpt lat="44.04037" lon="5.92457">
        <ele>882.40002441406</ele>
        <time>2022-01-02T09:54:04.180Z</time>
      </trkpt>
      <trkpt lat="44.04036" lon="5.92459">
        <ele>883</ele>
        <time>2022-01-02T09:54:09.838Z</time>
      </trkpt>
      <trkpt lat="44.04034" lon="5.9246">
        <ele>883.40002441406</ele>
        <time>2022-01-02T09:54:15.497Z</time>
      </trkpt>
      <trkpt lat="44.0403" lon="5.92458">
        <ele>883.59997558594</ele>
        <time>2022-01-02T09:54:21.157Z</time>
      </trkpt>
      <trkpt lat="44.04028" lon="5.92457">
        <ele>883.79998779297</ele>
        <time>2022-01-02T09:54:26.818Z</time>
      </trkpt>
      <trkpt lat="44.04022" lon="5.92456">
        <ele>884.40002441406</ele>
        <time>2022-01-02T09:54:32.481Z</time>
      </trkpt>
      <trkpt lat="44.04018" lon="5.92454">
        <ele>884.79998779297</ele>
        <time>2022-01-02T09:54:38.145Z</time>
      </trkpt>
      <trkpt lat="44.04015" lon="5.92453">
        <ele>885.40002441406</ele>
        <time>2022-01-02T09:54:43.809Z</time>
      </trkpt>
      <trkpt lat="44.04015" lon="5.92452">
        <ele>885.59997558594</ele>
        <time>2022-01-02T09:54:49.474Z</time>
      </trkpt>
      <trkpt lat="44.04015" lon="5.92452">
        <ele>885.79998779297</ele>
        <time>2022-01-02T09:54:55.139Z</time>
      </trkpt>
      <trkpt lat="44.04011" lon="5.92455">
        <ele>886.20001220703</ele>
        <time>2022-01-02T09:55:00.805Z</time>
      </trkpt>
      <trkpt lat="44.0401" lon="5.92457">
        <ele>886.20001220703</ele>
        <time>2022-01-02T09:55:06.471Z</time>
      </trkpt>
      <trkpt lat="44.03996" lon="5.92466">
        <ele>887.20001220703</ele>
        <time>2022-01-02T09:55:12.142Z</time>
      </trkpt>
      <trkpt lat="44.03993" lon="5.92467">
        <ele>887.40002441406</ele>
        <time>2022-01-02T09:55:17.813Z</time>
      </trkpt>
      <trkpt lat="44.03984" lon="5.92471">
        <ele>888.40002441406</ele>
        <time>2022-01-02T09:55:23.487Z</time>
      </trkpt>
      <trkpt lat="44.03982" lon="5.92472">
        <ele>888.79998779297</ele>
        <time>2022-01-02T09:55:29.162Z</time>
      </trkpt>
      <trkpt lat="44.03971" lon="5.92479">
        <ele>889.40002441406</ele>
        <time>2022-01-02T09:55:34.840Z</time>
      </trkpt>
      <trkpt lat="44.03961" lon="5.92487">
        <ele>889.79998779297</ele>
        <time>2022-01-02T09:55:40.522Z</time>
      </trkpt>
      <trkpt lat="44.03958" lon="5.92489">
        <ele>890</ele>
        <time>2022-01-02T09:55:46.205Z</time>
      </trkpt>
      <trkpt lat="44.03943" lon="5.92499">
        <ele>890.40002441406</ele>
        <time>2022-01-02T09:55:51.892Z</time>
      </trkpt>
      <trkpt lat="44.03935" lon="5.92505">
        <ele>891</ele>
        <time>2022-01-02T09:55:57.582Z</time>
      </trkpt>
      <trkpt lat="44.03926" lon="5.9251">
        <ele>891.79998779297</ele>
        <time>2022-01-02T09:56:03.275Z</time>
      </trkpt>
      <trkpt lat="44.03922" lon="5.92509">
        <ele>892.20001220703</ele>
        <time>2022-01-02T09:56:08.968Z</time>
      </trkpt>
      <trkpt lat="44.03919" lon="5.92507">
        <ele>892.20001220703</ele>
        <time>2022-01-02T09:56:14.662Z</time>
      </trkpt>
      <trkpt lat="44.03916" lon="5.92503">
        <ele>892.20001220703</ele>
        <time>2022-01-02T09:56:20.357Z</time>
      </trkpt>
      <trkpt lat="44.03905" lon="5.9248">
        <ele>891.59997558594</ele>
        <time>2022-01-02T09:56:26.058Z</time>
      </trkpt>
      <trkpt lat="44.0389" lon="5.92451">
        <ele>891.59997558594</ele>
        <time>2022-01-02T09:56:31.766Z</time>
      </trkpt>
      <trkpt lat="44.03873" lon="5.92417">
        <ele>891.59997558594</ele>
        <time>2022-01-02T09:56:37.483Z</time>
      </trkpt>
      <trkpt lat="44.03853" lon="5.9238">
        <ele>891.79998779297</ele>
        <time>2022-01-02T09:56:43.209Z</time>
      </trkpt>
      <trkpt lat="44.03846" lon="5.92369">
        <ele>892</ele>
        <time>2022-01-02T09:56:48.938Z</time>
      </trkpt>
      <trkpt lat="44.03838" lon="5.92361">
        <ele>892.79998779297</ele>
        <time>2022-01-02T09:56:54.670Z</time>
      </trkpt>
      <trkpt lat="44.0383" lon="5.92354">
        <ele>893.40002441406</ele>
        <time>2022-01-02T09:57:00.405Z</time>
      </trkpt>
      <trkpt lat="44.03826" lon="5.9235">
        <ele>893.59997558594</ele>
        <time>2022-01-02T09:57:06.141Z</time>
      </trkpt>
      <trkpt lat="44.03812" lon="5.92341">
        <ele>894</ele>
        <time>2022-01-02T09:57:11.881Z</time>
      </trkpt>
      <trkpt lat="44.03796" lon="5.92336">
        <ele>894.40002441406</ele>
        <time>2022-01-02T09:57:17.626Z</time>
      </trkpt>
      <trkpt lat="44.03785" lon="5.92334">
        <ele>894.40002441406</ele>
        <time>2022-01-02T09:57:23.374Z</time>
      </trkpt>
      <trkpt lat="44.03775" lon="5.92331">
        <ele>894.40002441406</ele>
        <time>2022-01-02T09:57:29.125Z</time>
      </trkpt>
      <trkpt lat="44.03755" lon="5.92324">
        <ele>894.20001220703</ele>
        <time>2022-01-02T09:57:34.882Z</time>
      </trkpt>
      <trkpt lat="44.03738" lon="5.9232">
        <ele>893.20001220703</ele>
        <time>2022-01-02T09:57:40.644Z</time>
      </trkpt>
      <trkpt lat="44.03732" lon="5.92318">
        <ele>893</ele>
        <time>2022-01-02T09:57:46.407Z</time>
      </trkpt>
      <trkpt lat="44.03726" lon="5.92315">
        <ele>892.79998779297</ele>
        <time>2022-01-02T09:57:52.172Z</time>
      </trkpt>
      <trkpt lat="44.03714" lon="5.92306">
        <ele>891.79998779297</ele>
        <time>2022-01-02T09:57:57.941Z</time>
      </trkpt>
      <trkpt lat="44.03708" lon="5.92301">
        <ele>891.40002441406</ele>
        <time>2022-01-02T09:58:03.712Z</time>
      </trkpt>
      <trkpt lat="44.03703" lon="5.92296">
        <ele>890.79998779297</ele>
        <time>2022-01-02T09:58:09.485Z</time>
      </trkpt>
      <trkpt lat="44.03698" lon="5.92292">
        <ele>890</ele>
        <time>2022-01-02T09:58:15.259Z</time>
      </trkpt>
      <trkpt lat="44.03694" lon="5.92289">
        <ele>889.59997558594</ele>
        <time>2022-01-02T09:58:21.035Z</time>
      </trkpt>
      <trkpt lat="44.03683" lon="5.9229">
        <ele>888.79998779297</ele>
        <time>2022-01-02T09:58:26.814Z</time>
      </trkpt>
      <trkpt lat="44.03678" lon="5.92292">
        <ele>888.20001220703</ele>
        <time>2022-01-02T09:58:32.594Z</time>
      </trkpt>
      <trkpt lat="44.03673" lon="5.92293">
        <ele>887</ele>
        <time>2022-01-02T09:58:38.376Z</time>
      </trkpt>
      <trkpt lat="44.03665" lon="5.92301">
        <ele>885.20001220703</ele>
        <time>2022-01-02T09:58:44.160Z</time>
      </trkpt>
      <trkpt lat="44.03662" lon="5.92308">
        <ele>884</ele>
        <time>2022-01-02T09:58:49.946Z</time>
      </trkpt>
      <trkpt lat="44.0366" lon="5.92314">
        <ele>883.20001220703</ele>
        <time>2022-01-02T09:58:55.733Z</time>
      </trkpt>
      <trkpt lat="44.03659" lon="5.92319">
        <ele>882.59997558594</ele>
        <time>2022-01-02T09:59:01.521Z</time>
      </trkpt>
      <trkpt lat="44.03658" lon="5.92324">
        <ele>881.59997558594</ele>
        <time>2022-01-02T09:59:07.310Z</time>
      </trkpt>
      <trkpt lat="44.03656" lon="5.9233">
        <ele>881.20001220703</ele>
        <time>2022-01-02T09:59:13.101Z</time>
      </trkpt>
      <trkpt lat="44.03656" lon="5.92336">
        <ele>880.40002441406</ele>
        <time>2022-01-02T09:59:18.893Z</time>
      </trkpt>
      <trkpt lat="44.03657" lon="5.9234">
        <ele>879.40002441406</ele>
        <time>2022-01-02T09:59:24.686Z</time>
      </trkpt>
      <trkpt lat="44.0366" lon="5.92345">
        <ele>878.40002441406</ele>
        <time>2022-01-02T09:59:30.480Z</time>
      </trkpt>
      <trkpt lat="44.03668" lon="5.92355">
        <ele>877.20001220703</ele>
        <time>2022-01-02T09:59:36.277Z</time>
      </trkpt>
      <trkpt lat="44.03675" lon="5.92369">
        <ele>876.59997558594</ele>
        <time>2022-01-02T09:59:42.078Z</time>
      </trkpt>
      <trkpt lat="44.03677" lon="5.92375">
        <ele>875.79998779297</ele>
        <time>2022-01-02T09:59:47.880Z</time>
      </trkpt>
      <trkpt lat="44.03676" lon="5.92379">
        <ele>875</ele>
        <time>2022-01-02T09:59:53.683Z</time>
      </trkpt>
      <trkpt lat="44.03674" lon="5.92382">
        <ele>874</ele>
        <time>2022-01-02T09:59:59.487Z</time>
      </trkpt>
      <trkpt lat="44.0367" lon="5.92384">
        <ele>872.79998779297</ele>
        <time>2022-01-02T10:00:05.292Z</time>
      </trkpt>
      <trkpt lat="44.03665" lon="5.92385">
        <ele>871.79998779297</ele>
        <time>2022-01-02T10:00:11.098Z</time>
      </trkpt>
      <trkpt lat="44.03653" lon="5.92383">
        <ele>870.40002441406</ele>
        <time>2022-01-02T10:00:16.908Z</time>
      </trkpt>
      <trkpt lat="44.0364" lon="5.9238">
        <ele>870</ele>
        <time>2022-01-02T10:00:22.721Z</time>
      </trkpt>
      <trkpt lat="44.03619" lon="5.9238">
        <ele>870.59997558594</ele>
        <time>2022-01-02T10:00:28.540Z</time>
      </trkpt>
      <trkpt lat="44.03613" lon="5.92389">
        <ele>871</ele>
        <time>2022-01-02T10:00:34.362Z</time>
      </trkpt>
      <trkpt lat="44.03604" lon="5.92407">
        <ele>869.40002441406</ele>
        <time>2022-01-02T10:00:40.188Z</time>
      </trkpt>
      <trkpt lat="44.036" lon="5.92411">
        <ele>868.20001220703</ele>
        <time>2022-01-02T10:00:46.016Z</time>
      </trkpt>
      <trkpt lat="44.03591" lon="5.92419">
        <ele>867.20001220703</ele>
        <time>2022-01-02T10:00:51.847Z</time>
      </trkpt>
      <trkpt lat="44.03586" lon="5.92424">
        <ele>866.79998779297</ele>
        <time>2022-01-02T10:00:57.679Z</time>
      </trkpt>
      <trkpt lat="44.03581" lon="5.92427">
        <ele>866.20001220703</ele>
        <time>2022-01-02T10:01:03.513Z</time>
      </trkpt>
      <trkpt lat="44.03573" lon="5.9243">
        <ele>865</ele>
        <time>2022-01-02T10:01:09.349Z</time>
      </trkpt>
      <trkpt lat="44.0357" lon="5.92432">
        <ele>864.59997558594</ele>
        <time>2022-01-02T10:01:15.186Z</time>
      </trkpt>
      <trkpt lat="44.03571" lon="5.92437">
        <ele>863.59997558594</ele>
        <time>2022-01-02T10:01:21.024Z</time>
      </trkpt>
      <trkpt lat="44.03574" lon="5.92442">
        <ele>863.20001220703</ele>
        <time>2022-01-02T10:01:26.863Z</time>
      </trkpt>
      <trkpt lat="44.03576" lon="5.92446">
        <ele>862.59997558594</ele>
        <time>2022-01-02T10:01:32.703Z</time>
      </trkpt>
      <trkpt lat="44.03579" lon="5.92449">
        <ele>861.40002441406</ele>
        <time>2022-01-02T10:01:38.544Z</time>
      </trkpt>
      <trkpt lat="44.03583" lon="5.92452">
        <ele>859.79998779297</ele>
        <time>2022-01-02T10:01:44.387Z</time>
      </trkpt>
      <trkpt lat="44.03587" lon="5.92455">
        <ele>858.59997558594</ele>
        <time>2022-01-02T10:01:50.231Z</time>
      </trkpt>
      <trkpt lat="44.0359" lon="5.92458">
        <ele>857.20001220703</ele>
        <time>2022-01-02T10:01:56.076Z</time>
      </trkpt>
      <trkpt lat="44.03594" lon="5.9246">
        <ele>856.20001220703</ele>
        <time>2022-01-02T10:02:01.922Z</time>
      </trkpt>
      <trkpt lat="44.03597" lon="5.92461">
        <ele>855.20001220703</ele>
        <time>2022-01-02T10:02:07.769Z</time>
      </trkpt>
      <trkpt lat="44.03596" lon="5.92467">
        <ele>853.40002441406</ele>
        <time>2022-01-02T10:02:13.617Z</time>
      </trkpt>
      <trkpt lat="44.03587" lon="5.92473">
        <ele>851.79998779297</ele>
        <time>2022-01-02T10:02:19.468Z</time>
      </trkpt>
      <trkpt lat="44.03582" lon="5.92477">
        <ele>851</ele>
        <time>2022-01-02T10:02:25.321Z</time>
      </trkpt>
      <trkpt lat="44.03577" lon="5.92479">
        <ele>850.79998779297</ele>
        <time>2022-01-02T10:02:31.175Z</time>
      </trkpt>
      <trkpt lat="44.0357" lon="5.92484">
        <ele>849.40002441406</ele>
        <time>2022-01-02T10:02:37.031Z</time>
      </trkpt>
      <trkpt lat="44.03567" lon="5.92488">
        <ele>849</ele>
        <time>2022-01-02T10:02:42.888Z</time>
      </trkpt>
      <trkpt lat="44.03568" lon="5.92494">
        <ele>848.40002441406</ele>
        <time>2022-01-02T10:02:48.747Z</time>
      </trkpt>
      <trkpt lat="44.03569" lon="5.92499">
        <ele>846.79998779297</ele>
        <time>2022-01-02T10:02:54.607Z</time>
      </trkpt>
      <trkpt lat="44.03569" lon="5.92503">
        <ele>845.40002441406</ele>
        <time>2022-01-02T10:03:00.467Z</time>
      </trkpt>
      <trkpt lat="44.03568" lon="5.92506">
        <ele>844</ele>
        <time>2022-01-02T10:03:06.328Z</time>
      </trkpt>
      <trkpt lat="44.03565" lon="5.92509">
        <ele>842.79998779297</ele>
        <time>2022-01-02T10:03:12.190Z</time>
      </trkpt>
      <trkpt lat="44.03562" lon="5.92512">
        <ele>842</ele>
        <time>2022-01-02T10:03:18.053Z</time>
      </trkpt>
      <trkpt lat="44.03558" lon="5.92515">
        <ele>840.59997558594</ele>
        <time>2022-01-02T10:03:23.917Z</time>
      </trkpt>
      <trkpt lat="44.03554" lon="5.92517">
        <ele>839.59997558594</ele>
        <time>2022-01-02T10:03:29.783Z</time>
      </trkpt>
      <trkpt lat="44.0355" lon="5.92518">
        <ele>838.79998779297</ele>
        <time>2022-01-02T10:03:35.650Z</time>
      </trkpt>
      <trkpt lat="44.03545" lon="5.92518">
        <ele>838</ele>
        <time>2022-01-02T10:03:41.518Z</time>
      </trkpt>
      <trkpt lat="44.03536" lon="5.92519">
        <ele>837.20001220703</ele>
        <time>2022-01-02T10:03:47.389Z</time>
      </trkpt>
      <trkpt lat="44.03531" lon="5.92521">
        <ele>836.79998779297</ele>
        <time>2022-01-02T10:03:53.261Z</time>
      </trkpt>
      <trkpt lat="44.03526" lon="5.92525">
        <ele>835.79998779297</ele>
        <time>2022-01-02T10:03:59.135Z</time>
      </trkpt>
      <trkpt lat="44.03522" lon="5.92527">
        <ele>834</ele>
        <time>2022-01-02T10:04:05.010Z</time>
      </trkpt>
      <trkpt lat="44.03518" lon="5.92529">
        <ele>832.59997558594</ele>
        <time>2022-01-02T10:04:10.886Z</time>
      </trkpt>
      <trkpt lat="44.03514" lon="5.92529">
        <ele>831.79998779297</ele>
        <time>2022-01-02T10:04:16.763Z</time>
      </trkpt>
      <trkpt lat="44.03511" lon="5.92531">
        <ele>831.20001220703</ele>
        <time>2022-01-02T10:04:22.641Z</time>
      </trkpt>
      <trkpt lat="44.03501" lon="5.92533">
        <ele>830</ele>
        <time>2022-01-02T10:04:28.522Z</time>
      </trkpt>
      <trkpt lat="44.03496" lon="5.92532">
        <ele>829.59997558594</ele>
        <time>2022-01-02T10:04:34.404Z</time>
      </trkpt>
      <trkpt lat="44.03488" lon="5.9253">
        <ele>828.79998779297</ele>
        <time>2022-01-02T10:04:40.289Z</time>
      </trkpt>
      <trkpt lat="44.03482" lon="5.9253">
        <ele>828</ele>
        <time>2022-01-02T10:04:46.175Z</time>
      </trkpt>
      <trkpt lat="44.03479" lon="5.9253">
        <ele>827.40002441406</ele>
        <time>2022-01-02T10:04:52.062Z</time>
      </trkpt>
      <trkpt lat="44.03474" lon="5.92532">
        <ele>826.20001220703</ele>
        <time>2022-01-02T10:04:57.951Z</time>
      </trkpt>
      <trkpt lat="44.03467" lon="5.9253">
        <ele>824.79998779297</ele>
        <time>2022-01-02T10:05:03.842Z</time>
      </trkpt>
      <trkpt lat="44.03454" lon="5.92517">
        <ele>824.20001220703</ele>
        <time>2022-01-02T10:05:09.737Z</time>
      </trkpt>
      <trkpt lat="44.03446" lon="5.92503">
        <ele>825</ele>
        <time>2022-01-02T10:05:15.636Z</time>
      </trkpt>
      <trkpt lat="44.03443" lon="5.92494">
        <ele>826.40002441406</ele>
        <time>2022-01-02T10:05:21.537Z</time>
      </trkpt>
      <trkpt lat="44.03442" lon="5.9249">
        <ele>827</ele>
        <time>2022-01-02T10:05:27.439Z</time>
      </trkpt>
      <trkpt lat="44.0344" lon="5.92487">
        <ele>827.40002441406</ele>
        <time>2022-01-02T10:05:33.342Z</time>
      </trkpt>
      <trkpt lat="44.03437" lon="5.92479">
        <ele>829</ele>
        <time>2022-01-02T10:05:39.246Z</time>
      </trkpt>
      <trkpt lat="44.03435" lon="5.92477">
        <ele>829.59997558594</ele>
        <time>2022-01-02T10:05:45.151Z</time>
      </trkpt>
      <trkpt lat="44.03432" lon="5.92475">
        <ele>830</ele>
        <time>2022-01-02T10:05:51.057Z</time>
      </trkpt>
      <trkpt lat="44.0343" lon="5.92477">
        <ele>830.40002441406</ele>
        <time>2022-01-02T10:05:56.964Z</time>
      </trkpt>
      <trkpt lat="44.03424" lon="5.92491">
        <ele>831.20001220703</ele>
        <time>2022-01-02T10:06:02.874Z</time>
      </trkpt>
      <trkpt lat="44.03418" lon="5.92505">
        <ele>831.79998779297</ele>
        <time>2022-01-02T10:06:08.787Z</time>
      </trkpt>
      <trkpt lat="44.03416" lon="5.92507">
        <ele>832</ele>
        <time>2022-01-02T10:06:14.701Z</time>
      </trkpt>
      <trkpt lat="44.03413" lon="5.92511">
        <ele>832.40002441406</ele>
        <time>2022-01-02T10:06:20.616Z</time>
      </trkpt>
      <trkpt lat="44.03412" lon="5.92512">
        <ele>832.20001220703</ele>
        <time>2022-01-02T10:06:26.532Z</time>
      </trkpt>
      <trkpt lat="44.03407" lon="5.92516">
        <ele>832.40002441406</ele>
        <time>2022-01-02T10:06:32.449Z</time>
      </trkpt>
      <trkpt lat="44.03402" lon="5.9252">
        <ele>832.40002441406</ele>
        <time>2022-01-02T10:06:38.368Z</time>
      </trkpt>
      <trkpt lat="44.03391" lon="5.92524">
        <ele>831.20001220703</ele>
        <time>2022-01-02T10:06:44.290Z</time>
      </trkpt>
      <trkpt lat="44.0338" lon="5.9253">
        <ele>830</ele>
        <time>2022-01-02T10:06:50.215Z</time>
      </trkpt>
      <trkpt lat="44.03377" lon="5.92531">
        <ele>829.20001220703</ele>
        <time>2022-01-02T10:06:56.141Z</time>
      </trkpt>
      <trkpt lat="44.03373" lon="5.92533">
        <ele>828.79998779297</ele>
        <time>2022-01-02T10:07:02.069Z</time>
      </trkpt>
      <trkpt lat="44.03365" lon="5.92536">
        <ele>827.59997558594</ele>
        <time>2022-01-02T10:07:07.999Z</time>
      </trkpt>
      <trkpt lat="44.03361" lon="5.9254">
        <ele>827.20001220703</ele>
        <time>2022-01-02T10:07:13.930Z</time>
      </trkpt>
      <trkpt lat="44.03357" lon="5.92551">
        <ele>826.40002441406</ele>
        <time>2022-01-02T10:07:19.864Z</time>
      </trkpt>
      <trkpt lat="44.03359" lon="5.92554">
        <ele>825.79998779297</ele>
        <time>2022-01-02T10:07:25.798Z</time>
      </trkpt>
      <trkpt lat="44.03361" lon="5.92557">
        <ele>824.59997558594</ele>
        <time>2022-01-02T10:07:31.733Z</time>
      </trkpt>
      <trkpt lat="44.03366" lon="5.92558">
        <ele>823.40002441406</ele>
        <time>2022-01-02T10:07:37.670Z</time>
      </trkpt>
      <trkpt lat="44.0337" lon="5.92559">
        <ele>822.79998779297</ele>
        <time>2022-01-02T10:07:43.608Z</time>
      </trkpt>
      <trkpt lat="44.03374" lon="5.9256">
        <ele>822.40002441406</ele>
        <time>2022-01-02T10:07:49.547Z</time>
      </trkpt>
      <trkpt lat="44.03385" lon="5.92565">
        <ele>821.20001220703</ele>
        <time>2022-01-02T10:07:55.489Z</time>
      </trkpt>
      <trkpt lat="44.03389" lon="5.92566">
        <ele>820.40002441406</ele>
        <time>2022-01-02T10:08:01.432Z</time>
      </trkpt>
      <trkpt lat="44.03391" lon="5.92566">
        <ele>820</ele>
        <time>2022-01-02T10:08:07.376Z</time>
      </trkpt>
      <trkpt lat="44.03393" lon="5.92567">
        <ele>819.59997558594</ele>
        <time>2022-01-02T10:08:13.320Z</time>
      </trkpt>
      <trkpt lat="44.03393" lon="5.9257">
        <ele>819.40002441406</ele>
        <time>2022-01-02T10:08:19.265Z</time>
      </trkpt>
      <trkpt lat="44.03392" lon="5.92573">
        <ele>818.79998779297</ele>
        <time>2022-01-02T10:08:25.211Z</time>
      </trkpt>
      <trkpt lat="44.03389" lon="5.92578">
        <ele>817.79998779297</ele>
        <time>2022-01-02T10:08:31.158Z</time>
      </trkpt>
      <trkpt lat="44.03383" lon="5.92587">
        <ele>816.20001220703</ele>
        <time>2022-01-02T10:08:37.108Z</time>
      </trkpt>
      <trkpt lat="44.03379" lon="5.92592">
        <ele>815.20001220703</ele>
        <time>2022-01-02T10:08:43.059Z</time>
      </trkpt>
      <trkpt lat="44.03375" lon="5.92595">
        <ele>814</ele>
        <time>2022-01-02T10:08:49.011Z</time>
      </trkpt>
      <trkpt lat="44.03367" lon="5.92599">
        <ele>812.40002441406</ele>
        <time>2022-01-02T10:08:54.966Z</time>
      </trkpt>
      <trkpt lat="44.03363" lon="5.92601">
        <ele>811.79998779297</ele>
        <time>2022-01-02T10:09:00.922Z</time>
      </trkpt>
      <trkpt lat="44.03359" lon="5.92602">
        <ele>811.20001220703</ele>
        <time>2022-01-02T10:09:06.879Z</time>
      </trkpt>
      <trkpt lat="44.03354" lon="5.92605">
        <ele>811</ele>
        <time>2022-01-02T10:09:12.837Z</time>
      </trkpt>
      <trkpt lat="44.0335" lon="5.9261">
        <ele>810.20001220703</ele>
        <time>2022-01-02T10:09:18.797Z</time>
      </trkpt>
      <trkpt lat="44.03345" lon="5.92614">
        <ele>809.79998779297</ele>
        <time>2022-01-02T10:09:24.759Z</time>
      </trkpt>
      <trkpt lat="44.03331" lon="5.92623">
        <ele>808.79998779297</ele>
        <time>2022-01-02T10:09:30.725Z</time>
      </trkpt>
      <trkpt lat="44.03327" lon="5.92624">
        <ele>808.40002441406</ele>
        <time>2022-01-02T10:09:36.692Z</time>
      </trkpt>
      <trkpt lat="44.03322" lon="5.92626">
        <ele>807.59997558594</ele>
        <time>2022-01-02T10:09:42.661Z</time>
      </trkpt>
      <trkpt lat="44.03325" lon="5.92628">
        <ele>806.79998779297</ele>
        <time>2022-01-02T10:09:48.630Z</time>
      </trkpt>
      <trkpt lat="44.03327" lon="5.9263">
        <ele>806.40002441406</ele>
        <time>2022-01-02T10:09:54.600Z</time>
      </trkpt>
      <trkpt lat="44.03335" lon="5.92632">
        <ele>805.20001220703</ele>
        <time>2022-01-02T10:10:00.572Z</time>
      </trkpt>
      <trkpt lat="44.03339" lon="5.92632">
        <ele>805</ele>
        <time>2022-01-02T10:10:06.545Z</time>
      </trkpt>
      <trkpt lat="44.03346" lon="5.92634">
        <ele>804.20001220703</ele>
        <time>2022-01-02T10:10:12.520Z</time>
      </trkpt>
      <trkpt lat="44.03349" lon="5.92637">
        <ele>803.59997558594</ele>
        <time>2022-01-02T10:10:18.496Z</time>
      </trkpt>
      <trkpt lat="44.03352" lon="5.92638">
        <ele>803.20001220703</ele>
        <time>2022-01-02T10:10:24.473Z</time>
      </trkpt>
      <trkpt lat="44.03362" lon="5.92642">
        <ele>802</ele>
        <time>2022-01-02T10:10:30.453Z</time>
      </trkpt>
      <trkpt lat="44.0337" lon="5.92649">
        <ele>801.20001220703</ele>
        <time>2022-01-02T10:10:36.436Z</time>
      </trkpt>
      <trkpt lat="44.03372" lon="5.92654">
        <ele>800.79998779297</ele>
        <time>2022-01-02T10:10:42.420Z</time>
      </trkpt>
      <trkpt lat="44.03371" lon="5.92666">
        <ele>799.59997558594</ele>
        <time>2022-01-02T10:10:48.406Z</time>
      </trkpt>
      <trkpt lat="44.03369" lon="5.92671">
        <ele>798.59997558594</ele>
        <time>2022-01-02T10:10:54.394Z</time>
      </trkpt>
      <trkpt lat="44.03367" lon="5.92673">
        <ele>798</ele>
        <time>2022-01-02T10:11:00.382Z</time>
      </trkpt>
      <trkpt lat="44.03366" lon="5.92675">
        <ele>797</ele>
        <time>2022-01-02T10:11:06.371Z</time>
      </trkpt>
      <trkpt lat="44.03363" lon="5.92678">
        <ele>796.40002441406</ele>
        <time>2022-01-02T10:11:12.361Z</time>
      </trkpt>
      <trkpt lat="44.03359" lon="5.92682">
        <ele>795.79998779297</ele>
        <time>2022-01-02T10:11:18.352Z</time>
      </trkpt>
      <trkpt lat="44.03355" lon="5.92684">
        <ele>795.20001220703</ele>
        <time>2022-01-02T10:11:24.344Z</time>
      </trkpt>
      <trkpt lat="44.03349" lon="5.92688">
        <ele>794.40002441406</ele>
        <time>2022-01-02T10:11:30.338Z</time>
      </trkpt>
      <trkpt lat="44.03346" lon="5.92688">
        <ele>794.20001220703</ele>
        <time>2022-01-02T10:11:36.333Z</time>
      </trkpt>
      <trkpt lat="44.03344" lon="5.92689">
        <ele>793.59997558594</ele>
        <time>2022-01-02T10:11:42.329Z</time>
      </trkpt>
      <trkpt lat="44.03336" lon="5.92691">
        <ele>793</ele>
        <time>2022-01-02T10:11:48.327Z</time>
      </trkpt>
      <trkpt lat="44.03334" lon="5.92698">
        <ele>792.79998779297</ele>
        <time>2022-01-02T10:11:54.327Z</time>
      </trkpt>
      <trkpt lat="44.03329" lon="5.927">
        <ele>792.40002441406</ele>
        <time>2022-01-02T10:12:00.328Z</time>
      </trkpt>
      <trkpt lat="44.03323" lon="5.92701">
        <ele>792</ele>
        <time>2022-01-02T10:12:06.331Z</time>
      </trkpt>
      <trkpt lat="44.03313" lon="5.92702">
        <ele>791.59997558594</ele>
        <time>2022-01-02T10:12:12.337Z</time>
      </trkpt>
      <trkpt lat="44.033" lon="5.92706">
        <ele>790.79998779297</ele>
        <time>2022-01-02T10:12:18.346Z</time>
      </trkpt>
      <trkpt lat="44.03295" lon="5.92707">
        <ele>790.59997558594</ele>
        <time>2022-01-02T10:12:24.357Z</time>
      </trkpt>
      <trkpt lat="44.03286" lon="5.9271">
        <ele>790</ele>
        <time>2022-01-02T10:12:30.371Z</time>
      </trkpt>
      <trkpt lat="44.0328" lon="5.92713">
        <ele>789.40002441406</ele>
        <time>2022-01-02T10:12:36.386Z</time>
      </trkpt>
      <trkpt lat="44.03275" lon="5.92715">
        <ele>789</ele>
        <time>2022-01-02T10:12:42.403Z</time>
      </trkpt>
      <trkpt lat="44.03271" lon="5.92717">
        <ele>788.59997558594</ele>
        <time>2022-01-02T10:12:48.421Z</time>
      </trkpt>
      <trkpt lat="44.03261" lon="5.92719">
        <ele>787.40002441406</ele>
        <time>2022-01-02T10:12:54.442Z</time>
      </trkpt>
      <trkpt lat="44.03253" lon="5.92719">
        <ele>786.40002441406</ele>
        <time>2022-01-02T10:13:00.465Z</time>
      </trkpt>
      <trkpt lat="44.03244" lon="5.92718">
        <ele>785.79998779297</ele>
        <time>2022-01-02T10:13:06.490Z</time>
      </trkpt>
      <trkpt lat="44.03239" lon="5.92719">
        <ele>785.40002441406</ele>
        <time>2022-01-02T10:13:12.517Z</time>
      </trkpt>
      <trkpt lat="44.0323" lon="5.92717">
        <ele>784.40002441406</ele>
        <time>2022-01-02T10:13:18.546Z</time>
      </trkpt>
      <trkpt lat="44.03225" lon="5.92715">
        <ele>784</ele>
        <time>2022-01-02T10:13:24.577Z</time>
      </trkpt>
      <trkpt lat="44.03221" lon="5.92712">
        <ele>783.79998779297</ele>
        <time>2022-01-02T10:13:30.609Z</time>
      </trkpt>
      <trkpt lat="44.03216" lon="5.9271">
        <ele>783.59997558594</ele>
        <time>2022-01-02T10:13:36.643Z</time>
      </trkpt>
      <trkpt lat="44.03204" lon="5.92713">
        <ele>783</ele>
        <time>2022-01-02T10:13:42.680Z</time>
      </trkpt>
      <trkpt lat="44.032" lon="5.92718">
        <ele>782</ele>
        <time>2022-01-02T10:13:48.719Z</time>
      </trkpt>
      <trkpt lat="44.032" lon="5.92724">
        <ele>781.20001220703</ele>
        <time>2022-01-02T10:13:54.759Z</time>
      </trkpt>
      <trkpt lat="44.03202" lon="5.92733">
        <ele>779.59997558594</ele>
        <time>2022-01-02T10:14:00.801Z</time>
      </trkpt>
      <trkpt lat="44.032" lon="5.92744">
        <ele>778.79998779297</ele>
        <time>2022-01-02T10:14:06.845Z</time>
      </trkpt>
      <trkpt lat="44.03197" lon="5.92749">
        <ele>778</ele>
        <time>2022-01-02T10:14:12.890Z</time>
      </trkpt>
      <trkpt lat="44.03193" lon="5.92757">
        <ele>777</ele>
        <time>2022-01-02T10:14:18.937Z</time>
      </trkpt>
      <trkpt lat="44.03189" lon="5.92763">
        <ele>776.40002441406</ele>
        <time>2022-01-02T10:14:24.986Z</time>
      </trkpt>
      <trkpt lat="44.03176" lon="5.92772">
        <ele>775.20001220703</ele>
        <time>2022-01-02T10:14:31.039Z</time>
      </trkpt>
      <trkpt lat="44.03166" lon="5.92778">
        <ele>774.20001220703</ele>
        <time>2022-01-02T10:14:37.095Z</time>
      </trkpt>
      <trkpt lat="44.03163" lon="5.92782">
        <ele>773.79998779297</ele>
        <time>2022-01-02T10:14:43.152Z</time>
      </trkpt>
      <trkpt lat="44.0316" lon="5.92788">
        <ele>773.20001220703</ele>
        <time>2022-01-02T10:14:49.211Z</time>
      </trkpt>
      <trkpt lat="44.03157" lon="5.92793">
        <ele>772.59997558594</ele>
        <time>2022-01-02T10:14:55.271Z</time>
      </trkpt>
      <trkpt lat="44.03155" lon="5.92797">
        <ele>771.59997558594</ele>
        <time>2022-01-02T10:15:01.332Z</time>
      </trkpt>
      <trkpt lat="44.03151" lon="5.92797">
        <ele>770.20001220703</ele>
        <time>2022-01-02T10:15:07.394Z</time>
      </trkpt>
      <trkpt lat="44.03144" lon="5.92805">
        <ele>768.59997558594</ele>
        <time>2022-01-02T10:15:13.459Z</time>
      </trkpt>
      <trkpt lat="44.03139" lon="5.92808">
        <ele>767.59997558594</ele>
        <time>2022-01-02T10:15:19.525Z</time>
      </trkpt>
      <trkpt lat="44.03133" lon="5.9281">
        <ele>766.40002441406</ele>
        <time>2022-01-02T10:15:25.593Z</time>
      </trkpt>
      <trkpt lat="44.03127" lon="5.92812">
        <ele>765.20001220703</ele>
        <time>2022-01-02T10:15:31.663Z</time>
      </trkpt>
      <trkpt lat="44.03121" lon="5.92815">
        <ele>764</ele>
        <time>2022-01-02T10:15:37.735Z</time>
      </trkpt>
      <trkpt lat="44.03115" lon="5.9282">
        <ele>763.40002441406</ele>
        <time>2022-01-02T10:15:43.809Z</time>
      </trkpt>
      <trkpt lat="44.0311" lon="5.92826">
        <ele>762.20001220703</ele>
        <time>2022-01-02T10:15:49.884Z</time>
      </trkpt>
      <trkpt lat="44.03105" lon="5.9283">
        <ele>761.20001220703</ele>
        <time>2022-01-02T10:15:55.961Z</time>
      </trkpt>
      <trkpt lat="44.031" lon="5.92833">
        <ele>760.40002441406</ele>
        <time>2022-01-02T10:16:02.040Z</time>
      </trkpt>
      <trkpt lat="44.03095" lon="5.92837">
        <ele>759.59997558594</ele>
        <time>2022-01-02T10:16:08.120Z</time>
      </trkpt>
      <trkpt lat="44.03091" lon="5.92841">
        <ele>758.79998779297</ele>
        <time>2022-01-02T10:16:14.202Z</time>
      </trkpt>
      <trkpt lat="44.0308" lon="5.92846">
        <ele>757.40002441406</ele>
        <time>2022-01-02T10:16:20.287Z</time>
      </trkpt>
      <trkpt lat="44.03077" lon="5.92848">
        <ele>756.59997558594</ele>
        <time>2022-01-02T10:16:26.373Z</time>
      </trkpt>
      <trkpt lat="44.03075" lon="5.9285">
        <ele>755.40002441406</ele>
        <time>2022-01-02T10:16:32.460Z</time>
      </trkpt>
      <trkpt lat="44.03068" lon="5.92858">
        <ele>754.20001220703</ele>
        <time>2022-01-02T10:16:38.549Z</time>
      </trkpt>
      <trkpt lat="44.03064" lon="5.92861">
        <ele>753.59997558594</ele>
        <time>2022-01-02T10:16:44.639Z</time>
      </trkpt>
      <trkpt lat="44.0306" lon="5.92867">
        <ele>752.59997558594</ele>
        <time>2022-01-02T10:16:50.731Z</time>
      </trkpt>
      <trkpt lat="44.03054" lon="5.92872">
        <ele>751</ele>
        <time>2022-01-02T10:16:56.825Z</time>
      </trkpt>
      <trkpt lat="44.03052" lon="5.92875">
        <ele>749.79998779297</ele>
        <time>2022-01-02T10:17:02.920Z</time>
      </trkpt>
      <trkpt lat="44.03052" lon="5.92877">
        <ele>748</ele>
        <time>2022-01-02T10:17:09.015Z</time>
      </trkpt>
      <trkpt lat="44.03053" lon="5.92884">
        <ele>746.79998779297</ele>
        <time>2022-01-02T10:17:15.112Z</time>
      </trkpt>
      <trkpt lat="44.03059" lon="5.92894">
        <ele>744.79998779297</ele>
        <time>2022-01-02T10:17:21.211Z</time>
      </trkpt>
      <trkpt lat="44.03062" lon="5.92896">
        <ele>744.20001220703</ele>
        <time>2022-01-02T10:17:27.311Z</time>
      </trkpt>
      <trkpt lat="44.03064" lon="5.92898">
        <ele>743.79998779297</ele>
        <time>2022-01-02T10:17:33.412Z</time>
      </trkpt>
      <trkpt lat="44.03065" lon="5.92901">
        <ele>743.20001220703</ele>
        <time>2022-01-02T10:17:39.514Z</time>
      </trkpt>
      <trkpt lat="44.03064" lon="5.92904">
        <ele>743</ele>
        <time>2022-01-02T10:17:45.616Z</time>
      </trkpt>
      <trkpt lat="44.03062" lon="5.92906">
        <ele>742.40002441406</ele>
        <time>2022-01-02T10:17:51.719Z</time>
      </trkpt>
      <trkpt lat="44.0306" lon="5.92907">
        <ele>741.20001220703</ele>
        <time>2022-01-02T10:17:57.823Z</time>
      </trkpt>
      <trkpt lat="44.03056" lon="5.92907">
        <ele>740.40002441406</ele>
        <time>2022-01-02T10:18:03.928Z</time>
      </trkpt>
      <trkpt lat="44.0305" lon="5.92906">
        <ele>739.40002441406</ele>
        <time>2022-01-02T10:18:10.034Z</time>
      </trkpt>
      <trkpt lat="44.03043" lon="5.92908">
        <ele>738.40002441406</ele>
        <time>2022-01-02T10:18:16.142Z</time>
      </trkpt>
      <trkpt lat="44.03037" lon="5.92912">
        <ele>737.59997558594</ele>
        <time>2022-01-02T10:18:22.252Z</time>
      </trkpt>
      <trkpt lat="44.03031" lon="5.92916">
        <ele>736.20001220703</ele>
        <time>2022-01-02T10:18:28.364Z</time>
      </trkpt>
      <trkpt lat="44.03025" lon="5.92921">
        <ele>734.40002441406</ele>
        <time>2022-01-02T10:18:34.478Z</time>
      </trkpt>
      <trkpt lat="44.03018" lon="5.92924">
        <ele>732.40002441406</ele>
        <time>2022-01-02T10:18:40.594Z</time>
      </trkpt>
      <trkpt lat="44.03011" lon="5.92927">
        <ele>731.20001220703</ele>
        <time>2022-01-02T10:18:46.712Z</time>
      </trkpt>
      <trkpt lat="44.03008" lon="5.92932">
        <ele>730</ele>
        <time>2022-01-02T10:18:52.831Z</time>
      </trkpt>
      <trkpt lat="44.03006" lon="5.92933">
        <ele>728.59997558594</ele>
        <time>2022-01-02T10:18:58.951Z</time>
      </trkpt>
      <trkpt lat="44.03006" lon="5.92936">
        <ele>727.59997558594</ele>
        <time>2022-01-02T10:19:05.072Z</time>
      </trkpt>
      <trkpt lat="44.03009" lon="5.92941">
        <ele>725.79998779297</ele>
        <time>2022-01-02T10:19:11.194Z</time>
      </trkpt>
      <trkpt lat="44.03009" lon="5.92943">
        <ele>725.20001220703</ele>
        <time>2022-01-02T10:19:17.316Z</time>
      </trkpt>
      <trkpt lat="44.03008" lon="5.92946">
        <ele>724.59997558594</ele>
        <time>2022-01-02T10:19:23.439Z</time>
      </trkpt>
      <trkpt lat="44.03004" lon="5.92946">
        <ele>724.20001220703</ele>
        <time>2022-01-02T10:19:29.563Z</time>
      </trkpt>
      <trkpt lat="44.02999" lon="5.92947">
        <ele>723.59997558594</ele>
        <time>2022-01-02T10:19:35.688Z</time>
      </trkpt>
      <trkpt lat="44.02991" lon="5.9295">
        <ele>722</ele>
        <time>2022-01-02T10:19:41.816Z</time>
      </trkpt>
      <trkpt lat="44.02987" lon="5.92951">
        <ele>721.20001220703</ele>
        <time>2022-01-02T10:19:47.945Z</time>
      </trkpt>
      <trkpt lat="44.02983" lon="5.92953">
        <ele>719.40002441406</ele>
        <time>2022-01-02T10:19:54.075Z</time>
      </trkpt>
      <trkpt lat="44.0298" lon="5.92958">
        <ele>718.20001220703</ele>
        <time>2022-01-02T10:20:00.206Z</time>
      </trkpt>
      <trkpt lat="44.02978" lon="5.92963">
        <ele>716.79998779297</ele>
        <time>2022-01-02T10:20:06.339Z</time>
      </trkpt>
      <trkpt lat="44.02975" lon="5.92969">
        <ele>715.59997558594</ele>
        <time>2022-01-02T10:20:12.473Z</time>
      </trkpt>
      <trkpt lat="44.02969" lon="5.92982">
        <ele>714</ele>
        <time>2022-01-02T10:20:18.610Z</time>
      </trkpt>
      <trkpt lat="44.02966" lon="5.92986">
        <ele>713.20001220703</ele>
        <time>2022-01-02T10:20:24.748Z</time>
      </trkpt>
      <trkpt lat="44.02962" lon="5.92989">
        <ele>712.59997558594</ele>
        <time>2022-01-02T10:20:30.888Z</time>
      </trkpt>
      <trkpt lat="44.02951" lon="5.92993">
        <ele>711.79998779297</ele>
        <time>2022-01-02T10:20:37.031Z</time>
      </trkpt>
      <trkpt lat="44.02946" lon="5.92992">
        <ele>711.20001220703</ele>
        <time>2022-01-02T10:20:43.175Z</time>
      </trkpt>
      <trkpt lat="44.02938" lon="5.92994">
        <ele>710.40002441406</ele>
        <time>2022-01-02T10:20:49.321Z</time>
      </trkpt>
      <trkpt lat="44.02935" lon="5.92995">
        <ele>709.20001220703</ele>
        <time>2022-01-02T10:20:55.468Z</time>
      </trkpt>
      <trkpt lat="44.0293" lon="5.92991">
        <ele>707.40002441406</ele>
        <time>2022-01-02T10:21:01.617Z</time>
      </trkpt>
      <trkpt lat="44.02926" lon="5.92986">
        <ele>706</ele>
        <time>2022-01-02T10:21:07.768Z</time>
      </trkpt>
      <trkpt lat="44.0292" lon="5.92979">
        <ele>705</ele>
        <time>2022-01-02T10:21:13.921Z</time>
      </trkpt>
      <trkpt lat="44.02917" lon="5.92979">
        <ele>704.59997558594</ele>
        <time>2022-01-02T10:21:20.075Z</time>
      </trkpt>
      <trkpt lat="44.02915" lon="5.9298">
        <ele>704.40002441406</ele>
        <time>2022-01-02T10:21:26.229Z</time>
      </trkpt>
      <trkpt lat="44.02914" lon="5.92983">
        <ele>704</ele>
        <time>2022-01-02T10:21:32.384Z</time>
      </trkpt>
      <trkpt lat="44.02912" lon="5.92989">
        <ele>703.79998779297</ele>
        <time>2022-01-02T10:21:38.540Z</time>
      </trkpt>
      <trkpt lat="44.02913" lon="5.92992">
        <ele>703.59997558594</ele>
        <time>2022-01-02T10:21:44.697Z</time>
      </trkpt>
      <trkpt lat="44.02914" lon="5.92998">
        <ele>702.59997558594</ele>
        <time>2022-01-02T10:21:50.855Z</time>
      </trkpt>
      <trkpt lat="44.02915" lon="5.93003">
        <ele>701.79998779297</ele>
        <time>2022-01-02T10:21:57.014Z</time>
      </trkpt>
      <trkpt lat="44.02916" lon="5.93006">
        <ele>701.40002441406</ele>
        <time>2022-01-02T10:22:03.174Z</time>
      </trkpt>
      <trkpt lat="44.02919" lon="5.93011">
        <ele>700.20001220703</ele>
        <time>2022-01-02T10:22:09.335Z</time>
      </trkpt>
      <trkpt lat="44.02921" lon="5.93015">
        <ele>699.79998779297</ele>
        <time>2022-01-02T10:22:15.497Z</time>
      </trkpt>
      <trkpt lat="44.02925" lon="5.93019">
        <ele>699.20001220703</ele>
        <time>2022-01-02T10:22:21.660Z</time>
      </trkpt>
      <trkpt lat="44.02933" lon="5.93029">
        <ele>697.20001220703</ele>
        <time>2022-01-02T10:22:27.826Z</time>
      </trkpt>
      <trkpt lat="44.02937" lon="5.93035">
        <ele>696.59997558594</ele>
        <time>2022-01-02T10:22:33.994Z</time>
      </trkpt>
      <trkpt lat="44.02942" lon="5.93041">
        <ele>695.79998779297</ele>
        <time>2022-01-02T10:22:40.164Z</time>
      </trkpt>
      <trkpt lat="44.02952" lon="5.93051">
        <ele>694.40002441406</ele>
        <time>2022-01-02T10:22:46.337Z</time>
      </trkpt>
      <trkpt lat="44.02963" lon="5.9306">
        <ele>693</ele>
        <time>2022-01-02T10:22:52.514Z</time>
      </trkpt>
      <trkpt lat="44.02975" lon="5.93069">
        <ele>692</ele>
        <time>2022-01-02T10:22:58.695Z</time>
      </trkpt>
      <trkpt lat="44.0299" lon="5.93075">
        <ele>691</ele>
        <time>2022-01-02T10:23:04.880Z</time>
      </trkpt>
      <trkpt lat="44.02998" lon="5.93077">
        <ele>690.40002441406</ele>
        <time>2022-01-02T10:23:11.068Z</time>
      </trkpt>
      <trkpt lat="44.03013" lon="5.9308">
        <ele>688.79998779297</ele>
        <time>2022-01-02T10:23:17.260Z</time>
      </trkpt>
      <trkpt lat="44.0302" lon="5.93084">
        <ele>687.40002441406</ele>
        <time>2022-01-02T10:23:23.454Z</time>
      </trkpt>
      <trkpt lat="44.03027" lon="5.93088">
        <ele>686</ele>
        <time>2022-01-02T10:23:29.650Z</time>
      </trkpt>
      <trkpt lat="44.03032" lon="5.93095">
        <ele>684.79998779297</ele>
        <time>2022-01-02T10:23:35.848Z</time>
      </trkpt>
      <trkpt lat="44.03037" lon="5.93103">
        <ele>683.59997558594</ele>
        <time>2022-01-02T10:23:42.048Z</time>
      </trkpt>
      <trkpt lat="44.03042" lon="5.9311">
        <ele>682.40002441406</ele>
        <time>2022-01-02T10:23:48.250Z</time>
      </trkpt>
      <trkpt lat="44.03047" lon="5.93118">
        <ele>681.20001220703</ele>
        <time>2022-01-02T10:23:54.454Z</time>
      </trkpt>
      <trkpt lat="44.03051" lon="5.93127">
        <ele>679.59997558594</ele>
        <time>2022-01-02T10:24:00.660Z</time>
      </trkpt>
      <trkpt lat="44.03053" lon="5.93136">
        <ele>678.59997558594</ele>
        <time>2022-01-02T10:24:06.868Z</time>
      </trkpt>
      <trkpt lat="44.03054" lon="5.93145">
        <ele>677.20001220703</ele>
        <time>2022-01-02T10:24:13.078Z</time>
      </trkpt>
      <trkpt lat="44.03055" lon="5.93153">
        <ele>675.59997558594</ele>
        <time>2022-01-02T10:24:19.290Z</time>
      </trkpt>
      <trkpt lat="44.03056" lon="5.93163">
        <ele>674.20001220703</ele>
        <time>2022-01-02T10:24:25.504Z</time>
      </trkpt>
      <trkpt lat="44.03058" lon="5.93172">
        <ele>673</ele>
        <time>2022-01-02T10:24:31.720Z</time>
      </trkpt>
      <trkpt lat="44.03061" lon="5.9318">
        <ele>672</ele>
        <time>2022-01-02T10:24:37.938Z</time>
      </trkpt>
      <trkpt lat="44.03066" lon="5.93188">
        <ele>671.40002441406</ele>
        <time>2022-01-02T10:24:44.158Z</time>
      </trkpt>
      <trkpt lat="44.0307" lon="5.93195">
        <ele>670.79998779297</ele>
        <time>2022-01-02T10:24:50.380Z</time>
      </trkpt>
      <trkpt lat="44.03079" lon="5.93209">
        <ele>669.40002441406</ele>
        <time>2022-01-02T10:24:56.606Z</time>
      </trkpt>
      <trkpt lat="44.03084" lon="5.93215">
        <ele>669</ele>
        <time>2022-01-02T10:25:02.833Z</time>
      </trkpt>
      <trkpt lat="44.0309" lon="5.93221">
        <ele>668.40002441406</ele>
        <time>2022-01-02T10:25:09.062Z</time>
      </trkpt>
      <trkpt lat="44.03095" lon="5.93225">
        <ele>668.20001220703</ele>
        <time>2022-01-02T10:25:15.293Z</time>
      </trkpt>
      <trkpt lat="44.031" lon="5.93229">
        <ele>668.20001220703</ele>
        <time>2022-01-02T10:25:21.526Z</time>
      </trkpt>
      <trkpt lat="44.03111" lon="5.93236">
        <ele>668.20001220703</ele>
        <time>2022-01-02T10:25:27.762Z</time>
      </trkpt>
      <trkpt lat="44.03147" lon="5.9325">
        <ele>669.40002441406</ele>
        <time>2022-01-02T10:25:34.009Z</time>
      </trkpt>
      <trkpt lat="44.03174" lon="5.93258">
        <ele>670.79998779297</ele>
        <time>2022-01-02T10:25:40.263Z</time>
      </trkpt>
      <trkpt lat="44.03184" lon="5.9326">
        <ele>671.20001220703</ele>
        <time>2022-01-02T10:25:46.520Z</time>
      </trkpt>
      <trkpt lat="44.03188" lon="5.93261">
        <ele>671.59997558594</ele>
        <time>2022-01-02T10:25:52.778Z</time>
      </trkpt>
      <trkpt lat="44.03192" lon="5.93261">
        <ele>671.79998779297</ele>
        <time>2022-01-02T10:25:59.037Z</time>
      </trkpt>
      <trkpt lat="44.03205" lon="5.93261">
        <ele>672.79998779297</ele>
        <time>2022-01-02T10:26:05.300Z</time>
      </trkpt>
      <trkpt lat="44.0321" lon="5.93261">
        <ele>673</ele>
        <time>2022-01-02T10:26:11.565Z</time>
      </trkpt>
      <trkpt lat="44.03223" lon="5.93268">
        <ele>674.20001220703</ele>
        <time>2022-01-02T10:26:17.833Z</time>
      </trkpt>
      <trkpt lat="44.03226" lon="5.9327">
        <ele>674.59997558594</ele>
        <time>2022-01-02T10:26:24.102Z</time>
      </trkpt>
      <trkpt lat="44.03229" lon="5.93272">
        <ele>675.40002441406</ele>
        <time>2022-01-02T10:26:30.372Z</time>
      </trkpt>
      <trkpt lat="44.03237" lon="5.93276">
        <ele>676.20001220703</ele>
        <time>2022-01-02T10:26:36.645Z</time>
      </trkpt>
      <trkpt lat="44.03242" lon="5.93277">
        <ele>676.79998779297</ele>
        <time>2022-01-02T10:26:42.919Z</time>
      </trkpt>
      <trkpt lat="44.03246" lon="5.93277">
        <ele>677.20001220703</ele>
        <time>2022-01-02T10:26:49.194Z</time>
      </trkpt>
      <trkpt lat="44.03252" lon="5.93275">
        <ele>677.79998779297</ele>
        <time>2022-01-02T10:26:55.471Z</time>
      </trkpt>
      <trkpt lat="44.03257" lon="5.9327">
        <ele>678.20001220703</ele>
        <time>2022-01-02T10:27:01.750Z</time>
      </trkpt>
      <trkpt lat="44.0326" lon="5.93269">
        <ele>678.59997558594</ele>
        <time>2022-01-02T10:27:08.030Z</time>
      </trkpt>
      <trkpt lat="44.03263" lon="5.93269">
        <ele>678.79998779297</ele>
        <time>2022-01-02T10:27:14.311Z</time>
      </trkpt>
      <trkpt lat="44.03264" lon="5.93272">
        <ele>679</ele>
        <time>2022-01-02T10:27:20.592Z</time>
      </trkpt>
      <trkpt lat="44.03265" lon="5.93279">
        <ele>678.79998779297</ele>
        <time>2022-01-02T10:27:26.875Z</time>
      </trkpt>
      <trkpt lat="44.03264" lon="5.93282">
        <ele>678.40002441406</ele>
        <time>2022-01-02T10:27:33.158Z</time>
      </trkpt>
      <trkpt lat="44.03262" lon="5.93284">
        <ele>678</ele>
        <time>2022-01-02T10:27:39.442Z</time>
      </trkpt>
      <trkpt lat="44.0326" lon="5.93287">
        <ele>677</ele>
        <time>2022-01-02T10:27:45.727Z</time>
      </trkpt>
      <trkpt lat="44.03256" lon="5.9329">
        <ele>676.40002441406</ele>
        <time>2022-01-02T10:27:52.013Z</time>
      </trkpt>
      <trkpt lat="44.03252" lon="5.93293">
        <ele>675.59997558594</ele>
        <time>2022-01-02T10:27:58.300Z</time>
      </trkpt>
      <trkpt lat="44.03249" lon="5.93296">
        <ele>675</ele>
        <time>2022-01-02T10:28:04.588Z</time>
      </trkpt>
      <trkpt lat="44.03246" lon="5.93299">
        <ele>674.20001220703</ele>
        <time>2022-01-02T10:28:10.877Z</time>
      </trkpt>
      <trkpt lat="44.03239" lon="5.93303">
        <ele>673.20001220703</ele>
        <time>2022-01-02T10:28:17.169Z</time>
      </trkpt>
      <trkpt lat="44.03235" lon="5.93304">
        <ele>672.40002441406</ele>
        <time>2022-01-02T10:28:23.462Z</time>
      </trkpt>
      <trkpt lat="44.03231" lon="5.93305">
        <ele>670.79998779297</ele>
        <time>2022-01-02T10:28:29.756Z</time>
      </trkpt>
      <trkpt lat="44.03226" lon="5.93307">
        <ele>669.59997558594</ele>
        <time>2022-01-02T10:28:36.051Z</time>
      </trkpt>
      <trkpt lat="44.03218" lon="5.9331">
        <ele>667.79998779297</ele>
        <time>2022-01-02T10:28:42.349Z</time>
      </trkpt>
      <trkpt lat="44.03215" lon="5.93313">
        <ele>666.79998779297</ele>
        <time>2022-01-02T10:28:48.648Z</time>
      </trkpt>
      <trkpt lat="44.03214" lon="5.93317">
        <ele>665.59997558594</ele>
        <time>2022-01-02T10:28:54.947Z</time>
      </trkpt>
      <trkpt lat="44.03212" lon="5.93321">
        <ele>664.79998779297</ele>
        <time>2022-01-02T10:29:01.247Z</time>
      </trkpt>
      <trkpt lat="44.03209" lon="5.93326">
        <ele>663.40002441406</ele>
        <time>2022-01-02T10:29:07.549Z</time>
      </trkpt>
      <trkpt lat="44.03206" lon="5.93333">
        <ele>661.79998779297</ele>
        <time>2022-01-02T10:29:13.852Z</time>
      </trkpt>
      <trkpt lat="44.032" lon="5.93348">
        <ele>660.20001220703</ele>
        <time>2022-01-02T10:29:20.159Z</time>
      </trkpt>
      <trkpt lat="44.03197" lon="5.93355">
        <ele>659.20001220703</ele>
        <time>2022-01-02T10:29:26.468Z</time>
      </trkpt>
      <trkpt lat="44.0319" lon="5.93368">
        <ele>657.59997558594</ele>
        <time>2022-01-02T10:29:32.780Z</time>
      </trkpt>
      <trkpt lat="44.03185" lon="5.93375">
        <ele>656.79998779297</ele>
        <time>2022-01-02T10:29:39.094Z</time>
      </trkpt>
      <trkpt lat="44.03181" lon="5.93383">
        <ele>656</ele>
        <time>2022-01-02T10:29:45.410Z</time>
      </trkpt>
      <trkpt lat="44.03177" lon="5.93392">
        <ele>654</ele>
        <time>2022-01-02T10:29:51.728Z</time>
      </trkpt>
      <trkpt lat="44.03173" lon="5.93401">
        <ele>652.59997558594</ele>
        <time>2022-01-02T10:29:58.048Z</time>
      </trkpt>
      <trkpt lat="44.03169" lon="5.93409">
        <ele>651.20001220703</ele>
        <time>2022-01-02T10:30:04.370Z</time>
      </trkpt>
      <trkpt lat="44.03165" lon="5.93417">
        <ele>650</ele>
        <time>2022-01-02T10:30:10.694Z</time>
      </trkpt>
      <trkpt lat="44.03157" lon="5.93432">
        <ele>648.20001220703</ele>
        <time>2022-01-02T10:30:17.022Z</time>
      </trkpt>
      <trkpt lat="44.03153" lon="5.9344">
        <ele>647.20001220703</ele>
        <time>2022-01-02T10:30:23.352Z</time>
      </trkpt>
      <trkpt lat="44.03149" lon="5.93447">
        <ele>646</ele>
        <time>2022-01-02T10:30:29.684Z</time>
      </trkpt>
      <trkpt lat="44.03145" lon="5.93455">
        <ele>644.79998779297</ele>
        <time>2022-01-02T10:30:36.018Z</time>
      </trkpt>
      <trkpt lat="44.03141" lon="5.93464">
        <ele>643.79998779297</ele>
        <time>2022-01-02T10:30:42.354Z</time>
      </trkpt>
      <trkpt lat="44.03133" lon="5.93483">
        <ele>642</ele>
        <time>2022-01-02T10:30:48.694Z</time>
      </trkpt>
      <trkpt lat="44.03129" lon="5.93493">
        <ele>641</ele>
        <time>2022-01-02T10:30:55.036Z</time>
      </trkpt>
      <trkpt lat="44.03125" lon="5.93502">
        <ele>639.40002441406</ele>
        <time>2022-01-02T10:31:01.381Z</time>
      </trkpt>
      <trkpt lat="44.03117" lon="5.93522">
        <ele>637.79998779297</ele>
        <time>2022-01-02T10:31:07.730Z</time>
      </trkpt>
      <trkpt lat="44.03112" lon="5.93531">
        <ele>636.20001220703</ele>
        <time>2022-01-02T10:31:14.082Z</time>
      </trkpt>
      <trkpt lat="44.03108" lon="5.9354">
        <ele>635</ele>
        <time>2022-01-02T10:31:20.436Z</time>
      </trkpt>
      <trkpt lat="44.03104" lon="5.93549">
        <ele>633.79998779297</ele>
        <time>2022-01-02T10:31:26.792Z</time>
      </trkpt>
      <trkpt lat="44.031" lon="5.93557">
        <ele>632.59997558594</ele>
        <time>2022-01-02T10:31:33.150Z</time>
      </trkpt>
      <trkpt lat="44.03096" lon="5.93565">
        <ele>631.40002441406</ele>
        <time>2022-01-02T10:31:39.510Z</time>
      </trkpt>
      <trkpt lat="44.03088" lon="5.93582">
        <ele>629.59997558594</ele>
        <time>2022-01-02T10:31:45.874Z</time>
      </trkpt>
      <trkpt lat="44.03085" lon="5.93593">
        <ele>628.40002441406</ele>
        <time>2022-01-02T10:31:52.240Z</time>
      </trkpt>
      <trkpt lat="44.03083" lon="5.93604">
        <ele>626.40002441406</ele>
        <time>2022-01-02T10:31:58.609Z</time>
      </trkpt>
      <trkpt lat="44.0308" lon="5.93615">
        <ele>625</ele>
        <time>2022-01-02T10:32:04.980Z</time>
      </trkpt>
      <trkpt lat="44.03077" lon="5.93626">
        <ele>623.79998779297</ele>
        <time>2022-01-02T10:32:11.353Z</time>
      </trkpt>
      <trkpt lat="44.03074" lon="5.93637">
        <ele>622.79998779297</ele>
        <time>2022-01-02T10:32:17.729Z</time>
      </trkpt>
      <trkpt lat="44.03067" lon="5.93659">
        <ele>621.20001220703</ele>
        <time>2022-01-02T10:32:24.110Z</time>
      </trkpt>
      <trkpt lat="44.0306" lon="5.9368">
        <ele>619.79998779297</ele>
        <time>2022-01-02T10:32:30.495Z</time>
      </trkpt>
      <trkpt lat="44.03056" lon="5.93691">
        <ele>619.20001220703</ele>
        <time>2022-01-02T10:32:36.883Z</time>
      </trkpt>
      <trkpt lat="44.03052" lon="5.93702">
        <ele>618.40002441406</ele>
        <time>2022-01-02T10:32:43.273Z</time>
      </trkpt>
      <trkpt lat="44.03046" lon="5.93722">
        <ele>616.79998779297</ele>
        <time>2022-01-02T10:32:49.668Z</time>
      </trkpt>
      <trkpt lat="44.03042" lon="5.93729">
        <ele>616.20001220703</ele>
        <time>2022-01-02T10:32:56.065Z</time>
      </trkpt>
      <trkpt lat="44.03031" lon="5.9374">
        <ele>615.59997558594</ele>
        <time>2022-01-02T10:33:02.465Z</time>
      </trkpt>
      <trkpt lat="44.03025" lon="5.93743">
        <ele>615.40002441406</ele>
        <time>2022-01-02T10:33:08.867Z</time>
      </trkpt>
      <trkpt lat="44.03018" lon="5.93746">
        <ele>614.79998779297</ele>
        <time>2022-01-02T10:33:15.271Z</time>
      </trkpt>
      <trkpt lat="44.03011" lon="5.9375">
        <ele>614.20001220703</ele>
        <time>2022-01-02T10:33:21.677Z</time>
      </trkpt>
      <trkpt lat="44.02988" lon="5.93758">
        <ele>613</ele>
        <time>2022-01-02T10:33:28.090Z</time>
      </trkpt>
      <trkpt lat="44.02981" lon="5.93761">
        <ele>612.79998779297</ele>
        <time>2022-01-02T10:33:34.505Z</time>
      </trkpt>
      <trkpt lat="44.02944" lon="5.93784">
        <ele>612.79998779297</ele>
        <time>2022-01-02T10:33:40.931Z</time>
      </trkpt>
      <trkpt lat="44.02905" lon="5.93808">
        <ele>613</ele>
        <time>2022-01-02T10:33:47.369Z</time>
      </trkpt>
      <trkpt lat="44.029" lon="5.9381">
        <ele>613.20001220703</ele>
        <time>2022-01-02T10:33:53.809Z</time>
      </trkpt>
      <trkpt lat="44.02884" lon="5.93816">
        <ele>613.20001220703</ele>
        <time>2022-01-02T10:34:00.254Z</time>
      </trkpt>
      <trkpt lat="44.0288" lon="5.9382">
        <ele>613.20001220703</ele>
        <time>2022-01-02T10:34:06.700Z</time>
      </trkpt>
      <trkpt lat="44.02872" lon="5.93827">
        <ele>613.40002441406</ele>
        <time>2022-01-02T10:34:13.149Z</time>
      </trkpt>
      <trkpt lat="44.02869" lon="5.93839">
        <ele>613.40002441406</ele>
        <time>2022-01-02T10:34:19.600Z</time>
      </trkpt>
      <trkpt lat="44.02873" lon="5.93852">
        <ele>613.40002441406</ele>
        <time>2022-01-02T10:34:26.054Z</time>
      </trkpt>
      <trkpt lat="44.02875" lon="5.93854">
        <ele>613.40002441406</ele>
        <time>2022-01-02T10:34:32.509Z</time>
      </trkpt>
    </trkseg>
  </trk>
</gpx>